<?xml version="1.0" encoding="UTF-8" standalone="no" ?>
<gpx xmlns="http://www.topografix.com/GPX/1/1" xmlns:xsi="http://www.w3.org/2001/XMLSchema-instance" xsi:schemaLocation="http://www.topografix.com/GPX/1/1 http://www.topografix.com/GPX/1/1/gpx.xsd" version="1.1" creator="VisuGPX - https://www.visugpx.com">
  <metadata>
    <name>les cabanes en famille</name>
  </metadata>
  <trk>
    <name><![CDATA[les cabanes en famille]]></name>
    <trkseg>
      <trkpt lat="46.71708" lon="5.64938">
        <ele>506.2</ele>
        <time>2020-12-19T11:14:27Z</time>
      </trkpt>
      <trkpt lat="46.71709" lon="5.64941">
        <ele>506.2</ele>
        <time>2020-12-19T11:14:28Z</time>
      </trkpt>
      <trkpt lat="46.71709" lon="5.64943">
        <ele>506.4</ele>
        <time>2020-12-19T11:14:29Z</time>
      </trkpt>
      <trkpt lat="46.7171" lon="5.64946">
        <ele>506.4</ele>
        <time>2020-12-19T11:14:30Z</time>
      </trkpt>
      <trkpt lat="46.7171" lon="5.64949">
        <ele>506.4</ele>
        <time>2020-12-19T11:14:31Z</time>
      </trkpt>
      <trkpt lat="46.71711" lon="5.64952">
        <ele>506.4</ele>
        <time>2020-12-19T11:14:32Z</time>
      </trkpt>
      <trkpt lat="46.71712" lon="5.64954">
        <ele>503.8</ele>
        <time>2020-12-19T11:14:33Z</time>
      </trkpt>
      <trkpt lat="46.71712" lon="5.64957">
        <ele>502</ele>
        <time>2020-12-19T11:14:34Z</time>
      </trkpt>
      <trkpt lat="46.71713" lon="5.6496">
        <ele>500.6</ele>
        <time>2020-12-19T11:14:35Z</time>
      </trkpt>
      <trkpt lat="46.71714" lon="5.64963">
        <ele>499.4</ele>
        <time>2020-12-19T11:14:36Z</time>
      </trkpt>
      <trkpt lat="46.71715" lon="5.64966">
        <ele>498.6</ele>
        <time>2020-12-19T11:14:37Z</time>
      </trkpt>
      <trkpt lat="46.71716" lon="5.6497">
        <ele>498</ele>
        <time>2020-12-19T11:14:38Z</time>
      </trkpt>
      <trkpt lat="46.71716" lon="5.64973">
        <ele>497.6</ele>
        <time>2020-12-19T11:14:39Z</time>
      </trkpt>
      <trkpt lat="46.71717" lon="5.64977">
        <ele>497.2</ele>
        <time>2020-12-19T11:14:40Z</time>
      </trkpt>
      <trkpt lat="46.71717" lon="5.64981">
        <ele>497</ele>
        <time>2020-12-19T11:14:41Z</time>
      </trkpt>
      <trkpt lat="46.71718" lon="5.64985">
        <ele>497</ele>
        <time>2020-12-19T11:14:42Z</time>
      </trkpt>
      <trkpt lat="46.71719" lon="5.64989">
        <ele>496.6</ele>
        <time>2020-12-19T11:14:43Z</time>
      </trkpt>
      <trkpt lat="46.71719" lon="5.64993">
        <ele>496.6</ele>
        <time>2020-12-19T11:14:44Z</time>
      </trkpt>
      <trkpt lat="46.7172" lon="5.64997">
        <ele>496.2</ele>
        <time>2020-12-19T11:14:45Z</time>
      </trkpt>
      <trkpt lat="46.71721" lon="5.65001">
        <ele>496.2</ele>
        <time>2020-12-19T11:14:46Z</time>
      </trkpt>
      <trkpt lat="46.71722" lon="5.65005">
        <ele>496</ele>
        <time>2020-12-19T11:14:47Z</time>
      </trkpt>
      <trkpt lat="46.71724" lon="5.65009">
        <ele>496</ele>
        <time>2020-12-19T11:14:48Z</time>
      </trkpt>
      <trkpt lat="46.71725" lon="5.65013">
        <ele>495.8</ele>
        <time>2020-12-19T11:14:49Z</time>
      </trkpt>
      <trkpt lat="46.71726" lon="5.65017">
        <ele>495.8</ele>
        <time>2020-12-19T11:14:50Z</time>
      </trkpt>
      <trkpt lat="46.71728" lon="5.65021">
        <ele>495.6</ele>
        <time>2020-12-19T11:14:51Z</time>
      </trkpt>
      <trkpt lat="46.7173" lon="5.65025">
        <ele>495.6</ele>
        <time>2020-12-19T11:14:52Z</time>
      </trkpt>
      <trkpt lat="46.71731" lon="5.65028">
        <ele>495.6</ele>
        <time>2020-12-19T11:14:53Z</time>
      </trkpt>
      <trkpt lat="46.71733" lon="5.65032">
        <ele>495.2</ele>
        <time>2020-12-19T11:14:54Z</time>
      </trkpt>
      <trkpt lat="46.71735" lon="5.65036">
        <ele>495.2</ele>
        <time>2020-12-19T11:14:55Z</time>
      </trkpt>
      <trkpt lat="46.71737" lon="5.65039">
        <ele>495.2</ele>
        <time>2020-12-19T11:14:56Z</time>
      </trkpt>
      <trkpt lat="46.71739" lon="5.65043">
        <ele>495</ele>
        <time>2020-12-19T11:14:57Z</time>
      </trkpt>
      <trkpt lat="46.71742" lon="5.65047">
        <ele>495</ele>
        <time>2020-12-19T11:14:58Z</time>
      </trkpt>
      <trkpt lat="46.71744" lon="5.65051">
        <ele>495</ele>
        <time>2020-12-19T11:14:59Z</time>
      </trkpt>
      <trkpt lat="46.71747" lon="5.65055">
        <ele>494.8</ele>
        <time>2020-12-19T11:15:00Z</time>
      </trkpt>
      <trkpt lat="46.71749" lon="5.65058">
        <ele>494.8</ele>
        <time>2020-12-19T11:15:01Z</time>
      </trkpt>
      <trkpt lat="46.71752" lon="5.65062">
        <ele>494.8</ele>
        <time>2020-12-19T11:15:02Z</time>
      </trkpt>
      <trkpt lat="46.71755" lon="5.65065">
        <ele>494.6</ele>
        <time>2020-12-19T11:15:03Z</time>
      </trkpt>
      <trkpt lat="46.71758" lon="5.65068">
        <ele>494.6</ele>
        <time>2020-12-19T11:15:04Z</time>
      </trkpt>
      <trkpt lat="46.71761" lon="5.65072">
        <ele>494.6</ele>
        <time>2020-12-19T11:15:05Z</time>
      </trkpt>
      <trkpt lat="46.71763" lon="5.65075">
        <ele>494.6</ele>
        <time>2020-12-19T11:15:06Z</time>
      </trkpt>
      <trkpt lat="46.71766" lon="5.65079">
        <ele>494.6</ele>
        <time>2020-12-19T11:15:07Z</time>
      </trkpt>
      <trkpt lat="46.71768" lon="5.65082">
        <ele>494.6</ele>
        <time>2020-12-19T11:15:08Z</time>
      </trkpt>
      <trkpt lat="46.71769" lon="5.65086">
        <ele>494.6</ele>
        <time>2020-12-19T11:15:09Z</time>
      </trkpt>
      <trkpt lat="46.71771" lon="5.6509">
        <ele>494.6</ele>
        <time>2020-12-19T11:15:10Z</time>
      </trkpt>
      <trkpt lat="46.71772" lon="5.65094">
        <ele>494.6</ele>
        <time>2020-12-19T11:15:11Z</time>
      </trkpt>
      <trkpt lat="46.71773" lon="5.65098">
        <ele>494.6</ele>
        <time>2020-12-19T11:15:12Z</time>
      </trkpt>
      <trkpt lat="46.71774" lon="5.65102">
        <ele>494.6</ele>
        <time>2020-12-19T11:15:13Z</time>
      </trkpt>
      <trkpt lat="46.71774" lon="5.65105">
        <ele>494.6</ele>
        <time>2020-12-19T11:15:14Z</time>
      </trkpt>
      <trkpt lat="46.71775" lon="5.65108">
        <ele>494.6</ele>
        <time>2020-12-19T11:15:15Z</time>
      </trkpt>
      <trkpt lat="46.71775" lon="5.65112">
        <ele>494.6</ele>
        <time>2020-12-19T11:15:16Z</time>
      </trkpt>
      <trkpt lat="46.71776" lon="5.65115">
        <ele>494.6</ele>
        <time>2020-12-19T11:15:17Z</time>
      </trkpt>
      <trkpt lat="46.71776" lon="5.65118">
        <ele>494.6</ele>
        <time>2020-12-19T11:15:18Z</time>
      </trkpt>
      <trkpt lat="46.71776" lon="5.65121">
        <ele>494.6</ele>
        <time>2020-12-19T11:15:19Z</time>
      </trkpt>
      <trkpt lat="46.71776" lon="5.65125">
        <ele>494.6</ele>
        <time>2020-12-19T11:15:20Z</time>
      </trkpt>
      <trkpt lat="46.71777" lon="5.65127">
        <ele>494.6</ele>
        <time>2020-12-19T11:15:21Z</time>
      </trkpt>
      <trkpt lat="46.71777" lon="5.6513">
        <ele>494.6</ele>
        <time>2020-12-19T11:15:22Z</time>
      </trkpt>
      <trkpt lat="46.71777" lon="5.65133">
        <ele>494.6</ele>
        <time>2020-12-19T11:15:23Z</time>
      </trkpt>
      <trkpt lat="46.71778" lon="5.65136">
        <ele>494.8</ele>
        <time>2020-12-19T11:15:24Z</time>
      </trkpt>
      <trkpt lat="46.71778" lon="5.65139">
        <ele>494.8</ele>
        <time>2020-12-19T11:15:25Z</time>
      </trkpt>
      <trkpt lat="46.71778" lon="5.65142">
        <ele>494.8</ele>
        <time>2020-12-19T11:15:26Z</time>
      </trkpt>
      <trkpt lat="46.71778" lon="5.65145">
        <ele>495.2</ele>
        <time>2020-12-19T11:15:27Z</time>
      </trkpt>
      <trkpt lat="46.71778" lon="5.65148">
        <ele>495.2</ele>
        <time>2020-12-19T11:15:28Z</time>
      </trkpt>
      <trkpt lat="46.71778" lon="5.65151">
        <ele>495.2</ele>
        <time>2020-12-19T11:15:29Z</time>
      </trkpt>
      <trkpt lat="46.71778" lon="5.65154">
        <ele>495.4</ele>
        <time>2020-12-19T11:15:30Z</time>
      </trkpt>
      <trkpt lat="46.71778" lon="5.65156">
        <ele>495.4</ele>
        <time>2020-12-19T11:15:31Z</time>
      </trkpt>
      <trkpt lat="46.71778" lon="5.65159">
        <ele>495.4</ele>
        <time>2020-12-19T11:15:32Z</time>
      </trkpt>
      <trkpt lat="46.71778" lon="5.65162">
        <ele>495.4</ele>
        <time>2020-12-19T11:15:33Z</time>
      </trkpt>
      <trkpt lat="46.71778" lon="5.65165">
        <ele>495.4</ele>
        <time>2020-12-19T11:15:34Z</time>
      </trkpt>
      <trkpt lat="46.71778" lon="5.65168">
        <ele>495.4</ele>
        <time>2020-12-19T11:15:35Z</time>
      </trkpt>
      <trkpt lat="46.71778" lon="5.65171">
        <ele>495.4</ele>
        <time>2020-12-19T11:15:36Z</time>
      </trkpt>
      <trkpt lat="46.71778" lon="5.65174">
        <ele>495.4</ele>
        <time>2020-12-19T11:15:37Z</time>
      </trkpt>
      <trkpt lat="46.71778" lon="5.65177">
        <ele>495.4</ele>
        <time>2020-12-19T11:15:38Z</time>
      </trkpt>
      <trkpt lat="46.71778" lon="5.6518">
        <ele>495.8</ele>
        <time>2020-12-19T11:15:39Z</time>
      </trkpt>
      <trkpt lat="46.71778" lon="5.65184">
        <ele>495.8</ele>
        <time>2020-12-19T11:15:40Z</time>
      </trkpt>
      <trkpt lat="46.71777" lon="5.65187">
        <ele>495.8</ele>
        <time>2020-12-19T11:15:41Z</time>
      </trkpt>
      <trkpt lat="46.71777" lon="5.6519">
        <ele>496</ele>
        <time>2020-12-19T11:15:42Z</time>
      </trkpt>
      <trkpt lat="46.71777" lon="5.65193">
        <ele>496</ele>
        <time>2020-12-19T11:15:43Z</time>
      </trkpt>
      <trkpt lat="46.71776" lon="5.65197">
        <ele>496</ele>
        <time>2020-12-19T11:15:44Z</time>
      </trkpt>
      <trkpt lat="46.71776" lon="5.652">
        <ele>496.2</ele>
        <time>2020-12-19T11:15:45Z</time>
      </trkpt>
      <trkpt lat="46.71775" lon="5.65203">
        <ele>496.2</ele>
        <time>2020-12-19T11:15:46Z</time>
      </trkpt>
      <trkpt lat="46.71775" lon="5.65206">
        <ele>496.2</ele>
        <time>2020-12-19T11:15:47Z</time>
      </trkpt>
      <trkpt lat="46.71775" lon="5.65209">
        <ele>496.4</ele>
        <time>2020-12-19T11:15:48Z</time>
      </trkpt>
      <trkpt lat="46.71774" lon="5.65212">
        <ele>496.4</ele>
        <time>2020-12-19T11:15:49Z</time>
      </trkpt>
      <trkpt lat="46.71774" lon="5.65215">
        <ele>496.4</ele>
        <time>2020-12-19T11:15:50Z</time>
      </trkpt>
      <trkpt lat="46.71774" lon="5.65218">
        <ele>496.8</ele>
        <time>2020-12-19T11:15:51Z</time>
      </trkpt>
      <trkpt lat="46.71774" lon="5.65222">
        <ele>496.8</ele>
        <time>2020-12-19T11:15:52Z</time>
      </trkpt>
      <trkpt lat="46.71773" lon="5.65225">
        <ele>496.8</ele>
        <time>2020-12-19T11:15:53Z</time>
      </trkpt>
      <trkpt lat="46.71773" lon="5.65228">
        <ele>496.8</ele>
        <time>2020-12-19T11:15:54Z</time>
      </trkpt>
      <trkpt lat="46.71774" lon="5.65232">
        <ele>497</ele>
        <time>2020-12-19T11:15:55Z</time>
      </trkpt>
      <trkpt lat="46.71774" lon="5.65235">
        <ele>497</ele>
        <time>2020-12-19T11:15:56Z</time>
      </trkpt>
      <trkpt lat="46.71774" lon="5.65238">
        <ele>497</ele>
        <time>2020-12-19T11:15:57Z</time>
      </trkpt>
      <trkpt lat="46.71774" lon="5.65242">
        <ele>497</ele>
        <time>2020-12-19T11:15:58Z</time>
      </trkpt>
      <trkpt lat="46.71774" lon="5.65245">
        <ele>497.2</ele>
        <time>2020-12-19T11:15:59Z</time>
      </trkpt>
      <trkpt lat="46.71774" lon="5.65248">
        <ele>497.2</ele>
        <time>2020-12-19T11:16:00Z</time>
      </trkpt>
      <trkpt lat="46.71775" lon="5.65251">
        <ele>497.2</ele>
        <time>2020-12-19T11:16:01Z</time>
      </trkpt>
      <trkpt lat="46.71775" lon="5.65254">
        <ele>497.6</ele>
        <time>2020-12-19T11:16:02Z</time>
      </trkpt>
      <trkpt lat="46.71775" lon="5.65257">
        <ele>497.6</ele>
        <time>2020-12-19T11:16:03Z</time>
      </trkpt>
      <trkpt lat="46.71775" lon="5.6526">
        <ele>497.6</ele>
        <time>2020-12-19T11:16:04Z</time>
      </trkpt>
      <trkpt lat="46.71775" lon="5.65263">
        <ele>497.8</ele>
        <time>2020-12-19T11:16:05Z</time>
      </trkpt>
      <trkpt lat="46.71775" lon="5.65266">
        <ele>497.8</ele>
        <time>2020-12-19T11:16:06Z</time>
      </trkpt>
      <trkpt lat="46.71776" lon="5.65269">
        <ele>497.8</ele>
        <time>2020-12-19T11:16:07Z</time>
      </trkpt>
      <trkpt lat="46.71776" lon="5.65271">
        <ele>498</ele>
        <time>2020-12-19T11:16:08Z</time>
      </trkpt>
      <trkpt lat="46.71777" lon="5.65274">
        <ele>498</ele>
        <time>2020-12-19T11:16:09Z</time>
      </trkpt>
      <trkpt lat="46.71778" lon="5.65277">
        <ele>498</ele>
        <time>2020-12-19T11:16:10Z</time>
      </trkpt>
      <trkpt lat="46.71778" lon="5.65281">
        <ele>498.2</ele>
        <time>2020-12-19T11:16:11Z</time>
      </trkpt>
      <trkpt lat="46.71779" lon="5.65284">
        <ele>498.2</ele>
        <time>2020-12-19T11:16:12Z</time>
      </trkpt>
      <trkpt lat="46.7178" lon="5.65288">
        <ele>498.2</ele>
        <time>2020-12-19T11:16:13Z</time>
      </trkpt>
      <trkpt lat="46.7178" lon="5.65292">
        <ele>498.2</ele>
        <time>2020-12-19T11:16:14Z</time>
      </trkpt>
      <trkpt lat="46.7178" lon="5.65297">
        <ele>498.2</ele>
        <time>2020-12-19T11:16:15Z</time>
      </trkpt>
      <trkpt lat="46.7178" lon="5.65302">
        <ele>498.2</ele>
        <time>2020-12-19T11:16:16Z</time>
      </trkpt>
      <trkpt lat="46.71779" lon="5.65307">
        <ele>498.2</ele>
        <time>2020-12-19T11:16:17Z</time>
      </trkpt>
      <trkpt lat="46.71779" lon="5.65312">
        <ele>498.2</ele>
        <time>2020-12-19T11:16:18Z</time>
      </trkpt>
      <trkpt lat="46.71778" lon="5.65316">
        <ele>498.2</ele>
        <time>2020-12-19T11:16:19Z</time>
      </trkpt>
      <trkpt lat="46.71776" lon="5.6532">
        <ele>498.2</ele>
        <time>2020-12-19T11:16:20Z</time>
      </trkpt>
      <trkpt lat="46.71775" lon="5.65324">
        <ele>498.2</ele>
        <time>2020-12-19T11:16:21Z</time>
      </trkpt>
      <trkpt lat="46.71774" lon="5.65327">
        <ele>498.2</ele>
        <time>2020-12-19T11:16:22Z</time>
      </trkpt>
      <trkpt lat="46.71772" lon="5.65331">
        <ele>498.2</ele>
        <time>2020-12-19T11:16:23Z</time>
      </trkpt>
      <trkpt lat="46.71771" lon="5.65334">
        <ele>498.2</ele>
        <time>2020-12-19T11:16:24Z</time>
      </trkpt>
      <trkpt lat="46.71769" lon="5.65337">
        <ele>498.2</ele>
        <time>2020-12-19T11:16:25Z</time>
      </trkpt>
      <trkpt lat="46.71767" lon="5.6534">
        <ele>498.2</ele>
        <time>2020-12-19T11:16:26Z</time>
      </trkpt>
      <trkpt lat="46.71765" lon="5.65343">
        <ele>498.2</ele>
        <time>2020-12-19T11:16:27Z</time>
      </trkpt>
      <trkpt lat="46.71763" lon="5.65347">
        <ele>498.2</ele>
        <time>2020-12-19T11:16:28Z</time>
      </trkpt>
      <trkpt lat="46.71762" lon="5.6535">
        <ele>498.2</ele>
        <time>2020-12-19T11:16:29Z</time>
      </trkpt>
      <trkpt lat="46.7176" lon="5.65354">
        <ele>498.2</ele>
        <time>2020-12-19T11:16:30Z</time>
      </trkpt>
      <trkpt lat="46.71758" lon="5.65358">
        <ele>498.2</ele>
        <time>2020-12-19T11:16:31Z</time>
      </trkpt>
      <trkpt lat="46.71756" lon="5.65361">
        <ele>498.2</ele>
        <time>2020-12-19T11:16:32Z</time>
      </trkpt>
      <trkpt lat="46.71754" lon="5.65365">
        <ele>498.2</ele>
        <time>2020-12-19T11:16:33Z</time>
      </trkpt>
      <trkpt lat="46.71753" lon="5.65368">
        <ele>498.2</ele>
        <time>2020-12-19T11:16:34Z</time>
      </trkpt>
      <trkpt lat="46.71751" lon="5.65371">
        <ele>498.2</ele>
        <time>2020-12-19T11:16:35Z</time>
      </trkpt>
      <trkpt lat="46.7175" lon="5.65375">
        <ele>498.2</ele>
        <time>2020-12-19T11:16:36Z</time>
      </trkpt>
      <trkpt lat="46.71748" lon="5.65377">
        <ele>498.2</ele>
        <time>2020-12-19T11:16:37Z</time>
      </trkpt>
      <trkpt lat="46.71746" lon="5.6538">
        <ele>498.4</ele>
        <time>2020-12-19T11:16:38Z</time>
      </trkpt>
      <trkpt lat="46.71745" lon="5.65383">
        <ele>498.4</ele>
        <time>2020-12-19T11:16:39Z</time>
      </trkpt>
      <trkpt lat="46.71744" lon="5.65386">
        <ele>498.4</ele>
        <time>2020-12-19T11:16:40Z</time>
      </trkpt>
      <trkpt lat="46.71743" lon="5.65389">
        <ele>498.4</ele>
        <time>2020-12-19T11:16:41Z</time>
      </trkpt>
      <trkpt lat="46.71741" lon="5.65393">
        <ele>498.4</ele>
        <time>2020-12-19T11:16:42Z</time>
      </trkpt>
      <trkpt lat="46.71741" lon="5.65396">
        <ele>498.4</ele>
        <time>2020-12-19T11:16:43Z</time>
      </trkpt>
      <trkpt lat="46.7174" lon="5.654">
        <ele>498.4</ele>
        <time>2020-12-19T11:16:44Z</time>
      </trkpt>
      <trkpt lat="46.7174" lon="5.65403">
        <ele>498.8</ele>
        <time>2020-12-19T11:16:45Z</time>
      </trkpt>
      <trkpt lat="46.7174" lon="5.65407">
        <ele>498.8</ele>
        <time>2020-12-19T11:16:46Z</time>
      </trkpt>
      <trkpt lat="46.7174" lon="5.6541">
        <ele>498.8</ele>
        <time>2020-12-19T11:16:47Z</time>
      </trkpt>
      <trkpt lat="46.7174" lon="5.65413">
        <ele>498.8</ele>
        <time>2020-12-19T11:16:48Z</time>
      </trkpt>
      <trkpt lat="46.7174" lon="5.65416">
        <ele>498.8</ele>
        <time>2020-12-19T11:16:49Z</time>
      </trkpt>
      <trkpt lat="46.7174" lon="5.65419">
        <ele>499</ele>
        <time>2020-12-19T11:16:50Z</time>
      </trkpt>
      <trkpt lat="46.71741" lon="5.65422">
        <ele>499</ele>
        <time>2020-12-19T11:16:51Z</time>
      </trkpt>
      <trkpt lat="46.71741" lon="5.65425">
        <ele>499</ele>
        <time>2020-12-19T11:16:52Z</time>
      </trkpt>
      <trkpt lat="46.71741" lon="5.65428">
        <ele>499</ele>
        <time>2020-12-19T11:16:53Z</time>
      </trkpt>
      <trkpt lat="46.71742" lon="5.65431">
        <ele>499</ele>
        <time>2020-12-19T11:16:54Z</time>
      </trkpt>
      <trkpt lat="46.71742" lon="5.65434">
        <ele>499</ele>
        <time>2020-12-19T11:16:55Z</time>
      </trkpt>
      <trkpt lat="46.71743" lon="5.65437">
        <ele>499</ele>
        <time>2020-12-19T11:16:56Z</time>
      </trkpt>
      <trkpt lat="46.71743" lon="5.6544">
        <ele>499</ele>
        <time>2020-12-19T11:16:57Z</time>
      </trkpt>
      <trkpt lat="46.71744" lon="5.65443">
        <ele>499</ele>
        <time>2020-12-19T11:16:58Z</time>
      </trkpt>
      <trkpt lat="46.71744" lon="5.65447">
        <ele>499.2</ele>
        <time>2020-12-19T11:16:59Z</time>
      </trkpt>
      <trkpt lat="46.71745" lon="5.6545">
        <ele>499.2</ele>
        <time>2020-12-19T11:17:00Z</time>
      </trkpt>
      <trkpt lat="46.71745" lon="5.65453">
        <ele>499.4</ele>
        <time>2020-12-19T11:17:01Z</time>
      </trkpt>
      <trkpt lat="46.71746" lon="5.65457">
        <ele>499.4</ele>
        <time>2020-12-19T11:17:02Z</time>
      </trkpt>
      <trkpt lat="46.71746" lon="5.6546">
        <ele>499.4</ele>
        <time>2020-12-19T11:17:03Z</time>
      </trkpt>
      <trkpt lat="46.71746" lon="5.65464">
        <ele>499.6</ele>
        <time>2020-12-19T11:17:04Z</time>
      </trkpt>
      <trkpt lat="46.71747" lon="5.65467">
        <ele>499.6</ele>
        <time>2020-12-19T11:17:05Z</time>
      </trkpt>
      <trkpt lat="46.71747" lon="5.65471">
        <ele>499.6</ele>
        <time>2020-12-19T11:17:06Z</time>
      </trkpt>
      <trkpt lat="46.71747" lon="5.65474">
        <ele>499.6</ele>
        <time>2020-12-19T11:17:07Z</time>
      </trkpt>
      <trkpt lat="46.71747" lon="5.65478">
        <ele>499.8</ele>
        <time>2020-12-19T11:17:08Z</time>
      </trkpt>
      <trkpt lat="46.71747" lon="5.65481">
        <ele>499.8</ele>
        <time>2020-12-19T11:17:09Z</time>
      </trkpt>
      <trkpt lat="46.71747" lon="5.65484">
        <ele>499.8</ele>
        <time>2020-12-19T11:17:10Z</time>
      </trkpt>
      <trkpt lat="46.71746" lon="5.65488">
        <ele>499.8</ele>
        <time>2020-12-19T11:17:11Z</time>
      </trkpt>
      <trkpt lat="46.71746" lon="5.65491">
        <ele>500.2</ele>
        <time>2020-12-19T11:17:12Z</time>
      </trkpt>
      <trkpt lat="46.71745" lon="5.65495">
        <ele>500.2</ele>
        <time>2020-12-19T11:17:13Z</time>
      </trkpt>
      <trkpt lat="46.71745" lon="5.65499">
        <ele>500.2</ele>
        <time>2020-12-19T11:17:14Z</time>
      </trkpt>
      <trkpt lat="46.71745" lon="5.65502">
        <ele>500.2</ele>
        <time>2020-12-19T11:17:15Z</time>
      </trkpt>
      <trkpt lat="46.71744" lon="5.65505">
        <ele>500.2</ele>
        <time>2020-12-19T11:17:16Z</time>
      </trkpt>
      <trkpt lat="46.71743" lon="5.65507">
        <ele>500.4</ele>
        <time>2020-12-19T11:17:17Z</time>
      </trkpt>
      <trkpt lat="46.71743" lon="5.65509">
        <ele>500.4</ele>
        <time>2020-12-19T11:17:18Z</time>
      </trkpt>
      <trkpt lat="46.71742" lon="5.65511">
        <ele>500.4</ele>
        <time>2020-12-19T11:17:19Z</time>
      </trkpt>
      <trkpt lat="46.71741" lon="5.65514">
        <ele>500.4</ele>
        <time>2020-12-19T11:17:20Z</time>
      </trkpt>
      <trkpt lat="46.71739" lon="5.65516">
        <ele>500.4</ele>
        <time>2020-12-19T11:17:21Z</time>
      </trkpt>
      <trkpt lat="46.71739" lon="5.65518">
        <ele>500.6</ele>
        <time>2020-12-19T11:17:22Z</time>
      </trkpt>
      <trkpt lat="46.71738" lon="5.6552">
        <ele>500.6</ele>
        <time>2020-12-19T11:17:23Z</time>
      </trkpt>
      <trkpt lat="46.71737" lon="5.65522">
        <ele>500.6</ele>
        <time>2020-12-19T11:17:24Z</time>
      </trkpt>
      <trkpt lat="46.71736" lon="5.65524">
        <ele>500.6</ele>
        <time>2020-12-19T11:17:25Z</time>
      </trkpt>
      <trkpt lat="46.71735" lon="5.65526">
        <ele>500.6</ele>
        <time>2020-12-19T11:17:26Z</time>
      </trkpt>
      <trkpt lat="46.71734" lon="5.65528">
        <ele>500.6</ele>
        <time>2020-12-19T11:17:27Z</time>
      </trkpt>
      <trkpt lat="46.71733" lon="5.6553">
        <ele>500.6</ele>
        <time>2020-12-19T11:17:28Z</time>
      </trkpt>
      <trkpt lat="46.71732" lon="5.65532">
        <ele>500.6</ele>
        <time>2020-12-19T11:17:29Z</time>
      </trkpt>
      <trkpt lat="46.71731" lon="5.65534">
        <ele>500.6</ele>
        <time>2020-12-19T11:17:30Z</time>
      </trkpt>
      <trkpt lat="46.7173" lon="5.65537">
        <ele>500.8</ele>
        <time>2020-12-19T11:17:31Z</time>
      </trkpt>
      <trkpt lat="46.71728" lon="5.65539">
        <ele>500.8</ele>
        <time>2020-12-19T11:17:32Z</time>
      </trkpt>
      <trkpt lat="46.71726" lon="5.65541">
        <ele>500.8</ele>
        <time>2020-12-19T11:17:33Z</time>
      </trkpt>
      <trkpt lat="46.71726" lon="5.65544">
        <ele>500.8</ele>
        <time>2020-12-19T11:17:34Z</time>
      </trkpt>
      <trkpt lat="46.71724" lon="5.65546">
        <ele>500.8</ele>
        <time>2020-12-19T11:17:35Z</time>
      </trkpt>
      <trkpt lat="46.71723" lon="5.65549">
        <ele>501</ele>
        <time>2020-12-19T11:17:36Z</time>
      </trkpt>
      <trkpt lat="46.71722" lon="5.65551">
        <ele>501</ele>
        <time>2020-12-19T11:17:37Z</time>
      </trkpt>
      <trkpt lat="46.7172" lon="5.65554">
        <ele>501</ele>
        <time>2020-12-19T11:17:38Z</time>
      </trkpt>
      <trkpt lat="46.71719" lon="5.65558">
        <ele>501</ele>
        <time>2020-12-19T11:17:39Z</time>
      </trkpt>
      <trkpt lat="46.71718" lon="5.65561">
        <ele>501.2</ele>
        <time>2020-12-19T11:17:40Z</time>
      </trkpt>
      <trkpt lat="46.71716" lon="5.65564">
        <ele>501.2</ele>
        <time>2020-12-19T11:17:41Z</time>
      </trkpt>
      <trkpt lat="46.71715" lon="5.65568">
        <ele>501.6</ele>
        <time>2020-12-19T11:17:42Z</time>
      </trkpt>
      <trkpt lat="46.71714" lon="5.65571">
        <ele>501.6</ele>
        <time>2020-12-19T11:17:43Z</time>
      </trkpt>
      <trkpt lat="46.71713" lon="5.65574">
        <ele>501.6</ele>
        <time>2020-12-19T11:17:44Z</time>
      </trkpt>
      <trkpt lat="46.71712" lon="5.65577">
        <ele>501.6</ele>
        <time>2020-12-19T11:17:45Z</time>
      </trkpt>
      <trkpt lat="46.71711" lon="5.6558">
        <ele>501.8</ele>
        <time>2020-12-19T11:17:46Z</time>
      </trkpt>
      <trkpt lat="46.7171" lon="5.65584">
        <ele>501.8</ele>
        <time>2020-12-19T11:17:47Z</time>
      </trkpt>
      <trkpt lat="46.71709" lon="5.65587">
        <ele>501.8</ele>
        <time>2020-12-19T11:17:48Z</time>
      </trkpt>
      <trkpt lat="46.71707" lon="5.65591">
        <ele>501.8</ele>
        <time>2020-12-19T11:17:49Z</time>
      </trkpt>
      <trkpt lat="46.71705" lon="5.65594">
        <ele>501.8</ele>
        <time>2020-12-19T11:17:50Z</time>
      </trkpt>
      <trkpt lat="46.71704" lon="5.65597">
        <ele>501.8</ele>
        <time>2020-12-19T11:17:51Z</time>
      </trkpt>
      <trkpt lat="46.71703" lon="5.65601">
        <ele>501.8</ele>
        <time>2020-12-19T11:17:52Z</time>
      </trkpt>
      <trkpt lat="46.71702" lon="5.65605">
        <ele>501.8</ele>
        <time>2020-12-19T11:17:53Z</time>
      </trkpt>
      <trkpt lat="46.71701" lon="5.65609">
        <ele>501.8</ele>
        <time>2020-12-19T11:17:54Z</time>
      </trkpt>
      <trkpt lat="46.717" lon="5.65613">
        <ele>501.8</ele>
        <time>2020-12-19T11:17:55Z</time>
      </trkpt>
      <trkpt lat="46.71698" lon="5.65617">
        <ele>501.8</ele>
        <time>2020-12-19T11:17:56Z</time>
      </trkpt>
      <trkpt lat="46.71697" lon="5.6562">
        <ele>501.8</ele>
        <time>2020-12-19T11:17:57Z</time>
      </trkpt>
      <trkpt lat="46.71695" lon="5.65623">
        <ele>501.6</ele>
        <time>2020-12-19T11:17:58Z</time>
      </trkpt>
      <trkpt lat="46.71694" lon="5.65626">
        <ele>501.6</ele>
        <time>2020-12-19T11:17:59Z</time>
      </trkpt>
      <trkpt lat="46.71692" lon="5.6563">
        <ele>501.2</ele>
        <time>2020-12-19T11:18:00Z</time>
      </trkpt>
      <trkpt lat="46.7169" lon="5.65633">
        <ele>501.2</ele>
        <time>2020-12-19T11:18:01Z</time>
      </trkpt>
      <trkpt lat="46.71688" lon="5.65636">
        <ele>501.2</ele>
        <time>2020-12-19T11:18:02Z</time>
      </trkpt>
      <trkpt lat="46.71685" lon="5.65638">
        <ele>501.2</ele>
        <time>2020-12-19T11:18:03Z</time>
      </trkpt>
      <trkpt lat="46.71682" lon="5.65639">
        <ele>501.2</ele>
        <time>2020-12-19T11:18:04Z</time>
      </trkpt>
      <trkpt lat="46.7168" lon="5.6564">
        <ele>501.2</ele>
        <time>2020-12-19T11:18:05Z</time>
      </trkpt>
      <trkpt lat="46.71677" lon="5.6564">
        <ele>501.2</ele>
        <time>2020-12-19T11:18:06Z</time>
      </trkpt>
      <trkpt lat="46.71674" lon="5.65639">
        <ele>501.2</ele>
        <time>2020-12-19T11:18:07Z</time>
      </trkpt>
      <trkpt lat="46.71672" lon="5.65637">
        <ele>501.2</ele>
        <time>2020-12-19T11:18:08Z</time>
      </trkpt>
      <trkpt lat="46.7167" lon="5.65636">
        <ele>501.2</ele>
        <time>2020-12-19T11:18:09Z</time>
      </trkpt>
      <trkpt lat="46.71669" lon="5.65634">
        <ele>501.2</ele>
        <time>2020-12-19T11:18:10Z</time>
      </trkpt>
      <trkpt lat="46.71668" lon="5.65631">
        <ele>501.2</ele>
        <time>2020-12-19T11:18:11Z</time>
      </trkpt>
      <trkpt lat="46.71667" lon="5.65628">
        <ele>501.2</ele>
        <time>2020-12-19T11:18:12Z</time>
      </trkpt>
      <trkpt lat="46.71666" lon="5.65624">
        <ele>501.2</ele>
        <time>2020-12-19T11:18:13Z</time>
      </trkpt>
      <trkpt lat="46.71665" lon="5.65621">
        <ele>501.2</ele>
        <time>2020-12-19T11:18:14Z</time>
      </trkpt>
      <trkpt lat="46.71663" lon="5.65617">
        <ele>501.2</ele>
        <time>2020-12-19T11:18:15Z</time>
      </trkpt>
      <trkpt lat="46.71662" lon="5.65614">
        <ele>501.2</ele>
        <time>2020-12-19T11:18:16Z</time>
      </trkpt>
      <trkpt lat="46.7166" lon="5.6561">
        <ele>501.2</ele>
        <time>2020-12-19T11:18:17Z</time>
      </trkpt>
      <trkpt lat="46.71658" lon="5.65607">
        <ele>501.2</ele>
        <time>2020-12-19T11:18:18Z</time>
      </trkpt>
      <trkpt lat="46.71656" lon="5.65603">
        <ele>501.2</ele>
        <time>2020-12-19T11:18:19Z</time>
      </trkpt>
      <trkpt lat="46.71655" lon="5.656">
        <ele>501.6</ele>
        <time>2020-12-19T11:18:20Z</time>
      </trkpt>
      <trkpt lat="46.71653" lon="5.65595">
        <ele>501.6</ele>
        <time>2020-12-19T11:18:21Z</time>
      </trkpt>
      <trkpt lat="46.71651" lon="5.65591">
        <ele>501.6</ele>
        <time>2020-12-19T11:18:22Z</time>
      </trkpt>
      <trkpt lat="46.71649" lon="5.65587">
        <ele>501.6</ele>
        <time>2020-12-19T11:18:23Z</time>
      </trkpt>
      <trkpt lat="46.71647" lon="5.65582">
        <ele>501.6</ele>
        <time>2020-12-19T11:18:24Z</time>
      </trkpt>
      <trkpt lat="46.71645" lon="5.65578">
        <ele>501.2</ele>
        <time>2020-12-19T11:18:25Z</time>
      </trkpt>
      <trkpt lat="46.71643" lon="5.65573">
        <ele>501.2</ele>
        <time>2020-12-19T11:18:26Z</time>
      </trkpt>
      <trkpt lat="46.71641" lon="5.65569">
        <ele>501.2</ele>
        <time>2020-12-19T11:18:27Z</time>
      </trkpt>
      <trkpt lat="46.71638" lon="5.65564">
        <ele>501</ele>
        <time>2020-12-19T11:18:28Z</time>
      </trkpt>
      <trkpt lat="46.71636" lon="5.65559">
        <ele>501</ele>
        <time>2020-12-19T11:18:29Z</time>
      </trkpt>
      <trkpt lat="46.71633" lon="5.65554">
        <ele>500.6</ele>
        <time>2020-12-19T11:18:30Z</time>
      </trkpt>
      <trkpt lat="46.71631" lon="5.65549">
        <ele>500.6</ele>
        <time>2020-12-19T11:18:31Z</time>
      </trkpt>
      <trkpt lat="46.71629" lon="5.65545">
        <ele>500.4</ele>
        <time>2020-12-19T11:18:32Z</time>
      </trkpt>
      <trkpt lat="46.71627" lon="5.6554">
        <ele>500.2</ele>
        <time>2020-12-19T11:18:33Z</time>
      </trkpt>
      <trkpt lat="46.71625" lon="5.65536">
        <ele>500.2</ele>
        <time>2020-12-19T11:18:34Z</time>
      </trkpt>
      <trkpt lat="46.71624" lon="5.65532">
        <ele>499.8</ele>
        <time>2020-12-19T11:18:35Z</time>
      </trkpt>
      <trkpt lat="46.71622" lon="5.65528">
        <ele>499.6</ele>
        <time>2020-12-19T11:18:36Z</time>
      </trkpt>
      <trkpt lat="46.7162" lon="5.65524">
        <ele>499.4</ele>
        <time>2020-12-19T11:18:37Z</time>
      </trkpt>
      <trkpt lat="46.71619" lon="5.6552">
        <ele>499</ele>
        <time>2020-12-19T11:18:38Z</time>
      </trkpt>
      <trkpt lat="46.71618" lon="5.65517">
        <ele>498.8</ele>
        <time>2020-12-19T11:18:39Z</time>
      </trkpt>
      <trkpt lat="46.71617" lon="5.65514">
        <ele>498.4</ele>
        <time>2020-12-19T11:18:40Z</time>
      </trkpt>
      <trkpt lat="46.71616" lon="5.6551">
        <ele>498.2</ele>
        <time>2020-12-19T11:18:41Z</time>
      </trkpt>
      <trkpt lat="46.71615" lon="5.65506">
        <ele>497.8</ele>
        <time>2020-12-19T11:18:42Z</time>
      </trkpt>
      <trkpt lat="46.71613" lon="5.65502">
        <ele>497.6</ele>
        <time>2020-12-19T11:18:43Z</time>
      </trkpt>
      <trkpt lat="46.71612" lon="5.65498">
        <ele>497.6</ele>
        <time>2020-12-19T11:18:44Z</time>
      </trkpt>
      <trkpt lat="46.71611" lon="5.65494">
        <ele>497.2</ele>
        <time>2020-12-19T11:18:45Z</time>
      </trkpt>
      <trkpt lat="46.71609" lon="5.65489">
        <ele>497.2</ele>
        <time>2020-12-19T11:18:46Z</time>
      </trkpt>
      <trkpt lat="46.71608" lon="5.65485">
        <ele>496.8</ele>
        <time>2020-12-19T11:18:47Z</time>
      </trkpt>
      <trkpt lat="46.71607" lon="5.65481">
        <ele>496.8</ele>
        <time>2020-12-19T11:18:48Z</time>
      </trkpt>
      <trkpt lat="46.71607" lon="5.65477">
        <ele>496.6</ele>
        <time>2020-12-19T11:18:49Z</time>
      </trkpt>
      <trkpt lat="46.71606" lon="5.65472">
        <ele>496.6</ele>
        <time>2020-12-19T11:18:50Z</time>
      </trkpt>
      <trkpt lat="46.71605" lon="5.65469">
        <ele>496.2</ele>
        <time>2020-12-19T11:18:51Z</time>
      </trkpt>
      <trkpt lat="46.71604" lon="5.65465">
        <ele>496.2</ele>
        <time>2020-12-19T11:18:52Z</time>
      </trkpt>
      <trkpt lat="46.71604" lon="5.65463">
        <ele>496.2</ele>
        <time>2020-12-19T11:18:53Z</time>
      </trkpt>
      <trkpt lat="46.71603" lon="5.6546">
        <ele>496</ele>
        <time>2020-12-19T11:18:54Z</time>
      </trkpt>
      <trkpt lat="46.71603" lon="5.65458">
        <ele>496</ele>
        <time>2020-12-19T11:18:55Z</time>
      </trkpt>
      <trkpt lat="46.71603" lon="5.65456">
        <ele>496</ele>
        <time>2020-12-19T11:18:56Z</time>
      </trkpt>
      <trkpt lat="46.71603" lon="5.65454">
        <ele>496</ele>
        <time>2020-12-19T11:18:57Z</time>
      </trkpt>
      <trkpt lat="46.71602" lon="5.65452">
        <ele>495.6</ele>
        <time>2020-12-19T11:18:58Z</time>
      </trkpt>
      <trkpt lat="46.71602" lon="5.65452">
        <ele>495.6</ele>
        <time>2020-12-19T11:18:59Z</time>
      </trkpt>
      <trkpt lat="46.71602" lon="5.65451">
        <ele>495.6</ele>
        <time>2020-12-19T11:19:00Z</time>
      </trkpt>
      <trkpt lat="46.71601" lon="5.65448">
        <ele>495.6</ele>
        <time>2020-12-19T11:19:06Z</time>
      </trkpt>
      <trkpt lat="46.716" lon="5.65447">
        <ele>495.6</ele>
        <time>2020-12-19T11:19:07Z</time>
      </trkpt>
      <trkpt lat="46.716" lon="5.65445">
        <ele>495.4</ele>
        <time>2020-12-19T11:19:08Z</time>
      </trkpt>
      <trkpt lat="46.71599" lon="5.65444">
        <ele>495.4</ele>
        <time>2020-12-19T11:19:09Z</time>
      </trkpt>
      <trkpt lat="46.71599" lon="5.65442">
        <ele>495.4</ele>
        <time>2020-12-19T11:19:10Z</time>
      </trkpt>
      <trkpt lat="46.71598" lon="5.6544">
        <ele>495.4</ele>
        <time>2020-12-19T11:19:11Z</time>
      </trkpt>
      <trkpt lat="46.71598" lon="5.65438">
        <ele>495.4</ele>
        <time>2020-12-19T11:19:12Z</time>
      </trkpt>
      <trkpt lat="46.71597" lon="5.65436">
        <ele>495.4</ele>
        <time>2020-12-19T11:19:13Z</time>
      </trkpt>
      <trkpt lat="46.71597" lon="5.65434">
        <ele>495.4</ele>
        <time>2020-12-19T11:19:14Z</time>
      </trkpt>
      <trkpt lat="46.71596" lon="5.65432">
        <ele>495.4</ele>
        <time>2020-12-19T11:19:15Z</time>
      </trkpt>
      <trkpt lat="46.71596" lon="5.6543">
        <ele>495.4</ele>
        <time>2020-12-19T11:19:16Z</time>
      </trkpt>
      <trkpt lat="46.71596" lon="5.65428">
        <ele>495.4</ele>
        <time>2020-12-19T11:19:17Z</time>
      </trkpt>
      <trkpt lat="46.71596" lon="5.65427">
        <ele>495.4</ele>
        <time>2020-12-19T11:19:18Z</time>
      </trkpt>
      <trkpt lat="46.71595" lon="5.65425">
        <ele>495.4</ele>
        <time>2020-12-19T11:19:19Z</time>
      </trkpt>
      <trkpt lat="46.71594" lon="5.65423">
        <ele>495.4</ele>
        <time>2020-12-19T11:19:20Z</time>
      </trkpt>
      <trkpt lat="46.71594" lon="5.65421">
        <ele>495.4</ele>
        <time>2020-12-19T11:19:21Z</time>
      </trkpt>
      <trkpt lat="46.71594" lon="5.65419">
        <ele>495.4</ele>
        <time>2020-12-19T11:19:22Z</time>
      </trkpt>
      <trkpt lat="46.71593" lon="5.65417">
        <ele>495.4</ele>
        <time>2020-12-19T11:19:23Z</time>
      </trkpt>
      <trkpt lat="46.71593" lon="5.65415">
        <ele>495.4</ele>
        <time>2020-12-19T11:19:24Z</time>
      </trkpt>
      <trkpt lat="46.71592" lon="5.65414">
        <ele>495.4</ele>
        <time>2020-12-19T11:19:25Z</time>
      </trkpt>
      <trkpt lat="46.71592" lon="5.65414">
        <ele>495.4</ele>
        <time>2020-12-19T11:19:26Z</time>
      </trkpt>
      <trkpt lat="46.71592" lon="5.6541">
        <ele>496.6</ele>
        <time>2020-12-19T11:27:44Z</time>
      </trkpt>
      <trkpt lat="46.71592" lon="5.6541">
        <ele>496.6</ele>
        <time>2020-12-19T11:27:45Z</time>
      </trkpt>
      <trkpt lat="46.71592" lon="5.65411">
        <ele>496.6</ele>
        <time>2020-12-19T11:27:46Z</time>
      </trkpt>
      <trkpt lat="46.71592" lon="5.65413">
        <ele>496.6</ele>
        <time>2020-12-19T11:27:49Z</time>
      </trkpt>
      <trkpt lat="46.71592" lon="5.65413">
        <ele>496.6</ele>
        <time>2020-12-19T11:27:50Z</time>
      </trkpt>
      <trkpt lat="46.71592" lon="5.65414">
        <ele>496.6</ele>
        <time>2020-12-19T11:27:51Z</time>
      </trkpt>
      <trkpt lat="46.71592" lon="5.65415">
        <ele>496.6</ele>
        <time>2020-12-19T11:27:52Z</time>
      </trkpt>
      <trkpt lat="46.71593" lon="5.65416">
        <ele>496.6</ele>
        <time>2020-12-19T11:27:53Z</time>
      </trkpt>
      <trkpt lat="46.71593" lon="5.65417">
        <ele>496.6</ele>
        <time>2020-12-19T11:27:54Z</time>
      </trkpt>
      <trkpt lat="46.71593" lon="5.65417">
        <ele>496.6</ele>
        <time>2020-12-19T11:27:55Z</time>
      </trkpt>
      <trkpt lat="46.71594" lon="5.65418">
        <ele>496.6</ele>
        <time>2020-12-19T11:27:56Z</time>
      </trkpt>
      <trkpt lat="46.71594" lon="5.65419">
        <ele>496.6</ele>
        <time>2020-12-19T11:27:57Z</time>
      </trkpt>
      <trkpt lat="46.71594" lon="5.6542">
        <ele>496.6</ele>
        <time>2020-12-19T11:27:58Z</time>
      </trkpt>
      <trkpt lat="46.71594" lon="5.6542">
        <ele>496.6</ele>
        <time>2020-12-19T11:27:59Z</time>
      </trkpt>
      <trkpt lat="46.71594" lon="5.65421">
        <ele>496.6</ele>
        <time>2020-12-19T11:28:00Z</time>
      </trkpt>
      <trkpt lat="46.71594" lon="5.65422">
        <ele>496.6</ele>
        <time>2020-12-19T11:28:01Z</time>
      </trkpt>
      <trkpt lat="46.71595" lon="5.65423">
        <ele>496.6</ele>
        <time>2020-12-19T11:28:02Z</time>
      </trkpt>
      <trkpt lat="46.71595" lon="5.65424">
        <ele>496.6</ele>
        <time>2020-12-19T11:28:03Z</time>
      </trkpt>
      <trkpt lat="46.71595" lon="5.65425">
        <ele>496.6</ele>
        <time>2020-12-19T11:28:04Z</time>
      </trkpt>
      <trkpt lat="46.71596" lon="5.65425">
        <ele>496.6</ele>
        <time>2020-12-19T11:28:05Z</time>
      </trkpt>
      <trkpt lat="46.71596" lon="5.65426">
        <ele>496.6</ele>
        <time>2020-12-19T11:28:06Z</time>
      </trkpt>
      <trkpt lat="46.71597" lon="5.65427">
        <ele>496.8</ele>
        <time>2020-12-19T11:28:07Z</time>
      </trkpt>
      <trkpt lat="46.71597" lon="5.65428">
        <ele>496.8</ele>
        <time>2020-12-19T11:28:08Z</time>
      </trkpt>
      <trkpt lat="46.71598" lon="5.65429">
        <ele>496.8</ele>
        <time>2020-12-19T11:28:09Z</time>
      </trkpt>
      <trkpt lat="46.71598" lon="5.65431">
        <ele>496.8</ele>
        <time>2020-12-19T11:28:10Z</time>
      </trkpt>
      <trkpt lat="46.71599" lon="5.65431">
        <ele>496.8</ele>
        <time>2020-12-19T11:28:11Z</time>
      </trkpt>
      <trkpt lat="46.71599" lon="5.65433">
        <ele>496.8</ele>
        <time>2020-12-19T11:28:12Z</time>
      </trkpt>
      <trkpt lat="46.71599" lon="5.65433">
        <ele>496.8</ele>
        <time>2020-12-19T11:28:13Z</time>
      </trkpt>
      <trkpt lat="46.71599" lon="5.65434">
        <ele>496.8</ele>
        <time>2020-12-19T11:28:14Z</time>
      </trkpt>
      <trkpt lat="46.716" lon="5.65435">
        <ele>496.8</ele>
        <time>2020-12-19T11:28:15Z</time>
      </trkpt>
      <trkpt lat="46.71601" lon="5.65436">
        <ele>496.8</ele>
        <time>2020-12-19T11:28:16Z</time>
      </trkpt>
      <trkpt lat="46.71601" lon="5.65437">
        <ele>496.8</ele>
        <time>2020-12-19T11:28:17Z</time>
      </trkpt>
      <trkpt lat="46.71602" lon="5.65438">
        <ele>496.8</ele>
        <time>2020-12-19T11:28:18Z</time>
      </trkpt>
      <trkpt lat="46.71602" lon="5.65439">
        <ele>496.8</ele>
        <time>2020-12-19T11:28:19Z</time>
      </trkpt>
      <trkpt lat="46.71602" lon="5.6544">
        <ele>496.8</ele>
        <time>2020-12-19T11:28:20Z</time>
      </trkpt>
      <trkpt lat="46.71603" lon="5.65441">
        <ele>497</ele>
        <time>2020-12-19T11:28:21Z</time>
      </trkpt>
      <trkpt lat="46.71603" lon="5.65443">
        <ele>497</ele>
        <time>2020-12-19T11:28:22Z</time>
      </trkpt>
      <trkpt lat="46.71604" lon="5.65444">
        <ele>497</ele>
        <time>2020-12-19T11:28:23Z</time>
      </trkpt>
      <trkpt lat="46.71604" lon="5.65446">
        <ele>497</ele>
        <time>2020-12-19T11:28:24Z</time>
      </trkpt>
      <trkpt lat="46.71604" lon="5.65448">
        <ele>497</ele>
        <time>2020-12-19T11:28:25Z</time>
      </trkpt>
      <trkpt lat="46.71603" lon="5.65449">
        <ele>497</ele>
        <time>2020-12-19T11:28:26Z</time>
      </trkpt>
      <trkpt lat="46.71603" lon="5.65452">
        <ele>497.4</ele>
        <time>2020-12-19T11:28:55Z</time>
      </trkpt>
      <trkpt lat="46.71603" lon="5.65454">
        <ele>497.4</ele>
        <time>2020-12-19T11:28:56Z</time>
      </trkpt>
      <trkpt lat="46.71603" lon="5.65455">
        <ele>497.4</ele>
        <time>2020-12-19T11:28:57Z</time>
      </trkpt>
      <trkpt lat="46.71604" lon="5.65456">
        <ele>497.4</ele>
        <time>2020-12-19T11:28:58Z</time>
      </trkpt>
      <trkpt lat="46.71604" lon="5.65457">
        <ele>497.4</ele>
        <time>2020-12-19T11:28:59Z</time>
      </trkpt>
      <trkpt lat="46.71604" lon="5.65458">
        <ele>497.4</ele>
        <time>2020-12-19T11:29:00Z</time>
      </trkpt>
      <trkpt lat="46.71605" lon="5.6546">
        <ele>497.4</ele>
        <time>2020-12-19T11:29:04Z</time>
      </trkpt>
      <trkpt lat="46.71605" lon="5.65461">
        <ele>497.4</ele>
        <time>2020-12-19T11:29:05Z</time>
      </trkpt>
      <trkpt lat="46.71606" lon="5.65463">
        <ele>497.4</ele>
        <time>2020-12-19T11:29:06Z</time>
      </trkpt>
      <trkpt lat="46.71607" lon="5.65464">
        <ele>497.4</ele>
        <time>2020-12-19T11:29:07Z</time>
      </trkpt>
      <trkpt lat="46.71607" lon="5.65466">
        <ele>497.4</ele>
        <time>2020-12-19T11:29:08Z</time>
      </trkpt>
      <trkpt lat="46.71607" lon="5.65468">
        <ele>497.6</ele>
        <time>2020-12-19T11:29:09Z</time>
      </trkpt>
      <trkpt lat="46.71607" lon="5.6547">
        <ele>497.6</ele>
        <time>2020-12-19T11:29:10Z</time>
      </trkpt>
      <trkpt lat="46.71607" lon="5.65472">
        <ele>497.6</ele>
        <time>2020-12-19T11:29:11Z</time>
      </trkpt>
      <trkpt lat="46.71607" lon="5.65474">
        <ele>497.6</ele>
        <time>2020-12-19T11:29:12Z</time>
      </trkpt>
      <trkpt lat="46.71608" lon="5.65476">
        <ele>497.6</ele>
        <time>2020-12-19T11:29:13Z</time>
      </trkpt>
      <trkpt lat="46.71608" lon="5.65478">
        <ele>497.6</ele>
        <time>2020-12-19T11:29:14Z</time>
      </trkpt>
      <trkpt lat="46.71609" lon="5.6548">
        <ele>497.6</ele>
        <time>2020-12-19T11:29:15Z</time>
      </trkpt>
      <trkpt lat="46.71609" lon="5.65482">
        <ele>497.6</ele>
        <time>2020-12-19T11:29:16Z</time>
      </trkpt>
      <trkpt lat="46.71609" lon="5.65484">
        <ele>497.6</ele>
        <time>2020-12-19T11:29:17Z</time>
      </trkpt>
      <trkpt lat="46.7161" lon="5.65486">
        <ele>497.8</ele>
        <time>2020-12-19T11:29:18Z</time>
      </trkpt>
      <trkpt lat="46.71611" lon="5.65488">
        <ele>497.8</ele>
        <time>2020-12-19T11:29:19Z</time>
      </trkpt>
      <trkpt lat="46.71611" lon="5.6549">
        <ele>497.8</ele>
        <time>2020-12-19T11:29:20Z</time>
      </trkpt>
      <trkpt lat="46.71612" lon="5.65492">
        <ele>497.8</ele>
        <time>2020-12-19T11:29:21Z</time>
      </trkpt>
      <trkpt lat="46.71613" lon="5.65494">
        <ele>498</ele>
        <time>2020-12-19T11:29:22Z</time>
      </trkpt>
      <trkpt lat="46.71614" lon="5.65495">
        <ele>498</ele>
        <time>2020-12-19T11:29:23Z</time>
      </trkpt>
      <trkpt lat="46.71614" lon="5.65497">
        <ele>498</ele>
        <time>2020-12-19T11:29:24Z</time>
      </trkpt>
      <trkpt lat="46.71615" lon="5.655">
        <ele>498</ele>
        <time>2020-12-19T11:29:25Z</time>
      </trkpt>
      <trkpt lat="46.71616" lon="5.65502">
        <ele>498.4</ele>
        <time>2020-12-19T11:29:26Z</time>
      </trkpt>
      <trkpt lat="46.71617" lon="5.65505">
        <ele>498.4</ele>
        <time>2020-12-19T11:29:27Z</time>
      </trkpt>
      <trkpt lat="46.71617" lon="5.65507">
        <ele>498.4</ele>
        <time>2020-12-19T11:29:28Z</time>
      </trkpt>
      <trkpt lat="46.71618" lon="5.65509">
        <ele>498.6</ele>
        <time>2020-12-19T11:29:29Z</time>
      </trkpt>
      <trkpt lat="46.71619" lon="5.65511">
        <ele>498.8</ele>
        <time>2020-12-19T11:29:30Z</time>
      </trkpt>
      <trkpt lat="46.71619" lon="5.65512">
        <ele>498.8</ele>
        <time>2020-12-19T11:29:31Z</time>
      </trkpt>
      <trkpt lat="46.7162" lon="5.65514">
        <ele>499.2</ele>
        <time>2020-12-19T11:29:32Z</time>
      </trkpt>
      <trkpt lat="46.7162" lon="5.65516">
        <ele>499.2</ele>
        <time>2020-12-19T11:29:33Z</time>
      </trkpt>
      <trkpt lat="46.71621" lon="5.65517">
        <ele>499.4</ele>
        <time>2020-12-19T11:29:34Z</time>
      </trkpt>
      <trkpt lat="46.71621" lon="5.65519">
        <ele>499.6</ele>
        <time>2020-12-19T11:29:35Z</time>
      </trkpt>
      <trkpt lat="46.71622" lon="5.65521">
        <ele>499.6</ele>
        <time>2020-12-19T11:29:36Z</time>
      </trkpt>
      <trkpt lat="46.71622" lon="5.65523">
        <ele>500</ele>
        <time>2020-12-19T11:29:37Z</time>
      </trkpt>
      <trkpt lat="46.71623" lon="5.65525">
        <ele>500</ele>
        <time>2020-12-19T11:29:38Z</time>
      </trkpt>
      <trkpt lat="46.71624" lon="5.65527">
        <ele>500.2</ele>
        <time>2020-12-19T11:29:39Z</time>
      </trkpt>
      <trkpt lat="46.71625" lon="5.65529">
        <ele>500.2</ele>
        <time>2020-12-19T11:29:40Z</time>
      </trkpt>
      <trkpt lat="46.71625" lon="5.6553">
        <ele>500.6</ele>
        <time>2020-12-19T11:29:41Z</time>
      </trkpt>
      <trkpt lat="46.71626" lon="5.65532">
        <ele>500.6</ele>
        <time>2020-12-19T11:29:42Z</time>
      </trkpt>
      <trkpt lat="46.71627" lon="5.65534">
        <ele>500.6</ele>
        <time>2020-12-19T11:29:43Z</time>
      </trkpt>
      <trkpt lat="46.71628" lon="5.65535">
        <ele>500.8</ele>
        <time>2020-12-19T11:29:44Z</time>
      </trkpt>
      <trkpt lat="46.71629" lon="5.65537">
        <ele>500.8</ele>
        <time>2020-12-19T11:29:45Z</time>
      </trkpt>
      <trkpt lat="46.71629" lon="5.65538">
        <ele>500.8</ele>
        <time>2020-12-19T11:29:46Z</time>
      </trkpt>
      <trkpt lat="46.71629" lon="5.65538">
        <ele>501.2</ele>
        <time>2020-12-19T11:29:47Z</time>
      </trkpt>
      <trkpt lat="46.7163" lon="5.65544">
        <ele>501.4</ele>
        <time>2020-12-19T11:30:25Z</time>
      </trkpt>
      <trkpt lat="46.71631" lon="5.65546">
        <ele>501.4</ele>
        <time>2020-12-19T11:30:26Z</time>
      </trkpt>
      <trkpt lat="46.71632" lon="5.65548">
        <ele>501.4</ele>
        <time>2020-12-19T11:30:27Z</time>
      </trkpt>
      <trkpt lat="46.71633" lon="5.65551">
        <ele>501.4</ele>
        <time>2020-12-19T11:30:28Z</time>
      </trkpt>
      <trkpt lat="46.71634" lon="5.65553">
        <ele>501.4</ele>
        <time>2020-12-19T11:30:29Z</time>
      </trkpt>
      <trkpt lat="46.71635" lon="5.65556">
        <ele>501.6</ele>
        <time>2020-12-19T11:30:30Z</time>
      </trkpt>
      <trkpt lat="46.71636" lon="5.65559">
        <ele>501.6</ele>
        <time>2020-12-19T11:30:31Z</time>
      </trkpt>
      <trkpt lat="46.71637" lon="5.65562">
        <ele>501.6</ele>
        <time>2020-12-19T11:30:32Z</time>
      </trkpt>
      <trkpt lat="46.71639" lon="5.65565">
        <ele>501.6</ele>
        <time>2020-12-19T11:30:33Z</time>
      </trkpt>
      <trkpt lat="46.7164" lon="5.65568">
        <ele>501.8</ele>
        <time>2020-12-19T11:30:34Z</time>
      </trkpt>
      <trkpt lat="46.71641" lon="5.65571">
        <ele>501.8</ele>
        <time>2020-12-19T11:30:35Z</time>
      </trkpt>
      <trkpt lat="46.71642" lon="5.65573">
        <ele>502</ele>
        <time>2020-12-19T11:30:36Z</time>
      </trkpt>
      <trkpt lat="46.71643" lon="5.65576">
        <ele>502</ele>
        <time>2020-12-19T11:30:37Z</time>
      </trkpt>
      <trkpt lat="46.71644" lon="5.65578">
        <ele>502</ele>
        <time>2020-12-19T11:30:38Z</time>
      </trkpt>
      <trkpt lat="46.71645" lon="5.6558">
        <ele>502.4</ele>
        <time>2020-12-19T11:30:39Z</time>
      </trkpt>
      <trkpt lat="46.71646" lon="5.65583">
        <ele>502.4</ele>
        <time>2020-12-19T11:30:40Z</time>
      </trkpt>
      <trkpt lat="46.71647" lon="5.65585">
        <ele>502.6</ele>
        <time>2020-12-19T11:30:41Z</time>
      </trkpt>
      <trkpt lat="46.71648" lon="5.65588">
        <ele>502.6</ele>
        <time>2020-12-19T11:30:42Z</time>
      </trkpt>
      <trkpt lat="46.71649" lon="5.6559">
        <ele>502.8</ele>
        <time>2020-12-19T11:30:43Z</time>
      </trkpt>
      <trkpt lat="46.7165" lon="5.65593">
        <ele>502.8</ele>
        <time>2020-12-19T11:30:44Z</time>
      </trkpt>
      <trkpt lat="46.71651" lon="5.65597">
        <ele>502.8</ele>
        <time>2020-12-19T11:30:45Z</time>
      </trkpt>
      <trkpt lat="46.71652" lon="5.656">
        <ele>502.8</ele>
        <time>2020-12-19T11:30:46Z</time>
      </trkpt>
      <trkpt lat="46.71653" lon="5.65603">
        <ele>503</ele>
        <time>2020-12-19T11:30:47Z</time>
      </trkpt>
      <trkpt lat="46.71654" lon="5.65606">
        <ele>503</ele>
        <time>2020-12-19T11:30:48Z</time>
      </trkpt>
      <trkpt lat="46.71655" lon="5.65609">
        <ele>503</ele>
        <time>2020-12-19T11:30:49Z</time>
      </trkpt>
      <trkpt lat="46.71657" lon="5.65613">
        <ele>503</ele>
        <time>2020-12-19T11:30:50Z</time>
      </trkpt>
      <trkpt lat="46.71658" lon="5.65617">
        <ele>503</ele>
        <time>2020-12-19T11:30:51Z</time>
      </trkpt>
      <trkpt lat="46.71659" lon="5.6562">
        <ele>503</ele>
        <time>2020-12-19T11:30:52Z</time>
      </trkpt>
      <trkpt lat="46.7166" lon="5.65624">
        <ele>503</ele>
        <time>2020-12-19T11:30:53Z</time>
      </trkpt>
      <trkpt lat="46.71661" lon="5.65627">
        <ele>503</ele>
        <time>2020-12-19T11:30:54Z</time>
      </trkpt>
      <trkpt lat="46.71663" lon="5.6563">
        <ele>503</ele>
        <time>2020-12-19T11:30:55Z</time>
      </trkpt>
      <trkpt lat="46.71664" lon="5.65633">
        <ele>503</ele>
        <time>2020-12-19T11:30:56Z</time>
      </trkpt>
      <trkpt lat="46.71665" lon="5.65636">
        <ele>503</ele>
        <time>2020-12-19T11:30:57Z</time>
      </trkpt>
      <trkpt lat="46.71667" lon="5.65639">
        <ele>502.8</ele>
        <time>2020-12-19T11:30:58Z</time>
      </trkpt>
      <trkpt lat="46.71668" lon="5.65642">
        <ele>502.8</ele>
        <time>2020-12-19T11:30:59Z</time>
      </trkpt>
      <trkpt lat="46.71669" lon="5.65645">
        <ele>502.8</ele>
        <time>2020-12-19T11:31:00Z</time>
      </trkpt>
      <trkpt lat="46.71671" lon="5.65647">
        <ele>502.8</ele>
        <time>2020-12-19T11:31:01Z</time>
      </trkpt>
      <trkpt lat="46.71671" lon="5.65651">
        <ele>502.8</ele>
        <time>2020-12-19T11:31:02Z</time>
      </trkpt>
      <trkpt lat="46.71671" lon="5.65654">
        <ele>502.6</ele>
        <time>2020-12-19T11:31:03Z</time>
      </trkpt>
      <trkpt lat="46.71671" lon="5.65658">
        <ele>502.6</ele>
        <time>2020-12-19T11:31:04Z</time>
      </trkpt>
      <trkpt lat="46.7167" lon="5.65661">
        <ele>502.4</ele>
        <time>2020-12-19T11:31:05Z</time>
      </trkpt>
      <trkpt lat="46.71669" lon="5.65665">
        <ele>502.4</ele>
        <time>2020-12-19T11:31:06Z</time>
      </trkpt>
      <trkpt lat="46.71668" lon="5.65669">
        <ele>502.4</ele>
        <time>2020-12-19T11:31:07Z</time>
      </trkpt>
      <trkpt lat="46.71667" lon="5.65673">
        <ele>502.4</ele>
        <time>2020-12-19T11:31:08Z</time>
      </trkpt>
      <trkpt lat="46.71666" lon="5.65678">
        <ele>502.4</ele>
        <time>2020-12-19T11:31:09Z</time>
      </trkpt>
      <trkpt lat="46.71665" lon="5.65683">
        <ele>502.2</ele>
        <time>2020-12-19T11:31:10Z</time>
      </trkpt>
      <trkpt lat="46.71664" lon="5.65688">
        <ele>502.2</ele>
        <time>2020-12-19T11:31:11Z</time>
      </trkpt>
      <trkpt lat="46.71664" lon="5.65694">
        <ele>502.2</ele>
        <time>2020-12-19T11:31:12Z</time>
      </trkpt>
      <trkpt lat="46.71663" lon="5.657">
        <ele>502.2</ele>
        <time>2020-12-19T11:31:13Z</time>
      </trkpt>
      <trkpt lat="46.71663" lon="5.65706">
        <ele>502.2</ele>
        <time>2020-12-19T11:31:14Z</time>
      </trkpt>
      <trkpt lat="46.71662" lon="5.65711">
        <ele>501.8</ele>
        <time>2020-12-19T11:31:15Z</time>
      </trkpt>
      <trkpt lat="46.71662" lon="5.65716">
        <ele>501.8</ele>
        <time>2020-12-19T11:31:16Z</time>
      </trkpt>
      <trkpt lat="46.71662" lon="5.65721">
        <ele>501.8</ele>
        <time>2020-12-19T11:31:17Z</time>
      </trkpt>
      <trkpt lat="46.71662" lon="5.65725">
        <ele>501.8</ele>
        <time>2020-12-19T11:31:18Z</time>
      </trkpt>
      <trkpt lat="46.71663" lon="5.65729">
        <ele>501.8</ele>
        <time>2020-12-19T11:31:19Z</time>
      </trkpt>
      <trkpt lat="46.71663" lon="5.65733">
        <ele>501.6</ele>
        <time>2020-12-19T11:31:20Z</time>
      </trkpt>
      <trkpt lat="46.71664" lon="5.65737">
        <ele>501.6</ele>
        <time>2020-12-19T11:31:21Z</time>
      </trkpt>
      <trkpt lat="46.71664" lon="5.65742">
        <ele>501.6</ele>
        <time>2020-12-19T11:31:22Z</time>
      </trkpt>
      <trkpt lat="46.71664" lon="5.65746">
        <ele>501.6</ele>
        <time>2020-12-19T11:31:23Z</time>
      </trkpt>
      <trkpt lat="46.71664" lon="5.65751">
        <ele>501.6</ele>
        <time>2020-12-19T11:31:24Z</time>
      </trkpt>
      <trkpt lat="46.71664" lon="5.65756">
        <ele>501.6</ele>
        <time>2020-12-19T11:31:25Z</time>
      </trkpt>
      <trkpt lat="46.71665" lon="5.65761">
        <ele>501.6</ele>
        <time>2020-12-19T11:31:26Z</time>
      </trkpt>
      <trkpt lat="46.71666" lon="5.65767">
        <ele>501.6</ele>
        <time>2020-12-19T11:31:27Z</time>
      </trkpt>
      <trkpt lat="46.71666" lon="5.65772">
        <ele>501.6</ele>
        <time>2020-12-19T11:31:28Z</time>
      </trkpt>
      <trkpt lat="46.71667" lon="5.65777">
        <ele>501.6</ele>
        <time>2020-12-19T11:31:29Z</time>
      </trkpt>
      <trkpt lat="46.71667" lon="5.65781">
        <ele>501.6</ele>
        <time>2020-12-19T11:31:30Z</time>
      </trkpt>
      <trkpt lat="46.71668" lon="5.65786">
        <ele>501.6</ele>
        <time>2020-12-19T11:31:31Z</time>
      </trkpt>
      <trkpt lat="46.71669" lon="5.6579">
        <ele>501.6</ele>
        <time>2020-12-19T11:31:32Z</time>
      </trkpt>
      <trkpt lat="46.71669" lon="5.65795">
        <ele>501.6</ele>
        <time>2020-12-19T11:31:33Z</time>
      </trkpt>
      <trkpt lat="46.7167" lon="5.65798">
        <ele>501.6</ele>
        <time>2020-12-19T11:31:34Z</time>
      </trkpt>
      <trkpt lat="46.7167" lon="5.65802">
        <ele>501.6</ele>
        <time>2020-12-19T11:31:35Z</time>
      </trkpt>
      <trkpt lat="46.71671" lon="5.65806">
        <ele>501.6</ele>
        <time>2020-12-19T11:31:36Z</time>
      </trkpt>
      <trkpt lat="46.71671" lon="5.65809">
        <ele>501.6</ele>
        <time>2020-12-19T11:31:37Z</time>
      </trkpt>
      <trkpt lat="46.71672" lon="5.65813">
        <ele>501.6</ele>
        <time>2020-12-19T11:31:38Z</time>
      </trkpt>
      <trkpt lat="46.71672" lon="5.65817">
        <ele>501.6</ele>
        <time>2020-12-19T11:31:39Z</time>
      </trkpt>
      <trkpt lat="46.71673" lon="5.65821">
        <ele>501.6</ele>
        <time>2020-12-19T11:31:40Z</time>
      </trkpt>
      <trkpt lat="46.71673" lon="5.65825">
        <ele>501.6</ele>
        <time>2020-12-19T11:31:41Z</time>
      </trkpt>
      <trkpt lat="46.71674" lon="5.65829">
        <ele>501.6</ele>
        <time>2020-12-19T11:31:42Z</time>
      </trkpt>
      <trkpt lat="46.71674" lon="5.65833">
        <ele>502</ele>
        <time>2020-12-19T11:31:43Z</time>
      </trkpt>
      <trkpt lat="46.71674" lon="5.65837">
        <ele>502</ele>
        <time>2020-12-19T11:31:44Z</time>
      </trkpt>
      <trkpt lat="46.71675" lon="5.6584">
        <ele>502.2</ele>
        <time>2020-12-19T11:31:45Z</time>
      </trkpt>
      <trkpt lat="46.71675" lon="5.65844">
        <ele>502.2</ele>
        <time>2020-12-19T11:31:46Z</time>
      </trkpt>
      <trkpt lat="46.71675" lon="5.65848">
        <ele>502.4</ele>
        <time>2020-12-19T11:31:47Z</time>
      </trkpt>
      <trkpt lat="46.71675" lon="5.65852">
        <ele>502.4</ele>
        <time>2020-12-19T11:31:48Z</time>
      </trkpt>
      <trkpt lat="46.71675" lon="5.65856">
        <ele>502.4</ele>
        <time>2020-12-19T11:31:49Z</time>
      </trkpt>
      <trkpt lat="46.71674" lon="5.6586">
        <ele>502.8</ele>
        <time>2020-12-19T11:31:50Z</time>
      </trkpt>
      <trkpt lat="46.71674" lon="5.65864">
        <ele>502.8</ele>
        <time>2020-12-19T11:31:51Z</time>
      </trkpt>
      <trkpt lat="46.71674" lon="5.65868">
        <ele>502.8</ele>
        <time>2020-12-19T11:31:52Z</time>
      </trkpt>
      <trkpt lat="46.71673" lon="5.65872">
        <ele>502.8</ele>
        <time>2020-12-19T11:31:53Z</time>
      </trkpt>
      <trkpt lat="46.71673" lon="5.65876">
        <ele>502.8</ele>
        <time>2020-12-19T11:31:54Z</time>
      </trkpt>
      <trkpt lat="46.71673" lon="5.6588">
        <ele>503</ele>
        <time>2020-12-19T11:31:55Z</time>
      </trkpt>
      <trkpt lat="46.71673" lon="5.65885">
        <ele>503</ele>
        <time>2020-12-19T11:31:56Z</time>
      </trkpt>
      <trkpt lat="46.71672" lon="5.65889">
        <ele>503</ele>
        <time>2020-12-19T11:31:57Z</time>
      </trkpt>
      <trkpt lat="46.71672" lon="5.65893">
        <ele>503.4</ele>
        <time>2020-12-19T11:31:58Z</time>
      </trkpt>
      <trkpt lat="46.71672" lon="5.65898">
        <ele>503.4</ele>
        <time>2020-12-19T11:31:59Z</time>
      </trkpt>
      <trkpt lat="46.71672" lon="5.65902">
        <ele>503.4</ele>
        <time>2020-12-19T11:32:00Z</time>
      </trkpt>
      <trkpt lat="46.71673" lon="5.65907">
        <ele>503.4</ele>
        <time>2020-12-19T11:32:01Z</time>
      </trkpt>
      <trkpt lat="46.71674" lon="5.65911">
        <ele>503.4</ele>
        <time>2020-12-19T11:32:02Z</time>
      </trkpt>
      <trkpt lat="46.71674" lon="5.65916">
        <ele>503.4</ele>
        <time>2020-12-19T11:32:03Z</time>
      </trkpt>
      <trkpt lat="46.71675" lon="5.6592">
        <ele>503.4</ele>
        <time>2020-12-19T11:32:04Z</time>
      </trkpt>
      <trkpt lat="46.71676" lon="5.65925">
        <ele>503</ele>
        <time>2020-12-19T11:32:05Z</time>
      </trkpt>
      <trkpt lat="46.71677" lon="5.65929">
        <ele>503</ele>
        <time>2020-12-19T11:32:06Z</time>
      </trkpt>
      <trkpt lat="46.71678" lon="5.65934">
        <ele>503</ele>
        <time>2020-12-19T11:32:07Z</time>
      </trkpt>
      <trkpt lat="46.7168" lon="5.65939">
        <ele>502.8</ele>
        <time>2020-12-19T11:32:08Z</time>
      </trkpt>
      <trkpt lat="46.71682" lon="5.65944">
        <ele>502.8</ele>
        <time>2020-12-19T11:32:09Z</time>
      </trkpt>
      <trkpt lat="46.71684" lon="5.65948">
        <ele>502.6</ele>
        <time>2020-12-19T11:32:10Z</time>
      </trkpt>
      <trkpt lat="46.71687" lon="5.65953">
        <ele>502.6</ele>
        <time>2020-12-19T11:32:11Z</time>
      </trkpt>
      <trkpt lat="46.7169" lon="5.65958">
        <ele>502.6</ele>
        <time>2020-12-19T11:32:12Z</time>
      </trkpt>
      <trkpt lat="46.71693" lon="5.65964">
        <ele>502.2</ele>
        <time>2020-12-19T11:32:13Z</time>
      </trkpt>
      <trkpt lat="46.71696" lon="5.65969">
        <ele>502.2</ele>
        <time>2020-12-19T11:32:14Z</time>
      </trkpt>
      <trkpt lat="46.71699" lon="5.65974">
        <ele>502.2</ele>
        <time>2020-12-19T11:32:15Z</time>
      </trkpt>
      <trkpt lat="46.71702" lon="5.65979">
        <ele>502</ele>
        <time>2020-12-19T11:32:16Z</time>
      </trkpt>
      <trkpt lat="46.71704" lon="5.65984">
        <ele>502</ele>
        <time>2020-12-19T11:32:17Z</time>
      </trkpt>
      <trkpt lat="46.71706" lon="5.6599">
        <ele>502</ele>
        <time>2020-12-19T11:32:18Z</time>
      </trkpt>
      <trkpt lat="46.71707" lon="5.65996">
        <ele>502</ele>
        <time>2020-12-19T11:32:19Z</time>
      </trkpt>
      <trkpt lat="46.71708" lon="5.66001">
        <ele>502</ele>
        <time>2020-12-19T11:32:20Z</time>
      </trkpt>
      <trkpt lat="46.71709" lon="5.66007">
        <ele>502</ele>
        <time>2020-12-19T11:32:21Z</time>
      </trkpt>
      <trkpt lat="46.7171" lon="5.66012">
        <ele>502</ele>
        <time>2020-12-19T11:32:22Z</time>
      </trkpt>
      <trkpt lat="46.7171" lon="5.66017">
        <ele>502.2</ele>
        <time>2020-12-19T11:32:23Z</time>
      </trkpt>
      <trkpt lat="46.7171" lon="5.66022">
        <ele>502.2</ele>
        <time>2020-12-19T11:32:24Z</time>
      </trkpt>
      <trkpt lat="46.7171" lon="5.66028">
        <ele>502.2</ele>
        <time>2020-12-19T11:32:25Z</time>
      </trkpt>
      <trkpt lat="46.7171" lon="5.66033">
        <ele>502.2</ele>
        <time>2020-12-19T11:32:26Z</time>
      </trkpt>
      <trkpt lat="46.71711" lon="5.66038">
        <ele>502.2</ele>
        <time>2020-12-19T11:32:27Z</time>
      </trkpt>
      <trkpt lat="46.71711" lon="5.66043">
        <ele>502.2</ele>
        <time>2020-12-19T11:32:28Z</time>
      </trkpt>
      <trkpt lat="46.71711" lon="5.66048">
        <ele>502.2</ele>
        <time>2020-12-19T11:32:29Z</time>
      </trkpt>
      <trkpt lat="46.71711" lon="5.66053">
        <ele>502.6</ele>
        <time>2020-12-19T11:32:30Z</time>
      </trkpt>
      <trkpt lat="46.71711" lon="5.66057">
        <ele>502.6</ele>
        <time>2020-12-19T11:32:31Z</time>
      </trkpt>
      <trkpt lat="46.71712" lon="5.66062">
        <ele>502.8</ele>
        <time>2020-12-19T11:32:32Z</time>
      </trkpt>
      <trkpt lat="46.71712" lon="5.66066">
        <ele>502.8</ele>
        <time>2020-12-19T11:32:33Z</time>
      </trkpt>
      <trkpt lat="46.71712" lon="5.66071">
        <ele>503</ele>
        <time>2020-12-19T11:32:34Z</time>
      </trkpt>
      <trkpt lat="46.71713" lon="5.66075">
        <ele>503</ele>
        <time>2020-12-19T11:32:35Z</time>
      </trkpt>
      <trkpt lat="46.71713" lon="5.6608">
        <ele>503.4</ele>
        <time>2020-12-19T11:32:36Z</time>
      </trkpt>
      <trkpt lat="46.71714" lon="5.66084">
        <ele>503.4</ele>
        <time>2020-12-19T11:32:37Z</time>
      </trkpt>
      <trkpt lat="46.71715" lon="5.66089">
        <ele>503.8</ele>
        <time>2020-12-19T11:32:38Z</time>
      </trkpt>
      <trkpt lat="46.71716" lon="5.66093">
        <ele>503.8</ele>
        <time>2020-12-19T11:32:39Z</time>
      </trkpt>
      <trkpt lat="46.71717" lon="5.66097">
        <ele>504</ele>
        <time>2020-12-19T11:32:40Z</time>
      </trkpt>
      <trkpt lat="46.71717" lon="5.66101">
        <ele>504</ele>
        <time>2020-12-19T11:32:41Z</time>
      </trkpt>
      <trkpt lat="46.71718" lon="5.66105">
        <ele>504.4</ele>
        <time>2020-12-19T11:32:42Z</time>
      </trkpt>
      <trkpt lat="46.71719" lon="5.66109">
        <ele>504.4</ele>
        <time>2020-12-19T11:32:43Z</time>
      </trkpt>
      <trkpt lat="46.71719" lon="5.66113">
        <ele>504.6</ele>
        <time>2020-12-19T11:32:44Z</time>
      </trkpt>
      <trkpt lat="46.7172" lon="5.66117">
        <ele>504.6</ele>
        <time>2020-12-19T11:32:45Z</time>
      </trkpt>
      <trkpt lat="46.7172" lon="5.66121">
        <ele>505</ele>
        <time>2020-12-19T11:32:46Z</time>
      </trkpt>
      <trkpt lat="46.71721" lon="5.66125">
        <ele>505</ele>
        <time>2020-12-19T11:32:47Z</time>
      </trkpt>
      <trkpt lat="46.71721" lon="5.66128">
        <ele>505.2</ele>
        <time>2020-12-19T11:32:48Z</time>
      </trkpt>
      <trkpt lat="46.71722" lon="5.66132">
        <ele>505.2</ele>
        <time>2020-12-19T11:32:49Z</time>
      </trkpt>
      <trkpt lat="46.71722" lon="5.66135">
        <ele>505.6</ele>
        <time>2020-12-19T11:32:50Z</time>
      </trkpt>
      <trkpt lat="46.71723" lon="5.66139">
        <ele>505.8</ele>
        <time>2020-12-19T11:32:51Z</time>
      </trkpt>
      <trkpt lat="46.71723" lon="5.66143">
        <ele>505.8</ele>
        <time>2020-12-19T11:32:52Z</time>
      </trkpt>
      <trkpt lat="46.71724" lon="5.66146">
        <ele>506</ele>
        <time>2020-12-19T11:32:53Z</time>
      </trkpt>
      <trkpt lat="46.71725" lon="5.66149">
        <ele>506</ele>
        <time>2020-12-19T11:32:54Z</time>
      </trkpt>
      <trkpt lat="46.71725" lon="5.66152">
        <ele>506.4</ele>
        <time>2020-12-19T11:32:55Z</time>
      </trkpt>
      <trkpt lat="46.71726" lon="5.66155">
        <ele>506.4</ele>
        <time>2020-12-19T11:32:56Z</time>
      </trkpt>
      <trkpt lat="46.71726" lon="5.66159">
        <ele>506.4</ele>
        <time>2020-12-19T11:32:57Z</time>
      </trkpt>
      <trkpt lat="46.71728" lon="5.66162">
        <ele>506.6</ele>
        <time>2020-12-19T11:32:58Z</time>
      </trkpt>
      <trkpt lat="46.71729" lon="5.66165">
        <ele>506.6</ele>
        <time>2020-12-19T11:32:59Z</time>
      </trkpt>
      <trkpt lat="46.71731" lon="5.66168">
        <ele>506.8</ele>
        <time>2020-12-19T11:33:00Z</time>
      </trkpt>
      <trkpt lat="46.71732" lon="5.66171">
        <ele>506.8</ele>
        <time>2020-12-19T11:33:01Z</time>
      </trkpt>
      <trkpt lat="46.71734" lon="5.66174">
        <ele>507.2</ele>
        <time>2020-12-19T11:33:02Z</time>
      </trkpt>
      <trkpt lat="46.71735" lon="5.66177">
        <ele>507.2</ele>
        <time>2020-12-19T11:33:03Z</time>
      </trkpt>
      <trkpt lat="46.71737" lon="5.66181">
        <ele>507.4</ele>
        <time>2020-12-19T11:33:04Z</time>
      </trkpt>
      <trkpt lat="46.71739" lon="5.66184">
        <ele>507.4</ele>
        <time>2020-12-19T11:33:05Z</time>
      </trkpt>
      <trkpt lat="46.7174" lon="5.66187">
        <ele>507.8</ele>
        <time>2020-12-19T11:33:06Z</time>
      </trkpt>
      <trkpt lat="46.71742" lon="5.6619">
        <ele>507.8</ele>
        <time>2020-12-19T11:33:07Z</time>
      </trkpt>
      <trkpt lat="46.71743" lon="5.66193">
        <ele>508.2</ele>
        <time>2020-12-19T11:33:08Z</time>
      </trkpt>
      <trkpt lat="46.71745" lon="5.66196">
        <ele>508.2</ele>
        <time>2020-12-19T11:33:09Z</time>
      </trkpt>
      <trkpt lat="46.71746" lon="5.66199">
        <ele>508.4</ele>
        <time>2020-12-19T11:33:10Z</time>
      </trkpt>
      <trkpt lat="46.71747" lon="5.66203">
        <ele>508.4</ele>
        <time>2020-12-19T11:33:11Z</time>
      </trkpt>
      <trkpt lat="46.71748" lon="5.66206">
        <ele>508.6</ele>
        <time>2020-12-19T11:33:12Z</time>
      </trkpt>
      <trkpt lat="46.7175" lon="5.66209">
        <ele>508.6</ele>
        <time>2020-12-19T11:33:13Z</time>
      </trkpt>
      <trkpt lat="46.71751" lon="5.66212">
        <ele>509</ele>
        <time>2020-12-19T11:33:14Z</time>
      </trkpt>
      <trkpt lat="46.71752" lon="5.66215">
        <ele>509</ele>
        <time>2020-12-19T11:33:15Z</time>
      </trkpt>
      <trkpt lat="46.71753" lon="5.66219">
        <ele>509.2</ele>
        <time>2020-12-19T11:33:16Z</time>
      </trkpt>
      <trkpt lat="46.71753" lon="5.66222">
        <ele>509.2</ele>
        <time>2020-12-19T11:33:17Z</time>
      </trkpt>
      <trkpt lat="46.71754" lon="5.66226">
        <ele>509.4</ele>
        <time>2020-12-19T11:33:18Z</time>
      </trkpt>
      <trkpt lat="46.71755" lon="5.6623">
        <ele>509.4</ele>
        <time>2020-12-19T11:33:19Z</time>
      </trkpt>
      <trkpt lat="46.71756" lon="5.66234">
        <ele>509.6</ele>
        <time>2020-12-19T11:33:20Z</time>
      </trkpt>
      <trkpt lat="46.71756" lon="5.66238">
        <ele>509.6</ele>
        <time>2020-12-19T11:33:21Z</time>
      </trkpt>
      <trkpt lat="46.71757" lon="5.66241">
        <ele>509.6</ele>
        <time>2020-12-19T11:33:22Z</time>
      </trkpt>
      <trkpt lat="46.71757" lon="5.66245">
        <ele>509.6</ele>
        <time>2020-12-19T11:33:23Z</time>
      </trkpt>
      <trkpt lat="46.71758" lon="5.66249">
        <ele>510</ele>
        <time>2020-12-19T11:33:24Z</time>
      </trkpt>
      <trkpt lat="46.71759" lon="5.66252">
        <ele>510</ele>
        <time>2020-12-19T11:33:25Z</time>
      </trkpt>
      <trkpt lat="46.7176" lon="5.66256">
        <ele>510</ele>
        <time>2020-12-19T11:33:26Z</time>
      </trkpt>
      <trkpt lat="46.7176" lon="5.6626">
        <ele>510</ele>
        <time>2020-12-19T11:33:27Z</time>
      </trkpt>
      <trkpt lat="46.71761" lon="5.66263">
        <ele>510.2</ele>
        <time>2020-12-19T11:33:28Z</time>
      </trkpt>
      <trkpt lat="46.71762" lon="5.66267">
        <ele>510.2</ele>
        <time>2020-12-19T11:33:29Z</time>
      </trkpt>
      <trkpt lat="46.71763" lon="5.66271">
        <ele>510.2</ele>
        <time>2020-12-19T11:33:30Z</time>
      </trkpt>
      <trkpt lat="46.71764" lon="5.66274">
        <ele>510.6</ele>
        <time>2020-12-19T11:33:31Z</time>
      </trkpt>
      <trkpt lat="46.71766" lon="5.66278">
        <ele>510.6</ele>
        <time>2020-12-19T11:33:32Z</time>
      </trkpt>
      <trkpt lat="46.71767" lon="5.66282">
        <ele>510.8</ele>
        <time>2020-12-19T11:33:33Z</time>
      </trkpt>
      <trkpt lat="46.71769" lon="5.66285">
        <ele>510.8</ele>
        <time>2020-12-19T11:33:34Z</time>
      </trkpt>
      <trkpt lat="46.7177" lon="5.66288">
        <ele>511</ele>
        <time>2020-12-19T11:33:35Z</time>
      </trkpt>
      <trkpt lat="46.71771" lon="5.66291">
        <ele>511</ele>
        <time>2020-12-19T11:33:36Z</time>
      </trkpt>
      <trkpt lat="46.71773" lon="5.66295">
        <ele>511</ele>
        <time>2020-12-19T11:33:37Z</time>
      </trkpt>
      <trkpt lat="46.71774" lon="5.66298">
        <ele>511</ele>
        <time>2020-12-19T11:33:38Z</time>
      </trkpt>
      <trkpt lat="46.71775" lon="5.66301">
        <ele>511.2</ele>
        <time>2020-12-19T11:33:39Z</time>
      </trkpt>
      <trkpt lat="46.71776" lon="5.66305">
        <ele>511.2</ele>
        <time>2020-12-19T11:33:40Z</time>
      </trkpt>
      <trkpt lat="46.71777" lon="5.66308">
        <ele>511.2</ele>
        <time>2020-12-19T11:33:41Z</time>
      </trkpt>
      <trkpt lat="46.71779" lon="5.66311">
        <ele>511.2</ele>
        <time>2020-12-19T11:33:42Z</time>
      </trkpt>
      <trkpt lat="46.7178" lon="5.66315">
        <ele>511.2</ele>
        <time>2020-12-19T11:33:43Z</time>
      </trkpt>
      <trkpt lat="46.71782" lon="5.66318">
        <ele>511.2</ele>
        <time>2020-12-19T11:33:44Z</time>
      </trkpt>
      <trkpt lat="46.71783" lon="5.66322">
        <ele>511.2</ele>
        <time>2020-12-19T11:33:45Z</time>
      </trkpt>
      <trkpt lat="46.71784" lon="5.66325">
        <ele>511.2</ele>
        <time>2020-12-19T11:33:46Z</time>
      </trkpt>
      <trkpt lat="46.71786" lon="5.66329">
        <ele>511.2</ele>
        <time>2020-12-19T11:33:47Z</time>
      </trkpt>
      <trkpt lat="46.71787" lon="5.66332">
        <ele>511.2</ele>
        <time>2020-12-19T11:33:48Z</time>
      </trkpt>
      <trkpt lat="46.71789" lon="5.66336">
        <ele>511.2</ele>
        <time>2020-12-19T11:33:49Z</time>
      </trkpt>
      <trkpt lat="46.7179" lon="5.6634">
        <ele>511.2</ele>
        <time>2020-12-19T11:33:50Z</time>
      </trkpt>
      <trkpt lat="46.71791" lon="5.66344">
        <ele>511.2</ele>
        <time>2020-12-19T11:33:51Z</time>
      </trkpt>
      <trkpt lat="46.71792" lon="5.66348">
        <ele>511</ele>
        <time>2020-12-19T11:33:52Z</time>
      </trkpt>
      <trkpt lat="46.71793" lon="5.66352">
        <ele>511</ele>
        <time>2020-12-19T11:33:53Z</time>
      </trkpt>
      <trkpt lat="46.71795" lon="5.66356">
        <ele>511</ele>
        <time>2020-12-19T11:33:54Z</time>
      </trkpt>
      <trkpt lat="46.71796" lon="5.6636">
        <ele>511</ele>
        <time>2020-12-19T11:33:55Z</time>
      </trkpt>
      <trkpt lat="46.71798" lon="5.66364">
        <ele>511</ele>
        <time>2020-12-19T11:33:56Z</time>
      </trkpt>
      <trkpt lat="46.71799" lon="5.66369">
        <ele>511</ele>
        <time>2020-12-19T11:33:57Z</time>
      </trkpt>
      <trkpt lat="46.718" lon="5.66373">
        <ele>511</ele>
        <time>2020-12-19T11:33:58Z</time>
      </trkpt>
      <trkpt lat="46.71802" lon="5.66378">
        <ele>511</ele>
        <time>2020-12-19T11:33:59Z</time>
      </trkpt>
      <trkpt lat="46.71803" lon="5.66382">
        <ele>511</ele>
        <time>2020-12-19T11:34:00Z</time>
      </trkpt>
      <trkpt lat="46.71805" lon="5.66386">
        <ele>511</ele>
        <time>2020-12-19T11:34:01Z</time>
      </trkpt>
      <trkpt lat="46.71806" lon="5.66389">
        <ele>511</ele>
        <time>2020-12-19T11:34:02Z</time>
      </trkpt>
      <trkpt lat="46.71807" lon="5.66393">
        <ele>511</ele>
        <time>2020-12-19T11:34:03Z</time>
      </trkpt>
      <trkpt lat="46.71808" lon="5.66397">
        <ele>511</ele>
        <time>2020-12-19T11:34:04Z</time>
      </trkpt>
      <trkpt lat="46.71809" lon="5.664">
        <ele>511</ele>
        <time>2020-12-19T11:34:05Z</time>
      </trkpt>
      <trkpt lat="46.71811" lon="5.66404">
        <ele>511</ele>
        <time>2020-12-19T11:34:06Z</time>
      </trkpt>
      <trkpt lat="46.71812" lon="5.66408">
        <ele>511</ele>
        <time>2020-12-19T11:34:07Z</time>
      </trkpt>
      <trkpt lat="46.71813" lon="5.66411">
        <ele>511</ele>
        <time>2020-12-19T11:34:08Z</time>
      </trkpt>
      <trkpt lat="46.71813" lon="5.66415">
        <ele>511</ele>
        <time>2020-12-19T11:34:09Z</time>
      </trkpt>
      <trkpt lat="46.71814" lon="5.66419">
        <ele>511.4</ele>
        <time>2020-12-19T11:34:10Z</time>
      </trkpt>
      <trkpt lat="46.71815" lon="5.66422">
        <ele>511.4</ele>
        <time>2020-12-19T11:34:11Z</time>
      </trkpt>
      <trkpt lat="46.71816" lon="5.66426">
        <ele>511.6</ele>
        <time>2020-12-19T11:34:12Z</time>
      </trkpt>
      <trkpt lat="46.71816" lon="5.66429">
        <ele>511.6</ele>
        <time>2020-12-19T11:34:13Z</time>
      </trkpt>
      <trkpt lat="46.71816" lon="5.66433">
        <ele>511.6</ele>
        <time>2020-12-19T11:34:14Z</time>
      </trkpt>
      <trkpt lat="46.71815" lon="5.66436">
        <ele>511.6</ele>
        <time>2020-12-19T11:34:15Z</time>
      </trkpt>
      <trkpt lat="46.71815" lon="5.66439">
        <ele>511.6</ele>
        <time>2020-12-19T11:34:16Z</time>
      </trkpt>
      <trkpt lat="46.71814" lon="5.66441">
        <ele>511.6</ele>
        <time>2020-12-19T11:34:17Z</time>
      </trkpt>
      <trkpt lat="46.71814" lon="5.66444">
        <ele>511.6</ele>
        <time>2020-12-19T11:34:18Z</time>
      </trkpt>
      <trkpt lat="46.71813" lon="5.66447">
        <ele>511.6</ele>
        <time>2020-12-19T11:34:19Z</time>
      </trkpt>
      <trkpt lat="46.71813" lon="5.66449">
        <ele>511.6</ele>
        <time>2020-12-19T11:34:20Z</time>
      </trkpt>
      <trkpt lat="46.71813" lon="5.66452">
        <ele>511.8</ele>
        <time>2020-12-19T11:34:21Z</time>
      </trkpt>
      <trkpt lat="46.71812" lon="5.66454">
        <ele>511.8</ele>
        <time>2020-12-19T11:34:22Z</time>
      </trkpt>
      <trkpt lat="46.71812" lon="5.66456">
        <ele>511.8</ele>
        <time>2020-12-19T11:34:23Z</time>
      </trkpt>
      <trkpt lat="46.71811" lon="5.66459">
        <ele>511.8</ele>
        <time>2020-12-19T11:34:24Z</time>
      </trkpt>
      <trkpt lat="46.71811" lon="5.66461">
        <ele>511.8</ele>
        <time>2020-12-19T11:34:25Z</time>
      </trkpt>
      <trkpt lat="46.7181" lon="5.66463">
        <ele>511.8</ele>
        <time>2020-12-19T11:34:26Z</time>
      </trkpt>
      <trkpt lat="46.71809" lon="5.66466">
        <ele>511.8</ele>
        <time>2020-12-19T11:34:27Z</time>
      </trkpt>
      <trkpt lat="46.71808" lon="5.66468">
        <ele>511.6</ele>
        <time>2020-12-19T11:34:28Z</time>
      </trkpt>
      <trkpt lat="46.71807" lon="5.6647">
        <ele>511.6</ele>
        <time>2020-12-19T11:34:29Z</time>
      </trkpt>
      <trkpt lat="46.71807" lon="5.66471">
        <ele>511.6</ele>
        <time>2020-12-19T11:34:30Z</time>
      </trkpt>
      <trkpt lat="46.71806" lon="5.66473">
        <ele>511.6</ele>
        <time>2020-12-19T11:34:31Z</time>
      </trkpt>
      <trkpt lat="46.71805" lon="5.66475">
        <ele>511.6</ele>
        <time>2020-12-19T11:34:32Z</time>
      </trkpt>
      <trkpt lat="46.71804" lon="5.66477">
        <ele>511.6</ele>
        <time>2020-12-19T11:34:33Z</time>
      </trkpt>
      <trkpt lat="46.71803" lon="5.66478">
        <ele>511.6</ele>
        <time>2020-12-19T11:34:34Z</time>
      </trkpt>
      <trkpt lat="46.71803" lon="5.6648">
        <ele>511.6</ele>
        <time>2020-12-19T11:34:35Z</time>
      </trkpt>
      <trkpt lat="46.71802" lon="5.66482">
        <ele>511.6</ele>
        <time>2020-12-19T11:34:36Z</time>
      </trkpt>
      <trkpt lat="46.71801" lon="5.66484">
        <ele>511.2</ele>
        <time>2020-12-19T11:34:37Z</time>
      </trkpt>
      <trkpt lat="46.71801" lon="5.66486">
        <ele>511.2</ele>
        <time>2020-12-19T11:34:38Z</time>
      </trkpt>
      <trkpt lat="46.718" lon="5.66489">
        <ele>511.2</ele>
        <time>2020-12-19T11:34:39Z</time>
      </trkpt>
      <trkpt lat="46.718" lon="5.66491">
        <ele>511.2</ele>
        <time>2020-12-19T11:34:40Z</time>
      </trkpt>
      <trkpt lat="46.71799" lon="5.66494">
        <ele>511.2</ele>
        <time>2020-12-19T11:34:41Z</time>
      </trkpt>
      <trkpt lat="46.71798" lon="5.66496">
        <ele>511.2</ele>
        <time>2020-12-19T11:34:42Z</time>
      </trkpt>
      <trkpt lat="46.71798" lon="5.66498">
        <ele>511.2</ele>
        <time>2020-12-19T11:34:43Z</time>
      </trkpt>
      <trkpt lat="46.71797" lon="5.665">
        <ele>511</ele>
        <time>2020-12-19T11:34:44Z</time>
      </trkpt>
      <trkpt lat="46.71797" lon="5.66501">
        <ele>511</ele>
        <time>2020-12-19T11:34:45Z</time>
      </trkpt>
      <trkpt lat="46.71797" lon="5.66501">
        <ele>511</ele>
        <time>2020-12-19T11:34:46Z</time>
      </trkpt>
      <trkpt lat="46.71796" lon="5.66503">
        <ele>510.8</ele>
        <time>2020-12-19T11:34:54Z</time>
      </trkpt>
      <trkpt lat="46.71796" lon="5.66504">
        <ele>510.8</ele>
        <time>2020-12-19T11:34:55Z</time>
      </trkpt>
      <trkpt lat="46.71795" lon="5.66506">
        <ele>510.6</ele>
        <time>2020-12-19T11:34:56Z</time>
      </trkpt>
      <trkpt lat="46.71795" lon="5.66507">
        <ele>510.6</ele>
        <time>2020-12-19T11:34:57Z</time>
      </trkpt>
      <trkpt lat="46.71794" lon="5.66509">
        <ele>510.6</ele>
        <time>2020-12-19T11:34:58Z</time>
      </trkpt>
      <trkpt lat="46.71794" lon="5.6651">
        <ele>510.6</ele>
        <time>2020-12-19T11:34:59Z</time>
      </trkpt>
      <trkpt lat="46.71793" lon="5.66512">
        <ele>510.6</ele>
        <time>2020-12-19T11:35:00Z</time>
      </trkpt>
      <trkpt lat="46.71793" lon="5.66513">
        <ele>510.6</ele>
        <time>2020-12-19T11:35:01Z</time>
      </trkpt>
      <trkpt lat="46.71793" lon="5.66515">
        <ele>510.6</ele>
        <time>2020-12-19T11:35:02Z</time>
      </trkpt>
      <trkpt lat="46.71792" lon="5.66516">
        <ele>510.6</ele>
        <time>2020-12-19T11:35:03Z</time>
      </trkpt>
      <trkpt lat="46.71792" lon="5.66518">
        <ele>510.6</ele>
        <time>2020-12-19T11:35:04Z</time>
      </trkpt>
      <trkpt lat="46.71791" lon="5.66519">
        <ele>510.4</ele>
        <time>2020-12-19T11:35:05Z</time>
      </trkpt>
      <trkpt lat="46.71791" lon="5.66521">
        <ele>510.4</ele>
        <time>2020-12-19T11:35:06Z</time>
      </trkpt>
      <trkpt lat="46.7179" lon="5.66522">
        <ele>510.4</ele>
        <time>2020-12-19T11:35:07Z</time>
      </trkpt>
      <trkpt lat="46.7179" lon="5.66522">
        <ele>510.4</ele>
        <time>2020-12-19T11:35:08Z</time>
      </trkpt>
      <trkpt lat="46.7179" lon="5.66523">
        <ele>510.2</ele>
        <time>2020-12-19T11:35:09Z</time>
      </trkpt>
      <trkpt lat="46.7179" lon="5.66523">
        <ele>510.2</ele>
        <time>2020-12-19T11:35:10Z</time>
      </trkpt>
      <trkpt lat="46.7179" lon="5.66523">
        <ele>510.2</ele>
        <time>2020-12-19T11:35:11Z</time>
      </trkpt>
      <trkpt lat="46.7179" lon="5.66523">
        <ele>510.2</ele>
        <time>2020-12-19T11:35:12Z</time>
      </trkpt>
      <trkpt lat="46.7179" lon="5.66526">
        <ele>512.6</ele>
        <time>2020-12-19T12:09:10Z</time>
      </trkpt>
      <trkpt lat="46.7179" lon="5.66526">
        <ele>512.6</ele>
        <time>2020-12-19T12:09:11Z</time>
      </trkpt>
      <trkpt lat="46.71792" lon="5.66526">
        <ele>512.6</ele>
        <time>2020-12-19T12:09:12Z</time>
      </trkpt>
      <trkpt lat="46.71792" lon="5.66525">
        <ele>512.6</ele>
        <time>2020-12-19T12:09:13Z</time>
      </trkpt>
      <trkpt lat="46.71793" lon="5.66525">
        <ele>512.6</ele>
        <time>2020-12-19T12:09:14Z</time>
      </trkpt>
      <trkpt lat="46.71794" lon="5.66523">
        <ele>512.8</ele>
        <time>2020-12-19T12:09:15Z</time>
      </trkpt>
      <trkpt lat="46.71794" lon="5.66522">
        <ele>512.8</ele>
        <time>2020-12-19T12:09:16Z</time>
      </trkpt>
      <trkpt lat="46.71794" lon="5.66522">
        <ele>512.8</ele>
        <time>2020-12-19T12:09:17Z</time>
      </trkpt>
      <trkpt lat="46.71794" lon="5.66521">
        <ele>512.8</ele>
        <time>2020-12-19T12:09:18Z</time>
      </trkpt>
      <trkpt lat="46.71795" lon="5.6652">
        <ele>512.8</ele>
        <time>2020-12-19T12:09:23Z</time>
      </trkpt>
      <trkpt lat="46.71795" lon="5.66519">
        <ele>512.8</ele>
        <time>2020-12-19T12:09:24Z</time>
      </trkpt>
      <trkpt lat="46.71796" lon="5.66517">
        <ele>512.6</ele>
        <time>2020-12-19T12:09:25Z</time>
      </trkpt>
      <trkpt lat="46.71796" lon="5.66516">
        <ele>512.6</ele>
        <time>2020-12-19T12:09:26Z</time>
      </trkpt>
      <trkpt lat="46.71797" lon="5.66514">
        <ele>512.6</ele>
        <time>2020-12-19T12:09:27Z</time>
      </trkpt>
      <trkpt lat="46.71797" lon="5.66513">
        <ele>512.6</ele>
        <time>2020-12-19T12:09:28Z</time>
      </trkpt>
      <trkpt lat="46.71797" lon="5.66511">
        <ele>512.8</ele>
        <time>2020-12-19T12:09:29Z</time>
      </trkpt>
      <trkpt lat="46.71797" lon="5.6651">
        <ele>512.8</ele>
        <time>2020-12-19T12:09:30Z</time>
      </trkpt>
      <trkpt lat="46.71797" lon="5.66508">
        <ele>512.8</ele>
        <time>2020-12-19T12:09:31Z</time>
      </trkpt>
      <trkpt lat="46.71798" lon="5.66506">
        <ele>512.8</ele>
        <time>2020-12-19T12:09:32Z</time>
      </trkpt>
      <trkpt lat="46.71798" lon="5.66505">
        <ele>512.8</ele>
        <time>2020-12-19T12:09:33Z</time>
      </trkpt>
      <trkpt lat="46.71798" lon="5.66503">
        <ele>512.8</ele>
        <time>2020-12-19T12:09:34Z</time>
      </trkpt>
      <trkpt lat="46.71798" lon="5.66502">
        <ele>513</ele>
        <time>2020-12-19T12:09:35Z</time>
      </trkpt>
      <trkpt lat="46.71799" lon="5.665">
        <ele>513</ele>
        <time>2020-12-19T12:09:36Z</time>
      </trkpt>
      <trkpt lat="46.71799" lon="5.66499">
        <ele>513</ele>
        <time>2020-12-19T12:09:37Z</time>
      </trkpt>
      <trkpt lat="46.718" lon="5.66497">
        <ele>513</ele>
        <time>2020-12-19T12:09:38Z</time>
      </trkpt>
      <trkpt lat="46.718" lon="5.66496">
        <ele>513</ele>
        <time>2020-12-19T12:09:39Z</time>
      </trkpt>
      <trkpt lat="46.718" lon="5.66495">
        <ele>513</ele>
        <time>2020-12-19T12:09:40Z</time>
      </trkpt>
      <trkpt lat="46.71801" lon="5.66493">
        <ele>513</ele>
        <time>2020-12-19T12:09:41Z</time>
      </trkpt>
      <trkpt lat="46.71801" lon="5.66492">
        <ele>513.2</ele>
        <time>2020-12-19T12:09:42Z</time>
      </trkpt>
      <trkpt lat="46.71801" lon="5.6649">
        <ele>513.2</ele>
        <time>2020-12-19T12:09:43Z</time>
      </trkpt>
      <trkpt lat="46.71801" lon="5.66489">
        <ele>513.2</ele>
        <time>2020-12-19T12:09:44Z</time>
      </trkpt>
      <trkpt lat="46.71802" lon="5.66487">
        <ele>513.2</ele>
        <time>2020-12-19T12:09:45Z</time>
      </trkpt>
      <trkpt lat="46.71802" lon="5.66486">
        <ele>513.4</ele>
        <time>2020-12-19T12:09:46Z</time>
      </trkpt>
      <trkpt lat="46.71803" lon="5.66484">
        <ele>513.4</ele>
        <time>2020-12-19T12:09:47Z</time>
      </trkpt>
      <trkpt lat="46.71803" lon="5.66483">
        <ele>513.4</ele>
        <time>2020-12-19T12:09:48Z</time>
      </trkpt>
      <trkpt lat="46.71803" lon="5.66481">
        <ele>513.4</ele>
        <time>2020-12-19T12:09:49Z</time>
      </trkpt>
      <trkpt lat="46.71804" lon="5.6648">
        <ele>513.4</ele>
        <time>2020-12-19T12:09:50Z</time>
      </trkpt>
      <trkpt lat="46.71804" lon="5.66478">
        <ele>513.4</ele>
        <time>2020-12-19T12:09:51Z</time>
      </trkpt>
      <trkpt lat="46.71805" lon="5.66477">
        <ele>513.8</ele>
        <time>2020-12-19T12:09:52Z</time>
      </trkpt>
      <trkpt lat="46.71805" lon="5.66476">
        <ele>513.8</ele>
        <time>2020-12-19T12:09:53Z</time>
      </trkpt>
      <trkpt lat="46.71805" lon="5.66474">
        <ele>513.8</ele>
        <time>2020-12-19T12:09:54Z</time>
      </trkpt>
      <trkpt lat="46.71806" lon="5.66473">
        <ele>513.8</ele>
        <time>2020-12-19T12:09:55Z</time>
      </trkpt>
      <trkpt lat="46.71806" lon="5.66471">
        <ele>513.8</ele>
        <time>2020-12-19T12:09:56Z</time>
      </trkpt>
      <trkpt lat="46.71806" lon="5.6647">
        <ele>513.8</ele>
        <time>2020-12-19T12:09:57Z</time>
      </trkpt>
      <trkpt lat="46.71807" lon="5.66468">
        <ele>513.8</ele>
        <time>2020-12-19T12:09:58Z</time>
      </trkpt>
      <trkpt lat="46.71807" lon="5.66467">
        <ele>513.8</ele>
        <time>2020-12-19T12:09:59Z</time>
      </trkpt>
      <trkpt lat="46.71807" lon="5.66465">
        <ele>514</ele>
        <time>2020-12-19T12:10:00Z</time>
      </trkpt>
      <trkpt lat="46.71808" lon="5.66464">
        <ele>514</ele>
        <time>2020-12-19T12:10:01Z</time>
      </trkpt>
      <trkpt lat="46.71808" lon="5.66462">
        <ele>514</ele>
        <time>2020-12-19T12:10:02Z</time>
      </trkpt>
      <trkpt lat="46.71808" lon="5.66461">
        <ele>514</ele>
        <time>2020-12-19T12:10:03Z</time>
      </trkpt>
      <trkpt lat="46.71809" lon="5.66459">
        <ele>514</ele>
        <time>2020-12-19T12:10:04Z</time>
      </trkpt>
      <trkpt lat="46.71809" lon="5.66458">
        <ele>514</ele>
        <time>2020-12-19T12:10:05Z</time>
      </trkpt>
      <trkpt lat="46.7181" lon="5.66457">
        <ele>514</ele>
        <time>2020-12-19T12:10:06Z</time>
      </trkpt>
      <trkpt lat="46.7181" lon="5.66455">
        <ele>514</ele>
        <time>2020-12-19T12:10:07Z</time>
      </trkpt>
      <trkpt lat="46.71811" lon="5.66454">
        <ele>514</ele>
        <time>2020-12-19T12:10:08Z</time>
      </trkpt>
      <trkpt lat="46.71811" lon="5.66452">
        <ele>514.2</ele>
        <time>2020-12-19T12:10:09Z</time>
      </trkpt>
      <trkpt lat="46.71812" lon="5.66451">
        <ele>514.2</ele>
        <time>2020-12-19T12:10:10Z</time>
      </trkpt>
      <trkpt lat="46.71812" lon="5.6645">
        <ele>514.2</ele>
        <time>2020-12-19T12:10:11Z</time>
      </trkpt>
      <trkpt lat="46.71813" lon="5.66448">
        <ele>514.2</ele>
        <time>2020-12-19T12:10:12Z</time>
      </trkpt>
      <trkpt lat="46.71813" lon="5.66447">
        <ele>514.2</ele>
        <time>2020-12-19T12:10:13Z</time>
      </trkpt>
      <trkpt lat="46.71814" lon="5.66445">
        <ele>514.2</ele>
        <time>2020-12-19T12:10:14Z</time>
      </trkpt>
      <trkpt lat="46.71814" lon="5.66444">
        <ele>514.2</ele>
        <time>2020-12-19T12:10:15Z</time>
      </trkpt>
      <trkpt lat="46.71814" lon="5.66443">
        <ele>514.2</ele>
        <time>2020-12-19T12:10:16Z</time>
      </trkpt>
      <trkpt lat="46.71815" lon="5.66442">
        <ele>514.2</ele>
        <time>2020-12-19T12:10:17Z</time>
      </trkpt>
      <trkpt lat="46.71815" lon="5.66441">
        <ele>514.2</ele>
        <time>2020-12-19T12:10:18Z</time>
      </trkpt>
      <trkpt lat="46.71815" lon="5.6644">
        <ele>514.2</ele>
        <time>2020-12-19T12:10:19Z</time>
      </trkpt>
      <trkpt lat="46.71815" lon="5.66439">
        <ele>514.2</ele>
        <time>2020-12-19T12:10:20Z</time>
      </trkpt>
      <trkpt lat="46.71816" lon="5.66438">
        <ele>514.2</ele>
        <time>2020-12-19T12:10:21Z</time>
      </trkpt>
      <trkpt lat="46.71816" lon="5.66437">
        <ele>514.2</ele>
        <time>2020-12-19T12:10:22Z</time>
      </trkpt>
      <trkpt lat="46.71817" lon="5.66437">
        <ele>514.2</ele>
        <time>2020-12-19T12:10:23Z</time>
      </trkpt>
      <trkpt lat="46.71818" lon="5.66437">
        <ele>514.2</ele>
        <time>2020-12-19T12:10:24Z</time>
      </trkpt>
      <trkpt lat="46.71818" lon="5.66438">
        <ele>514.2</ele>
        <time>2020-12-19T12:10:25Z</time>
      </trkpt>
      <trkpt lat="46.71819" lon="5.66439">
        <ele>514.2</ele>
        <time>2020-12-19T12:10:26Z</time>
      </trkpt>
      <trkpt lat="46.71819" lon="5.66439">
        <ele>514.4</ele>
        <time>2020-12-19T12:10:27Z</time>
      </trkpt>
      <trkpt lat="46.71819" lon="5.66441">
        <ele>514.6</ele>
        <time>2020-12-19T12:10:36Z</time>
      </trkpt>
      <trkpt lat="46.7182" lon="5.66443">
        <ele>514.6</ele>
        <time>2020-12-19T12:10:37Z</time>
      </trkpt>
      <trkpt lat="46.7182" lon="5.66444">
        <ele>514.6</ele>
        <time>2020-12-19T12:10:38Z</time>
      </trkpt>
      <trkpt lat="46.71821" lon="5.66446">
        <ele>514.6</ele>
        <time>2020-12-19T12:10:39Z</time>
      </trkpt>
      <trkpt lat="46.71821" lon="5.66448">
        <ele>514.6</ele>
        <time>2020-12-19T12:10:40Z</time>
      </trkpt>
      <trkpt lat="46.71822" lon="5.66449">
        <ele>514.6</ele>
        <time>2020-12-19T12:10:41Z</time>
      </trkpt>
      <trkpt lat="46.71822" lon="5.66451">
        <ele>514.6</ele>
        <time>2020-12-19T12:10:42Z</time>
      </trkpt>
      <trkpt lat="46.71822" lon="5.66453">
        <ele>514.6</ele>
        <time>2020-12-19T12:10:43Z</time>
      </trkpt>
      <trkpt lat="46.71823" lon="5.66454">
        <ele>514.6</ele>
        <time>2020-12-19T12:10:44Z</time>
      </trkpt>
      <trkpt lat="46.71823" lon="5.66456">
        <ele>514.6</ele>
        <time>2020-12-19T12:10:45Z</time>
      </trkpt>
      <trkpt lat="46.71824" lon="5.66458">
        <ele>514.6</ele>
        <time>2020-12-19T12:10:46Z</time>
      </trkpt>
      <trkpt lat="46.71824" lon="5.66461">
        <ele>514.6</ele>
        <time>2020-12-19T12:10:47Z</time>
      </trkpt>
      <trkpt lat="46.71825" lon="5.66463">
        <ele>514.6</ele>
        <time>2020-12-19T12:10:48Z</time>
      </trkpt>
      <trkpt lat="46.71826" lon="5.66466">
        <ele>514.6</ele>
        <time>2020-12-19T12:10:49Z</time>
      </trkpt>
      <trkpt lat="46.71826" lon="5.66469">
        <ele>514.6</ele>
        <time>2020-12-19T12:10:50Z</time>
      </trkpt>
      <trkpt lat="46.71827" lon="5.66472">
        <ele>514.8</ele>
        <time>2020-12-19T12:10:51Z</time>
      </trkpt>
      <trkpt lat="46.71828" lon="5.66475">
        <ele>514.8</ele>
        <time>2020-12-19T12:10:52Z</time>
      </trkpt>
      <trkpt lat="46.71828" lon="5.66478">
        <ele>514.8</ele>
        <time>2020-12-19T12:10:53Z</time>
      </trkpt>
      <trkpt lat="46.71829" lon="5.66482">
        <ele>514.8</ele>
        <time>2020-12-19T12:10:54Z</time>
      </trkpt>
      <trkpt lat="46.7183" lon="5.66485">
        <ele>514.8</ele>
        <time>2020-12-19T12:10:55Z</time>
      </trkpt>
      <trkpt lat="46.71831" lon="5.66489">
        <ele>514.8</ele>
        <time>2020-12-19T12:10:56Z</time>
      </trkpt>
      <trkpt lat="46.71832" lon="5.66494">
        <ele>514.8</ele>
        <time>2020-12-19T12:10:57Z</time>
      </trkpt>
      <trkpt lat="46.71833" lon="5.66498">
        <ele>514.8</ele>
        <time>2020-12-19T12:10:58Z</time>
      </trkpt>
      <trkpt lat="46.71834" lon="5.66503">
        <ele>514.8</ele>
        <time>2020-12-19T12:10:59Z</time>
      </trkpt>
      <trkpt lat="46.71836" lon="5.66508">
        <ele>514.8</ele>
        <time>2020-12-19T12:11:00Z</time>
      </trkpt>
      <trkpt lat="46.71837" lon="5.66513">
        <ele>514.6</ele>
        <time>2020-12-19T12:11:01Z</time>
      </trkpt>
      <trkpt lat="46.71838" lon="5.66519">
        <ele>514.6</ele>
        <time>2020-12-19T12:11:02Z</time>
      </trkpt>
      <trkpt lat="46.7184" lon="5.66525">
        <ele>514.2</ele>
        <time>2020-12-19T12:11:03Z</time>
      </trkpt>
      <trkpt lat="46.71841" lon="5.66532">
        <ele>514</ele>
        <time>2020-12-19T12:11:04Z</time>
      </trkpt>
      <trkpt lat="46.71843" lon="5.66539">
        <ele>514</ele>
        <time>2020-12-19T12:11:05Z</time>
      </trkpt>
      <trkpt lat="46.71845" lon="5.66546">
        <ele>513.6</ele>
        <time>2020-12-19T12:11:06Z</time>
      </trkpt>
      <trkpt lat="46.71847" lon="5.66554">
        <ele>513.6</ele>
        <time>2020-12-19T12:11:07Z</time>
      </trkpt>
      <trkpt lat="46.71848" lon="5.66561">
        <ele>513.2</ele>
        <time>2020-12-19T12:11:08Z</time>
      </trkpt>
      <trkpt lat="46.7185" lon="5.66569">
        <ele>513.2</ele>
        <time>2020-12-19T12:11:09Z</time>
      </trkpt>
      <trkpt lat="46.71851" lon="5.66576">
        <ele>513.2</ele>
        <time>2020-12-19T12:11:10Z</time>
      </trkpt>
      <trkpt lat="46.71853" lon="5.66583">
        <ele>513</ele>
        <time>2020-12-19T12:11:11Z</time>
      </trkpt>
      <trkpt lat="46.71854" lon="5.6659">
        <ele>513</ele>
        <time>2020-12-19T12:11:12Z</time>
      </trkpt>
      <trkpt lat="46.71855" lon="5.66597">
        <ele>513</ele>
        <time>2020-12-19T12:11:13Z</time>
      </trkpt>
      <trkpt lat="46.71856" lon="5.66604">
        <ele>513</ele>
        <time>2020-12-19T12:11:14Z</time>
      </trkpt>
      <trkpt lat="46.71857" lon="5.6661">
        <ele>513</ele>
        <time>2020-12-19T12:11:15Z</time>
      </trkpt>
      <trkpt lat="46.71858" lon="5.66617">
        <ele>513</ele>
        <time>2020-12-19T12:11:16Z</time>
      </trkpt>
      <trkpt lat="46.71858" lon="5.66624">
        <ele>513</ele>
        <time>2020-12-19T12:11:17Z</time>
      </trkpt>
      <trkpt lat="46.71857" lon="5.66631">
        <ele>513</ele>
        <time>2020-12-19T12:11:18Z</time>
      </trkpt>
      <trkpt lat="46.71856" lon="5.66638">
        <ele>513</ele>
        <time>2020-12-19T12:11:19Z</time>
      </trkpt>
      <trkpt lat="46.71855" lon="5.66644">
        <ele>513</ele>
        <time>2020-12-19T12:11:20Z</time>
      </trkpt>
      <trkpt lat="46.71853" lon="5.66651">
        <ele>513</ele>
        <time>2020-12-19T12:11:21Z</time>
      </trkpt>
      <trkpt lat="46.71851" lon="5.66658">
        <ele>513</ele>
        <time>2020-12-19T12:11:22Z</time>
      </trkpt>
      <trkpt lat="46.71849" lon="5.66664">
        <ele>513</ele>
        <time>2020-12-19T12:11:23Z</time>
      </trkpt>
      <trkpt lat="46.71847" lon="5.6667">
        <ele>513</ele>
        <time>2020-12-19T12:11:24Z</time>
      </trkpt>
      <trkpt lat="46.71845" lon="5.66676">
        <ele>513</ele>
        <time>2020-12-19T12:11:25Z</time>
      </trkpt>
      <trkpt lat="46.71843" lon="5.66682">
        <ele>513</ele>
        <time>2020-12-19T12:11:26Z</time>
      </trkpt>
      <trkpt lat="46.71841" lon="5.66688">
        <ele>513</ele>
        <time>2020-12-19T12:11:27Z</time>
      </trkpt>
      <trkpt lat="46.71839" lon="5.66693">
        <ele>513</ele>
        <time>2020-12-19T12:11:28Z</time>
      </trkpt>
      <trkpt lat="46.71837" lon="5.66699">
        <ele>513</ele>
        <time>2020-12-19T12:11:29Z</time>
      </trkpt>
      <trkpt lat="46.71835" lon="5.66704">
        <ele>513.2</ele>
        <time>2020-12-19T12:11:30Z</time>
      </trkpt>
      <trkpt lat="46.71833" lon="5.66709">
        <ele>513.2</ele>
        <time>2020-12-19T12:11:31Z</time>
      </trkpt>
      <trkpt lat="46.71831" lon="5.66715">
        <ele>513.2</ele>
        <time>2020-12-19T12:11:32Z</time>
      </trkpt>
      <trkpt lat="46.71829" lon="5.6672">
        <ele>513.2</ele>
        <time>2020-12-19T12:11:33Z</time>
      </trkpt>
      <trkpt lat="46.71827" lon="5.66725">
        <ele>513.2</ele>
        <time>2020-12-19T12:11:34Z</time>
      </trkpt>
      <trkpt lat="46.71826" lon="5.6673">
        <ele>513.4</ele>
        <time>2020-12-19T12:11:35Z</time>
      </trkpt>
      <trkpt lat="46.71824" lon="5.66736">
        <ele>513.4</ele>
        <time>2020-12-19T12:11:36Z</time>
      </trkpt>
      <trkpt lat="46.71822" lon="5.66741">
        <ele>513.4</ele>
        <time>2020-12-19T12:11:37Z</time>
      </trkpt>
      <trkpt lat="46.7182" lon="5.66746">
        <ele>513.4</ele>
        <time>2020-12-19T12:11:38Z</time>
      </trkpt>
      <trkpt lat="46.71819" lon="5.66751">
        <ele>513.4</ele>
        <time>2020-12-19T12:11:39Z</time>
      </trkpt>
      <trkpt lat="46.71817" lon="5.66757">
        <ele>513.4</ele>
        <time>2020-12-19T12:11:40Z</time>
      </trkpt>
      <trkpt lat="46.71815" lon="5.66762">
        <ele>513.4</ele>
        <time>2020-12-19T12:11:41Z</time>
      </trkpt>
      <trkpt lat="46.71814" lon="5.66768">
        <ele>513.6</ele>
        <time>2020-12-19T12:11:42Z</time>
      </trkpt>
      <trkpt lat="46.71812" lon="5.66773">
        <ele>513.6</ele>
        <time>2020-12-19T12:11:43Z</time>
      </trkpt>
      <trkpt lat="46.71811" lon="5.66778">
        <ele>513.6</ele>
        <time>2020-12-19T12:11:44Z</time>
      </trkpt>
      <trkpt lat="46.7181" lon="5.66784">
        <ele>513.6</ele>
        <time>2020-12-19T12:11:45Z</time>
      </trkpt>
      <trkpt lat="46.71809" lon="5.66789">
        <ele>513.8</ele>
        <time>2020-12-19T12:11:46Z</time>
      </trkpt>
      <trkpt lat="46.71809" lon="5.66794">
        <ele>513.8</ele>
        <time>2020-12-19T12:11:47Z</time>
      </trkpt>
      <trkpt lat="46.71809" lon="5.66798">
        <ele>513.8</ele>
        <time>2020-12-19T12:11:48Z</time>
      </trkpt>
      <trkpt lat="46.71809" lon="5.66803">
        <ele>514</ele>
        <time>2020-12-19T12:11:49Z</time>
      </trkpt>
      <trkpt lat="46.7181" lon="5.66807">
        <ele>514</ele>
        <time>2020-12-19T12:11:50Z</time>
      </trkpt>
      <trkpt lat="46.71811" lon="5.66811">
        <ele>514.2</ele>
        <time>2020-12-19T12:11:51Z</time>
      </trkpt>
      <trkpt lat="46.71812" lon="5.66815">
        <ele>514.2</ele>
        <time>2020-12-19T12:11:52Z</time>
      </trkpt>
      <trkpt lat="46.71813" lon="5.66819">
        <ele>514.4</ele>
        <time>2020-12-19T12:11:53Z</time>
      </trkpt>
      <trkpt lat="46.71814" lon="5.66823">
        <ele>514.4</ele>
        <time>2020-12-19T12:11:54Z</time>
      </trkpt>
      <trkpt lat="46.71815" lon="5.66827">
        <ele>514.8</ele>
        <time>2020-12-19T12:11:55Z</time>
      </trkpt>
      <trkpt lat="46.71816" lon="5.66831">
        <ele>514.8</ele>
        <time>2020-12-19T12:11:56Z</time>
      </trkpt>
      <trkpt lat="46.71817" lon="5.66834">
        <ele>515</ele>
        <time>2020-12-19T12:11:57Z</time>
      </trkpt>
      <trkpt lat="46.71818" lon="5.66838">
        <ele>515</ele>
        <time>2020-12-19T12:11:58Z</time>
      </trkpt>
      <trkpt lat="46.71818" lon="5.66842">
        <ele>515</ele>
        <time>2020-12-19T12:11:59Z</time>
      </trkpt>
      <trkpt lat="46.71819" lon="5.66846">
        <ele>515.2</ele>
        <time>2020-12-19T12:12:00Z</time>
      </trkpt>
      <trkpt lat="46.7182" lon="5.6685">
        <ele>515.2</ele>
        <time>2020-12-19T12:12:01Z</time>
      </trkpt>
      <trkpt lat="46.71821" lon="5.66854">
        <ele>515.2</ele>
        <time>2020-12-19T12:12:02Z</time>
      </trkpt>
      <trkpt lat="46.71821" lon="5.66857">
        <ele>515.4</ele>
        <time>2020-12-19T12:12:03Z</time>
      </trkpt>
      <trkpt lat="46.71822" lon="5.66861">
        <ele>515.4</ele>
        <time>2020-12-19T12:12:04Z</time>
      </trkpt>
      <trkpt lat="46.71822" lon="5.66865">
        <ele>515.8</ele>
        <time>2020-12-19T12:12:05Z</time>
      </trkpt>
      <trkpt lat="46.71822" lon="5.66869">
        <ele>515.8</ele>
        <time>2020-12-19T12:12:06Z</time>
      </trkpt>
      <trkpt lat="46.71822" lon="5.66872">
        <ele>516</ele>
        <time>2020-12-19T12:12:07Z</time>
      </trkpt>
      <trkpt lat="46.71822" lon="5.66876">
        <ele>516</ele>
        <time>2020-12-19T12:12:08Z</time>
      </trkpt>
      <trkpt lat="46.71822" lon="5.6688">
        <ele>516</ele>
        <time>2020-12-19T12:12:09Z</time>
      </trkpt>
      <trkpt lat="46.71822" lon="5.66884">
        <ele>516</ele>
        <time>2020-12-19T12:12:10Z</time>
      </trkpt>
      <trkpt lat="46.71822" lon="5.66888">
        <ele>516.2</ele>
        <time>2020-12-19T12:12:11Z</time>
      </trkpt>
      <trkpt lat="46.71823" lon="5.66891">
        <ele>516.2</ele>
        <time>2020-12-19T12:12:12Z</time>
      </trkpt>
      <trkpt lat="46.71823" lon="5.66895">
        <ele>516.2</ele>
        <time>2020-12-19T12:12:13Z</time>
      </trkpt>
      <trkpt lat="46.71823" lon="5.66898">
        <ele>516.4</ele>
        <time>2020-12-19T12:12:14Z</time>
      </trkpt>
      <trkpt lat="46.71823" lon="5.66902">
        <ele>516.4</ele>
        <time>2020-12-19T12:12:15Z</time>
      </trkpt>
      <trkpt lat="46.71822" lon="5.66906">
        <ele>516.4</ele>
        <time>2020-12-19T12:12:16Z</time>
      </trkpt>
      <trkpt lat="46.71822" lon="5.6691">
        <ele>516.4</ele>
        <time>2020-12-19T12:12:17Z</time>
      </trkpt>
      <trkpt lat="46.71822" lon="5.66914">
        <ele>516.6</ele>
        <time>2020-12-19T12:12:18Z</time>
      </trkpt>
      <trkpt lat="46.71823" lon="5.66918">
        <ele>516.6</ele>
        <time>2020-12-19T12:12:19Z</time>
      </trkpt>
      <trkpt lat="46.71823" lon="5.66922">
        <ele>516.6</ele>
        <time>2020-12-19T12:12:20Z</time>
      </trkpt>
      <trkpt lat="46.71822" lon="5.66926">
        <ele>516.8</ele>
        <time>2020-12-19T12:12:21Z</time>
      </trkpt>
      <trkpt lat="46.71822" lon="5.6693">
        <ele>516.8</ele>
        <time>2020-12-19T12:12:22Z</time>
      </trkpt>
      <trkpt lat="46.71822" lon="5.66935">
        <ele>516.8</ele>
        <time>2020-12-19T12:12:23Z</time>
      </trkpt>
      <trkpt lat="46.71822" lon="5.66939">
        <ele>517</ele>
        <time>2020-12-19T12:12:24Z</time>
      </trkpt>
      <trkpt lat="46.71822" lon="5.66943">
        <ele>517</ele>
        <time>2020-12-19T12:12:25Z</time>
      </trkpt>
      <trkpt lat="46.71821" lon="5.66947">
        <ele>517</ele>
        <time>2020-12-19T12:12:26Z</time>
      </trkpt>
      <trkpt lat="46.71821" lon="5.66951">
        <ele>517.4</ele>
        <time>2020-12-19T12:12:27Z</time>
      </trkpt>
      <trkpt lat="46.7182" lon="5.66955">
        <ele>517.4</ele>
        <time>2020-12-19T12:12:28Z</time>
      </trkpt>
      <trkpt lat="46.7182" lon="5.66959">
        <ele>517.6</ele>
        <time>2020-12-19T12:12:29Z</time>
      </trkpt>
      <trkpt lat="46.71819" lon="5.66964">
        <ele>517.6</ele>
        <time>2020-12-19T12:12:30Z</time>
      </trkpt>
      <trkpt lat="46.71818" lon="5.66969">
        <ele>517.8</ele>
        <time>2020-12-19T12:12:31Z</time>
      </trkpt>
      <trkpt lat="46.71818" lon="5.66974">
        <ele>517.8</ele>
        <time>2020-12-19T12:12:32Z</time>
      </trkpt>
      <trkpt lat="46.71817" lon="5.6698">
        <ele>518</ele>
        <time>2020-12-19T12:12:33Z</time>
      </trkpt>
      <trkpt lat="46.71816" lon="5.66985">
        <ele>518</ele>
        <time>2020-12-19T12:12:34Z</time>
      </trkpt>
      <trkpt lat="46.71815" lon="5.66991">
        <ele>518.4</ele>
        <time>2020-12-19T12:12:35Z</time>
      </trkpt>
      <trkpt lat="46.71814" lon="5.66996">
        <ele>518.4</ele>
        <time>2020-12-19T12:12:36Z</time>
      </trkpt>
      <trkpt lat="46.71813" lon="5.67001">
        <ele>518.6</ele>
        <time>2020-12-19T12:12:37Z</time>
      </trkpt>
      <trkpt lat="46.71811" lon="5.67007">
        <ele>518.6</ele>
        <time>2020-12-19T12:12:38Z</time>
      </trkpt>
      <trkpt lat="46.7181" lon="5.67012">
        <ele>518.6</ele>
        <time>2020-12-19T12:12:39Z</time>
      </trkpt>
      <trkpt lat="46.71809" lon="5.67017">
        <ele>518.8</ele>
        <time>2020-12-19T12:12:40Z</time>
      </trkpt>
      <trkpt lat="46.71808" lon="5.67022">
        <ele>518.8</ele>
        <time>2020-12-19T12:12:41Z</time>
      </trkpt>
      <trkpt lat="46.71807" lon="5.67027">
        <ele>518.8</ele>
        <time>2020-12-19T12:12:42Z</time>
      </trkpt>
      <trkpt lat="46.71807" lon="5.67031">
        <ele>518.8</ele>
        <time>2020-12-19T12:12:43Z</time>
      </trkpt>
      <trkpt lat="46.71806" lon="5.67036">
        <ele>519</ele>
        <time>2020-12-19T12:12:44Z</time>
      </trkpt>
      <trkpt lat="46.71805" lon="5.6704">
        <ele>519</ele>
        <time>2020-12-19T12:12:45Z</time>
      </trkpt>
      <trkpt lat="46.71804" lon="5.67044">
        <ele>519</ele>
        <time>2020-12-19T12:12:46Z</time>
      </trkpt>
      <trkpt lat="46.71804" lon="5.67048">
        <ele>519</ele>
        <time>2020-12-19T12:12:47Z</time>
      </trkpt>
      <trkpt lat="46.71803" lon="5.67052">
        <ele>519.4</ele>
        <time>2020-12-19T12:12:48Z</time>
      </trkpt>
      <trkpt lat="46.71802" lon="5.67054">
        <ele>519.4</ele>
        <time>2020-12-19T12:12:49Z</time>
      </trkpt>
      <trkpt lat="46.71802" lon="5.67057">
        <ele>519.6</ele>
        <time>2020-12-19T12:12:50Z</time>
      </trkpt>
      <trkpt lat="46.71801" lon="5.67059">
        <ele>519.6</ele>
        <time>2020-12-19T12:12:51Z</time>
      </trkpt>
      <trkpt lat="46.71801" lon="5.67061">
        <ele>519.6</ele>
        <time>2020-12-19T12:12:52Z</time>
      </trkpt>
      <trkpt lat="46.718" lon="5.67062">
        <ele>519.6</ele>
        <time>2020-12-19T12:12:53Z</time>
      </trkpt>
      <trkpt lat="46.718" lon="5.67063">
        <ele>519.6</ele>
        <time>2020-12-19T12:12:54Z</time>
      </trkpt>
      <trkpt lat="46.718" lon="5.67066">
        <ele>520.2</ele>
        <time>2020-12-19T12:13:42Z</time>
      </trkpt>
      <trkpt lat="46.71799" lon="5.67068">
        <ele>520.2</ele>
        <time>2020-12-19T12:13:43Z</time>
      </trkpt>
      <trkpt lat="46.71799" lon="5.67069">
        <ele>520.2</ele>
        <time>2020-12-19T12:13:44Z</time>
      </trkpt>
      <trkpt lat="46.71799" lon="5.6707">
        <ele>520.2</ele>
        <time>2020-12-19T12:13:45Z</time>
      </trkpt>
      <trkpt lat="46.71799" lon="5.67072">
        <ele>520.2</ele>
        <time>2020-12-19T12:13:46Z</time>
      </trkpt>
      <trkpt lat="46.718" lon="5.67073">
        <ele>520.2</ele>
        <time>2020-12-19T12:13:47Z</time>
      </trkpt>
      <trkpt lat="46.718" lon="5.67075">
        <ele>520.2</ele>
        <time>2020-12-19T12:13:48Z</time>
      </trkpt>
      <trkpt lat="46.71801" lon="5.67077">
        <ele>520.2</ele>
        <time>2020-12-19T12:13:49Z</time>
      </trkpt>
      <trkpt lat="46.71801" lon="5.67079">
        <ele>520.2</ele>
        <time>2020-12-19T12:13:50Z</time>
      </trkpt>
      <trkpt lat="46.718" lon="5.67082">
        <ele>520.2</ele>
        <time>2020-12-19T12:13:51Z</time>
      </trkpt>
      <trkpt lat="46.71799" lon="5.67086">
        <ele>520.2</ele>
        <time>2020-12-19T12:13:52Z</time>
      </trkpt>
      <trkpt lat="46.71799" lon="5.67089">
        <ele>520.2</ele>
        <time>2020-12-19T12:13:53Z</time>
      </trkpt>
      <trkpt lat="46.71798" lon="5.67093">
        <ele>520.2</ele>
        <time>2020-12-19T12:13:54Z</time>
      </trkpt>
      <trkpt lat="46.71797" lon="5.67098">
        <ele>520.2</ele>
        <time>2020-12-19T12:13:55Z</time>
      </trkpt>
      <trkpt lat="46.71797" lon="5.67102">
        <ele>520.2</ele>
        <time>2020-12-19T12:13:56Z</time>
      </trkpt>
      <trkpt lat="46.71796" lon="5.67106">
        <ele>520.2</ele>
        <time>2020-12-19T12:13:57Z</time>
      </trkpt>
      <trkpt lat="46.71796" lon="5.67111">
        <ele>520.2</ele>
        <time>2020-12-19T12:13:58Z</time>
      </trkpt>
      <trkpt lat="46.71796" lon="5.67115">
        <ele>520.6</ele>
        <time>2020-12-19T12:13:59Z</time>
      </trkpt>
      <trkpt lat="46.71795" lon="5.6712">
        <ele>520.6</ele>
        <time>2020-12-19T12:14:00Z</time>
      </trkpt>
      <trkpt lat="46.71795" lon="5.67124">
        <ele>520.8</ele>
        <time>2020-12-19T12:14:01Z</time>
      </trkpt>
      <trkpt lat="46.71795" lon="5.67129">
        <ele>520.8</ele>
        <time>2020-12-19T12:14:02Z</time>
      </trkpt>
      <trkpt lat="46.71794" lon="5.67133">
        <ele>520.8</ele>
        <time>2020-12-19T12:14:03Z</time>
      </trkpt>
      <trkpt lat="46.71794" lon="5.67138">
        <ele>521</ele>
        <time>2020-12-19T12:14:04Z</time>
      </trkpt>
      <trkpt lat="46.71794" lon="5.67142">
        <ele>521</ele>
        <time>2020-12-19T12:14:05Z</time>
      </trkpt>
      <trkpt lat="46.71794" lon="5.67147">
        <ele>521</ele>
        <time>2020-12-19T12:14:06Z</time>
      </trkpt>
      <trkpt lat="46.71794" lon="5.67151">
        <ele>521</ele>
        <time>2020-12-19T12:14:07Z</time>
      </trkpt>
      <trkpt lat="46.71794" lon="5.67156">
        <ele>521.2</ele>
        <time>2020-12-19T12:14:08Z</time>
      </trkpt>
      <trkpt lat="46.71794" lon="5.6716">
        <ele>521.2</ele>
        <time>2020-12-19T12:14:09Z</time>
      </trkpt>
      <trkpt lat="46.71794" lon="5.67165">
        <ele>521.2</ele>
        <time>2020-12-19T12:14:10Z</time>
      </trkpt>
      <trkpt lat="46.71794" lon="5.6717">
        <ele>521.2</ele>
        <time>2020-12-19T12:14:11Z</time>
      </trkpt>
      <trkpt lat="46.71794" lon="5.67174">
        <ele>521.2</ele>
        <time>2020-12-19T12:14:12Z</time>
      </trkpt>
      <trkpt lat="46.71794" lon="5.67179">
        <ele>521.2</ele>
        <time>2020-12-19T12:14:13Z</time>
      </trkpt>
      <trkpt lat="46.71794" lon="5.67184">
        <ele>521.4</ele>
        <time>2020-12-19T12:14:14Z</time>
      </trkpt>
      <trkpt lat="46.71794" lon="5.67188">
        <ele>521.4</ele>
        <time>2020-12-19T12:14:15Z</time>
      </trkpt>
      <trkpt lat="46.71794" lon="5.67192">
        <ele>521.4</ele>
        <time>2020-12-19T12:14:16Z</time>
      </trkpt>
      <trkpt lat="46.71795" lon="5.67197">
        <ele>521.4</ele>
        <time>2020-12-19T12:14:17Z</time>
      </trkpt>
      <trkpt lat="46.71795" lon="5.672">
        <ele>521.4</ele>
        <time>2020-12-19T12:14:18Z</time>
      </trkpt>
      <trkpt lat="46.71796" lon="5.67204">
        <ele>521.6</ele>
        <time>2020-12-19T12:14:19Z</time>
      </trkpt>
      <trkpt lat="46.71796" lon="5.67208">
        <ele>521.6</ele>
        <time>2020-12-19T12:14:20Z</time>
      </trkpt>
      <trkpt lat="46.71797" lon="5.67211">
        <ele>521.6</ele>
        <time>2020-12-19T12:14:21Z</time>
      </trkpt>
      <trkpt lat="46.71797" lon="5.67215">
        <ele>521.6</ele>
        <time>2020-12-19T12:14:22Z</time>
      </trkpt>
      <trkpt lat="46.71798" lon="5.67218">
        <ele>521.6</ele>
        <time>2020-12-19T12:14:23Z</time>
      </trkpt>
      <trkpt lat="46.71799" lon="5.67222">
        <ele>521.6</ele>
        <time>2020-12-19T12:14:24Z</time>
      </trkpt>
      <trkpt lat="46.71799" lon="5.67225">
        <ele>521.6</ele>
        <time>2020-12-19T12:14:25Z</time>
      </trkpt>
      <trkpt lat="46.718" lon="5.67228">
        <ele>521.6</ele>
        <time>2020-12-19T12:14:26Z</time>
      </trkpt>
      <trkpt lat="46.718" lon="5.67232">
        <ele>521.6</ele>
        <time>2020-12-19T12:14:27Z</time>
      </trkpt>
      <trkpt lat="46.718" lon="5.67236">
        <ele>521.6</ele>
        <time>2020-12-19T12:14:28Z</time>
      </trkpt>
      <trkpt lat="46.71801" lon="5.67239">
        <ele>521.6</ele>
        <time>2020-12-19T12:14:29Z</time>
      </trkpt>
      <trkpt lat="46.71801" lon="5.67243">
        <ele>521.6</ele>
        <time>2020-12-19T12:14:30Z</time>
      </trkpt>
      <trkpt lat="46.71802" lon="5.67246">
        <ele>521.6</ele>
        <time>2020-12-19T12:14:31Z</time>
      </trkpt>
      <trkpt lat="46.71802" lon="5.67249">
        <ele>521.6</ele>
        <time>2020-12-19T12:14:32Z</time>
      </trkpt>
      <trkpt lat="46.71802" lon="5.67253">
        <ele>521.6</ele>
        <time>2020-12-19T12:14:33Z</time>
      </trkpt>
      <trkpt lat="46.71802" lon="5.67257">
        <ele>521.4</ele>
        <time>2020-12-19T12:14:34Z</time>
      </trkpt>
      <trkpt lat="46.71802" lon="5.67261">
        <ele>521.4</ele>
        <time>2020-12-19T12:14:35Z</time>
      </trkpt>
      <trkpt lat="46.71803" lon="5.67264">
        <ele>521.2</ele>
        <time>2020-12-19T12:14:36Z</time>
      </trkpt>
      <trkpt lat="46.71803" lon="5.67268">
        <ele>521.2</ele>
        <time>2020-12-19T12:14:37Z</time>
      </trkpt>
      <trkpt lat="46.71803" lon="5.67272">
        <ele>521.2</ele>
        <time>2020-12-19T12:14:38Z</time>
      </trkpt>
      <trkpt lat="46.71803" lon="5.67276">
        <ele>520.8</ele>
        <time>2020-12-19T12:14:39Z</time>
      </trkpt>
      <trkpt lat="46.71803" lon="5.6728">
        <ele>520.8</ele>
        <time>2020-12-19T12:14:40Z</time>
      </trkpt>
      <trkpt lat="46.71804" lon="5.67284">
        <ele>520.6</ele>
        <time>2020-12-19T12:14:41Z</time>
      </trkpt>
      <trkpt lat="46.71804" lon="5.67287">
        <ele>520.4</ele>
        <time>2020-12-19T12:14:42Z</time>
      </trkpt>
      <trkpt lat="46.71805" lon="5.67291">
        <ele>520</ele>
        <time>2020-12-19T12:14:43Z</time>
      </trkpt>
      <trkpt lat="46.71806" lon="5.67294">
        <ele>520</ele>
        <time>2020-12-19T12:14:44Z</time>
      </trkpt>
      <trkpt lat="46.71808" lon="5.67297">
        <ele>519.8</ele>
        <time>2020-12-19T12:14:45Z</time>
      </trkpt>
      <trkpt lat="46.7181" lon="5.673">
        <ele>519.8</ele>
        <time>2020-12-19T12:14:46Z</time>
      </trkpt>
      <trkpt lat="46.71811" lon="5.67303">
        <ele>519.6</ele>
        <time>2020-12-19T12:14:47Z</time>
      </trkpt>
      <trkpt lat="46.71812" lon="5.67307">
        <ele>519.6</ele>
        <time>2020-12-19T12:14:48Z</time>
      </trkpt>
      <trkpt lat="46.71814" lon="5.67309">
        <ele>519.6</ele>
        <time>2020-12-19T12:14:49Z</time>
      </trkpt>
      <trkpt lat="46.71815" lon="5.67312">
        <ele>519.6</ele>
        <time>2020-12-19T12:14:50Z</time>
      </trkpt>
      <trkpt lat="46.71817" lon="5.67315">
        <ele>519.6</ele>
        <time>2020-12-19T12:14:51Z</time>
      </trkpt>
      <trkpt lat="46.71819" lon="5.67318">
        <ele>519.6</ele>
        <time>2020-12-19T12:14:52Z</time>
      </trkpt>
      <trkpt lat="46.7182" lon="5.67321">
        <ele>519.6</ele>
        <time>2020-12-19T12:14:53Z</time>
      </trkpt>
      <trkpt lat="46.71822" lon="5.67324">
        <ele>519.6</ele>
        <time>2020-12-19T12:14:54Z</time>
      </trkpt>
      <trkpt lat="46.71824" lon="5.67326">
        <ele>519.6</ele>
        <time>2020-12-19T12:14:55Z</time>
      </trkpt>
      <trkpt lat="46.71825" lon="5.67329">
        <ele>519.6</ele>
        <time>2020-12-19T12:14:56Z</time>
      </trkpt>
      <trkpt lat="46.71827" lon="5.67331">
        <ele>519.6</ele>
        <time>2020-12-19T12:14:57Z</time>
      </trkpt>
      <trkpt lat="46.71829" lon="5.67333">
        <ele>519.4</ele>
        <time>2020-12-19T12:14:58Z</time>
      </trkpt>
      <trkpt lat="46.7183" lon="5.67335">
        <ele>519.4</ele>
        <time>2020-12-19T12:14:59Z</time>
      </trkpt>
      <trkpt lat="46.71831" lon="5.67337">
        <ele>519.4</ele>
        <time>2020-12-19T12:15:00Z</time>
      </trkpt>
      <trkpt lat="46.71833" lon="5.67339">
        <ele>519.4</ele>
        <time>2020-12-19T12:15:01Z</time>
      </trkpt>
      <trkpt lat="46.71834" lon="5.67341">
        <ele>519.2</ele>
        <time>2020-12-19T12:15:02Z</time>
      </trkpt>
      <trkpt lat="46.71836" lon="5.67343">
        <ele>519.2</ele>
        <time>2020-12-19T12:15:03Z</time>
      </trkpt>
      <trkpt lat="46.71837" lon="5.67346">
        <ele>519.2</ele>
        <time>2020-12-19T12:15:04Z</time>
      </trkpt>
      <trkpt lat="46.71838" lon="5.67348">
        <ele>519.2</ele>
        <time>2020-12-19T12:15:05Z</time>
      </trkpt>
      <trkpt lat="46.7184" lon="5.67351">
        <ele>519.2</ele>
        <time>2020-12-19T12:15:06Z</time>
      </trkpt>
      <trkpt lat="46.71841" lon="5.67353">
        <ele>519</ele>
        <time>2020-12-19T12:15:07Z</time>
      </trkpt>
      <trkpt lat="46.71843" lon="5.67356">
        <ele>519</ele>
        <time>2020-12-19T12:15:08Z</time>
      </trkpt>
      <trkpt lat="46.71844" lon="5.67358">
        <ele>519</ele>
        <time>2020-12-19T12:15:09Z</time>
      </trkpt>
      <trkpt lat="46.71846" lon="5.6736">
        <ele>519</ele>
        <time>2020-12-19T12:15:10Z</time>
      </trkpt>
      <trkpt lat="46.71848" lon="5.67363">
        <ele>518.6</ele>
        <time>2020-12-19T12:15:11Z</time>
      </trkpt>
      <trkpt lat="46.71849" lon="5.67365">
        <ele>518.6</ele>
        <time>2020-12-19T12:15:12Z</time>
      </trkpt>
      <trkpt lat="46.71851" lon="5.67367">
        <ele>518.6</ele>
        <time>2020-12-19T12:15:13Z</time>
      </trkpt>
      <trkpt lat="46.71852" lon="5.67369">
        <ele>518.4</ele>
        <time>2020-12-19T12:15:14Z</time>
      </trkpt>
      <trkpt lat="46.71853" lon="5.67372">
        <ele>518.4</ele>
        <time>2020-12-19T12:15:15Z</time>
      </trkpt>
      <trkpt lat="46.71854" lon="5.67374">
        <ele>518.2</ele>
        <time>2020-12-19T12:15:16Z</time>
      </trkpt>
      <trkpt lat="46.71855" lon="5.67377">
        <ele>518.2</ele>
        <time>2020-12-19T12:15:17Z</time>
      </trkpt>
      <trkpt lat="46.71856" lon="5.6738">
        <ele>518.2</ele>
        <time>2020-12-19T12:15:18Z</time>
      </trkpt>
      <trkpt lat="46.71857" lon="5.67382">
        <ele>518</ele>
        <time>2020-12-19T12:15:19Z</time>
      </trkpt>
      <trkpt lat="46.71858" lon="5.67385">
        <ele>517.6</ele>
        <time>2020-12-19T12:15:20Z</time>
      </trkpt>
      <trkpt lat="46.71858" lon="5.67388">
        <ele>517.6</ele>
        <time>2020-12-19T12:15:21Z</time>
      </trkpt>
      <trkpt lat="46.71859" lon="5.67391">
        <ele>517.4</ele>
        <time>2020-12-19T12:15:22Z</time>
      </trkpt>
      <trkpt lat="46.7186" lon="5.67394">
        <ele>517.4</ele>
        <time>2020-12-19T12:15:23Z</time>
      </trkpt>
      <trkpt lat="46.7186" lon="5.67397">
        <ele>517.2</ele>
        <time>2020-12-19T12:15:24Z</time>
      </trkpt>
      <trkpt lat="46.7186" lon="5.67399">
        <ele>517.2</ele>
        <time>2020-12-19T12:15:25Z</time>
      </trkpt>
      <trkpt lat="46.71861" lon="5.67401">
        <ele>517</ele>
        <time>2020-12-19T12:15:26Z</time>
      </trkpt>
      <trkpt lat="46.71861" lon="5.67403">
        <ele>517</ele>
        <time>2020-12-19T12:15:27Z</time>
      </trkpt>
      <trkpt lat="46.71861" lon="5.67404">
        <ele>517</ele>
        <time>2020-12-19T12:15:28Z</time>
      </trkpt>
      <trkpt lat="46.71861" lon="5.67405">
        <ele>516.8</ele>
        <time>2020-12-19T12:15:29Z</time>
      </trkpt>
      <trkpt lat="46.71861" lon="5.67407">
        <ele>516.6</ele>
        <time>2020-12-19T12:15:35Z</time>
      </trkpt>
      <trkpt lat="46.71861" lon="5.67408">
        <ele>516.6</ele>
        <time>2020-12-19T12:15:36Z</time>
      </trkpt>
      <trkpt lat="46.71861" lon="5.6741">
        <ele>516.6</ele>
        <time>2020-12-19T12:15:37Z</time>
      </trkpt>
      <trkpt lat="46.71861" lon="5.67411">
        <ele>516.6</ele>
        <time>2020-12-19T12:15:38Z</time>
      </trkpt>
      <trkpt lat="46.71861" lon="5.67412">
        <ele>516.6</ele>
        <time>2020-12-19T12:15:39Z</time>
      </trkpt>
      <trkpt lat="46.71861" lon="5.67413">
        <ele>516.6</ele>
        <time>2020-12-19T12:15:40Z</time>
      </trkpt>
      <trkpt lat="46.71861" lon="5.67414">
        <ele>516.6</ele>
        <time>2020-12-19T12:15:41Z</time>
      </trkpt>
      <trkpt lat="46.71861" lon="5.67415">
        <ele>516.6</ele>
        <time>2020-12-19T12:15:42Z</time>
      </trkpt>
      <trkpt lat="46.71861" lon="5.67415">
        <ele>516.2</ele>
        <time>2020-12-19T12:15:43Z</time>
      </trkpt>
      <trkpt lat="46.71861" lon="5.67416">
        <ele>516.2</ele>
        <time>2020-12-19T12:15:44Z</time>
      </trkpt>
      <trkpt lat="46.7186" lon="5.6742">
        <ele>516</ele>
        <time>2020-12-19T12:15:52Z</time>
      </trkpt>
      <trkpt lat="46.7186" lon="5.67421">
        <ele>516</ele>
        <time>2020-12-19T12:15:53Z</time>
      </trkpt>
      <trkpt lat="46.7186" lon="5.67424">
        <ele>516</ele>
        <time>2020-12-19T12:15:54Z</time>
      </trkpt>
      <trkpt lat="46.7186" lon="5.67426">
        <ele>516</ele>
        <time>2020-12-19T12:15:55Z</time>
      </trkpt>
      <trkpt lat="46.7186" lon="5.67429">
        <ele>516</ele>
        <time>2020-12-19T12:15:56Z</time>
      </trkpt>
      <trkpt lat="46.7186" lon="5.67433">
        <ele>516</ele>
        <time>2020-12-19T12:15:57Z</time>
      </trkpt>
      <trkpt lat="46.71859" lon="5.67436">
        <ele>516</ele>
        <time>2020-12-19T12:15:58Z</time>
      </trkpt>
      <trkpt lat="46.71859" lon="5.67439">
        <ele>516</ele>
        <time>2020-12-19T12:15:59Z</time>
      </trkpt>
      <trkpt lat="46.71859" lon="5.67443">
        <ele>516</ele>
        <time>2020-12-19T12:16:00Z</time>
      </trkpt>
      <trkpt lat="46.71859" lon="5.67447">
        <ele>515.8</ele>
        <time>2020-12-19T12:16:01Z</time>
      </trkpt>
      <trkpt lat="46.71858" lon="5.67451">
        <ele>515.8</ele>
        <time>2020-12-19T12:16:02Z</time>
      </trkpt>
      <trkpt lat="46.71857" lon="5.67455">
        <ele>515.8</ele>
        <time>2020-12-19T12:16:03Z</time>
      </trkpt>
      <trkpt lat="46.71857" lon="5.67459">
        <ele>515.8</ele>
        <time>2020-12-19T12:16:04Z</time>
      </trkpt>
      <trkpt lat="46.71856" lon="5.67463">
        <ele>515.8</ele>
        <time>2020-12-19T12:16:05Z</time>
      </trkpt>
      <trkpt lat="46.71856" lon="5.67468">
        <ele>515.8</ele>
        <time>2020-12-19T12:16:06Z</time>
      </trkpt>
      <trkpt lat="46.71856" lon="5.67472">
        <ele>515.8</ele>
        <time>2020-12-19T12:16:07Z</time>
      </trkpt>
      <trkpt lat="46.71855" lon="5.67476">
        <ele>516</ele>
        <time>2020-12-19T12:16:08Z</time>
      </trkpt>
      <trkpt lat="46.71855" lon="5.6748">
        <ele>516</ele>
        <time>2020-12-19T12:16:09Z</time>
      </trkpt>
      <trkpt lat="46.71854" lon="5.67484">
        <ele>516</ele>
        <time>2020-12-19T12:16:10Z</time>
      </trkpt>
      <trkpt lat="46.71854" lon="5.67487">
        <ele>516</ele>
        <time>2020-12-19T12:16:11Z</time>
      </trkpt>
      <trkpt lat="46.71853" lon="5.67491">
        <ele>516</ele>
        <time>2020-12-19T12:16:12Z</time>
      </trkpt>
      <trkpt lat="46.71853" lon="5.67495">
        <ele>516</ele>
        <time>2020-12-19T12:16:13Z</time>
      </trkpt>
      <trkpt lat="46.71853" lon="5.67499">
        <ele>516</ele>
        <time>2020-12-19T12:16:14Z</time>
      </trkpt>
      <trkpt lat="46.71852" lon="5.67503">
        <ele>516</ele>
        <time>2020-12-19T12:16:15Z</time>
      </trkpt>
      <trkpt lat="46.71852" lon="5.67507">
        <ele>516.2</ele>
        <time>2020-12-19T12:16:16Z</time>
      </trkpt>
      <trkpt lat="46.71852" lon="5.6751">
        <ele>516.2</ele>
        <time>2020-12-19T12:16:17Z</time>
      </trkpt>
      <trkpt lat="46.71852" lon="5.67514">
        <ele>516.2</ele>
        <time>2020-12-19T12:16:18Z</time>
      </trkpt>
      <trkpt lat="46.71851" lon="5.67518">
        <ele>516.2</ele>
        <time>2020-12-19T12:16:19Z</time>
      </trkpt>
      <trkpt lat="46.71851" lon="5.67522">
        <ele>516.2</ele>
        <time>2020-12-19T12:16:20Z</time>
      </trkpt>
      <trkpt lat="46.71851" lon="5.67526">
        <ele>516.6</ele>
        <time>2020-12-19T12:16:21Z</time>
      </trkpt>
      <trkpt lat="46.71851" lon="5.6753">
        <ele>516.6</ele>
        <time>2020-12-19T12:16:22Z</time>
      </trkpt>
      <trkpt lat="46.71851" lon="5.67534">
        <ele>516.8</ele>
        <time>2020-12-19T12:16:23Z</time>
      </trkpt>
      <trkpt lat="46.71851" lon="5.67539">
        <ele>516.8</ele>
        <time>2020-12-19T12:16:24Z</time>
      </trkpt>
      <trkpt lat="46.71852" lon="5.67542">
        <ele>517.2</ele>
        <time>2020-12-19T12:16:25Z</time>
      </trkpt>
      <trkpt lat="46.71852" lon="5.67546">
        <ele>517.2</ele>
        <time>2020-12-19T12:16:26Z</time>
      </trkpt>
      <trkpt lat="46.71852" lon="5.6755">
        <ele>517.4</ele>
        <time>2020-12-19T12:16:27Z</time>
      </trkpt>
      <trkpt lat="46.71852" lon="5.67554">
        <ele>517.4</ele>
        <time>2020-12-19T12:16:28Z</time>
      </trkpt>
      <trkpt lat="46.71852" lon="5.67557">
        <ele>517.6</ele>
        <time>2020-12-19T12:16:29Z</time>
      </trkpt>
      <trkpt lat="46.71852" lon="5.67561">
        <ele>517.6</ele>
        <time>2020-12-19T12:16:30Z</time>
      </trkpt>
      <trkpt lat="46.71852" lon="5.67564">
        <ele>517.6</ele>
        <time>2020-12-19T12:16:31Z</time>
      </trkpt>
      <trkpt lat="46.71852" lon="5.67567">
        <ele>518</ele>
        <time>2020-12-19T12:16:32Z</time>
      </trkpt>
      <trkpt lat="46.71852" lon="5.6757">
        <ele>518</ele>
        <time>2020-12-19T12:16:33Z</time>
      </trkpt>
      <trkpt lat="46.71853" lon="5.67572">
        <ele>518</ele>
        <time>2020-12-19T12:16:34Z</time>
      </trkpt>
      <trkpt lat="46.71853" lon="5.67574">
        <ele>518.2</ele>
        <time>2020-12-19T12:16:35Z</time>
      </trkpt>
      <trkpt lat="46.71853" lon="5.67577">
        <ele>518.2</ele>
        <time>2020-12-19T12:16:36Z</time>
      </trkpt>
      <trkpt lat="46.71853" lon="5.6758">
        <ele>518.2</ele>
        <time>2020-12-19T12:16:37Z</time>
      </trkpt>
      <trkpt lat="46.71853" lon="5.67583">
        <ele>518.4</ele>
        <time>2020-12-19T12:16:38Z</time>
      </trkpt>
      <trkpt lat="46.71853" lon="5.67585">
        <ele>518.4</ele>
        <time>2020-12-19T12:16:39Z</time>
      </trkpt>
      <trkpt lat="46.71853" lon="5.67588">
        <ele>518.6</ele>
        <time>2020-12-19T12:16:40Z</time>
      </trkpt>
      <trkpt lat="46.71854" lon="5.67591">
        <ele>518.6</ele>
        <time>2020-12-19T12:16:41Z</time>
      </trkpt>
      <trkpt lat="46.71854" lon="5.67593">
        <ele>518.8</ele>
        <time>2020-12-19T12:16:42Z</time>
      </trkpt>
      <trkpt lat="46.71854" lon="5.67596">
        <ele>518.8</ele>
        <time>2020-12-19T12:16:43Z</time>
      </trkpt>
      <trkpt lat="46.71855" lon="5.67598">
        <ele>518.8</ele>
        <time>2020-12-19T12:16:44Z</time>
      </trkpt>
      <trkpt lat="46.71855" lon="5.676">
        <ele>518.8</ele>
        <time>2020-12-19T12:16:45Z</time>
      </trkpt>
      <trkpt lat="46.71855" lon="5.67601">
        <ele>519.2</ele>
        <time>2020-12-19T12:16:46Z</time>
      </trkpt>
      <trkpt lat="46.71856" lon="5.67603">
        <ele>519.2</ele>
        <time>2020-12-19T12:16:47Z</time>
      </trkpt>
      <trkpt lat="46.71856" lon="5.67604">
        <ele>519.2</ele>
        <time>2020-12-19T12:16:48Z</time>
      </trkpt>
      <trkpt lat="46.71856" lon="5.67606">
        <ele>519.4</ele>
        <time>2020-12-19T12:16:49Z</time>
      </trkpt>
      <trkpt lat="46.71856" lon="5.67608">
        <ele>519.4</ele>
        <time>2020-12-19T12:16:50Z</time>
      </trkpt>
      <trkpt lat="46.71856" lon="5.6761">
        <ele>519.4</ele>
        <time>2020-12-19T12:16:51Z</time>
      </trkpt>
      <trkpt lat="46.71857" lon="5.67611">
        <ele>519.6</ele>
        <time>2020-12-19T12:16:52Z</time>
      </trkpt>
      <trkpt lat="46.71857" lon="5.67613">
        <ele>519.6</ele>
        <time>2020-12-19T12:16:53Z</time>
      </trkpt>
      <trkpt lat="46.71858" lon="5.67613">
        <ele>519.6</ele>
        <time>2020-12-19T12:16:54Z</time>
      </trkpt>
      <trkpt lat="46.71858" lon="5.67613">
        <ele>519.6</ele>
        <time>2020-12-19T12:16:55Z</time>
      </trkpt>
      <trkpt lat="46.71858" lon="5.67615">
        <ele>519.8</ele>
        <time>2020-12-19T12:17:23Z</time>
      </trkpt>
      <trkpt lat="46.71858" lon="5.67616">
        <ele>519.8</ele>
        <time>2020-12-19T12:17:24Z</time>
      </trkpt>
      <trkpt lat="46.71858" lon="5.67617">
        <ele>519.8</ele>
        <time>2020-12-19T12:17:25Z</time>
      </trkpt>
      <trkpt lat="46.71858" lon="5.67619">
        <ele>519.8</ele>
        <time>2020-12-19T12:17:26Z</time>
      </trkpt>
      <trkpt lat="46.71858" lon="5.6762">
        <ele>519.8</ele>
        <time>2020-12-19T12:17:27Z</time>
      </trkpt>
      <trkpt lat="46.71858" lon="5.67621">
        <ele>520</ele>
        <time>2020-12-19T12:17:28Z</time>
      </trkpt>
      <trkpt lat="46.71859" lon="5.67623">
        <ele>520</ele>
        <time>2020-12-19T12:17:29Z</time>
      </trkpt>
      <trkpt lat="46.71859" lon="5.67624">
        <ele>520.4</ele>
        <time>2020-12-19T12:17:30Z</time>
      </trkpt>
      <trkpt lat="46.7186" lon="5.67625">
        <ele>520.4</ele>
        <time>2020-12-19T12:17:31Z</time>
      </trkpt>
      <trkpt lat="46.7186" lon="5.67627">
        <ele>520.4</ele>
        <time>2020-12-19T12:17:32Z</time>
      </trkpt>
      <trkpt lat="46.71861" lon="5.67628">
        <ele>520.6</ele>
        <time>2020-12-19T12:17:33Z</time>
      </trkpt>
      <trkpt lat="46.71861" lon="5.67629">
        <ele>520.6</ele>
        <time>2020-12-19T12:17:34Z</time>
      </trkpt>
      <trkpt lat="46.71861" lon="5.67631">
        <ele>520.6</ele>
        <time>2020-12-19T12:17:35Z</time>
      </trkpt>
      <trkpt lat="46.71862" lon="5.67632">
        <ele>520.8</ele>
        <time>2020-12-19T12:17:36Z</time>
      </trkpt>
      <trkpt lat="46.71862" lon="5.67633">
        <ele>520.8</ele>
        <time>2020-12-19T12:17:37Z</time>
      </trkpt>
      <trkpt lat="46.71862" lon="5.67635">
        <ele>520.8</ele>
        <time>2020-12-19T12:17:38Z</time>
      </trkpt>
      <trkpt lat="46.71863" lon="5.67636">
        <ele>521.2</ele>
        <time>2020-12-19T12:17:39Z</time>
      </trkpt>
      <trkpt lat="46.71863" lon="5.67637">
        <ele>521.2</ele>
        <time>2020-12-19T12:17:40Z</time>
      </trkpt>
      <trkpt lat="46.71864" lon="5.67639">
        <ele>521.4</ele>
        <time>2020-12-19T12:17:41Z</time>
      </trkpt>
      <trkpt lat="46.71864" lon="5.6764">
        <ele>521.4</ele>
        <time>2020-12-19T12:17:42Z</time>
      </trkpt>
      <trkpt lat="46.71864" lon="5.67641">
        <ele>521.6</ele>
        <time>2020-12-19T12:17:43Z</time>
      </trkpt>
      <trkpt lat="46.71865" lon="5.67643">
        <ele>521.6</ele>
        <time>2020-12-19T12:17:44Z</time>
      </trkpt>
      <trkpt lat="46.71865" lon="5.67644">
        <ele>521.6</ele>
        <time>2020-12-19T12:17:45Z</time>
      </trkpt>
      <trkpt lat="46.71865" lon="5.67645">
        <ele>521.8</ele>
        <time>2020-12-19T12:17:46Z</time>
      </trkpt>
      <trkpt lat="46.71866" lon="5.67646">
        <ele>521.8</ele>
        <time>2020-12-19T12:17:47Z</time>
      </trkpt>
      <trkpt lat="46.71866" lon="5.67648">
        <ele>521.8</ele>
        <time>2020-12-19T12:17:48Z</time>
      </trkpt>
      <trkpt lat="46.71867" lon="5.67649">
        <ele>522</ele>
        <time>2020-12-19T12:17:49Z</time>
      </trkpt>
      <trkpt lat="46.71867" lon="5.6765">
        <ele>522</ele>
        <time>2020-12-19T12:17:50Z</time>
      </trkpt>
      <trkpt lat="46.71867" lon="5.67652">
        <ele>522</ele>
        <time>2020-12-19T12:17:51Z</time>
      </trkpt>
      <trkpt lat="46.71868" lon="5.67653">
        <ele>522.4</ele>
        <time>2020-12-19T12:17:52Z</time>
      </trkpt>
      <trkpt lat="46.71869" lon="5.67654">
        <ele>522.4</ele>
        <time>2020-12-19T12:17:53Z</time>
      </trkpt>
      <trkpt lat="46.71869" lon="5.67656">
        <ele>522.4</ele>
        <time>2020-12-19T12:17:54Z</time>
      </trkpt>
      <trkpt lat="46.71869" lon="5.67657">
        <ele>522.6</ele>
        <time>2020-12-19T12:17:55Z</time>
      </trkpt>
      <trkpt lat="46.7187" lon="5.67658">
        <ele>522.6</ele>
        <time>2020-12-19T12:17:56Z</time>
      </trkpt>
      <trkpt lat="46.7187" lon="5.67659">
        <ele>522.6</ele>
        <time>2020-12-19T12:17:57Z</time>
      </trkpt>
      <trkpt lat="46.71871" lon="5.67661">
        <ele>522.6</ele>
        <time>2020-12-19T12:17:58Z</time>
      </trkpt>
      <trkpt lat="46.71871" lon="5.67662">
        <ele>522.8</ele>
        <time>2020-12-19T12:17:59Z</time>
      </trkpt>
      <trkpt lat="46.71872" lon="5.67663">
        <ele>522.8</ele>
        <time>2020-12-19T12:18:00Z</time>
      </trkpt>
      <trkpt lat="46.71872" lon="5.67664">
        <ele>523</ele>
        <time>2020-12-19T12:18:01Z</time>
      </trkpt>
      <trkpt lat="46.71872" lon="5.67665">
        <ele>523</ele>
        <time>2020-12-19T12:18:02Z</time>
      </trkpt>
      <trkpt lat="46.71873" lon="5.67666">
        <ele>523</ele>
        <time>2020-12-19T12:18:03Z</time>
      </trkpt>
      <trkpt lat="46.71873" lon="5.67668">
        <ele>523.2</ele>
        <time>2020-12-19T12:18:04Z</time>
      </trkpt>
      <trkpt lat="46.71874" lon="5.67669">
        <ele>523.2</ele>
        <time>2020-12-19T12:18:05Z</time>
      </trkpt>
      <trkpt lat="46.71874" lon="5.6767">
        <ele>523.2</ele>
        <time>2020-12-19T12:18:06Z</time>
      </trkpt>
      <trkpt lat="46.71874" lon="5.67671">
        <ele>523.2</ele>
        <time>2020-12-19T12:18:07Z</time>
      </trkpt>
      <trkpt lat="46.71875" lon="5.67672">
        <ele>523.6</ele>
        <time>2020-12-19T12:18:08Z</time>
      </trkpt>
      <trkpt lat="46.71875" lon="5.67673">
        <ele>523.6</ele>
        <time>2020-12-19T12:18:09Z</time>
      </trkpt>
      <trkpt lat="46.71875" lon="5.67674">
        <ele>523.6</ele>
        <time>2020-12-19T12:18:10Z</time>
      </trkpt>
      <trkpt lat="46.71876" lon="5.67675">
        <ele>523.6</ele>
        <time>2020-12-19T12:18:11Z</time>
      </trkpt>
      <trkpt lat="46.71876" lon="5.67676">
        <ele>523.6</ele>
        <time>2020-12-19T12:18:12Z</time>
      </trkpt>
      <trkpt lat="46.71876" lon="5.67677">
        <ele>523.6</ele>
        <time>2020-12-19T12:18:13Z</time>
      </trkpt>
      <trkpt lat="46.71877" lon="5.67678">
        <ele>523.6</ele>
        <time>2020-12-19T12:18:14Z</time>
      </trkpt>
      <trkpt lat="46.71877" lon="5.67679">
        <ele>523.8</ele>
        <time>2020-12-19T12:18:15Z</time>
      </trkpt>
      <trkpt lat="46.71878" lon="5.67681">
        <ele>523.8</ele>
        <time>2020-12-19T12:18:16Z</time>
      </trkpt>
      <trkpt lat="46.71878" lon="5.67682">
        <ele>523.8</ele>
        <time>2020-12-19T12:18:17Z</time>
      </trkpt>
      <trkpt lat="46.71879" lon="5.67682">
        <ele>523.8</ele>
        <time>2020-12-19T12:18:18Z</time>
      </trkpt>
      <trkpt lat="46.7188" lon="5.67683">
        <ele>523.8</ele>
        <time>2020-12-19T12:18:19Z</time>
      </trkpt>
      <trkpt lat="46.71881" lon="5.67683">
        <ele>523.8</ele>
        <time>2020-12-19T12:18:20Z</time>
      </trkpt>
      <trkpt lat="46.71882" lon="5.67684">
        <ele>524</ele>
        <time>2020-12-19T12:18:21Z</time>
      </trkpt>
      <trkpt lat="46.71883" lon="5.67684">
        <ele>524</ele>
        <time>2020-12-19T12:18:22Z</time>
      </trkpt>
      <trkpt lat="46.71884" lon="5.67684">
        <ele>524.2</ele>
        <time>2020-12-19T12:18:23Z</time>
      </trkpt>
      <trkpt lat="46.71884" lon="5.67684">
        <ele>524.2</ele>
        <time>2020-12-19T12:18:24Z</time>
      </trkpt>
      <trkpt lat="46.71885" lon="5.67685">
        <ele>524.2</ele>
        <time>2020-12-19T12:18:25Z</time>
      </trkpt>
      <trkpt lat="46.71886" lon="5.67685">
        <ele>524.4</ele>
        <time>2020-12-19T12:18:26Z</time>
      </trkpt>
      <trkpt lat="46.71887" lon="5.67684">
        <ele>524.4</ele>
        <time>2020-12-19T12:18:27Z</time>
      </trkpt>
      <trkpt lat="46.71888" lon="5.67684">
        <ele>524.4</ele>
        <time>2020-12-19T12:18:28Z</time>
      </trkpt>
      <trkpt lat="46.71888" lon="5.67684">
        <ele>524.4</ele>
        <time>2020-12-19T12:18:29Z</time>
      </trkpt>
      <trkpt lat="46.71889" lon="5.67683">
        <ele>524.6</ele>
        <time>2020-12-19T12:18:30Z</time>
      </trkpt>
      <trkpt lat="46.7189" lon="5.67682">
        <ele>524.6</ele>
        <time>2020-12-19T12:18:31Z</time>
      </trkpt>
      <trkpt lat="46.71891" lon="5.67681">
        <ele>524.6</ele>
        <time>2020-12-19T12:18:32Z</time>
      </trkpt>
      <trkpt lat="46.71891" lon="5.6768">
        <ele>525</ele>
        <time>2020-12-19T12:18:33Z</time>
      </trkpt>
      <trkpt lat="46.71892" lon="5.67679">
        <ele>525</ele>
        <time>2020-12-19T12:18:34Z</time>
      </trkpt>
      <trkpt lat="46.71893" lon="5.67679">
        <ele>525.2</ele>
        <time>2020-12-19T12:18:35Z</time>
      </trkpt>
      <trkpt lat="46.71893" lon="5.67678">
        <ele>525.2</ele>
        <time>2020-12-19T12:18:36Z</time>
      </trkpt>
      <trkpt lat="46.71894" lon="5.67677">
        <ele>525.2</ele>
        <time>2020-12-19T12:18:37Z</time>
      </trkpt>
      <trkpt lat="46.71894" lon="5.67677">
        <ele>525.4</ele>
        <time>2020-12-19T12:18:38Z</time>
      </trkpt>
      <trkpt lat="46.71894" lon="5.67677">
        <ele>525.4</ele>
        <time>2020-12-19T12:18:39Z</time>
      </trkpt>
      <trkpt lat="46.71893" lon="5.67679">
        <ele>526</ele>
        <time>2020-12-19T12:21:29Z</time>
      </trkpt>
      <trkpt lat="46.71893" lon="5.6768">
        <ele>526</ele>
        <time>2020-12-19T12:21:30Z</time>
      </trkpt>
      <trkpt lat="46.71893" lon="5.6768">
        <ele>526</ele>
        <time>2020-12-19T12:21:31Z</time>
      </trkpt>
      <trkpt lat="46.71892" lon="5.67682">
        <ele>525.8</ele>
        <time>2020-12-19T12:21:37Z</time>
      </trkpt>
      <trkpt lat="46.71891" lon="5.67684">
        <ele>525.8</ele>
        <time>2020-12-19T12:21:38Z</time>
      </trkpt>
      <trkpt lat="46.7189" lon="5.67685">
        <ele>525.8</ele>
        <time>2020-12-19T12:21:39Z</time>
      </trkpt>
      <trkpt lat="46.71889" lon="5.67687">
        <ele>525.8</ele>
        <time>2020-12-19T12:21:40Z</time>
      </trkpt>
      <trkpt lat="46.71887" lon="5.67688">
        <ele>525.4</ele>
        <time>2020-12-19T12:21:41Z</time>
      </trkpt>
      <trkpt lat="46.71886" lon="5.6769">
        <ele>525.2</ele>
        <time>2020-12-19T12:21:42Z</time>
      </trkpt>
      <trkpt lat="46.71885" lon="5.67693">
        <ele>525.2</ele>
        <time>2020-12-19T12:21:43Z</time>
      </trkpt>
      <trkpt lat="46.71884" lon="5.67696">
        <ele>524.8</ele>
        <time>2020-12-19T12:21:44Z</time>
      </trkpt>
      <trkpt lat="46.71884" lon="5.67699">
        <ele>524.8</ele>
        <time>2020-12-19T12:21:45Z</time>
      </trkpt>
      <trkpt lat="46.71884" lon="5.67702">
        <ele>524.6</ele>
        <time>2020-12-19T12:21:46Z</time>
      </trkpt>
      <trkpt lat="46.71883" lon="5.67705">
        <ele>524.6</ele>
        <time>2020-12-19T12:21:47Z</time>
      </trkpt>
      <trkpt lat="46.71883" lon="5.67707">
        <ele>524.6</ele>
        <time>2020-12-19T12:21:48Z</time>
      </trkpt>
      <trkpt lat="46.71882" lon="5.6771">
        <ele>524.4</ele>
        <time>2020-12-19T12:21:49Z</time>
      </trkpt>
      <trkpt lat="46.71882" lon="5.67713">
        <ele>524.4</ele>
        <time>2020-12-19T12:21:50Z</time>
      </trkpt>
      <trkpt lat="46.71881" lon="5.67716">
        <ele>524.4</ele>
        <time>2020-12-19T12:21:51Z</time>
      </trkpt>
      <trkpt lat="46.71881" lon="5.67719">
        <ele>524.4</ele>
        <time>2020-12-19T12:21:52Z</time>
      </trkpt>
      <trkpt lat="46.7188" lon="5.67722">
        <ele>524.4</ele>
        <time>2020-12-19T12:21:53Z</time>
      </trkpt>
      <trkpt lat="46.71879" lon="5.67725">
        <ele>524.4</ele>
        <time>2020-12-19T12:21:54Z</time>
      </trkpt>
      <trkpt lat="46.71878" lon="5.67727">
        <ele>524.2</ele>
        <time>2020-12-19T12:21:55Z</time>
      </trkpt>
      <trkpt lat="46.71877" lon="5.67729">
        <ele>524.2</ele>
        <time>2020-12-19T12:21:56Z</time>
      </trkpt>
      <trkpt lat="46.71876" lon="5.67732">
        <ele>524.2</ele>
        <time>2020-12-19T12:21:57Z</time>
      </trkpt>
      <trkpt lat="46.71875" lon="5.67735">
        <ele>524</ele>
        <time>2020-12-19T12:21:58Z</time>
      </trkpt>
      <trkpt lat="46.71874" lon="5.67737">
        <ele>524</ele>
        <time>2020-12-19T12:21:59Z</time>
      </trkpt>
      <trkpt lat="46.71873" lon="5.6774">
        <ele>524</ele>
        <time>2020-12-19T12:22:00Z</time>
      </trkpt>
      <trkpt lat="46.71872" lon="5.67743">
        <ele>524</ele>
        <time>2020-12-19T12:22:01Z</time>
      </trkpt>
      <trkpt lat="46.7187" lon="5.67746">
        <ele>524</ele>
        <time>2020-12-19T12:22:02Z</time>
      </trkpt>
      <trkpt lat="46.71869" lon="5.67749">
        <ele>523.6</ele>
        <time>2020-12-19T12:22:03Z</time>
      </trkpt>
      <trkpt lat="46.71868" lon="5.67752">
        <ele>523.6</ele>
        <time>2020-12-19T12:22:04Z</time>
      </trkpt>
      <trkpt lat="46.71867" lon="5.67755">
        <ele>523.6</ele>
        <time>2020-12-19T12:22:05Z</time>
      </trkpt>
      <trkpt lat="46.71866" lon="5.67759">
        <ele>523.4</ele>
        <time>2020-12-19T12:22:06Z</time>
      </trkpt>
      <trkpt lat="46.71865" lon="5.67763">
        <ele>523.4</ele>
        <time>2020-12-19T12:22:07Z</time>
      </trkpt>
      <trkpt lat="46.71863" lon="5.67766">
        <ele>523.4</ele>
        <time>2020-12-19T12:22:08Z</time>
      </trkpt>
      <trkpt lat="46.71862" lon="5.6777">
        <ele>523.4</ele>
        <time>2020-12-19T12:22:09Z</time>
      </trkpt>
      <trkpt lat="46.71861" lon="5.67774">
        <ele>523.4</ele>
        <time>2020-12-19T12:22:10Z</time>
      </trkpt>
      <trkpt lat="46.7186" lon="5.67778">
        <ele>523.4</ele>
        <time>2020-12-19T12:22:11Z</time>
      </trkpt>
      <trkpt lat="46.7186" lon="5.67782">
        <ele>523.4</ele>
        <time>2020-12-19T12:22:12Z</time>
      </trkpt>
      <trkpt lat="46.71859" lon="5.67786">
        <ele>523.4</ele>
        <time>2020-12-19T12:22:13Z</time>
      </trkpt>
      <trkpt lat="46.71859" lon="5.6779">
        <ele>523.4</ele>
        <time>2020-12-19T12:22:14Z</time>
      </trkpt>
      <trkpt lat="46.71858" lon="5.67794">
        <ele>523.2</ele>
        <time>2020-12-19T12:22:15Z</time>
      </trkpt>
      <trkpt lat="46.71858" lon="5.67797">
        <ele>523.2</ele>
        <time>2020-12-19T12:22:16Z</time>
      </trkpt>
      <trkpt lat="46.71858" lon="5.67801">
        <ele>523</ele>
        <time>2020-12-19T12:22:17Z</time>
      </trkpt>
      <trkpt lat="46.71858" lon="5.67805">
        <ele>523</ele>
        <time>2020-12-19T12:22:18Z</time>
      </trkpt>
      <trkpt lat="46.71859" lon="5.67809">
        <ele>523</ele>
        <time>2020-12-19T12:22:19Z</time>
      </trkpt>
      <trkpt lat="46.71859" lon="5.67812">
        <ele>522.8</ele>
        <time>2020-12-19T12:22:20Z</time>
      </trkpt>
      <trkpt lat="46.7186" lon="5.67816">
        <ele>522.8</ele>
        <time>2020-12-19T12:22:21Z</time>
      </trkpt>
      <trkpt lat="46.71861" lon="5.67818">
        <ele>522.8</ele>
        <time>2020-12-19T12:22:22Z</time>
      </trkpt>
      <trkpt lat="46.71861" lon="5.6782">
        <ele>522.8</ele>
        <time>2020-12-19T12:22:23Z</time>
      </trkpt>
      <trkpt lat="46.71862" lon="5.67821">
        <ele>522.6</ele>
        <time>2020-12-19T12:22:24Z</time>
      </trkpt>
      <trkpt lat="46.71862" lon="5.67821">
        <ele>522.6</ele>
        <time>2020-12-19T12:22:25Z</time>
      </trkpt>
      <trkpt lat="46.71861" lon="5.6782">
        <ele>522.4</ele>
        <time>2020-12-19T12:25:29Z</time>
      </trkpt>
      <trkpt lat="46.71861" lon="5.6782">
        <ele>522.4</ele>
        <time>2020-12-19T12:25:30Z</time>
      </trkpt>
      <trkpt lat="46.7186" lon="5.6782">
        <ele>522.4</ele>
        <time>2020-12-19T12:25:31Z</time>
      </trkpt>
      <trkpt lat="46.7186" lon="5.67818">
        <ele>522.4</ele>
        <time>2020-12-19T12:25:34Z</time>
      </trkpt>
      <trkpt lat="46.7186" lon="5.67818">
        <ele>522.4</ele>
        <time>2020-12-19T12:25:35Z</time>
      </trkpt>
      <trkpt lat="46.71861" lon="5.67815">
        <ele>522.4</ele>
        <time>2020-12-19T12:25:45Z</time>
      </trkpt>
      <trkpt lat="46.71861" lon="5.67813">
        <ele>522.4</ele>
        <time>2020-12-19T12:25:46Z</time>
      </trkpt>
      <trkpt lat="46.71861" lon="5.67811">
        <ele>522.4</ele>
        <time>2020-12-19T12:25:47Z</time>
      </trkpt>
      <trkpt lat="46.71861" lon="5.67808">
        <ele>522.8</ele>
        <time>2020-12-19T12:25:48Z</time>
      </trkpt>
      <trkpt lat="46.7186" lon="5.67806">
        <ele>522.8</ele>
        <time>2020-12-19T12:25:49Z</time>
      </trkpt>
      <trkpt lat="46.7186" lon="5.67803">
        <ele>522.8</ele>
        <time>2020-12-19T12:25:50Z</time>
      </trkpt>
      <trkpt lat="46.7186" lon="5.678">
        <ele>522.8</ele>
        <time>2020-12-19T12:25:51Z</time>
      </trkpt>
      <trkpt lat="46.7186" lon="5.67797">
        <ele>522.8</ele>
        <time>2020-12-19T12:25:52Z</time>
      </trkpt>
      <trkpt lat="46.71859" lon="5.67794">
        <ele>523</ele>
        <time>2020-12-19T12:25:53Z</time>
      </trkpt>
      <trkpt lat="46.71859" lon="5.67792">
        <ele>523</ele>
        <time>2020-12-19T12:25:54Z</time>
      </trkpt>
      <trkpt lat="46.71858" lon="5.67789">
        <ele>523</ele>
        <time>2020-12-19T12:25:55Z</time>
      </trkpt>
      <trkpt lat="46.71857" lon="5.67786">
        <ele>523</ele>
        <time>2020-12-19T12:25:56Z</time>
      </trkpt>
      <trkpt lat="46.71856" lon="5.67785">
        <ele>523.2</ele>
        <time>2020-12-19T12:25:57Z</time>
      </trkpt>
      <trkpt lat="46.71854" lon="5.67783">
        <ele>523.2</ele>
        <time>2020-12-19T12:25:58Z</time>
      </trkpt>
      <trkpt lat="46.71853" lon="5.67783">
        <ele>523.2</ele>
        <time>2020-12-19T12:25:59Z</time>
      </trkpt>
      <trkpt lat="46.71851" lon="5.67782">
        <ele>523.2</ele>
        <time>2020-12-19T12:26:00Z</time>
      </trkpt>
      <trkpt lat="46.71849" lon="5.67781">
        <ele>523.2</ele>
        <time>2020-12-19T12:26:01Z</time>
      </trkpt>
      <trkpt lat="46.71846" lon="5.6778">
        <ele>523.2</ele>
        <time>2020-12-19T12:26:02Z</time>
      </trkpt>
      <trkpt lat="46.71844" lon="5.67778">
        <ele>523.2</ele>
        <time>2020-12-19T12:26:03Z</time>
      </trkpt>
      <trkpt lat="46.71841" lon="5.67777">
        <ele>523.2</ele>
        <time>2020-12-19T12:26:04Z</time>
      </trkpt>
      <trkpt lat="46.71838" lon="5.67776">
        <ele>523.2</ele>
        <time>2020-12-19T12:26:05Z</time>
      </trkpt>
      <trkpt lat="46.71836" lon="5.67774">
        <ele>523.2</ele>
        <time>2020-12-19T12:26:06Z</time>
      </trkpt>
      <trkpt lat="46.71833" lon="5.67773">
        <ele>523.2</ele>
        <time>2020-12-19T12:26:07Z</time>
      </trkpt>
      <trkpt lat="46.7183" lon="5.67772">
        <ele>523.2</ele>
        <time>2020-12-19T12:26:08Z</time>
      </trkpt>
      <trkpt lat="46.71828" lon="5.67771">
        <ele>523.2</ele>
        <time>2020-12-19T12:26:09Z</time>
      </trkpt>
      <trkpt lat="46.71826" lon="5.67771">
        <ele>523.2</ele>
        <time>2020-12-19T12:26:10Z</time>
      </trkpt>
      <trkpt lat="46.71823" lon="5.67771">
        <ele>523.2</ele>
        <time>2020-12-19T12:26:11Z</time>
      </trkpt>
      <trkpt lat="46.71821" lon="5.67772">
        <ele>523.4</ele>
        <time>2020-12-19T12:26:12Z</time>
      </trkpt>
      <trkpt lat="46.71819" lon="5.67773">
        <ele>523.4</ele>
        <time>2020-12-19T12:26:13Z</time>
      </trkpt>
      <trkpt lat="46.71816" lon="5.67774">
        <ele>523.4</ele>
        <time>2020-12-19T12:26:14Z</time>
      </trkpt>
      <trkpt lat="46.71814" lon="5.67775">
        <ele>523.8</ele>
        <time>2020-12-19T12:26:15Z</time>
      </trkpt>
      <trkpt lat="46.71813" lon="5.67777">
        <ele>523.8</ele>
        <time>2020-12-19T12:26:16Z</time>
      </trkpt>
      <trkpt lat="46.71811" lon="5.67779">
        <ele>524.2</ele>
        <time>2020-12-19T12:26:17Z</time>
      </trkpt>
      <trkpt lat="46.71809" lon="5.67781">
        <ele>524.2</ele>
        <time>2020-12-19T12:26:18Z</time>
      </trkpt>
      <trkpt lat="46.71808" lon="5.67784">
        <ele>524.4</ele>
        <time>2020-12-19T12:26:19Z</time>
      </trkpt>
      <trkpt lat="46.71807" lon="5.67787">
        <ele>524.4</ele>
        <time>2020-12-19T12:26:20Z</time>
      </trkpt>
      <trkpt lat="46.71806" lon="5.6779">
        <ele>524.4</ele>
        <time>2020-12-19T12:26:21Z</time>
      </trkpt>
      <trkpt lat="46.71805" lon="5.67793">
        <ele>524.4</ele>
        <time>2020-12-19T12:26:22Z</time>
      </trkpt>
      <trkpt lat="46.71803" lon="5.67795">
        <ele>524.6</ele>
        <time>2020-12-19T12:26:23Z</time>
      </trkpt>
      <trkpt lat="46.71802" lon="5.67798">
        <ele>524.6</ele>
        <time>2020-12-19T12:26:24Z</time>
      </trkpt>
      <trkpt lat="46.71801" lon="5.67801">
        <ele>524.8</ele>
        <time>2020-12-19T12:26:25Z</time>
      </trkpt>
      <trkpt lat="46.718" lon="5.67805">
        <ele>524.8</ele>
        <time>2020-12-19T12:26:26Z</time>
      </trkpt>
      <trkpt lat="46.71799" lon="5.67808">
        <ele>524.8</ele>
        <time>2020-12-19T12:26:27Z</time>
      </trkpt>
      <trkpt lat="46.71797" lon="5.67811">
        <ele>525</ele>
        <time>2020-12-19T12:26:28Z</time>
      </trkpt>
      <trkpt lat="46.71796" lon="5.67814">
        <ele>525</ele>
        <time>2020-12-19T12:26:29Z</time>
      </trkpt>
      <trkpt lat="46.71795" lon="5.67817">
        <ele>525</ele>
        <time>2020-12-19T12:26:30Z</time>
      </trkpt>
      <trkpt lat="46.71794" lon="5.6782">
        <ele>525.4</ele>
        <time>2020-12-19T12:26:31Z</time>
      </trkpt>
      <trkpt lat="46.71793" lon="5.67824">
        <ele>525.4</ele>
        <time>2020-12-19T12:26:32Z</time>
      </trkpt>
      <trkpt lat="46.71793" lon="5.67828">
        <ele>525.6</ele>
        <time>2020-12-19T12:26:33Z</time>
      </trkpt>
      <trkpt lat="46.71792" lon="5.67831">
        <ele>525.6</ele>
        <time>2020-12-19T12:26:34Z</time>
      </trkpt>
      <trkpt lat="46.71792" lon="5.67834">
        <ele>525.8</ele>
        <time>2020-12-19T12:26:35Z</time>
      </trkpt>
      <trkpt lat="46.71791" lon="5.67836">
        <ele>525.8</ele>
        <time>2020-12-19T12:26:36Z</time>
      </trkpt>
      <trkpt lat="46.71791" lon="5.67839">
        <ele>526.2</ele>
        <time>2020-12-19T12:26:37Z</time>
      </trkpt>
      <trkpt lat="46.7179" lon="5.67842">
        <ele>526.4</ele>
        <time>2020-12-19T12:26:38Z</time>
      </trkpt>
      <trkpt lat="46.7179" lon="5.67845">
        <ele>526.4</ele>
        <time>2020-12-19T12:26:39Z</time>
      </trkpt>
      <trkpt lat="46.71789" lon="5.67847">
        <ele>526.8</ele>
        <time>2020-12-19T12:26:40Z</time>
      </trkpt>
      <trkpt lat="46.71788" lon="5.6785">
        <ele>527</ele>
        <time>2020-12-19T12:26:41Z</time>
      </trkpt>
      <trkpt lat="46.71788" lon="5.67853">
        <ele>527.2</ele>
        <time>2020-12-19T12:26:42Z</time>
      </trkpt>
      <trkpt lat="46.71787" lon="5.67856">
        <ele>527.4</ele>
        <time>2020-12-19T12:26:43Z</time>
      </trkpt>
      <trkpt lat="46.71787" lon="5.67859">
        <ele>527.4</ele>
        <time>2020-12-19T12:26:44Z</time>
      </trkpt>
      <trkpt lat="46.71786" lon="5.67862">
        <ele>527.6</ele>
        <time>2020-12-19T12:26:45Z</time>
      </trkpt>
      <trkpt lat="46.71785" lon="5.67865">
        <ele>527.6</ele>
        <time>2020-12-19T12:26:46Z</time>
      </trkpt>
      <trkpt lat="46.71784" lon="5.67867">
        <ele>528</ele>
        <time>2020-12-19T12:26:47Z</time>
      </trkpt>
      <trkpt lat="46.71783" lon="5.6787">
        <ele>528</ele>
        <time>2020-12-19T12:26:48Z</time>
      </trkpt>
      <trkpt lat="46.71782" lon="5.67872">
        <ele>528</ele>
        <time>2020-12-19T12:26:49Z</time>
      </trkpt>
      <trkpt lat="46.71781" lon="5.67874">
        <ele>528.2</ele>
        <time>2020-12-19T12:26:50Z</time>
      </trkpt>
      <trkpt lat="46.7178" lon="5.67877">
        <ele>528.2</ele>
        <time>2020-12-19T12:26:51Z</time>
      </trkpt>
      <trkpt lat="46.71779" lon="5.67879">
        <ele>528.4</ele>
        <time>2020-12-19T12:26:52Z</time>
      </trkpt>
      <trkpt lat="46.71778" lon="5.67881">
        <ele>528.4</ele>
        <time>2020-12-19T12:26:53Z</time>
      </trkpt>
      <trkpt lat="46.71777" lon="5.67883">
        <ele>528.4</ele>
        <time>2020-12-19T12:26:54Z</time>
      </trkpt>
      <trkpt lat="46.71776" lon="5.67884">
        <ele>528.4</ele>
        <time>2020-12-19T12:26:55Z</time>
      </trkpt>
      <trkpt lat="46.71775" lon="5.67886">
        <ele>528.4</ele>
        <time>2020-12-19T12:26:56Z</time>
      </trkpt>
      <trkpt lat="46.71774" lon="5.67888">
        <ele>528.8</ele>
        <time>2020-12-19T12:26:57Z</time>
      </trkpt>
      <trkpt lat="46.71773" lon="5.67889">
        <ele>528.8</ele>
        <time>2020-12-19T12:26:58Z</time>
      </trkpt>
      <trkpt lat="46.71772" lon="5.67891">
        <ele>528.8</ele>
        <time>2020-12-19T12:26:59Z</time>
      </trkpt>
      <trkpt lat="46.7177" lon="5.67892">
        <ele>528.8</ele>
        <time>2020-12-19T12:27:00Z</time>
      </trkpt>
      <trkpt lat="46.71769" lon="5.67894">
        <ele>529</ele>
        <time>2020-12-19T12:27:01Z</time>
      </trkpt>
      <trkpt lat="46.71768" lon="5.67896">
        <ele>529</ele>
        <time>2020-12-19T12:27:02Z</time>
      </trkpt>
      <trkpt lat="46.71767" lon="5.67897">
        <ele>529</ele>
        <time>2020-12-19T12:27:03Z</time>
      </trkpt>
      <trkpt lat="46.71766" lon="5.67898">
        <ele>529</ele>
        <time>2020-12-19T12:27:04Z</time>
      </trkpt>
      <trkpt lat="46.71765" lon="5.679">
        <ele>529</ele>
        <time>2020-12-19T12:27:05Z</time>
      </trkpt>
      <trkpt lat="46.71764" lon="5.67902">
        <ele>529</ele>
        <time>2020-12-19T12:27:06Z</time>
      </trkpt>
      <trkpt lat="46.71763" lon="5.67903">
        <ele>529</ele>
        <time>2020-12-19T12:27:07Z</time>
      </trkpt>
      <trkpt lat="46.71762" lon="5.67903">
        <ele>529.2</ele>
        <time>2020-12-19T12:27:20Z</time>
      </trkpt>
      <trkpt lat="46.71761" lon="5.67903">
        <ele>529.2</ele>
        <time>2020-12-19T12:27:21Z</time>
      </trkpt>
      <trkpt lat="46.7176" lon="5.67902">
        <ele>529.2</ele>
        <time>2020-12-19T12:27:22Z</time>
      </trkpt>
      <trkpt lat="46.71758" lon="5.67901">
        <ele>529.2</ele>
        <time>2020-12-19T12:27:23Z</time>
      </trkpt>
      <trkpt lat="46.71757" lon="5.679">
        <ele>529.2</ele>
        <time>2020-12-19T12:27:24Z</time>
      </trkpt>
      <trkpt lat="46.71756" lon="5.679">
        <ele>529.2</ele>
        <time>2020-12-19T12:27:25Z</time>
      </trkpt>
      <trkpt lat="46.71755" lon="5.67899">
        <ele>529.2</ele>
        <time>2020-12-19T12:27:26Z</time>
      </trkpt>
      <trkpt lat="46.71753" lon="5.67899">
        <ele>528.8</ele>
        <time>2020-12-19T12:27:27Z</time>
      </trkpt>
      <trkpt lat="46.71751" lon="5.67899">
        <ele>528.8</ele>
        <time>2020-12-19T12:27:28Z</time>
      </trkpt>
      <trkpt lat="46.7175" lon="5.679">
        <ele>528.6</ele>
        <time>2020-12-19T12:27:29Z</time>
      </trkpt>
      <trkpt lat="46.71749" lon="5.679">
        <ele>528.6</ele>
        <time>2020-12-19T12:27:30Z</time>
      </trkpt>
      <trkpt lat="46.71748" lon="5.679">
        <ele>528.6</ele>
        <time>2020-12-19T12:27:31Z</time>
      </trkpt>
      <trkpt lat="46.71746" lon="5.679">
        <ele>528.2</ele>
        <time>2020-12-19T12:27:32Z</time>
      </trkpt>
      <trkpt lat="46.71745" lon="5.679">
        <ele>528.2</ele>
        <time>2020-12-19T12:27:33Z</time>
      </trkpt>
      <trkpt lat="46.71744" lon="5.679">
        <ele>528</ele>
        <time>2020-12-19T12:27:34Z</time>
      </trkpt>
      <trkpt lat="46.71742" lon="5.679">
        <ele>528</ele>
        <time>2020-12-19T12:27:35Z</time>
      </trkpt>
      <trkpt lat="46.7174" lon="5.679">
        <ele>528</ele>
        <time>2020-12-19T12:27:36Z</time>
      </trkpt>
      <trkpt lat="46.71739" lon="5.679">
        <ele>527.8</ele>
        <time>2020-12-19T12:27:37Z</time>
      </trkpt>
      <trkpt lat="46.71739" lon="5.679">
        <ele>527.8</ele>
        <time>2020-12-19T12:27:38Z</time>
      </trkpt>
      <trkpt lat="46.71736" lon="5.679">
        <ele>527.6</ele>
        <time>2020-12-19T12:27:42Z</time>
      </trkpt>
      <trkpt lat="46.71735" lon="5.679">
        <ele>527.6</ele>
        <time>2020-12-19T12:27:43Z</time>
      </trkpt>
      <trkpt lat="46.71734" lon="5.679">
        <ele>527.6</ele>
        <time>2020-12-19T12:27:44Z</time>
      </trkpt>
      <trkpt lat="46.71733" lon="5.679">
        <ele>527.6</ele>
        <time>2020-12-19T12:27:45Z</time>
      </trkpt>
      <trkpt lat="46.71732" lon="5.679">
        <ele>527.6</ele>
        <time>2020-12-19T12:27:46Z</time>
      </trkpt>
      <trkpt lat="46.71731" lon="5.67901">
        <ele>527.4</ele>
        <time>2020-12-19T12:27:47Z</time>
      </trkpt>
      <trkpt lat="46.71729" lon="5.67901">
        <ele>527.4</ele>
        <time>2020-12-19T12:27:48Z</time>
      </trkpt>
      <trkpt lat="46.71729" lon="5.67901">
        <ele>527.4</ele>
        <time>2020-12-19T12:27:49Z</time>
      </trkpt>
      <trkpt lat="46.71728" lon="5.67901">
        <ele>527.4</ele>
        <time>2020-12-19T12:27:50Z</time>
      </trkpt>
      <trkpt lat="46.71726" lon="5.67901">
        <ele>527.2</ele>
        <time>2020-12-19T12:27:51Z</time>
      </trkpt>
      <trkpt lat="46.71726" lon="5.67902">
        <ele>527.2</ele>
        <time>2020-12-19T12:27:52Z</time>
      </trkpt>
      <trkpt lat="46.71724" lon="5.67902">
        <ele>527.2</ele>
        <time>2020-12-19T12:27:53Z</time>
      </trkpt>
      <trkpt lat="46.71723" lon="5.67902">
        <ele>526.8</ele>
        <time>2020-12-19T12:27:54Z</time>
      </trkpt>
      <trkpt lat="46.71722" lon="5.67902">
        <ele>526.8</ele>
        <time>2020-12-19T12:27:55Z</time>
      </trkpt>
      <trkpt lat="46.71721" lon="5.67902">
        <ele>526.8</ele>
        <time>2020-12-19T12:27:56Z</time>
      </trkpt>
      <trkpt lat="46.7172" lon="5.67902">
        <ele>526.8</ele>
        <time>2020-12-19T12:27:57Z</time>
      </trkpt>
      <trkpt lat="46.71719" lon="5.67902">
        <ele>526.8</ele>
        <time>2020-12-19T12:27:58Z</time>
      </trkpt>
      <trkpt lat="46.71718" lon="5.67902">
        <ele>526.8</ele>
        <time>2020-12-19T12:27:59Z</time>
      </trkpt>
      <trkpt lat="46.71717" lon="5.67902">
        <ele>526.8</ele>
        <time>2020-12-19T12:28:00Z</time>
      </trkpt>
      <trkpt lat="46.71716" lon="5.67902">
        <ele>526.8</ele>
        <time>2020-12-19T12:28:01Z</time>
      </trkpt>
      <trkpt lat="46.71715" lon="5.67903">
        <ele>526.8</ele>
        <time>2020-12-19T12:28:02Z</time>
      </trkpt>
      <trkpt lat="46.71713" lon="5.67903">
        <ele>526.6</ele>
        <time>2020-12-19T12:28:03Z</time>
      </trkpt>
      <trkpt lat="46.71712" lon="5.67903">
        <ele>526.6</ele>
        <time>2020-12-19T12:28:04Z</time>
      </trkpt>
      <trkpt lat="46.71711" lon="5.67903">
        <ele>526.6</ele>
        <time>2020-12-19T12:28:05Z</time>
      </trkpt>
      <trkpt lat="46.7171" lon="5.67903">
        <ele>526.6</ele>
        <time>2020-12-19T12:28:06Z</time>
      </trkpt>
      <trkpt lat="46.71709" lon="5.67903">
        <ele>526.6</ele>
        <time>2020-12-19T12:28:07Z</time>
      </trkpt>
      <trkpt lat="46.71708" lon="5.67903">
        <ele>526.4</ele>
        <time>2020-12-19T12:28:08Z</time>
      </trkpt>
      <trkpt lat="46.71707" lon="5.67903">
        <ele>526.4</ele>
        <time>2020-12-19T12:28:09Z</time>
      </trkpt>
      <trkpt lat="46.71706" lon="5.67903">
        <ele>526.4</ele>
        <time>2020-12-19T12:28:10Z</time>
      </trkpt>
      <trkpt lat="46.71705" lon="5.67903">
        <ele>526.2</ele>
        <time>2020-12-19T12:28:11Z</time>
      </trkpt>
      <trkpt lat="46.71704" lon="5.67903">
        <ele>526.2</ele>
        <time>2020-12-19T12:28:12Z</time>
      </trkpt>
      <trkpt lat="46.71703" lon="5.67903">
        <ele>526.2</ele>
        <time>2020-12-19T12:28:13Z</time>
      </trkpt>
      <trkpt lat="46.71702" lon="5.67903">
        <ele>525.8</ele>
        <time>2020-12-19T12:28:14Z</time>
      </trkpt>
      <trkpt lat="46.71701" lon="5.67903">
        <ele>525.8</ele>
        <time>2020-12-19T12:28:15Z</time>
      </trkpt>
      <trkpt lat="46.717" lon="5.67902">
        <ele>525.8</ele>
        <time>2020-12-19T12:28:16Z</time>
      </trkpt>
      <trkpt lat="46.717" lon="5.67902">
        <ele>525.8</ele>
        <time>2020-12-19T12:28:17Z</time>
      </trkpt>
      <trkpt lat="46.71699" lon="5.67901">
        <ele>525.8</ele>
        <time>2020-12-19T12:28:18Z</time>
      </trkpt>
      <trkpt lat="46.71699" lon="5.679">
        <ele>525.8</ele>
        <time>2020-12-19T12:28:19Z</time>
      </trkpt>
      <trkpt lat="46.71698" lon="5.679">
        <ele>525.8</ele>
        <time>2020-12-19T12:28:20Z</time>
      </trkpt>
      <trkpt lat="46.71698" lon="5.67899">
        <ele>525.8</ele>
        <time>2020-12-19T12:28:21Z</time>
      </trkpt>
      <trkpt lat="46.71697" lon="5.67898">
        <ele>525.8</ele>
        <time>2020-12-19T12:28:22Z</time>
      </trkpt>
      <trkpt lat="46.71697" lon="5.67897">
        <ele>525.8</ele>
        <time>2020-12-19T12:28:23Z</time>
      </trkpt>
      <trkpt lat="46.71697" lon="5.67896">
        <ele>525.6</ele>
        <time>2020-12-19T12:28:24Z</time>
      </trkpt>
      <trkpt lat="46.71696" lon="5.67895">
        <ele>525.6</ele>
        <time>2020-12-19T12:28:25Z</time>
      </trkpt>
      <trkpt lat="46.71696" lon="5.67894">
        <ele>525.4</ele>
        <time>2020-12-19T12:28:26Z</time>
      </trkpt>
      <trkpt lat="46.71696" lon="5.67893">
        <ele>525.4</ele>
        <time>2020-12-19T12:28:27Z</time>
      </trkpt>
      <trkpt lat="46.71696" lon="5.67892">
        <ele>525.4</ele>
        <time>2020-12-19T12:28:28Z</time>
      </trkpt>
      <trkpt lat="46.71696" lon="5.67891">
        <ele>525.4</ele>
        <time>2020-12-19T12:28:29Z</time>
      </trkpt>
      <trkpt lat="46.71696" lon="5.6789">
        <ele>525.2</ele>
        <time>2020-12-19T12:28:30Z</time>
      </trkpt>
      <trkpt lat="46.71696" lon="5.67889">
        <ele>525.2</ele>
        <time>2020-12-19T12:28:31Z</time>
      </trkpt>
      <trkpt lat="46.71696" lon="5.67888">
        <ele>525.2</ele>
        <time>2020-12-19T12:28:32Z</time>
      </trkpt>
      <trkpt lat="46.71696" lon="5.67887">
        <ele>525.2</ele>
        <time>2020-12-19T12:28:33Z</time>
      </trkpt>
      <trkpt lat="46.71696" lon="5.67886">
        <ele>525.2</ele>
        <time>2020-12-19T12:28:34Z</time>
      </trkpt>
      <trkpt lat="46.71696" lon="5.67885">
        <ele>525</ele>
        <time>2020-12-19T12:28:35Z</time>
      </trkpt>
      <trkpt lat="46.71696" lon="5.67885">
        <ele>525</ele>
        <time>2020-12-19T12:28:36Z</time>
      </trkpt>
      <trkpt lat="46.71696" lon="5.67884">
        <ele>525</ele>
        <time>2020-12-19T12:28:37Z</time>
      </trkpt>
      <trkpt lat="46.71696" lon="5.67883">
        <ele>525</ele>
        <time>2020-12-19T12:28:38Z</time>
      </trkpt>
      <trkpt lat="46.71696" lon="5.67881">
        <ele>524.6</ele>
        <time>2020-12-19T12:28:39Z</time>
      </trkpt>
      <trkpt lat="46.71695" lon="5.6788">
        <ele>524.6</ele>
        <time>2020-12-19T12:28:40Z</time>
      </trkpt>
      <trkpt lat="46.71695" lon="5.67879">
        <ele>524.6</ele>
        <time>2020-12-19T12:28:41Z</time>
      </trkpt>
      <trkpt lat="46.71695" lon="5.67878">
        <ele>524.6</ele>
        <time>2020-12-19T12:28:42Z</time>
      </trkpt>
      <trkpt lat="46.71695" lon="5.67877">
        <ele>524.6</ele>
        <time>2020-12-19T12:28:43Z</time>
      </trkpt>
      <trkpt lat="46.71695" lon="5.67876">
        <ele>524.4</ele>
        <time>2020-12-19T12:28:44Z</time>
      </trkpt>
      <trkpt lat="46.71695" lon="5.67875">
        <ele>524.4</ele>
        <time>2020-12-19T12:28:45Z</time>
      </trkpt>
      <trkpt lat="46.71695" lon="5.67875">
        <ele>524.4</ele>
        <time>2020-12-19T12:28:46Z</time>
      </trkpt>
      <trkpt lat="46.71695" lon="5.67872">
        <ele>524.2</ele>
        <time>2020-12-19T12:28:49Z</time>
      </trkpt>
      <trkpt lat="46.71695" lon="5.67871">
        <ele>524.2</ele>
        <time>2020-12-19T12:28:50Z</time>
      </trkpt>
      <trkpt lat="46.71694" lon="5.6787">
        <ele>524.2</ele>
        <time>2020-12-19T12:28:51Z</time>
      </trkpt>
      <trkpt lat="46.71694" lon="5.6787">
        <ele>524.2</ele>
        <time>2020-12-19T12:28:52Z</time>
      </trkpt>
      <trkpt lat="46.71694" lon="5.67868">
        <ele>524.2</ele>
        <time>2020-12-19T12:28:56Z</time>
      </trkpt>
      <trkpt lat="46.71694" lon="5.67867">
        <ele>524.2</ele>
        <time>2020-12-19T12:28:57Z</time>
      </trkpt>
      <trkpt lat="46.71694" lon="5.67866">
        <ele>524.2</ele>
        <time>2020-12-19T12:28:58Z</time>
      </trkpt>
      <trkpt lat="46.71694" lon="5.67864">
        <ele>524.2</ele>
        <time>2020-12-19T12:28:59Z</time>
      </trkpt>
      <trkpt lat="46.71694" lon="5.67863">
        <ele>524</ele>
        <time>2020-12-19T12:29:00Z</time>
      </trkpt>
      <trkpt lat="46.71694" lon="5.67862">
        <ele>524</ele>
        <time>2020-12-19T12:29:01Z</time>
      </trkpt>
      <trkpt lat="46.71694" lon="5.67861">
        <ele>524</ele>
        <time>2020-12-19T12:29:02Z</time>
      </trkpt>
      <trkpt lat="46.71693" lon="5.6786">
        <ele>524</ele>
        <time>2020-12-19T12:29:03Z</time>
      </trkpt>
      <trkpt lat="46.71693" lon="5.67858">
        <ele>524</ele>
        <time>2020-12-19T12:29:04Z</time>
      </trkpt>
      <trkpt lat="46.71693" lon="5.67857">
        <ele>524</ele>
        <time>2020-12-19T12:29:05Z</time>
      </trkpt>
      <trkpt lat="46.71693" lon="5.67856">
        <ele>523.8</ele>
        <time>2020-12-19T12:29:06Z</time>
      </trkpt>
      <trkpt lat="46.71693" lon="5.67855">
        <ele>523.8</ele>
        <time>2020-12-19T12:29:07Z</time>
      </trkpt>
      <trkpt lat="46.71693" lon="5.67853">
        <ele>523.8</ele>
        <time>2020-12-19T12:29:08Z</time>
      </trkpt>
      <trkpt lat="46.71693" lon="5.67852">
        <ele>523.6</ele>
        <time>2020-12-19T12:29:09Z</time>
      </trkpt>
      <trkpt lat="46.71693" lon="5.67851">
        <ele>523.6</ele>
        <time>2020-12-19T12:29:10Z</time>
      </trkpt>
      <trkpt lat="46.71693" lon="5.6785">
        <ele>523.6</ele>
        <time>2020-12-19T12:29:11Z</time>
      </trkpt>
      <trkpt lat="46.71693" lon="5.67848">
        <ele>523.6</ele>
        <time>2020-12-19T12:29:12Z</time>
      </trkpt>
      <trkpt lat="46.71692" lon="5.67847">
        <ele>523.6</ele>
        <time>2020-12-19T12:29:13Z</time>
      </trkpt>
      <trkpt lat="46.71692" lon="5.67846">
        <ele>523.2</ele>
        <time>2020-12-19T12:29:14Z</time>
      </trkpt>
      <trkpt lat="46.71693" lon="5.67845">
        <ele>523.2</ele>
        <time>2020-12-19T12:29:15Z</time>
      </trkpt>
      <trkpt lat="46.71692" lon="5.67843">
        <ele>523.2</ele>
        <time>2020-12-19T12:29:16Z</time>
      </trkpt>
      <trkpt lat="46.71692" lon="5.67842">
        <ele>523</ele>
        <time>2020-12-19T12:29:17Z</time>
      </trkpt>
      <trkpt lat="46.71692" lon="5.67841">
        <ele>523</ele>
        <time>2020-12-19T12:29:18Z</time>
      </trkpt>
      <trkpt lat="46.71692" lon="5.6784">
        <ele>523</ele>
        <time>2020-12-19T12:29:19Z</time>
      </trkpt>
      <trkpt lat="46.71692" lon="5.67838">
        <ele>522.6</ele>
        <time>2020-12-19T12:29:20Z</time>
      </trkpt>
      <trkpt lat="46.71691" lon="5.67837">
        <ele>522.6</ele>
        <time>2020-12-19T12:29:21Z</time>
      </trkpt>
      <trkpt lat="46.71691" lon="5.67836">
        <ele>522.6</ele>
        <time>2020-12-19T12:29:22Z</time>
      </trkpt>
      <trkpt lat="46.71691" lon="5.67834">
        <ele>522.6</ele>
        <time>2020-12-19T12:29:23Z</time>
      </trkpt>
      <trkpt lat="46.71691" lon="5.67833">
        <ele>522.4</ele>
        <time>2020-12-19T12:29:24Z</time>
      </trkpt>
      <trkpt lat="46.71691" lon="5.67832">
        <ele>522.4</ele>
        <time>2020-12-19T12:29:25Z</time>
      </trkpt>
      <trkpt lat="46.71691" lon="5.6783">
        <ele>522.4</ele>
        <time>2020-12-19T12:29:26Z</time>
      </trkpt>
      <trkpt lat="46.71691" lon="5.67829">
        <ele>522.4</ele>
        <time>2020-12-19T12:29:27Z</time>
      </trkpt>
      <trkpt lat="46.71691" lon="5.67827">
        <ele>522.2</ele>
        <time>2020-12-19T12:29:28Z</time>
      </trkpt>
      <trkpt lat="46.71691" lon="5.67826">
        <ele>522.2</ele>
        <time>2020-12-19T12:29:29Z</time>
      </trkpt>
      <trkpt lat="46.71691" lon="5.67825">
        <ele>522.2</ele>
        <time>2020-12-19T12:29:30Z</time>
      </trkpt>
      <trkpt lat="46.7169" lon="5.67823">
        <ele>522.2</ele>
        <time>2020-12-19T12:29:31Z</time>
      </trkpt>
      <trkpt lat="46.7169" lon="5.67822">
        <ele>522.2</ele>
        <time>2020-12-19T12:29:32Z</time>
      </trkpt>
      <trkpt lat="46.7169" lon="5.67821">
        <ele>522</ele>
        <time>2020-12-19T12:29:33Z</time>
      </trkpt>
      <trkpt lat="46.7169" lon="5.67819">
        <ele>522</ele>
        <time>2020-12-19T12:29:34Z</time>
      </trkpt>
      <trkpt lat="46.7169" lon="5.67818">
        <ele>522</ele>
        <time>2020-12-19T12:29:35Z</time>
      </trkpt>
      <trkpt lat="46.7169" lon="5.67817">
        <ele>522</ele>
        <time>2020-12-19T12:29:36Z</time>
      </trkpt>
      <trkpt lat="46.7169" lon="5.67816">
        <ele>522</ele>
        <time>2020-12-19T12:29:37Z</time>
      </trkpt>
      <trkpt lat="46.7169" lon="5.67814">
        <ele>522</ele>
        <time>2020-12-19T12:29:40Z</time>
      </trkpt>
      <trkpt lat="46.7169" lon="5.67813">
        <ele>521.8</ele>
        <time>2020-12-19T12:29:41Z</time>
      </trkpt>
      <trkpt lat="46.7169" lon="5.67812">
        <ele>521.8</ele>
        <time>2020-12-19T12:29:42Z</time>
      </trkpt>
      <trkpt lat="46.7169" lon="5.67811">
        <ele>521.8</ele>
        <time>2020-12-19T12:29:43Z</time>
      </trkpt>
      <trkpt lat="46.7169" lon="5.6781">
        <ele>521.8</ele>
        <time>2020-12-19T12:29:44Z</time>
      </trkpt>
      <trkpt lat="46.71689" lon="5.67809">
        <ele>521.8</ele>
        <time>2020-12-19T12:29:45Z</time>
      </trkpt>
      <trkpt lat="46.71689" lon="5.67808">
        <ele>521.8</ele>
        <time>2020-12-19T12:29:46Z</time>
      </trkpt>
      <trkpt lat="46.71689" lon="5.67806">
        <ele>521.8</ele>
        <time>2020-12-19T12:29:47Z</time>
      </trkpt>
      <trkpt lat="46.71689" lon="5.67805">
        <ele>521.6</ele>
        <time>2020-12-19T12:29:48Z</time>
      </trkpt>
      <trkpt lat="46.71689" lon="5.67804">
        <ele>521.6</ele>
        <time>2020-12-19T12:29:49Z</time>
      </trkpt>
      <trkpt lat="46.71689" lon="5.67804">
        <ele>521.6</ele>
        <time>2020-12-19T12:29:50Z</time>
      </trkpt>
      <trkpt lat="46.71689" lon="5.67803">
        <ele>521.6</ele>
        <time>2020-12-19T12:29:51Z</time>
      </trkpt>
      <trkpt lat="46.71688" lon="5.67802">
        <ele>521.6</ele>
        <time>2020-12-19T12:29:52Z</time>
      </trkpt>
      <trkpt lat="46.71688" lon="5.67801">
        <ele>521.6</ele>
        <time>2020-12-19T12:29:53Z</time>
      </trkpt>
      <trkpt lat="46.71688" lon="5.678">
        <ele>521.6</ele>
        <time>2020-12-19T12:29:54Z</time>
      </trkpt>
      <trkpt lat="46.71688" lon="5.678">
        <ele>521.6</ele>
        <time>2020-12-19T12:29:55Z</time>
      </trkpt>
      <trkpt lat="46.71688" lon="5.67799">
        <ele>521.6</ele>
        <time>2020-12-19T12:29:56Z</time>
      </trkpt>
      <trkpt lat="46.71688" lon="5.67798">
        <ele>521.6</ele>
        <time>2020-12-19T12:29:57Z</time>
      </trkpt>
      <trkpt lat="46.71688" lon="5.67798">
        <ele>521.6</ele>
        <time>2020-12-19T12:29:58Z</time>
      </trkpt>
      <trkpt lat="46.71688" lon="5.67796">
        <ele>521.6</ele>
        <time>2020-12-19T12:30:01Z</time>
      </trkpt>
      <trkpt lat="46.71688" lon="5.67795">
        <ele>521.6</ele>
        <time>2020-12-19T12:30:02Z</time>
      </trkpt>
      <trkpt lat="46.71688" lon="5.67794">
        <ele>521.6</ele>
        <time>2020-12-19T12:30:03Z</time>
      </trkpt>
      <trkpt lat="46.71688" lon="5.67793">
        <ele>521.6</ele>
        <time>2020-12-19T12:30:04Z</time>
      </trkpt>
      <trkpt lat="46.71688" lon="5.67792">
        <ele>521.6</ele>
        <time>2020-12-19T12:30:05Z</time>
      </trkpt>
      <trkpt lat="46.71688" lon="5.67791">
        <ele>521.8</ele>
        <time>2020-12-19T12:30:06Z</time>
      </trkpt>
      <trkpt lat="46.71688" lon="5.6779">
        <ele>521.8</ele>
        <time>2020-12-19T12:30:07Z</time>
      </trkpt>
      <trkpt lat="46.71688" lon="5.67789">
        <ele>521.8</ele>
        <time>2020-12-19T12:30:08Z</time>
      </trkpt>
      <trkpt lat="46.71688" lon="5.67788">
        <ele>522</ele>
        <time>2020-12-19T12:30:09Z</time>
      </trkpt>
      <trkpt lat="46.71688" lon="5.67787">
        <ele>522</ele>
        <time>2020-12-19T12:30:10Z</time>
      </trkpt>
      <trkpt lat="46.71688" lon="5.67786">
        <ele>522</ele>
        <time>2020-12-19T12:30:11Z</time>
      </trkpt>
      <trkpt lat="46.71688" lon="5.67785">
        <ele>522</ele>
        <time>2020-12-19T12:30:12Z</time>
      </trkpt>
      <trkpt lat="46.71688" lon="5.67784">
        <ele>522</ele>
        <time>2020-12-19T12:30:13Z</time>
      </trkpt>
      <trkpt lat="46.71688" lon="5.67784">
        <ele>522</ele>
        <time>2020-12-19T12:30:14Z</time>
      </trkpt>
      <trkpt lat="46.71685" lon="5.67783">
        <ele>522.4</ele>
        <time>2020-12-19T12:32:12Z</time>
      </trkpt>
      <trkpt lat="46.71684" lon="5.67783">
        <ele>522.4</ele>
        <time>2020-12-19T12:32:13Z</time>
      </trkpt>
      <trkpt lat="46.71684" lon="5.67783">
        <ele>522.2</ele>
        <time>2020-12-19T12:32:14Z</time>
      </trkpt>
      <trkpt lat="46.71684" lon="5.67783">
        <ele>522.2</ele>
        <time>2020-12-19T12:32:15Z</time>
      </trkpt>
      <trkpt lat="46.71684" lon="5.67783">
        <ele>522.2</ele>
        <time>2020-12-19T12:32:16Z</time>
      </trkpt>
      <trkpt lat="46.71682" lon="5.67783">
        <ele>522.2</ele>
        <time>2020-12-19T12:32:23Z</time>
      </trkpt>
      <trkpt lat="46.71682" lon="5.67783">
        <ele>522.2</ele>
        <time>2020-12-19T12:32:24Z</time>
      </trkpt>
      <trkpt lat="46.71682" lon="5.67784">
        <ele>522.2</ele>
        <time>2020-12-19T12:32:25Z</time>
      </trkpt>
      <trkpt lat="46.71681" lon="5.67785">
        <ele>522.2</ele>
        <time>2020-12-19T12:32:26Z</time>
      </trkpt>
      <trkpt lat="46.71681" lon="5.67785">
        <ele>522.2</ele>
        <time>2020-12-19T12:32:27Z</time>
      </trkpt>
      <trkpt lat="46.7168" lon="5.67786">
        <ele>522.2</ele>
        <time>2020-12-19T12:32:28Z</time>
      </trkpt>
      <trkpt lat="46.71679" lon="5.67786">
        <ele>522.2</ele>
        <time>2020-12-19T12:32:29Z</time>
      </trkpt>
      <trkpt lat="46.71679" lon="5.67787">
        <ele>522.2</ele>
        <time>2020-12-19T12:32:30Z</time>
      </trkpt>
      <trkpt lat="46.71678" lon="5.67788">
        <ele>522.2</ele>
        <time>2020-12-19T12:32:31Z</time>
      </trkpt>
      <trkpt lat="46.71677" lon="5.67789">
        <ele>522.4</ele>
        <time>2020-12-19T12:32:32Z</time>
      </trkpt>
      <trkpt lat="46.71676" lon="5.67789">
        <ele>522.4</ele>
        <time>2020-12-19T12:32:33Z</time>
      </trkpt>
      <trkpt lat="46.71675" lon="5.67789">
        <ele>522.4</ele>
        <time>2020-12-19T12:32:34Z</time>
      </trkpt>
      <trkpt lat="46.71674" lon="5.6779">
        <ele>522.4</ele>
        <time>2020-12-19T12:32:35Z</time>
      </trkpt>
      <trkpt lat="46.71674" lon="5.6779">
        <ele>522.4</ele>
        <time>2020-12-19T12:32:36Z</time>
      </trkpt>
      <trkpt lat="46.71673" lon="5.6779">
        <ele>522.4</ele>
        <time>2020-12-19T12:32:37Z</time>
      </trkpt>
      <trkpt lat="46.71673" lon="5.6779">
        <ele>522.4</ele>
        <time>2020-12-19T12:32:38Z</time>
      </trkpt>
      <trkpt lat="46.71672" lon="5.6779">
        <ele>522.8</ele>
        <time>2020-12-19T12:32:39Z</time>
      </trkpt>
      <trkpt lat="46.71672" lon="5.6779">
        <ele>522.8</ele>
        <time>2020-12-19T12:32:40Z</time>
      </trkpt>
      <trkpt lat="46.71671" lon="5.6779">
        <ele>523</ele>
        <time>2020-12-19T12:32:41Z</time>
      </trkpt>
      <trkpt lat="46.7167" lon="5.67789">
        <ele>523</ele>
        <time>2020-12-19T12:32:42Z</time>
      </trkpt>
      <trkpt lat="46.7167" lon="5.67789">
        <ele>523</ele>
        <time>2020-12-19T12:32:43Z</time>
      </trkpt>
      <trkpt lat="46.71669" lon="5.67788">
        <ele>523.4</ele>
        <time>2020-12-19T12:32:44Z</time>
      </trkpt>
      <trkpt lat="46.71668" lon="5.67787">
        <ele>523.4</ele>
        <time>2020-12-19T12:32:45Z</time>
      </trkpt>
      <trkpt lat="46.71668" lon="5.67787">
        <ele>523.6</ele>
        <time>2020-12-19T12:32:46Z</time>
      </trkpt>
      <trkpt lat="46.71667" lon="5.67787">
        <ele>523.6</ele>
        <time>2020-12-19T12:32:47Z</time>
      </trkpt>
      <trkpt lat="46.71667" lon="5.67787">
        <ele>523.8</ele>
        <time>2020-12-19T12:32:48Z</time>
      </trkpt>
      <trkpt lat="46.71663" lon="5.67785">
        <ele>524.4</ele>
        <time>2020-12-19T12:32:55Z</time>
      </trkpt>
      <trkpt lat="46.71662" lon="5.67784">
        <ele>524.6</ele>
        <time>2020-12-19T12:32:56Z</time>
      </trkpt>
      <trkpt lat="46.71662" lon="5.67784">
        <ele>524.6</ele>
        <time>2020-12-19T12:32:57Z</time>
      </trkpt>
      <trkpt lat="46.71662" lon="5.67784">
        <ele>524.8</ele>
        <time>2020-12-19T12:32:58Z</time>
      </trkpt>
      <trkpt lat="46.71658" lon="5.67784">
        <ele>525.8</ele>
        <time>2020-12-19T12:33:08Z</time>
      </trkpt>
      <trkpt lat="46.71657" lon="5.67784">
        <ele>525.8</ele>
        <time>2020-12-19T12:33:09Z</time>
      </trkpt>
      <trkpt lat="46.71656" lon="5.67784">
        <ele>526</ele>
        <time>2020-12-19T12:33:12Z</time>
      </trkpt>
      <trkpt lat="46.71655" lon="5.67784">
        <ele>526.2</ele>
        <time>2020-12-19T12:33:13Z</time>
      </trkpt>
      <trkpt lat="46.71655" lon="5.67784">
        <ele>526.2</ele>
        <time>2020-12-19T12:33:14Z</time>
      </trkpt>
      <trkpt lat="46.71655" lon="5.67785">
        <ele>526.8</ele>
        <time>2020-12-19T12:33:22Z</time>
      </trkpt>
      <trkpt lat="46.71655" lon="5.67786">
        <ele>526.8</ele>
        <time>2020-12-19T12:33:23Z</time>
      </trkpt>
      <trkpt lat="46.71654" lon="5.67786">
        <ele>526.8</ele>
        <time>2020-12-19T12:33:24Z</time>
      </trkpt>
      <trkpt lat="46.71652" lon="5.67789">
        <ele>527</ele>
        <time>2020-12-19T12:33:33Z</time>
      </trkpt>
      <trkpt lat="46.71652" lon="5.67789">
        <ele>527</ele>
        <time>2020-12-19T12:33:34Z</time>
      </trkpt>
      <trkpt lat="46.71651" lon="5.67789">
        <ele>527.4</ele>
        <time>2020-12-19T12:33:35Z</time>
      </trkpt>
      <trkpt lat="46.71651" lon="5.6779">
        <ele>527.4</ele>
        <time>2020-12-19T12:33:36Z</time>
      </trkpt>
      <trkpt lat="46.71651" lon="5.6779">
        <ele>527.4</ele>
        <time>2020-12-19T12:33:37Z</time>
      </trkpt>
      <trkpt lat="46.7165" lon="5.67792">
        <ele>527.6</ele>
        <time>2020-12-19T12:33:40Z</time>
      </trkpt>
      <trkpt lat="46.71649" lon="5.67792">
        <ele>528</ele>
        <time>2020-12-19T12:33:41Z</time>
      </trkpt>
      <trkpt lat="46.71647" lon="5.67793">
        <ele>528.4</ele>
        <time>2020-12-19T12:33:48Z</time>
      </trkpt>
      <trkpt lat="46.71647" lon="5.67793">
        <ele>528.6</ele>
        <time>2020-12-19T12:33:49Z</time>
      </trkpt>
      <trkpt lat="46.71647" lon="5.67793">
        <ele>528.6</ele>
        <time>2020-12-19T12:33:50Z</time>
      </trkpt>
      <trkpt lat="46.71646" lon="5.67794">
        <ele>528.8</ele>
        <time>2020-12-19T12:33:53Z</time>
      </trkpt>
      <trkpt lat="46.71645" lon="5.67794">
        <ele>529.2</ele>
        <time>2020-12-19T12:33:54Z</time>
      </trkpt>
      <trkpt lat="46.71639" lon="5.67797">
        <ele>530.8</ele>
        <time>2020-12-19T12:34:10Z</time>
      </trkpt>
      <trkpt lat="46.71638" lon="5.67797">
        <ele>530.8</ele>
        <time>2020-12-19T12:34:11Z</time>
      </trkpt>
      <trkpt lat="46.71638" lon="5.67796">
        <ele>530.8</ele>
        <time>2020-12-19T12:34:12Z</time>
      </trkpt>
      <trkpt lat="46.71638" lon="5.67796">
        <ele>531</ele>
        <time>2020-12-19T12:34:13Z</time>
      </trkpt>
      <trkpt lat="46.71635" lon="5.67797">
        <ele>531.2</ele>
        <time>2020-12-19T12:34:17Z</time>
      </trkpt>
      <trkpt lat="46.71635" lon="5.67797">
        <ele>531.2</ele>
        <time>2020-12-19T12:34:18Z</time>
      </trkpt>
      <trkpt lat="46.71634" lon="5.67798">
        <ele>531.2</ele>
        <time>2020-12-19T12:34:19Z</time>
      </trkpt>
      <trkpt lat="46.71633" lon="5.67798">
        <ele>531.2</ele>
        <time>2020-12-19T12:34:20Z</time>
      </trkpt>
      <trkpt lat="46.71633" lon="5.67798">
        <ele>531.2</ele>
        <time>2020-12-19T12:34:21Z</time>
      </trkpt>
      <trkpt lat="46.71633" lon="5.67798">
        <ele>531.2</ele>
        <time>2020-12-19T12:34:22Z</time>
      </trkpt>
      <trkpt lat="46.71631" lon="5.67799">
        <ele>531.2</ele>
        <time>2020-12-19T12:34:56Z</time>
      </trkpt>
      <trkpt lat="46.71631" lon="5.67799">
        <ele>531.2</ele>
        <time>2020-12-19T12:34:57Z</time>
      </trkpt>
      <trkpt lat="46.7163" lon="5.678">
        <ele>531.2</ele>
        <time>2020-12-19T12:34:58Z</time>
      </trkpt>
      <trkpt lat="46.71629" lon="5.678">
        <ele>531.2</ele>
        <time>2020-12-19T12:34:59Z</time>
      </trkpt>
      <trkpt lat="46.71629" lon="5.67801">
        <ele>531.2</ele>
        <time>2020-12-19T12:35:00Z</time>
      </trkpt>
      <trkpt lat="46.71628" lon="5.67801">
        <ele>531.2</ele>
        <time>2020-12-19T12:35:01Z</time>
      </trkpt>
      <trkpt lat="46.71628" lon="5.67802">
        <ele>531.2</ele>
        <time>2020-12-19T12:35:02Z</time>
      </trkpt>
      <trkpt lat="46.71627" lon="5.67802">
        <ele>531</ele>
        <time>2020-12-19T12:35:03Z</time>
      </trkpt>
      <trkpt lat="46.71627" lon="5.67802">
        <ele>531</ele>
        <time>2020-12-19T12:35:04Z</time>
      </trkpt>
      <trkpt lat="46.71627" lon="5.67802">
        <ele>531</ele>
        <time>2020-12-19T12:35:05Z</time>
      </trkpt>
      <trkpt lat="46.71626" lon="5.67802">
        <ele>531</ele>
        <time>2020-12-19T12:35:06Z</time>
      </trkpt>
      <trkpt lat="46.71624" lon="5.67799">
        <ele>530.6</ele>
        <time>2020-12-19T12:35:19Z</time>
      </trkpt>
      <trkpt lat="46.71624" lon="5.67799">
        <ele>530.6</ele>
        <time>2020-12-19T12:35:20Z</time>
      </trkpt>
      <trkpt lat="46.71624" lon="5.67798">
        <ele>530.6</ele>
        <time>2020-12-19T12:35:26Z</time>
      </trkpt>
      <trkpt lat="46.71624" lon="5.67798">
        <ele>530.6</ele>
        <time>2020-12-19T12:35:27Z</time>
      </trkpt>
      <trkpt lat="46.71624" lon="5.67798">
        <ele>530.6</ele>
        <time>2020-12-19T12:35:28Z</time>
      </trkpt>
      <trkpt lat="46.71623" lon="5.67797">
        <ele>530.8</ele>
        <time>2020-12-19T12:35:42Z</time>
      </trkpt>
      <trkpt lat="46.71623" lon="5.67796">
        <ele>530.8</ele>
        <time>2020-12-19T12:35:43Z</time>
      </trkpt>
      <trkpt lat="46.71623" lon="5.67795">
        <ele>530.8</ele>
        <time>2020-12-19T12:35:44Z</time>
      </trkpt>
      <trkpt lat="46.71623" lon="5.67794">
        <ele>530.8</ele>
        <time>2020-12-19T12:35:45Z</time>
      </trkpt>
      <trkpt lat="46.71623" lon="5.67794">
        <ele>531</ele>
        <time>2020-12-19T12:35:46Z</time>
      </trkpt>
      <trkpt lat="46.71622" lon="5.67793">
        <ele>531</ele>
        <time>2020-12-19T12:35:47Z</time>
      </trkpt>
      <trkpt lat="46.71622" lon="5.67793">
        <ele>531</ele>
        <time>2020-12-19T12:35:48Z</time>
      </trkpt>
      <trkpt lat="46.71622" lon="5.67791">
        <ele>531</ele>
        <time>2020-12-19T12:35:58Z</time>
      </trkpt>
      <trkpt lat="46.71621" lon="5.6779">
        <ele>531</ele>
        <time>2020-12-19T12:35:59Z</time>
      </trkpt>
      <trkpt lat="46.71621" lon="5.6779">
        <ele>531</ele>
        <time>2020-12-19T12:36:00Z</time>
      </trkpt>
      <trkpt lat="46.71621" lon="5.67789">
        <ele>531</ele>
        <time>2020-12-19T12:36:01Z</time>
      </trkpt>
      <trkpt lat="46.71621" lon="5.67789">
        <ele>531</ele>
        <time>2020-12-19T12:36:02Z</time>
      </trkpt>
      <trkpt lat="46.7162" lon="5.67787">
        <ele>531</ele>
        <time>2020-12-19T12:36:07Z</time>
      </trkpt>
      <trkpt lat="46.71619" lon="5.67786">
        <ele>531</ele>
        <time>2020-12-19T12:36:08Z</time>
      </trkpt>
      <trkpt lat="46.71618" lon="5.67785">
        <ele>531</ele>
        <time>2020-12-19T12:36:09Z</time>
      </trkpt>
      <trkpt lat="46.71617" lon="5.67784">
        <ele>531</ele>
        <time>2020-12-19T12:36:10Z</time>
      </trkpt>
      <trkpt lat="46.71617" lon="5.67783">
        <ele>531.2</ele>
        <time>2020-12-19T12:36:11Z</time>
      </trkpt>
      <trkpt lat="46.71616" lon="5.67783">
        <ele>531.2</ele>
        <time>2020-12-19T12:36:12Z</time>
      </trkpt>
      <trkpt lat="46.71616" lon="5.67782">
        <ele>531.2</ele>
        <time>2020-12-19T12:36:13Z</time>
      </trkpt>
      <trkpt lat="46.71615" lon="5.67781">
        <ele>531.2</ele>
        <time>2020-12-19T12:36:14Z</time>
      </trkpt>
      <trkpt lat="46.71614" lon="5.6778">
        <ele>531.2</ele>
        <time>2020-12-19T12:36:15Z</time>
      </trkpt>
      <trkpt lat="46.71614" lon="5.6778">
        <ele>531.2</ele>
        <time>2020-12-19T12:36:16Z</time>
      </trkpt>
      <trkpt lat="46.71613" lon="5.67779">
        <ele>531.2</ele>
        <time>2020-12-19T12:36:17Z</time>
      </trkpt>
      <trkpt lat="46.71613" lon="5.67779">
        <ele>531.2</ele>
        <time>2020-12-19T12:36:18Z</time>
      </trkpt>
      <trkpt lat="46.71612" lon="5.67778">
        <ele>531.2</ele>
        <time>2020-12-19T12:36:19Z</time>
      </trkpt>
      <trkpt lat="46.71612" lon="5.67777">
        <ele>531.2</ele>
        <time>2020-12-19T12:36:20Z</time>
      </trkpt>
      <trkpt lat="46.71611" lon="5.67777">
        <ele>531.2</ele>
        <time>2020-12-19T12:36:21Z</time>
      </trkpt>
      <trkpt lat="46.71611" lon="5.67776">
        <ele>531.2</ele>
        <time>2020-12-19T12:36:22Z</time>
      </trkpt>
      <trkpt lat="46.7161" lon="5.67775">
        <ele>531.2</ele>
        <time>2020-12-19T12:36:23Z</time>
      </trkpt>
      <trkpt lat="46.71609" lon="5.67775">
        <ele>531.2</ele>
        <time>2020-12-19T12:36:24Z</time>
      </trkpt>
      <trkpt lat="46.71609" lon="5.67774">
        <ele>531.2</ele>
        <time>2020-12-19T12:36:25Z</time>
      </trkpt>
      <trkpt lat="46.71609" lon="5.67774">
        <ele>531.2</ele>
        <time>2020-12-19T12:36:26Z</time>
      </trkpt>
      <trkpt lat="46.71608" lon="5.67774">
        <ele>531.2</ele>
        <time>2020-12-19T12:36:27Z</time>
      </trkpt>
      <trkpt lat="46.71607" lon="5.67774">
        <ele>531.4</ele>
        <time>2020-12-19T12:39:14Z</time>
      </trkpt>
      <trkpt lat="46.71607" lon="5.67774">
        <ele>531.4</ele>
        <time>2020-12-19T12:39:15Z</time>
      </trkpt>
      <trkpt lat="46.71607" lon="5.67774">
        <ele>531.4</ele>
        <time>2020-12-19T12:39:16Z</time>
      </trkpt>
      <trkpt lat="46.71606" lon="5.67774">
        <ele>531.2</ele>
        <time>2020-12-19T12:39:17Z</time>
      </trkpt>
      <trkpt lat="46.71606" lon="5.67775">
        <ele>531.2</ele>
        <time>2020-12-19T12:39:18Z</time>
      </trkpt>
      <trkpt lat="46.71605" lon="5.67775">
        <ele>531.2</ele>
        <time>2020-12-19T12:39:19Z</time>
      </trkpt>
      <trkpt lat="46.71605" lon="5.67775">
        <ele>531.2</ele>
        <time>2020-12-19T12:39:20Z</time>
      </trkpt>
      <trkpt lat="46.71605" lon="5.67776">
        <ele>531.2</ele>
        <time>2020-12-19T12:39:21Z</time>
      </trkpt>
      <trkpt lat="46.71604" lon="5.67776">
        <ele>531.2</ele>
        <time>2020-12-19T12:39:22Z</time>
      </trkpt>
      <trkpt lat="46.71603" lon="5.67776">
        <ele>531.2</ele>
        <time>2020-12-19T12:39:23Z</time>
      </trkpt>
      <trkpt lat="46.71603" lon="5.67776">
        <ele>531</ele>
        <time>2020-12-19T12:39:24Z</time>
      </trkpt>
      <trkpt lat="46.71602" lon="5.67776">
        <ele>531</ele>
        <time>2020-12-19T12:39:25Z</time>
      </trkpt>
      <trkpt lat="46.71601" lon="5.67776">
        <ele>531</ele>
        <time>2020-12-19T12:39:26Z</time>
      </trkpt>
      <trkpt lat="46.71601" lon="5.67776">
        <ele>531</ele>
        <time>2020-12-19T12:39:27Z</time>
      </trkpt>
      <trkpt lat="46.716" lon="5.67777">
        <ele>531</ele>
        <time>2020-12-19T12:39:28Z</time>
      </trkpt>
      <trkpt lat="46.71599" lon="5.67777">
        <ele>531</ele>
        <time>2020-12-19T12:39:29Z</time>
      </trkpt>
      <trkpt lat="46.71599" lon="5.67778">
        <ele>530.8</ele>
        <time>2020-12-19T12:39:30Z</time>
      </trkpt>
      <trkpt lat="46.71598" lon="5.67778">
        <ele>530.8</ele>
        <time>2020-12-19T12:39:31Z</time>
      </trkpt>
      <trkpt lat="46.71598" lon="5.67778">
        <ele>530.8</ele>
        <time>2020-12-19T12:39:32Z</time>
      </trkpt>
      <trkpt lat="46.71597" lon="5.67778">
        <ele>530.4</ele>
        <time>2020-12-19T12:39:33Z</time>
      </trkpt>
      <trkpt lat="46.71597" lon="5.67779">
        <ele>530.4</ele>
        <time>2020-12-19T12:39:34Z</time>
      </trkpt>
      <trkpt lat="46.71596" lon="5.67779">
        <ele>530.2</ele>
        <time>2020-12-19T12:39:35Z</time>
      </trkpt>
      <trkpt lat="46.71594" lon="5.67779">
        <ele>530.2</ele>
        <time>2020-12-19T12:39:39Z</time>
      </trkpt>
      <trkpt lat="46.71593" lon="5.67779">
        <ele>529.8</ele>
        <time>2020-12-19T12:39:40Z</time>
      </trkpt>
      <trkpt lat="46.71592" lon="5.67779">
        <ele>529.8</ele>
        <time>2020-12-19T12:39:41Z</time>
      </trkpt>
      <trkpt lat="46.71592" lon="5.67779">
        <ele>529.8</ele>
        <time>2020-12-19T12:39:42Z</time>
      </trkpt>
      <trkpt lat="46.7159" lon="5.67779">
        <ele>529.8</ele>
        <time>2020-12-19T12:39:43Z</time>
      </trkpt>
      <trkpt lat="46.71589" lon="5.6778">
        <ele>529.8</ele>
        <time>2020-12-19T12:39:44Z</time>
      </trkpt>
      <trkpt lat="46.71588" lon="5.67779">
        <ele>529.8</ele>
        <time>2020-12-19T12:39:45Z</time>
      </trkpt>
      <trkpt lat="46.71587" lon="5.67779">
        <ele>529.8</ele>
        <time>2020-12-19T12:39:46Z</time>
      </trkpt>
      <trkpt lat="46.71586" lon="5.67778">
        <ele>529.6</ele>
        <time>2020-12-19T12:39:47Z</time>
      </trkpt>
      <trkpt lat="46.71585" lon="5.67778">
        <ele>529.6</ele>
        <time>2020-12-19T12:39:48Z</time>
      </trkpt>
      <trkpt lat="46.71584" lon="5.67778">
        <ele>529.6</ele>
        <time>2020-12-19T12:39:49Z</time>
      </trkpt>
      <trkpt lat="46.71584" lon="5.67778">
        <ele>529.6</ele>
        <time>2020-12-19T12:39:50Z</time>
      </trkpt>
      <trkpt lat="46.71583" lon="5.67779">
        <ele>529.6</ele>
        <time>2020-12-19T12:39:51Z</time>
      </trkpt>
      <trkpt lat="46.71583" lon="5.67779">
        <ele>529.4</ele>
        <time>2020-12-19T12:39:52Z</time>
      </trkpt>
      <trkpt lat="46.71582" lon="5.6778">
        <ele>529.4</ele>
        <time>2020-12-19T12:39:53Z</time>
      </trkpt>
      <trkpt lat="46.71581" lon="5.6778">
        <ele>529.4</ele>
        <time>2020-12-19T12:39:54Z</time>
      </trkpt>
      <trkpt lat="46.7158" lon="5.67781">
        <ele>529.4</ele>
        <time>2020-12-19T12:39:55Z</time>
      </trkpt>
      <trkpt lat="46.71578" lon="5.67781">
        <ele>529.4</ele>
        <time>2020-12-19T12:39:56Z</time>
      </trkpt>
      <trkpt lat="46.71578" lon="5.67782">
        <ele>529</ele>
        <time>2020-12-19T12:39:57Z</time>
      </trkpt>
      <trkpt lat="46.71577" lon="5.67782">
        <ele>529</ele>
        <time>2020-12-19T12:39:58Z</time>
      </trkpt>
      <trkpt lat="46.71576" lon="5.67782">
        <ele>528.8</ele>
        <time>2020-12-19T12:39:59Z</time>
      </trkpt>
      <trkpt lat="46.71575" lon="5.67783">
        <ele>528.8</ele>
        <time>2020-12-19T12:40:00Z</time>
      </trkpt>
      <trkpt lat="46.71574" lon="5.67783">
        <ele>528.8</ele>
        <time>2020-12-19T12:40:01Z</time>
      </trkpt>
      <trkpt lat="46.71574" lon="5.67783">
        <ele>528.6</ele>
        <time>2020-12-19T12:40:02Z</time>
      </trkpt>
      <trkpt lat="46.71573" lon="5.67783">
        <ele>528.6</ele>
        <time>2020-12-19T12:40:03Z</time>
      </trkpt>
      <trkpt lat="46.71573" lon="5.67784">
        <ele>528.6</ele>
        <time>2020-12-19T12:40:04Z</time>
      </trkpt>
      <trkpt lat="46.71572" lon="5.67784">
        <ele>528.4</ele>
        <time>2020-12-19T12:40:05Z</time>
      </trkpt>
      <trkpt lat="46.71572" lon="5.67784">
        <ele>528.4</ele>
        <time>2020-12-19T12:40:06Z</time>
      </trkpt>
      <trkpt lat="46.7157" lon="5.67784">
        <ele>528.4</ele>
        <time>2020-12-19T12:40:10Z</time>
      </trkpt>
      <trkpt lat="46.71569" lon="5.67784">
        <ele>528.4</ele>
        <time>2020-12-19T12:40:11Z</time>
      </trkpt>
      <trkpt lat="46.71568" lon="5.67784">
        <ele>528.2</ele>
        <time>2020-12-19T12:40:12Z</time>
      </trkpt>
      <trkpt lat="46.71568" lon="5.67785">
        <ele>528.2</ele>
        <time>2020-12-19T12:40:13Z</time>
      </trkpt>
      <trkpt lat="46.71567" lon="5.67785">
        <ele>528.2</ele>
        <time>2020-12-19T12:40:14Z</time>
      </trkpt>
      <trkpt lat="46.71567" lon="5.67786">
        <ele>527.8</ele>
        <time>2020-12-19T12:40:15Z</time>
      </trkpt>
      <trkpt lat="46.71566" lon="5.67787">
        <ele>527.8</ele>
        <time>2020-12-19T12:40:16Z</time>
      </trkpt>
      <trkpt lat="46.71566" lon="5.67787">
        <ele>527.8</ele>
        <time>2020-12-19T12:40:17Z</time>
      </trkpt>
      <trkpt lat="46.71565" lon="5.67788">
        <ele>527.8</ele>
        <time>2020-12-19T12:40:18Z</time>
      </trkpt>
      <trkpt lat="46.71565" lon="5.67788">
        <ele>527.8</ele>
        <time>2020-12-19T12:40:19Z</time>
      </trkpt>
      <trkpt lat="46.71564" lon="5.67788">
        <ele>527.6</ele>
        <time>2020-12-19T12:40:20Z</time>
      </trkpt>
      <trkpt lat="46.71564" lon="5.67788">
        <ele>527.6</ele>
        <time>2020-12-19T12:40:21Z</time>
      </trkpt>
      <trkpt lat="46.71562" lon="5.67788">
        <ele>527.2</ele>
        <time>2020-12-19T12:40:25Z</time>
      </trkpt>
      <trkpt lat="46.71561" lon="5.67789">
        <ele>527.2</ele>
        <time>2020-12-19T12:40:26Z</time>
      </trkpt>
      <trkpt lat="46.71558" lon="5.67791">
        <ele>527</ele>
        <time>2020-12-19T12:40:30Z</time>
      </trkpt>
      <trkpt lat="46.71558" lon="5.67791">
        <ele>527</ele>
        <time>2020-12-19T12:40:31Z</time>
      </trkpt>
      <trkpt lat="46.71557" lon="5.67792">
        <ele>527</ele>
        <time>2020-12-19T12:40:32Z</time>
      </trkpt>
      <trkpt lat="46.71556" lon="5.67792">
        <ele>526.8</ele>
        <time>2020-12-19T12:40:33Z</time>
      </trkpt>
      <trkpt lat="46.71556" lon="5.67792">
        <ele>526.8</ele>
        <time>2020-12-19T12:40:34Z</time>
      </trkpt>
      <trkpt lat="46.71556" lon="5.67792">
        <ele>526.8</ele>
        <time>2020-12-19T12:40:35Z</time>
      </trkpt>
      <trkpt lat="46.71549" lon="5.67796">
        <ele>526</ele>
        <time>2020-12-19T12:40:47Z</time>
      </trkpt>
      <trkpt lat="46.71549" lon="5.67796">
        <ele>526</ele>
        <time>2020-12-19T12:40:48Z</time>
      </trkpt>
      <trkpt lat="46.71549" lon="5.67795">
        <ele>525.8</ele>
        <time>2020-12-19T12:40:49Z</time>
      </trkpt>
      <trkpt lat="46.71548" lon="5.67795">
        <ele>525.8</ele>
        <time>2020-12-19T12:40:50Z</time>
      </trkpt>
      <trkpt lat="46.71548" lon="5.67794">
        <ele>525.8</ele>
        <time>2020-12-19T12:40:51Z</time>
      </trkpt>
      <trkpt lat="46.71548" lon="5.67794">
        <ele>525.8</ele>
        <time>2020-12-19T12:40:52Z</time>
      </trkpt>
      <trkpt lat="46.71547" lon="5.67794">
        <ele>525.8</ele>
        <time>2020-12-19T12:40:53Z</time>
      </trkpt>
      <trkpt lat="46.71547" lon="5.67794">
        <ele>525.8</ele>
        <time>2020-12-19T12:40:54Z</time>
      </trkpt>
      <trkpt lat="46.71545" lon="5.67792">
        <ele>525.4</ele>
        <time>2020-12-19T12:41:01Z</time>
      </trkpt>
      <trkpt lat="46.71544" lon="5.67792">
        <ele>525.4</ele>
        <time>2020-12-19T12:41:02Z</time>
      </trkpt>
      <trkpt lat="46.71544" lon="5.67791">
        <ele>525.2</ele>
        <time>2020-12-19T12:41:03Z</time>
      </trkpt>
      <trkpt lat="46.71537" lon="5.67787">
        <ele>524.2</ele>
        <time>2020-12-19T12:41:18Z</time>
      </trkpt>
      <trkpt lat="46.71537" lon="5.67786">
        <ele>524</ele>
        <time>2020-12-19T12:41:19Z</time>
      </trkpt>
      <trkpt lat="46.71536" lon="5.67786">
        <ele>524</ele>
        <time>2020-12-19T12:41:20Z</time>
      </trkpt>
      <trkpt lat="46.71536" lon="5.67785">
        <ele>524</ele>
        <time>2020-12-19T12:41:21Z</time>
      </trkpt>
      <trkpt lat="46.71535" lon="5.67785">
        <ele>524</ele>
        <time>2020-12-19T12:41:22Z</time>
      </trkpt>
      <trkpt lat="46.71535" lon="5.67784">
        <ele>524</ele>
        <time>2020-12-19T12:41:23Z</time>
      </trkpt>
      <trkpt lat="46.71534" lon="5.67783">
        <ele>524</ele>
        <time>2020-12-19T12:41:24Z</time>
      </trkpt>
      <trkpt lat="46.71534" lon="5.67782">
        <ele>524</ele>
        <time>2020-12-19T12:41:25Z</time>
      </trkpt>
      <trkpt lat="46.71533" lon="5.67782">
        <ele>524</ele>
        <time>2020-12-19T12:41:26Z</time>
      </trkpt>
      <trkpt lat="46.71533" lon="5.67781">
        <ele>524</ele>
        <time>2020-12-19T12:41:27Z</time>
      </trkpt>
      <trkpt lat="46.71532" lon="5.6778">
        <ele>524</ele>
        <time>2020-12-19T12:41:28Z</time>
      </trkpt>
      <trkpt lat="46.71532" lon="5.67779">
        <ele>524</ele>
        <time>2020-12-19T12:41:29Z</time>
      </trkpt>
      <trkpt lat="46.71531" lon="5.67778">
        <ele>524</ele>
        <time>2020-12-19T12:41:30Z</time>
      </trkpt>
      <trkpt lat="46.7153" lon="5.67777">
        <ele>524</ele>
        <time>2020-12-19T12:41:31Z</time>
      </trkpt>
      <trkpt lat="46.7153" lon="5.67777">
        <ele>524.2</ele>
        <time>2020-12-19T12:41:32Z</time>
      </trkpt>
      <trkpt lat="46.71529" lon="5.67776">
        <ele>524.2</ele>
        <time>2020-12-19T12:41:33Z</time>
      </trkpt>
      <trkpt lat="46.71527" lon="5.67773">
        <ele>524.4</ele>
        <time>2020-12-19T12:42:25Z</time>
      </trkpt>
      <trkpt lat="46.71526" lon="5.67773">
        <ele>524.6</ele>
        <time>2020-12-19T12:42:26Z</time>
      </trkpt>
      <trkpt lat="46.71526" lon="5.67773">
        <ele>524.6</ele>
        <time>2020-12-19T12:42:27Z</time>
      </trkpt>
      <trkpt lat="46.71524" lon="5.67771">
        <ele>525.4</ele>
        <time>2020-12-19T12:42:43Z</time>
      </trkpt>
      <trkpt lat="46.71523" lon="5.67771">
        <ele>525.6</ele>
        <time>2020-12-19T12:42:44Z</time>
      </trkpt>
      <trkpt lat="46.71523" lon="5.67771">
        <ele>525.6</ele>
        <time>2020-12-19T12:42:45Z</time>
      </trkpt>
      <trkpt lat="46.7152" lon="5.67772">
        <ele>525.8</ele>
        <time>2020-12-19T12:42:50Z</time>
      </trkpt>
      <trkpt lat="46.7152" lon="5.67773">
        <ele>525.8</ele>
        <time>2020-12-19T12:42:51Z</time>
      </trkpt>
      <trkpt lat="46.71519" lon="5.67773">
        <ele>526</ele>
        <time>2020-12-19T12:42:52Z</time>
      </trkpt>
      <trkpt lat="46.71518" lon="5.67774">
        <ele>526</ele>
        <time>2020-12-19T12:42:53Z</time>
      </trkpt>
      <trkpt lat="46.71518" lon="5.67774">
        <ele>526</ele>
        <time>2020-12-19T12:42:54Z</time>
      </trkpt>
      <trkpt lat="46.71517" lon="5.67774">
        <ele>526</ele>
        <time>2020-12-19T12:42:55Z</time>
      </trkpt>
      <trkpt lat="46.71517" lon="5.67773">
        <ele>526</ele>
        <time>2020-12-19T12:42:56Z</time>
      </trkpt>
      <trkpt lat="46.71515" lon="5.67771">
        <ele>526.6</ele>
        <time>2020-12-19T12:43:00Z</time>
      </trkpt>
      <trkpt lat="46.71515" lon="5.6777">
        <ele>526.6</ele>
        <time>2020-12-19T12:43:01Z</time>
      </trkpt>
      <trkpt lat="46.71514" lon="5.6777">
        <ele>526.8</ele>
        <time>2020-12-19T12:43:02Z</time>
      </trkpt>
      <trkpt lat="46.71514" lon="5.67769">
        <ele>526.8</ele>
        <time>2020-12-19T12:43:03Z</time>
      </trkpt>
      <trkpt lat="46.71513" lon="5.67769">
        <ele>527</ele>
        <time>2020-12-19T12:43:04Z</time>
      </trkpt>
      <trkpt lat="46.71513" lon="5.67768">
        <ele>527</ele>
        <time>2020-12-19T12:43:05Z</time>
      </trkpt>
      <trkpt lat="46.71512" lon="5.67768">
        <ele>527</ele>
        <time>2020-12-19T12:43:06Z</time>
      </trkpt>
      <trkpt lat="46.71511" lon="5.67767">
        <ele>527.4</ele>
        <time>2020-12-19T12:43:07Z</time>
      </trkpt>
      <trkpt lat="46.7151" lon="5.67766">
        <ele>527.4</ele>
        <time>2020-12-19T12:43:08Z</time>
      </trkpt>
      <trkpt lat="46.7151" lon="5.67766">
        <ele>527.4</ele>
        <time>2020-12-19T12:43:09Z</time>
      </trkpt>
      <trkpt lat="46.71509" lon="5.67765">
        <ele>527.4</ele>
        <time>2020-12-19T12:43:10Z</time>
      </trkpt>
      <trkpt lat="46.71508" lon="5.67766">
        <ele>527.6</ele>
        <time>2020-12-19T12:43:11Z</time>
      </trkpt>
      <trkpt lat="46.71508" lon="5.67765">
        <ele>527.6</ele>
        <time>2020-12-19T12:43:12Z</time>
      </trkpt>
      <trkpt lat="46.71507" lon="5.67766">
        <ele>527.6</ele>
        <time>2020-12-19T12:43:13Z</time>
      </trkpt>
      <trkpt lat="46.71507" lon="5.67766">
        <ele>527.6</ele>
        <time>2020-12-19T12:43:14Z</time>
      </trkpt>
      <trkpt lat="46.71506" lon="5.67766">
        <ele>527.6</ele>
        <time>2020-12-19T12:43:15Z</time>
      </trkpt>
      <trkpt lat="46.71505" lon="5.67766">
        <ele>527.6</ele>
        <time>2020-12-19T12:43:16Z</time>
      </trkpt>
      <trkpt lat="46.71504" lon="5.67767">
        <ele>527.6</ele>
        <time>2020-12-19T12:43:17Z</time>
      </trkpt>
      <trkpt lat="46.71503" lon="5.67767">
        <ele>527.6</ele>
        <time>2020-12-19T12:43:18Z</time>
      </trkpt>
      <trkpt lat="46.71503" lon="5.67768">
        <ele>527.8</ele>
        <time>2020-12-19T12:43:19Z</time>
      </trkpt>
      <trkpt lat="46.71502" lon="5.67768">
        <ele>527.8</ele>
        <time>2020-12-19T12:43:20Z</time>
      </trkpt>
      <trkpt lat="46.71502" lon="5.67769">
        <ele>527.8</ele>
        <time>2020-12-19T12:43:21Z</time>
      </trkpt>
      <trkpt lat="46.71501" lon="5.67769">
        <ele>527.8</ele>
        <time>2020-12-19T12:43:22Z</time>
      </trkpt>
      <trkpt lat="46.715" lon="5.67769">
        <ele>527.8</ele>
        <time>2020-12-19T12:43:23Z</time>
      </trkpt>
      <trkpt lat="46.715" lon="5.6777">
        <ele>527.8</ele>
        <time>2020-12-19T12:43:24Z</time>
      </trkpt>
      <trkpt lat="46.71499" lon="5.6777">
        <ele>527.8</ele>
        <time>2020-12-19T12:43:25Z</time>
      </trkpt>
      <trkpt lat="46.71498" lon="5.67771">
        <ele>527.8</ele>
        <time>2020-12-19T12:43:26Z</time>
      </trkpt>
      <trkpt lat="46.71497" lon="5.67772">
        <ele>527.8</ele>
        <time>2020-12-19T12:43:27Z</time>
      </trkpt>
      <trkpt lat="46.71497" lon="5.67772">
        <ele>527.8</ele>
        <time>2020-12-19T12:43:28Z</time>
      </trkpt>
      <trkpt lat="46.71496" lon="5.67773">
        <ele>527.8</ele>
        <time>2020-12-19T12:43:29Z</time>
      </trkpt>
      <trkpt lat="46.71495" lon="5.67774">
        <ele>527.8</ele>
        <time>2020-12-19T12:43:30Z</time>
      </trkpt>
      <trkpt lat="46.71495" lon="5.67775">
        <ele>527.8</ele>
        <time>2020-12-19T12:43:31Z</time>
      </trkpt>
      <trkpt lat="46.71494" lon="5.67777">
        <ele>527.6</ele>
        <time>2020-12-19T12:43:32Z</time>
      </trkpt>
      <trkpt lat="46.71494" lon="5.67777">
        <ele>527.6</ele>
        <time>2020-12-19T12:43:33Z</time>
      </trkpt>
      <trkpt lat="46.71493" lon="5.67778">
        <ele>527.6</ele>
        <time>2020-12-19T12:43:34Z</time>
      </trkpt>
      <trkpt lat="46.71493" lon="5.67779">
        <ele>527.6</ele>
        <time>2020-12-19T12:43:35Z</time>
      </trkpt>
      <trkpt lat="46.71492" lon="5.6778">
        <ele>527.6</ele>
        <time>2020-12-19T12:43:36Z</time>
      </trkpt>
      <trkpt lat="46.71492" lon="5.67781">
        <ele>527.6</ele>
        <time>2020-12-19T12:43:37Z</time>
      </trkpt>
      <trkpt lat="46.71491" lon="5.67782">
        <ele>527.6</ele>
        <time>2020-12-19T12:43:38Z</time>
      </trkpt>
      <trkpt lat="46.71491" lon="5.67783">
        <ele>527.6</ele>
        <time>2020-12-19T12:43:39Z</time>
      </trkpt>
      <trkpt lat="46.7149" lon="5.67784">
        <ele>527.6</ele>
        <time>2020-12-19T12:43:40Z</time>
      </trkpt>
      <trkpt lat="46.7149" lon="5.67786">
        <ele>527.6</ele>
        <time>2020-12-19T12:43:41Z</time>
      </trkpt>
      <trkpt lat="46.71489" lon="5.67786">
        <ele>527.4</ele>
        <time>2020-12-19T12:43:42Z</time>
      </trkpt>
      <trkpt lat="46.71488" lon="5.67787">
        <ele>527.4</ele>
        <time>2020-12-19T12:43:43Z</time>
      </trkpt>
      <trkpt lat="46.71488" lon="5.67788">
        <ele>527.4</ele>
        <time>2020-12-19T12:43:44Z</time>
      </trkpt>
      <trkpt lat="46.71487" lon="5.67789">
        <ele>527.4</ele>
        <time>2020-12-19T12:43:45Z</time>
      </trkpt>
      <trkpt lat="46.71487" lon="5.6779">
        <ele>527.4</ele>
        <time>2020-12-19T12:43:46Z</time>
      </trkpt>
      <trkpt lat="46.71486" lon="5.67792">
        <ele>527</ele>
        <time>2020-12-19T12:43:47Z</time>
      </trkpt>
      <trkpt lat="46.71486" lon="5.67793">
        <ele>527</ele>
        <time>2020-12-19T12:43:48Z</time>
      </trkpt>
      <trkpt lat="46.71485" lon="5.67794">
        <ele>527</ele>
        <time>2020-12-19T12:43:49Z</time>
      </trkpt>
      <trkpt lat="46.71484" lon="5.67794">
        <ele>527</ele>
        <time>2020-12-19T12:43:50Z</time>
      </trkpt>
      <trkpt lat="46.71483" lon="5.67795">
        <ele>526.8</ele>
        <time>2020-12-19T12:43:51Z</time>
      </trkpt>
      <trkpt lat="46.71482" lon="5.67795">
        <ele>526.8</ele>
        <time>2020-12-19T12:43:52Z</time>
      </trkpt>
      <trkpt lat="46.71481" lon="5.67796">
        <ele>526.8</ele>
        <time>2020-12-19T12:43:53Z</time>
      </trkpt>
      <trkpt lat="46.71481" lon="5.67797">
        <ele>526.8</ele>
        <time>2020-12-19T12:43:54Z</time>
      </trkpt>
      <trkpt lat="46.7148" lon="5.67797">
        <ele>526.8</ele>
        <time>2020-12-19T12:43:55Z</time>
      </trkpt>
      <trkpt lat="46.7148" lon="5.67796">
        <ele>526.8</ele>
        <time>2020-12-19T12:43:56Z</time>
      </trkpt>
      <trkpt lat="46.71479" lon="5.67795">
        <ele>526.8</ele>
        <time>2020-12-19T12:43:57Z</time>
      </trkpt>
      <trkpt lat="46.71479" lon="5.67795">
        <ele>526.8</ele>
        <time>2020-12-19T12:43:58Z</time>
      </trkpt>
      <trkpt lat="46.71479" lon="5.67795">
        <ele>526.6</ele>
        <time>2020-12-19T12:43:59Z</time>
      </trkpt>
      <trkpt lat="46.71477" lon="5.67791">
        <ele>527.2</ele>
        <time>2020-12-19T12:49:06Z</time>
      </trkpt>
      <trkpt lat="46.71477" lon="5.67789">
        <ele>527.2</ele>
        <time>2020-12-19T12:49:07Z</time>
      </trkpt>
      <trkpt lat="46.71476" lon="5.67787">
        <ele>527.2</ele>
        <time>2020-12-19T12:49:08Z</time>
      </trkpt>
      <trkpt lat="46.71476" lon="5.67785">
        <ele>527.2</ele>
        <time>2020-12-19T12:49:09Z</time>
      </trkpt>
      <trkpt lat="46.71476" lon="5.67783">
        <ele>527.2</ele>
        <time>2020-12-19T12:49:10Z</time>
      </trkpt>
      <trkpt lat="46.71475" lon="5.6778">
        <ele>527.2</ele>
        <time>2020-12-19T12:49:11Z</time>
      </trkpt>
      <trkpt lat="46.71475" lon="5.67777">
        <ele>527.2</ele>
        <time>2020-12-19T12:49:12Z</time>
      </trkpt>
      <trkpt lat="46.71475" lon="5.67773">
        <ele>527.4</ele>
        <time>2020-12-19T12:49:13Z</time>
      </trkpt>
      <trkpt lat="46.71474" lon="5.6777">
        <ele>527.4</ele>
        <time>2020-12-19T12:49:14Z</time>
      </trkpt>
      <trkpt lat="46.71474" lon="5.67767">
        <ele>527.4</ele>
        <time>2020-12-19T12:49:15Z</time>
      </trkpt>
      <trkpt lat="46.71474" lon="5.67764">
        <ele>527.4</ele>
        <time>2020-12-19T12:49:16Z</time>
      </trkpt>
      <trkpt lat="46.71474" lon="5.67761">
        <ele>527.4</ele>
        <time>2020-12-19T12:49:17Z</time>
      </trkpt>
      <trkpt lat="46.71474" lon="5.67758">
        <ele>527.4</ele>
        <time>2020-12-19T12:49:18Z</time>
      </trkpt>
      <trkpt lat="46.71473" lon="5.67755">
        <ele>527.4</ele>
        <time>2020-12-19T12:49:19Z</time>
      </trkpt>
      <trkpt lat="46.71472" lon="5.67752">
        <ele>527.4</ele>
        <time>2020-12-19T12:49:20Z</time>
      </trkpt>
      <trkpt lat="46.71472" lon="5.67749">
        <ele>527.4</ele>
        <time>2020-12-19T12:49:21Z</time>
      </trkpt>
      <trkpt lat="46.71471" lon="5.67747">
        <ele>527.4</ele>
        <time>2020-12-19T12:49:22Z</time>
      </trkpt>
      <trkpt lat="46.71471" lon="5.67744">
        <ele>527.4</ele>
        <time>2020-12-19T12:49:23Z</time>
      </trkpt>
      <trkpt lat="46.71471" lon="5.67742">
        <ele>527.4</ele>
        <time>2020-12-19T12:49:24Z</time>
      </trkpt>
      <trkpt lat="46.71471" lon="5.67739">
        <ele>527.4</ele>
        <time>2020-12-19T12:49:25Z</time>
      </trkpt>
      <trkpt lat="46.7147" lon="5.67736">
        <ele>527.4</ele>
        <time>2020-12-19T12:49:26Z</time>
      </trkpt>
      <trkpt lat="46.7147" lon="5.67733">
        <ele>527.4</ele>
        <time>2020-12-19T12:49:27Z</time>
      </trkpt>
      <trkpt lat="46.7147" lon="5.6773">
        <ele>527.4</ele>
        <time>2020-12-19T12:49:28Z</time>
      </trkpt>
      <trkpt lat="46.71469" lon="5.67727">
        <ele>527.4</ele>
        <time>2020-12-19T12:49:29Z</time>
      </trkpt>
      <trkpt lat="46.71469" lon="5.67724">
        <ele>527.4</ele>
        <time>2020-12-19T12:49:30Z</time>
      </trkpt>
      <trkpt lat="46.71469" lon="5.6772">
        <ele>527.4</ele>
        <time>2020-12-19T12:49:31Z</time>
      </trkpt>
      <trkpt lat="46.71469" lon="5.67717">
        <ele>527.4</ele>
        <time>2020-12-19T12:49:32Z</time>
      </trkpt>
      <trkpt lat="46.71469" lon="5.67713">
        <ele>527.4</ele>
        <time>2020-12-19T12:49:33Z</time>
      </trkpt>
      <trkpt lat="46.71469" lon="5.67709">
        <ele>527.4</ele>
        <time>2020-12-19T12:49:34Z</time>
      </trkpt>
      <trkpt lat="46.71469" lon="5.67706">
        <ele>527.4</ele>
        <time>2020-12-19T12:49:35Z</time>
      </trkpt>
      <trkpt lat="46.7147" lon="5.67703">
        <ele>527.2</ele>
        <time>2020-12-19T12:49:36Z</time>
      </trkpt>
      <trkpt lat="46.71471" lon="5.67699">
        <ele>527.2</ele>
        <time>2020-12-19T12:49:37Z</time>
      </trkpt>
      <trkpt lat="46.71471" lon="5.67696">
        <ele>527</ele>
        <time>2020-12-19T12:49:38Z</time>
      </trkpt>
      <trkpt lat="46.71472" lon="5.67692">
        <ele>527</ele>
        <time>2020-12-19T12:49:39Z</time>
      </trkpt>
      <trkpt lat="46.71473" lon="5.67688">
        <ele>526.8</ele>
        <time>2020-12-19T12:49:40Z</time>
      </trkpt>
      <trkpt lat="46.71474" lon="5.67684">
        <ele>526.8</ele>
        <time>2020-12-19T12:49:41Z</time>
      </trkpt>
      <trkpt lat="46.71475" lon="5.67679">
        <ele>526.4</ele>
        <time>2020-12-19T12:49:42Z</time>
      </trkpt>
      <trkpt lat="46.71476" lon="5.67674">
        <ele>526.4</ele>
        <time>2020-12-19T12:49:43Z</time>
      </trkpt>
      <trkpt lat="46.71477" lon="5.6767">
        <ele>526</ele>
        <time>2020-12-19T12:49:44Z</time>
      </trkpt>
      <trkpt lat="46.71477" lon="5.67665">
        <ele>525.6</ele>
        <time>2020-12-19T12:49:45Z</time>
      </trkpt>
      <trkpt lat="46.71478" lon="5.67661">
        <ele>525.4</ele>
        <time>2020-12-19T12:49:46Z</time>
      </trkpt>
      <trkpt lat="46.71478" lon="5.67657">
        <ele>525.2</ele>
        <time>2020-12-19T12:49:47Z</time>
      </trkpt>
      <trkpt lat="46.71478" lon="5.67653">
        <ele>524.8</ele>
        <time>2020-12-19T12:49:48Z</time>
      </trkpt>
      <trkpt lat="46.71477" lon="5.6765">
        <ele>524.8</ele>
        <time>2020-12-19T12:49:49Z</time>
      </trkpt>
      <trkpt lat="46.71477" lon="5.67646">
        <ele>524.4</ele>
        <time>2020-12-19T12:49:50Z</time>
      </trkpt>
      <trkpt lat="46.71477" lon="5.67643">
        <ele>524.2</ele>
        <time>2020-12-19T12:49:51Z</time>
      </trkpt>
      <trkpt lat="46.71476" lon="5.6764">
        <ele>523.8</ele>
        <time>2020-12-19T12:49:52Z</time>
      </trkpt>
      <trkpt lat="46.71476" lon="5.67637">
        <ele>523.6</ele>
        <time>2020-12-19T12:49:53Z</time>
      </trkpt>
      <trkpt lat="46.71476" lon="5.67633">
        <ele>523.4</ele>
        <time>2020-12-19T12:49:54Z</time>
      </trkpt>
      <trkpt lat="46.71476" lon="5.67629">
        <ele>523</ele>
        <time>2020-12-19T12:49:55Z</time>
      </trkpt>
      <trkpt lat="46.71476" lon="5.67625">
        <ele>522.8</ele>
        <time>2020-12-19T12:49:56Z</time>
      </trkpt>
      <trkpt lat="46.71476" lon="5.67621">
        <ele>522.6</ele>
        <time>2020-12-19T12:49:57Z</time>
      </trkpt>
      <trkpt lat="46.71476" lon="5.67618">
        <ele>522.2</ele>
        <time>2020-12-19T12:49:58Z</time>
      </trkpt>
      <trkpt lat="46.71476" lon="5.67615">
        <ele>522.2</ele>
        <time>2020-12-19T12:49:59Z</time>
      </trkpt>
      <trkpt lat="46.71475" lon="5.67611">
        <ele>521.8</ele>
        <time>2020-12-19T12:50:00Z</time>
      </trkpt>
      <trkpt lat="46.71474" lon="5.67607">
        <ele>521.6</ele>
        <time>2020-12-19T12:50:01Z</time>
      </trkpt>
      <trkpt lat="46.71474" lon="5.67604">
        <ele>521.2</ele>
        <time>2020-12-19T12:50:02Z</time>
      </trkpt>
      <trkpt lat="46.71473" lon="5.67601">
        <ele>521</ele>
        <time>2020-12-19T12:50:03Z</time>
      </trkpt>
      <trkpt lat="46.71473" lon="5.67597">
        <ele>521</ele>
        <time>2020-12-19T12:50:04Z</time>
      </trkpt>
      <trkpt lat="46.71473" lon="5.67595">
        <ele>520.6</ele>
        <time>2020-12-19T12:50:05Z</time>
      </trkpt>
      <trkpt lat="46.71472" lon="5.67593">
        <ele>520.6</ele>
        <time>2020-12-19T12:50:06Z</time>
      </trkpt>
      <trkpt lat="46.71472" lon="5.67592">
        <ele>520.4</ele>
        <time>2020-12-19T12:50:07Z</time>
      </trkpt>
      <trkpt lat="46.71473" lon="5.6759">
        <ele>520.8</ele>
        <time>2020-12-19T12:50:45Z</time>
      </trkpt>
      <trkpt lat="46.71474" lon="5.67591">
        <ele>520.8</ele>
        <time>2020-12-19T12:50:46Z</time>
      </trkpt>
      <trkpt lat="46.71474" lon="5.67592">
        <ele>520.8</ele>
        <time>2020-12-19T12:50:47Z</time>
      </trkpt>
      <trkpt lat="46.71475" lon="5.67593">
        <ele>521</ele>
        <time>2020-12-19T12:50:48Z</time>
      </trkpt>
      <trkpt lat="46.71475" lon="5.67595">
        <ele>521</ele>
        <time>2020-12-19T12:50:49Z</time>
      </trkpt>
      <trkpt lat="46.71476" lon="5.67596">
        <ele>521</ele>
        <time>2020-12-19T12:50:50Z</time>
      </trkpt>
      <trkpt lat="46.71476" lon="5.67597">
        <ele>521.2</ele>
        <time>2020-12-19T12:50:51Z</time>
      </trkpt>
      <trkpt lat="46.71477" lon="5.67599">
        <ele>521.2</ele>
        <time>2020-12-19T12:50:52Z</time>
      </trkpt>
      <trkpt lat="46.71477" lon="5.67599">
        <ele>521.2</ele>
        <time>2020-12-19T12:50:53Z</time>
      </trkpt>
      <trkpt lat="46.71477" lon="5.67601">
        <ele>521.2</ele>
        <time>2020-12-19T12:50:54Z</time>
      </trkpt>
      <trkpt lat="46.71477" lon="5.67602">
        <ele>521.2</ele>
        <time>2020-12-19T12:50:55Z</time>
      </trkpt>
      <trkpt lat="46.71477" lon="5.67602">
        <ele>521.4</ele>
        <time>2020-12-19T12:50:56Z</time>
      </trkpt>
      <trkpt lat="46.71477" lon="5.67604">
        <ele>521.4</ele>
        <time>2020-12-19T12:50:57Z</time>
      </trkpt>
      <trkpt lat="46.71477" lon="5.67605">
        <ele>521.4</ele>
        <time>2020-12-19T12:50:58Z</time>
      </trkpt>
      <trkpt lat="46.71477" lon="5.67605">
        <ele>521.4</ele>
        <time>2020-12-19T12:50:59Z</time>
      </trkpt>
      <trkpt lat="46.71477" lon="5.67607">
        <ele>521.8</ele>
        <time>2020-12-19T12:51:00Z</time>
      </trkpt>
      <trkpt lat="46.71477" lon="5.67608">
        <ele>521.8</ele>
        <time>2020-12-19T12:51:01Z</time>
      </trkpt>
      <trkpt lat="46.71477" lon="5.67608">
        <ele>521.8</ele>
        <time>2020-12-19T12:51:02Z</time>
      </trkpt>
      <trkpt lat="46.71477" lon="5.67611">
        <ele>522</ele>
        <time>2020-12-19T12:53:23Z</time>
      </trkpt>
      <trkpt lat="46.71477" lon="5.67612">
        <ele>522</ele>
        <time>2020-12-19T12:53:24Z</time>
      </trkpt>
      <trkpt lat="46.71477" lon="5.67613">
        <ele>522.4</ele>
        <time>2020-12-19T12:53:25Z</time>
      </trkpt>
      <trkpt lat="46.71477" lon="5.67614">
        <ele>522.4</ele>
        <time>2020-12-19T12:53:26Z</time>
      </trkpt>
      <trkpt lat="46.71477" lon="5.67615">
        <ele>522.4</ele>
        <time>2020-12-19T12:53:27Z</time>
      </trkpt>
      <trkpt lat="46.71477" lon="5.67616">
        <ele>522.6</ele>
        <time>2020-12-19T12:53:28Z</time>
      </trkpt>
      <trkpt lat="46.71477" lon="5.67617">
        <ele>522.6</ele>
        <time>2020-12-19T12:53:29Z</time>
      </trkpt>
      <trkpt lat="46.71477" lon="5.67618">
        <ele>522.8</ele>
        <time>2020-12-19T12:53:30Z</time>
      </trkpt>
      <trkpt lat="46.71476" lon="5.6762">
        <ele>522.8</ele>
        <time>2020-12-19T12:53:31Z</time>
      </trkpt>
      <trkpt lat="46.71476" lon="5.67621">
        <ele>522.8</ele>
        <time>2020-12-19T12:53:32Z</time>
      </trkpt>
      <trkpt lat="46.71476" lon="5.67622">
        <ele>523</ele>
        <time>2020-12-19T12:53:33Z</time>
      </trkpt>
      <trkpt lat="46.71476" lon="5.67623">
        <ele>523</ele>
        <time>2020-12-19T12:53:34Z</time>
      </trkpt>
      <trkpt lat="46.71476" lon="5.67624">
        <ele>523</ele>
        <time>2020-12-19T12:53:35Z</time>
      </trkpt>
      <trkpt lat="46.71476" lon="5.67625">
        <ele>523.4</ele>
        <time>2020-12-19T12:53:36Z</time>
      </trkpt>
      <trkpt lat="46.71476" lon="5.67626">
        <ele>523.4</ele>
        <time>2020-12-19T12:53:37Z</time>
      </trkpt>
      <trkpt lat="46.71476" lon="5.67627">
        <ele>523.4</ele>
        <time>2020-12-19T12:53:38Z</time>
      </trkpt>
      <trkpt lat="46.71476" lon="5.67628">
        <ele>523.6</ele>
        <time>2020-12-19T12:53:39Z</time>
      </trkpt>
      <trkpt lat="46.71477" lon="5.6763">
        <ele>523.6</ele>
        <time>2020-12-19T12:53:40Z</time>
      </trkpt>
      <trkpt lat="46.71477" lon="5.67631">
        <ele>523.6</ele>
        <time>2020-12-19T12:53:41Z</time>
      </trkpt>
      <trkpt lat="46.71477" lon="5.67632">
        <ele>523.6</ele>
        <time>2020-12-19T12:53:42Z</time>
      </trkpt>
      <trkpt lat="46.71477" lon="5.67633">
        <ele>524</ele>
        <time>2020-12-19T12:53:43Z</time>
      </trkpt>
      <trkpt lat="46.71477" lon="5.67633">
        <ele>524</ele>
        <time>2020-12-19T12:53:44Z</time>
      </trkpt>
      <trkpt lat="46.71477" lon="5.67634">
        <ele>524</ele>
        <time>2020-12-19T12:53:45Z</time>
      </trkpt>
      <trkpt lat="46.71475" lon="5.67639">
        <ele>524.2</ele>
        <time>2020-12-19T12:53:50Z</time>
      </trkpt>
      <trkpt lat="46.71475" lon="5.67641">
        <ele>524.2</ele>
        <time>2020-12-19T12:53:51Z</time>
      </trkpt>
      <trkpt lat="46.71474" lon="5.67642">
        <ele>524.4</ele>
        <time>2020-12-19T12:53:52Z</time>
      </trkpt>
      <trkpt lat="46.71474" lon="5.67644">
        <ele>524.4</ele>
        <time>2020-12-19T12:53:53Z</time>
      </trkpt>
      <trkpt lat="46.71473" lon="5.67645">
        <ele>524.4</ele>
        <time>2020-12-19T12:53:54Z</time>
      </trkpt>
      <trkpt lat="46.71473" lon="5.67648">
        <ele>524.6</ele>
        <time>2020-12-19T12:53:55Z</time>
      </trkpt>
      <trkpt lat="46.71473" lon="5.6765">
        <ele>524.6</ele>
        <time>2020-12-19T12:53:56Z</time>
      </trkpt>
      <trkpt lat="46.71472" lon="5.67651">
        <ele>524.8</ele>
        <time>2020-12-19T12:53:57Z</time>
      </trkpt>
      <trkpt lat="46.71471" lon="5.67653">
        <ele>524.8</ele>
        <time>2020-12-19T12:53:58Z</time>
      </trkpt>
      <trkpt lat="46.71471" lon="5.67655">
        <ele>525.2</ele>
        <time>2020-12-19T12:53:59Z</time>
      </trkpt>
      <trkpt lat="46.7147" lon="5.67657">
        <ele>525.2</ele>
        <time>2020-12-19T12:54:00Z</time>
      </trkpt>
      <trkpt lat="46.71469" lon="5.67659">
        <ele>525.4</ele>
        <time>2020-12-19T12:54:01Z</time>
      </trkpt>
      <trkpt lat="46.71469" lon="5.67662">
        <ele>525.4</ele>
        <time>2020-12-19T12:54:02Z</time>
      </trkpt>
      <trkpt lat="46.71468" lon="5.67664">
        <ele>525.8</ele>
        <time>2020-12-19T12:54:03Z</time>
      </trkpt>
      <trkpt lat="46.71467" lon="5.67667">
        <ele>526</ele>
        <time>2020-12-19T12:54:04Z</time>
      </trkpt>
      <trkpt lat="46.71467" lon="5.67669">
        <ele>526.2</ele>
        <time>2020-12-19T12:54:05Z</time>
      </trkpt>
      <trkpt lat="46.71466" lon="5.67672">
        <ele>526.2</ele>
        <time>2020-12-19T12:54:06Z</time>
      </trkpt>
      <trkpt lat="46.71466" lon="5.67675">
        <ele>526.4</ele>
        <time>2020-12-19T12:54:07Z</time>
      </trkpt>
      <trkpt lat="46.71466" lon="5.67677">
        <ele>526.4</ele>
        <time>2020-12-19T12:54:08Z</time>
      </trkpt>
      <trkpt lat="46.71466" lon="5.6768">
        <ele>526.6</ele>
        <time>2020-12-19T12:54:09Z</time>
      </trkpt>
      <trkpt lat="46.71466" lon="5.67682">
        <ele>526.6</ele>
        <time>2020-12-19T12:54:10Z</time>
      </trkpt>
      <trkpt lat="46.71466" lon="5.67685">
        <ele>526.6</ele>
        <time>2020-12-19T12:54:11Z</time>
      </trkpt>
      <trkpt lat="46.71467" lon="5.67688">
        <ele>526.6</ele>
        <time>2020-12-19T12:54:12Z</time>
      </trkpt>
      <trkpt lat="46.71467" lon="5.6769">
        <ele>526.8</ele>
        <time>2020-12-19T12:54:13Z</time>
      </trkpt>
      <trkpt lat="46.71467" lon="5.67693">
        <ele>526.8</ele>
        <time>2020-12-19T12:54:14Z</time>
      </trkpt>
      <trkpt lat="46.71466" lon="5.67695">
        <ele>526.8</ele>
        <time>2020-12-19T12:54:15Z</time>
      </trkpt>
      <trkpt lat="46.71466" lon="5.67697">
        <ele>526.8</ele>
        <time>2020-12-19T12:54:16Z</time>
      </trkpt>
      <trkpt lat="46.71466" lon="5.67699">
        <ele>526.8</ele>
        <time>2020-12-19T12:54:17Z</time>
      </trkpt>
      <trkpt lat="46.71467" lon="5.67701">
        <ele>526.8</ele>
        <time>2020-12-19T12:54:18Z</time>
      </trkpt>
      <trkpt lat="46.71467" lon="5.67702">
        <ele>527</ele>
        <time>2020-12-19T12:54:19Z</time>
      </trkpt>
      <trkpt lat="46.71466" lon="5.67704">
        <ele>527</ele>
        <time>2020-12-19T12:54:20Z</time>
      </trkpt>
      <trkpt lat="46.71466" lon="5.67705">
        <ele>527</ele>
        <time>2020-12-19T12:54:21Z</time>
      </trkpt>
      <trkpt lat="46.71465" lon="5.67707">
        <ele>527</ele>
        <time>2020-12-19T12:54:22Z</time>
      </trkpt>
      <trkpt lat="46.71464" lon="5.67707">
        <ele>527</ele>
        <time>2020-12-19T12:54:23Z</time>
      </trkpt>
      <trkpt lat="46.71463" lon="5.67708">
        <ele>527</ele>
        <time>2020-12-19T12:54:24Z</time>
      </trkpt>
      <trkpt lat="46.71462" lon="5.6771">
        <ele>527</ele>
        <time>2020-12-19T12:54:25Z</time>
      </trkpt>
      <trkpt lat="46.71461" lon="5.67711">
        <ele>527</ele>
        <time>2020-12-19T12:54:26Z</time>
      </trkpt>
      <trkpt lat="46.7146" lon="5.67712">
        <ele>527</ele>
        <time>2020-12-19T12:54:27Z</time>
      </trkpt>
      <trkpt lat="46.7146" lon="5.67713">
        <ele>527</ele>
        <time>2020-12-19T12:54:28Z</time>
      </trkpt>
      <trkpt lat="46.71459" lon="5.67713">
        <ele>527</ele>
        <time>2020-12-19T12:54:29Z</time>
      </trkpt>
      <trkpt lat="46.71458" lon="5.67714">
        <ele>527</ele>
        <time>2020-12-19T12:54:30Z</time>
      </trkpt>
      <trkpt lat="46.71457" lon="5.67713">
        <ele>527</ele>
        <time>2020-12-19T12:54:31Z</time>
      </trkpt>
      <trkpt lat="46.71456" lon="5.67712">
        <ele>527</ele>
        <time>2020-12-19T12:54:32Z</time>
      </trkpt>
      <trkpt lat="46.71455" lon="5.67712">
        <ele>527</ele>
        <time>2020-12-19T12:54:33Z</time>
      </trkpt>
      <trkpt lat="46.71454" lon="5.67711">
        <ele>527</ele>
        <time>2020-12-19T12:54:34Z</time>
      </trkpt>
      <trkpt lat="46.71453" lon="5.6771">
        <ele>527</ele>
        <time>2020-12-19T12:54:35Z</time>
      </trkpt>
      <trkpt lat="46.71452" lon="5.6771">
        <ele>527</ele>
        <time>2020-12-19T12:54:36Z</time>
      </trkpt>
      <trkpt lat="46.71451" lon="5.67709">
        <ele>527</ele>
        <time>2020-12-19T12:54:37Z</time>
      </trkpt>
      <trkpt lat="46.71449" lon="5.67708">
        <ele>527</ele>
        <time>2020-12-19T12:54:38Z</time>
      </trkpt>
      <trkpt lat="46.71448" lon="5.67707">
        <ele>527</ele>
        <time>2020-12-19T12:54:39Z</time>
      </trkpt>
      <trkpt lat="46.71447" lon="5.67706">
        <ele>527</ele>
        <time>2020-12-19T12:54:40Z</time>
      </trkpt>
      <trkpt lat="46.71446" lon="5.67706">
        <ele>527.2</ele>
        <time>2020-12-19T12:54:41Z</time>
      </trkpt>
      <trkpt lat="46.71444" lon="5.67705">
        <ele>527.2</ele>
        <time>2020-12-19T12:54:42Z</time>
      </trkpt>
      <trkpt lat="46.71443" lon="5.67704">
        <ele>527.2</ele>
        <time>2020-12-19T12:54:43Z</time>
      </trkpt>
      <trkpt lat="46.71442" lon="5.67702">
        <ele>527.6</ele>
        <time>2020-12-19T12:54:44Z</time>
      </trkpt>
      <trkpt lat="46.71441" lon="5.67702">
        <ele>527.6</ele>
        <time>2020-12-19T12:54:45Z</time>
      </trkpt>
      <trkpt lat="46.7144" lon="5.67702">
        <ele>527.8</ele>
        <time>2020-12-19T12:54:46Z</time>
      </trkpt>
      <trkpt lat="46.71438" lon="5.67702">
        <ele>527.8</ele>
        <time>2020-12-19T12:54:47Z</time>
      </trkpt>
      <trkpt lat="46.71437" lon="5.67702">
        <ele>527.8</ele>
        <time>2020-12-19T12:54:48Z</time>
      </trkpt>
      <trkpt lat="46.71435" lon="5.67703">
        <ele>528</ele>
        <time>2020-12-19T12:54:49Z</time>
      </trkpt>
      <trkpt lat="46.71434" lon="5.67703">
        <ele>528</ele>
        <time>2020-12-19T12:54:50Z</time>
      </trkpt>
      <trkpt lat="46.71433" lon="5.67702">
        <ele>528</ele>
        <time>2020-12-19T12:54:51Z</time>
      </trkpt>
      <trkpt lat="46.71432" lon="5.67702">
        <ele>528</ele>
        <time>2020-12-19T12:54:52Z</time>
      </trkpt>
      <trkpt lat="46.7143" lon="5.67703">
        <ele>528</ele>
        <time>2020-12-19T12:54:53Z</time>
      </trkpt>
      <trkpt lat="46.71429" lon="5.67704">
        <ele>528.4</ele>
        <time>2020-12-19T12:54:54Z</time>
      </trkpt>
      <trkpt lat="46.71428" lon="5.67705">
        <ele>528.4</ele>
        <time>2020-12-19T12:54:55Z</time>
      </trkpt>
      <trkpt lat="46.71426" lon="5.67706">
        <ele>528.4</ele>
        <time>2020-12-19T12:54:56Z</time>
      </trkpt>
      <trkpt lat="46.71425" lon="5.67707">
        <ele>528.4</ele>
        <time>2020-12-19T12:54:57Z</time>
      </trkpt>
      <trkpt lat="46.71423" lon="5.67708">
        <ele>528.4</ele>
        <time>2020-12-19T12:54:58Z</time>
      </trkpt>
      <trkpt lat="46.71422" lon="5.6771">
        <ele>528.2</ele>
        <time>2020-12-19T12:54:59Z</time>
      </trkpt>
      <trkpt lat="46.71421" lon="5.67711">
        <ele>528.2</ele>
        <time>2020-12-19T12:55:00Z</time>
      </trkpt>
      <trkpt lat="46.71419" lon="5.67713">
        <ele>528.2</ele>
        <time>2020-12-19T12:55:01Z</time>
      </trkpt>
      <trkpt lat="46.71418" lon="5.67715">
        <ele>528.2</ele>
        <time>2020-12-19T12:55:02Z</time>
      </trkpt>
      <trkpt lat="46.71417" lon="5.67717">
        <ele>528.2</ele>
        <time>2020-12-19T12:55:03Z</time>
      </trkpt>
      <trkpt lat="46.71416" lon="5.67719">
        <ele>528.2</ele>
        <time>2020-12-19T12:55:04Z</time>
      </trkpt>
      <trkpt lat="46.71416" lon="5.67721">
        <ele>527.8</ele>
        <time>2020-12-19T12:55:05Z</time>
      </trkpt>
      <trkpt lat="46.71415" lon="5.67723">
        <ele>527.8</ele>
        <time>2020-12-19T12:55:06Z</time>
      </trkpt>
      <trkpt lat="46.71414" lon="5.67725">
        <ele>527.8</ele>
        <time>2020-12-19T12:55:07Z</time>
      </trkpt>
      <trkpt lat="46.71414" lon="5.67726">
        <ele>527.6</ele>
        <time>2020-12-19T12:55:08Z</time>
      </trkpt>
      <trkpt lat="46.71413" lon="5.67728">
        <ele>527.6</ele>
        <time>2020-12-19T12:55:09Z</time>
      </trkpt>
      <trkpt lat="46.71413" lon="5.67729">
        <ele>527.6</ele>
        <time>2020-12-19T12:55:10Z</time>
      </trkpt>
      <trkpt lat="46.71412" lon="5.6773">
        <ele>527.6</ele>
        <time>2020-12-19T12:55:11Z</time>
      </trkpt>
      <trkpt lat="46.71412" lon="5.67731">
        <ele>527.6</ele>
        <time>2020-12-19T12:55:12Z</time>
      </trkpt>
      <trkpt lat="46.71412" lon="5.67731">
        <ele>527.6</ele>
        <time>2020-12-19T12:55:13Z</time>
      </trkpt>
      <trkpt lat="46.71408" lon="5.67739">
        <ele>527.6</ele>
        <time>2020-12-19T12:55:25Z</time>
      </trkpt>
      <trkpt lat="46.71408" lon="5.67741">
        <ele>527.6</ele>
        <time>2020-12-19T12:55:26Z</time>
      </trkpt>
      <trkpt lat="46.71407" lon="5.67742">
        <ele>527.6</ele>
        <time>2020-12-19T12:55:27Z</time>
      </trkpt>
      <trkpt lat="46.71406" lon="5.67742">
        <ele>527.6</ele>
        <time>2020-12-19T12:55:28Z</time>
      </trkpt>
      <trkpt lat="46.71406" lon="5.67742">
        <ele>527.6</ele>
        <time>2020-12-19T12:55:29Z</time>
      </trkpt>
      <trkpt lat="46.71404" lon="5.67743">
        <ele>527.6</ele>
        <time>2020-12-19T12:55:30Z</time>
      </trkpt>
      <trkpt lat="46.71403" lon="5.67744">
        <ele>527.6</ele>
        <time>2020-12-19T12:55:31Z</time>
      </trkpt>
      <trkpt lat="46.71402" lon="5.67745">
        <ele>527.6</ele>
        <time>2020-12-19T12:55:32Z</time>
      </trkpt>
      <trkpt lat="46.71401" lon="5.67746">
        <ele>527.6</ele>
        <time>2020-12-19T12:55:33Z</time>
      </trkpt>
      <trkpt lat="46.714" lon="5.67747">
        <ele>527.8</ele>
        <time>2020-12-19T12:55:34Z</time>
      </trkpt>
      <trkpt lat="46.714" lon="5.67748">
        <ele>527.8</ele>
        <time>2020-12-19T12:55:35Z</time>
      </trkpt>
      <trkpt lat="46.71399" lon="5.67749">
        <ele>528</ele>
        <time>2020-12-19T12:55:36Z</time>
      </trkpt>
      <trkpt lat="46.71398" lon="5.6775">
        <ele>528</ele>
        <time>2020-12-19T12:55:37Z</time>
      </trkpt>
      <trkpt lat="46.71396" lon="5.67751">
        <ele>528</ele>
        <time>2020-12-19T12:55:38Z</time>
      </trkpt>
      <trkpt lat="46.71395" lon="5.67752">
        <ele>528</ele>
        <time>2020-12-19T12:55:39Z</time>
      </trkpt>
      <trkpt lat="46.71394" lon="5.67753">
        <ele>528</ele>
        <time>2020-12-19T12:55:40Z</time>
      </trkpt>
      <trkpt lat="46.71392" lon="5.67754">
        <ele>528</ele>
        <time>2020-12-19T12:55:41Z</time>
      </trkpt>
      <trkpt lat="46.71391" lon="5.67754">
        <ele>528</ele>
        <time>2020-12-19T12:55:42Z</time>
      </trkpt>
      <trkpt lat="46.7139" lon="5.67754">
        <ele>528</ele>
        <time>2020-12-19T12:55:43Z</time>
      </trkpt>
      <trkpt lat="46.71389" lon="5.67755">
        <ele>528</ele>
        <time>2020-12-19T12:55:44Z</time>
      </trkpt>
      <trkpt lat="46.71388" lon="5.67756">
        <ele>528</ele>
        <time>2020-12-19T12:55:45Z</time>
      </trkpt>
      <trkpt lat="46.71387" lon="5.67756">
        <ele>528</ele>
        <time>2020-12-19T12:55:46Z</time>
      </trkpt>
      <trkpt lat="46.71382" lon="5.6776">
        <ele>528</ele>
        <time>2020-12-19T12:55:55Z</time>
      </trkpt>
      <trkpt lat="46.71381" lon="5.6776">
        <ele>528</ele>
        <time>2020-12-19T12:55:56Z</time>
      </trkpt>
      <trkpt lat="46.7138" lon="5.67761">
        <ele>528</ele>
        <time>2020-12-19T12:55:57Z</time>
      </trkpt>
      <trkpt lat="46.71379" lon="5.67761">
        <ele>528</ele>
        <time>2020-12-19T12:55:58Z</time>
      </trkpt>
      <trkpt lat="46.71378" lon="5.67761">
        <ele>528</ele>
        <time>2020-12-19T12:55:59Z</time>
      </trkpt>
      <trkpt lat="46.71378" lon="5.67762">
        <ele>528.4</ele>
        <time>2020-12-19T12:56:00Z</time>
      </trkpt>
      <trkpt lat="46.71377" lon="5.67762">
        <ele>528.4</ele>
        <time>2020-12-19T12:56:01Z</time>
      </trkpt>
      <trkpt lat="46.71375" lon="5.67765">
        <ele>528.6</ele>
        <time>2020-12-19T12:56:04Z</time>
      </trkpt>
      <trkpt lat="46.71374" lon="5.67766">
        <ele>528.6</ele>
        <time>2020-12-19T12:56:05Z</time>
      </trkpt>
      <trkpt lat="46.71373" lon="5.67766">
        <ele>528.6</ele>
        <time>2020-12-19T12:56:06Z</time>
      </trkpt>
      <trkpt lat="46.71372" lon="5.67767">
        <ele>528.6</ele>
        <time>2020-12-19T12:56:07Z</time>
      </trkpt>
      <trkpt lat="46.71371" lon="5.67767">
        <ele>529</ele>
        <time>2020-12-19T12:56:08Z</time>
      </trkpt>
      <trkpt lat="46.7137" lon="5.67767">
        <ele>529</ele>
        <time>2020-12-19T12:56:09Z</time>
      </trkpt>
      <trkpt lat="46.71369" lon="5.67767">
        <ele>529</ele>
        <time>2020-12-19T12:56:10Z</time>
      </trkpt>
      <trkpt lat="46.71368" lon="5.67767">
        <ele>529</ele>
        <time>2020-12-19T12:56:11Z</time>
      </trkpt>
      <trkpt lat="46.71367" lon="5.67767">
        <ele>529</ele>
        <time>2020-12-19T12:56:12Z</time>
      </trkpt>
      <trkpt lat="46.71367" lon="5.67768">
        <ele>529</ele>
        <time>2020-12-19T12:56:13Z</time>
      </trkpt>
      <trkpt lat="46.71366" lon="5.67768">
        <ele>529</ele>
        <time>2020-12-19T12:56:14Z</time>
      </trkpt>
      <trkpt lat="46.71366" lon="5.67768">
        <ele>529</ele>
        <time>2020-12-19T12:56:15Z</time>
      </trkpt>
      <trkpt lat="46.71364" lon="5.67767">
        <ele>529.2</ele>
        <time>2020-12-19T12:56:20Z</time>
      </trkpt>
      <trkpt lat="46.71363" lon="5.67767">
        <ele>529.2</ele>
        <time>2020-12-19T12:56:21Z</time>
      </trkpt>
      <trkpt lat="46.71362" lon="5.67766">
        <ele>529.4</ele>
        <time>2020-12-19T12:56:22Z</time>
      </trkpt>
      <trkpt lat="46.71361" lon="5.67765">
        <ele>529.4</ele>
        <time>2020-12-19T12:56:23Z</time>
      </trkpt>
      <trkpt lat="46.7136" lon="5.67764">
        <ele>529.4</ele>
        <time>2020-12-19T12:56:24Z</time>
      </trkpt>
      <trkpt lat="46.71358" lon="5.67763">
        <ele>529.4</ele>
        <time>2020-12-19T12:56:25Z</time>
      </trkpt>
      <trkpt lat="46.71357" lon="5.67762">
        <ele>529.4</ele>
        <time>2020-12-19T12:56:26Z</time>
      </trkpt>
      <trkpt lat="46.71356" lon="5.67762">
        <ele>529.4</ele>
        <time>2020-12-19T12:56:27Z</time>
      </trkpt>
      <trkpt lat="46.71356" lon="5.67761">
        <ele>529.6</ele>
        <time>2020-12-19T12:56:28Z</time>
      </trkpt>
      <trkpt lat="46.71355" lon="5.6776">
        <ele>529.6</ele>
        <time>2020-12-19T12:56:29Z</time>
      </trkpt>
      <trkpt lat="46.71354" lon="5.67759">
        <ele>529.6</ele>
        <time>2020-12-19T12:56:30Z</time>
      </trkpt>
      <trkpt lat="46.71353" lon="5.67758">
        <ele>529.6</ele>
        <time>2020-12-19T12:56:31Z</time>
      </trkpt>
      <trkpt lat="46.71353" lon="5.67758">
        <ele>529.6</ele>
        <time>2020-12-19T12:56:32Z</time>
      </trkpt>
      <trkpt lat="46.71352" lon="5.67757">
        <ele>529.6</ele>
        <time>2020-12-19T12:56:33Z</time>
      </trkpt>
      <trkpt lat="46.71352" lon="5.67757">
        <ele>529.6</ele>
        <time>2020-12-19T12:56:34Z</time>
      </trkpt>
      <trkpt lat="46.7135" lon="5.67757">
        <ele>529.6</ele>
        <time>2020-12-19T12:56:37Z</time>
      </trkpt>
      <trkpt lat="46.71349" lon="5.67757">
        <ele>529.6</ele>
        <time>2020-12-19T12:56:38Z</time>
      </trkpt>
      <trkpt lat="46.71348" lon="5.67757">
        <ele>529.6</ele>
        <time>2020-12-19T12:56:39Z</time>
      </trkpt>
      <trkpt lat="46.71347" lon="5.67757">
        <ele>529.6</ele>
        <time>2020-12-19T12:56:40Z</time>
      </trkpt>
      <trkpt lat="46.71347" lon="5.67757">
        <ele>529.6</ele>
        <time>2020-12-19T12:56:41Z</time>
      </trkpt>
      <trkpt lat="46.71346" lon="5.67757">
        <ele>529.6</ele>
        <time>2020-12-19T12:56:42Z</time>
      </trkpt>
      <trkpt lat="46.71344" lon="5.67758">
        <ele>529.6</ele>
        <time>2020-12-19T12:56:43Z</time>
      </trkpt>
      <trkpt lat="46.71343" lon="5.67758">
        <ele>529.6</ele>
        <time>2020-12-19T12:56:44Z</time>
      </trkpt>
      <trkpt lat="46.71342" lon="5.67758">
        <ele>529.6</ele>
        <time>2020-12-19T12:56:45Z</time>
      </trkpt>
      <trkpt lat="46.7134" lon="5.67758">
        <ele>529.6</ele>
        <time>2020-12-19T12:56:46Z</time>
      </trkpt>
      <trkpt lat="46.71339" lon="5.67759">
        <ele>529.6</ele>
        <time>2020-12-19T12:56:47Z</time>
      </trkpt>
      <trkpt lat="46.71338" lon="5.67759">
        <ele>529.8</ele>
        <time>2020-12-19T12:56:48Z</time>
      </trkpt>
      <trkpt lat="46.71336" lon="5.6776">
        <ele>529.8</ele>
        <time>2020-12-19T12:56:49Z</time>
      </trkpt>
      <trkpt lat="46.71336" lon="5.6776">
        <ele>529.8</ele>
        <time>2020-12-19T12:56:50Z</time>
      </trkpt>
      <trkpt lat="46.71335" lon="5.67761">
        <ele>529.8</ele>
        <time>2020-12-19T12:56:51Z</time>
      </trkpt>
      <trkpt lat="46.71335" lon="5.67761">
        <ele>529.8</ele>
        <time>2020-12-19T12:56:52Z</time>
      </trkpt>
      <trkpt lat="46.71333" lon="5.67762">
        <ele>529.8</ele>
        <time>2020-12-19T12:56:55Z</time>
      </trkpt>
      <trkpt lat="46.71332" lon="5.67762">
        <ele>529.8</ele>
        <time>2020-12-19T12:56:56Z</time>
      </trkpt>
      <trkpt lat="46.71331" lon="5.67762">
        <ele>529.8</ele>
        <time>2020-12-19T12:56:57Z</time>
      </trkpt>
      <trkpt lat="46.7133" lon="5.67763">
        <ele>529.8</ele>
        <time>2020-12-19T12:56:58Z</time>
      </trkpt>
      <trkpt lat="46.7133" lon="5.67763">
        <ele>529.8</ele>
        <time>2020-12-19T12:56:59Z</time>
      </trkpt>
      <trkpt lat="46.71329" lon="5.67763">
        <ele>529.8</ele>
        <time>2020-12-19T12:57:00Z</time>
      </trkpt>
      <trkpt lat="46.71328" lon="5.67764">
        <ele>529.8</ele>
        <time>2020-12-19T12:57:01Z</time>
      </trkpt>
      <trkpt lat="46.71327" lon="5.67765">
        <ele>529.8</ele>
        <time>2020-12-19T12:57:02Z</time>
      </trkpt>
      <trkpt lat="46.71326" lon="5.67765">
        <ele>529.8</ele>
        <time>2020-12-19T12:57:03Z</time>
      </trkpt>
      <trkpt lat="46.71326" lon="5.67766">
        <ele>529.8</ele>
        <time>2020-12-19T12:57:04Z</time>
      </trkpt>
      <trkpt lat="46.71325" lon="5.67767">
        <ele>529.8</ele>
        <time>2020-12-19T12:57:05Z</time>
      </trkpt>
      <trkpt lat="46.71324" lon="5.67768">
        <ele>529.8</ele>
        <time>2020-12-19T12:57:06Z</time>
      </trkpt>
      <trkpt lat="46.71324" lon="5.67768">
        <ele>529.8</ele>
        <time>2020-12-19T12:57:07Z</time>
      </trkpt>
      <trkpt lat="46.71323" lon="5.67768">
        <ele>529.8</ele>
        <time>2020-12-19T12:57:08Z</time>
      </trkpt>
      <trkpt lat="46.71322" lon="5.67769">
        <ele>529.6</ele>
        <time>2020-12-19T12:57:09Z</time>
      </trkpt>
      <trkpt lat="46.71321" lon="5.6777">
        <ele>529.6</ele>
        <time>2020-12-19T12:57:10Z</time>
      </trkpt>
      <trkpt lat="46.71321" lon="5.6777">
        <ele>529.6</ele>
        <time>2020-12-19T12:57:11Z</time>
      </trkpt>
      <trkpt lat="46.7132" lon="5.6777">
        <ele>529.6</ele>
        <time>2020-12-19T12:57:12Z</time>
      </trkpt>
      <trkpt lat="46.71319" lon="5.67771">
        <ele>529.4</ele>
        <time>2020-12-19T12:57:13Z</time>
      </trkpt>
      <trkpt lat="46.71318" lon="5.67771">
        <ele>529.4</ele>
        <time>2020-12-19T12:57:14Z</time>
      </trkpt>
      <trkpt lat="46.71317" lon="5.67771">
        <ele>529.4</ele>
        <time>2020-12-19T12:57:15Z</time>
      </trkpt>
      <trkpt lat="46.71316" lon="5.67771">
        <ele>529</ele>
        <time>2020-12-19T12:57:16Z</time>
      </trkpt>
      <trkpt lat="46.71315" lon="5.67771">
        <ele>529</ele>
        <time>2020-12-19T12:57:17Z</time>
      </trkpt>
      <trkpt lat="46.71314" lon="5.67771">
        <ele>529</ele>
        <time>2020-12-19T12:57:18Z</time>
      </trkpt>
      <trkpt lat="46.71313" lon="5.67771">
        <ele>529</ele>
        <time>2020-12-19T12:57:19Z</time>
      </trkpt>
      <trkpt lat="46.71312" lon="5.67771">
        <ele>529</ele>
        <time>2020-12-19T12:57:20Z</time>
      </trkpt>
      <trkpt lat="46.71312" lon="5.67771">
        <ele>529</ele>
        <time>2020-12-19T12:57:21Z</time>
      </trkpt>
      <trkpt lat="46.71311" lon="5.6777">
        <ele>529</ele>
        <time>2020-12-19T12:57:22Z</time>
      </trkpt>
      <trkpt lat="46.7131" lon="5.6777">
        <ele>529</ele>
        <time>2020-12-19T12:57:23Z</time>
      </trkpt>
      <trkpt lat="46.71309" lon="5.6777">
        <ele>529</ele>
        <time>2020-12-19T12:57:24Z</time>
      </trkpt>
      <trkpt lat="46.71308" lon="5.6777">
        <ele>529</ele>
        <time>2020-12-19T12:57:25Z</time>
      </trkpt>
      <trkpt lat="46.71307" lon="5.67771">
        <ele>529</ele>
        <time>2020-12-19T12:57:26Z</time>
      </trkpt>
      <trkpt lat="46.71306" lon="5.67771">
        <ele>528.8</ele>
        <time>2020-12-19T12:57:27Z</time>
      </trkpt>
      <trkpt lat="46.71305" lon="5.67772">
        <ele>528.8</ele>
        <time>2020-12-19T12:57:28Z</time>
      </trkpt>
      <trkpt lat="46.71304" lon="5.67772">
        <ele>528.8</ele>
        <time>2020-12-19T12:57:29Z</time>
      </trkpt>
      <trkpt lat="46.71303" lon="5.67772">
        <ele>528.8</ele>
        <time>2020-12-19T12:57:30Z</time>
      </trkpt>
      <trkpt lat="46.71303" lon="5.67772">
        <ele>528.6</ele>
        <time>2020-12-19T12:57:31Z</time>
      </trkpt>
      <trkpt lat="46.71302" lon="5.67772">
        <ele>528.6</ele>
        <time>2020-12-19T12:57:32Z</time>
      </trkpt>
      <trkpt lat="46.71301" lon="5.67772">
        <ele>528.6</ele>
        <time>2020-12-19T12:57:33Z</time>
      </trkpt>
      <trkpt lat="46.713" lon="5.67771">
        <ele>528.6</ele>
        <time>2020-12-19T12:57:34Z</time>
      </trkpt>
      <trkpt lat="46.71299" lon="5.67771">
        <ele>528.6</ele>
        <time>2020-12-19T12:57:35Z</time>
      </trkpt>
      <trkpt lat="46.71299" lon="5.6777">
        <ele>528.6</ele>
        <time>2020-12-19T12:57:36Z</time>
      </trkpt>
      <trkpt lat="46.71298" lon="5.67769">
        <ele>528.6</ele>
        <time>2020-12-19T12:57:37Z</time>
      </trkpt>
      <trkpt lat="46.71295" lon="5.67769">
        <ele>528.8</ele>
        <time>2020-12-19T12:57:40Z</time>
      </trkpt>
      <trkpt lat="46.71294" lon="5.67769">
        <ele>528.8</ele>
        <time>2020-12-19T12:57:41Z</time>
      </trkpt>
      <trkpt lat="46.71293" lon="5.67769">
        <ele>528.8</ele>
        <time>2020-12-19T12:57:42Z</time>
      </trkpt>
      <trkpt lat="46.71293" lon="5.67769">
        <ele>528.8</ele>
        <time>2020-12-19T12:57:43Z</time>
      </trkpt>
      <trkpt lat="46.71292" lon="5.67769">
        <ele>528.8</ele>
        <time>2020-12-19T12:57:44Z</time>
      </trkpt>
      <trkpt lat="46.71291" lon="5.67769">
        <ele>528.8</ele>
        <time>2020-12-19T12:57:45Z</time>
      </trkpt>
      <trkpt lat="46.7129" lon="5.67769">
        <ele>528.8</ele>
        <time>2020-12-19T12:57:46Z</time>
      </trkpt>
      <trkpt lat="46.71289" lon="5.67769">
        <ele>528.8</ele>
        <time>2020-12-19T12:57:47Z</time>
      </trkpt>
      <trkpt lat="46.71288" lon="5.67769">
        <ele>528.8</ele>
        <time>2020-12-19T12:57:48Z</time>
      </trkpt>
      <trkpt lat="46.71287" lon="5.6777">
        <ele>528.8</ele>
        <time>2020-12-19T12:57:49Z</time>
      </trkpt>
      <trkpt lat="46.71287" lon="5.6777">
        <ele>528.8</ele>
        <time>2020-12-19T12:57:50Z</time>
      </trkpt>
      <trkpt lat="46.71286" lon="5.6777">
        <ele>528.4</ele>
        <time>2020-12-19T12:57:51Z</time>
      </trkpt>
      <trkpt lat="46.71285" lon="5.6777">
        <ele>528.4</ele>
        <time>2020-12-19T12:57:52Z</time>
      </trkpt>
      <trkpt lat="46.71284" lon="5.6777">
        <ele>528.4</ele>
        <time>2020-12-19T12:57:53Z</time>
      </trkpt>
      <trkpt lat="46.71283" lon="5.6777">
        <ele>528.4</ele>
        <time>2020-12-19T12:57:54Z</time>
      </trkpt>
      <trkpt lat="46.71283" lon="5.6777">
        <ele>528.4</ele>
        <time>2020-12-19T12:57:55Z</time>
      </trkpt>
      <trkpt lat="46.71282" lon="5.6777">
        <ele>528.4</ele>
        <time>2020-12-19T12:57:56Z</time>
      </trkpt>
      <trkpt lat="46.71277" lon="5.67769">
        <ele>528.2</ele>
        <time>2020-12-19T12:58:06Z</time>
      </trkpt>
      <trkpt lat="46.71276" lon="5.67769">
        <ele>528.2</ele>
        <time>2020-12-19T12:58:07Z</time>
      </trkpt>
      <trkpt lat="46.71275" lon="5.6777">
        <ele>528.2</ele>
        <time>2020-12-19T12:58:08Z</time>
      </trkpt>
      <trkpt lat="46.71273" lon="5.6777">
        <ele>528.2</ele>
        <time>2020-12-19T12:58:09Z</time>
      </trkpt>
      <trkpt lat="46.71272" lon="5.67769">
        <ele>528.2</ele>
        <time>2020-12-19T12:58:10Z</time>
      </trkpt>
      <trkpt lat="46.71272" lon="5.67769">
        <ele>528.2</ele>
        <time>2020-12-19T12:58:11Z</time>
      </trkpt>
      <trkpt lat="46.71271" lon="5.67769">
        <ele>528.2</ele>
        <time>2020-12-19T12:58:12Z</time>
      </trkpt>
      <trkpt lat="46.7127" lon="5.67769">
        <ele>528.2</ele>
        <time>2020-12-19T12:58:13Z</time>
      </trkpt>
      <trkpt lat="46.71269" lon="5.67769">
        <ele>528.2</ele>
        <time>2020-12-19T12:58:14Z</time>
      </trkpt>
      <trkpt lat="46.71268" lon="5.67769">
        <ele>528.2</ele>
        <time>2020-12-19T12:58:15Z</time>
      </trkpt>
      <trkpt lat="46.71267" lon="5.67769">
        <ele>528.2</ele>
        <time>2020-12-19T12:58:16Z</time>
      </trkpt>
      <trkpt lat="46.71267" lon="5.67769">
        <ele>528.2</ele>
        <time>2020-12-19T12:58:17Z</time>
      </trkpt>
      <trkpt lat="46.71266" lon="5.67768">
        <ele>528.2</ele>
        <time>2020-12-19T12:58:18Z</time>
      </trkpt>
      <trkpt lat="46.71265" lon="5.67768">
        <ele>528.2</ele>
        <time>2020-12-19T12:58:19Z</time>
      </trkpt>
      <trkpt lat="46.71264" lon="5.67767">
        <ele>528.2</ele>
        <time>2020-12-19T12:58:20Z</time>
      </trkpt>
      <trkpt lat="46.71264" lon="5.67767">
        <ele>528.2</ele>
        <time>2020-12-19T12:58:21Z</time>
      </trkpt>
      <trkpt lat="46.71263" lon="5.67766">
        <ele>528.2</ele>
        <time>2020-12-19T12:58:22Z</time>
      </trkpt>
      <trkpt lat="46.71262" lon="5.67766">
        <ele>528.2</ele>
        <time>2020-12-19T12:58:23Z</time>
      </trkpt>
      <trkpt lat="46.71261" lon="5.67765">
        <ele>528.2</ele>
        <time>2020-12-19T12:58:24Z</time>
      </trkpt>
      <trkpt lat="46.7126" lon="5.67765">
        <ele>528.2</ele>
        <time>2020-12-19T12:58:25Z</time>
      </trkpt>
      <trkpt lat="46.71259" lon="5.67765">
        <ele>528.2</ele>
        <time>2020-12-19T12:58:26Z</time>
      </trkpt>
      <trkpt lat="46.71258" lon="5.67764">
        <ele>528.2</ele>
        <time>2020-12-19T12:58:27Z</time>
      </trkpt>
      <trkpt lat="46.71257" lon="5.67764">
        <ele>528.2</ele>
        <time>2020-12-19T12:58:28Z</time>
      </trkpt>
      <trkpt lat="46.71256" lon="5.67764">
        <ele>528.2</ele>
        <time>2020-12-19T12:58:29Z</time>
      </trkpt>
      <trkpt lat="46.71255" lon="5.67764">
        <ele>528</ele>
        <time>2020-12-19T12:58:30Z</time>
      </trkpt>
      <trkpt lat="46.71254" lon="5.67764">
        <ele>528</ele>
        <time>2020-12-19T12:58:31Z</time>
      </trkpt>
      <trkpt lat="46.71254" lon="5.67764">
        <ele>528</ele>
        <time>2020-12-19T12:58:32Z</time>
      </trkpt>
      <trkpt lat="46.71252" lon="5.67763">
        <ele>528</ele>
        <time>2020-12-19T12:58:33Z</time>
      </trkpt>
      <trkpt lat="46.71251" lon="5.67763">
        <ele>528</ele>
        <time>2020-12-19T12:58:34Z</time>
      </trkpt>
      <trkpt lat="46.71251" lon="5.67763">
        <ele>528</ele>
        <time>2020-12-19T12:58:35Z</time>
      </trkpt>
      <trkpt lat="46.7125" lon="5.67763">
        <ele>528</ele>
        <time>2020-12-19T12:58:36Z</time>
      </trkpt>
      <trkpt lat="46.71249" lon="5.67763">
        <ele>528</ele>
        <time>2020-12-19T12:58:37Z</time>
      </trkpt>
      <trkpt lat="46.71248" lon="5.67764">
        <ele>528</ele>
        <time>2020-12-19T12:58:38Z</time>
      </trkpt>
      <trkpt lat="46.71247" lon="5.67764">
        <ele>528</ele>
        <time>2020-12-19T12:58:39Z</time>
      </trkpt>
      <trkpt lat="46.71246" lon="5.67764">
        <ele>527.8</ele>
        <time>2020-12-19T12:58:40Z</time>
      </trkpt>
      <trkpt lat="46.71246" lon="5.67764">
        <ele>527.8</ele>
        <time>2020-12-19T12:58:41Z</time>
      </trkpt>
      <trkpt lat="46.71245" lon="5.67764">
        <ele>527.8</ele>
        <time>2020-12-19T12:58:42Z</time>
      </trkpt>
      <trkpt lat="46.71244" lon="5.67764">
        <ele>527.6</ele>
        <time>2020-12-19T12:58:43Z</time>
      </trkpt>
      <trkpt lat="46.71243" lon="5.67764">
        <ele>527.6</ele>
        <time>2020-12-19T12:58:44Z</time>
      </trkpt>
      <trkpt lat="46.71242" lon="5.67764">
        <ele>527.6</ele>
        <time>2020-12-19T12:58:45Z</time>
      </trkpt>
      <trkpt lat="46.71242" lon="5.67764">
        <ele>527.6</ele>
        <time>2020-12-19T12:58:46Z</time>
      </trkpt>
      <trkpt lat="46.71241" lon="5.67764">
        <ele>527.6</ele>
        <time>2020-12-19T12:58:47Z</time>
      </trkpt>
      <trkpt lat="46.71241" lon="5.67765">
        <ele>527.4</ele>
        <time>2020-12-19T12:58:48Z</time>
      </trkpt>
      <trkpt lat="46.7124" lon="5.67765">
        <ele>527.4</ele>
        <time>2020-12-19T12:58:49Z</time>
      </trkpt>
      <trkpt lat="46.71239" lon="5.67765">
        <ele>527.2</ele>
        <time>2020-12-19T12:58:50Z</time>
      </trkpt>
      <trkpt lat="46.71239" lon="5.67766">
        <ele>527.2</ele>
        <time>2020-12-19T12:58:51Z</time>
      </trkpt>
      <trkpt lat="46.71238" lon="5.67766">
        <ele>526.8</ele>
        <time>2020-12-19T12:58:52Z</time>
      </trkpt>
      <trkpt lat="46.71237" lon="5.67767">
        <ele>526.8</ele>
        <time>2020-12-19T12:58:53Z</time>
      </trkpt>
      <trkpt lat="46.71237" lon="5.67767">
        <ele>526.6</ele>
        <time>2020-12-19T12:58:54Z</time>
      </trkpt>
      <trkpt lat="46.71236" lon="5.67767">
        <ele>526.6</ele>
        <time>2020-12-19T12:58:55Z</time>
      </trkpt>
      <trkpt lat="46.71235" lon="5.67768">
        <ele>526.2</ele>
        <time>2020-12-19T12:58:56Z</time>
      </trkpt>
      <trkpt lat="46.71234" lon="5.67769">
        <ele>526.2</ele>
        <time>2020-12-19T12:58:57Z</time>
      </trkpt>
      <trkpt lat="46.71234" lon="5.67769">
        <ele>526</ele>
        <time>2020-12-19T12:58:58Z</time>
      </trkpt>
      <trkpt lat="46.71234" lon="5.67769">
        <ele>526</ele>
        <time>2020-12-19T12:58:59Z</time>
      </trkpt>
      <trkpt lat="46.71233" lon="5.6777">
        <ele>526</ele>
        <time>2020-12-19T12:59:00Z</time>
      </trkpt>
      <trkpt lat="46.71231" lon="5.67772">
        <ele>525.6</ele>
        <time>2020-12-19T12:59:03Z</time>
      </trkpt>
      <trkpt lat="46.7123" lon="5.67772">
        <ele>525.6</ele>
        <time>2020-12-19T12:59:04Z</time>
      </trkpt>
      <trkpt lat="46.7123" lon="5.67772">
        <ele>525.4</ele>
        <time>2020-12-19T12:59:05Z</time>
      </trkpt>
      <trkpt lat="46.7123" lon="5.67773">
        <ele>525.2</ele>
        <time>2020-12-19T12:59:13Z</time>
      </trkpt>
      <trkpt lat="46.7123" lon="5.67773">
        <ele>525.2</ele>
        <time>2020-12-19T12:59:14Z</time>
      </trkpt>
      <trkpt lat="46.71229" lon="5.67773">
        <ele>525.2</ele>
        <time>2020-12-19T12:59:15Z</time>
      </trkpt>
      <trkpt lat="46.71225" lon="5.67773">
        <ele>525.2</ele>
        <time>2020-12-19T12:59:25Z</time>
      </trkpt>
      <trkpt lat="46.71225" lon="5.67773">
        <ele>525.2</ele>
        <time>2020-12-19T12:59:26Z</time>
      </trkpt>
      <trkpt lat="46.71224" lon="5.67772">
        <ele>525.2</ele>
        <time>2020-12-19T12:59:27Z</time>
      </trkpt>
      <trkpt lat="46.71223" lon="5.67773">
        <ele>525.2</ele>
        <time>2020-12-19T12:59:28Z</time>
      </trkpt>
      <trkpt lat="46.71223" lon="5.67773">
        <ele>525.2</ele>
        <time>2020-12-19T12:59:29Z</time>
      </trkpt>
      <trkpt lat="46.71222" lon="5.67772">
        <ele>525.2</ele>
        <time>2020-12-19T12:59:30Z</time>
      </trkpt>
      <trkpt lat="46.71221" lon="5.67772">
        <ele>525.2</ele>
        <time>2020-12-19T12:59:31Z</time>
      </trkpt>
      <trkpt lat="46.7122" lon="5.67773">
        <ele>525.2</ele>
        <time>2020-12-19T12:59:32Z</time>
      </trkpt>
      <trkpt lat="46.71219" lon="5.67774">
        <ele>525.2</ele>
        <time>2020-12-19T12:59:33Z</time>
      </trkpt>
      <trkpt lat="46.71218" lon="5.67774">
        <ele>525.2</ele>
        <time>2020-12-19T12:59:34Z</time>
      </trkpt>
      <trkpt lat="46.71217" lon="5.67774">
        <ele>525.2</ele>
        <time>2020-12-19T12:59:35Z</time>
      </trkpt>
      <trkpt lat="46.71216" lon="5.67775">
        <ele>524.8</ele>
        <time>2020-12-19T12:59:36Z</time>
      </trkpt>
      <trkpt lat="46.71215" lon="5.67776">
        <ele>524.8</ele>
        <time>2020-12-19T12:59:37Z</time>
      </trkpt>
      <trkpt lat="46.71215" lon="5.67776">
        <ele>524.8</ele>
        <time>2020-12-19T12:59:38Z</time>
      </trkpt>
      <trkpt lat="46.71214" lon="5.67777">
        <ele>524.6</ele>
        <time>2020-12-19T12:59:39Z</time>
      </trkpt>
      <trkpt lat="46.71214" lon="5.67777">
        <ele>524.6</ele>
        <time>2020-12-19T12:59:40Z</time>
      </trkpt>
      <trkpt lat="46.71213" lon="5.67777">
        <ele>524.4</ele>
        <time>2020-12-19T12:59:41Z</time>
      </trkpt>
      <trkpt lat="46.71211" lon="5.67778">
        <ele>524.4</ele>
        <time>2020-12-19T12:59:44Z</time>
      </trkpt>
      <trkpt lat="46.7121" lon="5.67778">
        <ele>524.2</ele>
        <time>2020-12-19T12:59:45Z</time>
      </trkpt>
      <trkpt lat="46.71208" lon="5.67777">
        <ele>524.2</ele>
        <time>2020-12-19T12:59:46Z</time>
      </trkpt>
      <trkpt lat="46.71207" lon="5.67777">
        <ele>524.2</ele>
        <time>2020-12-19T12:59:47Z</time>
      </trkpt>
      <trkpt lat="46.71207" lon="5.67777">
        <ele>524</ele>
        <time>2020-12-19T12:59:48Z</time>
      </trkpt>
      <trkpt lat="46.71206" lon="5.67776">
        <ele>524</ele>
        <time>2020-12-19T12:59:49Z</time>
      </trkpt>
      <trkpt lat="46.71205" lon="5.67775">
        <ele>524</ele>
        <time>2020-12-19T12:59:50Z</time>
      </trkpt>
      <trkpt lat="46.71203" lon="5.67775">
        <ele>524</ele>
        <time>2020-12-19T12:59:51Z</time>
      </trkpt>
      <trkpt lat="46.71203" lon="5.67776">
        <ele>523.8</ele>
        <time>2020-12-19T12:59:52Z</time>
      </trkpt>
      <trkpt lat="46.71202" lon="5.67776">
        <ele>523.8</ele>
        <time>2020-12-19T12:59:53Z</time>
      </trkpt>
      <trkpt lat="46.71201" lon="5.67779">
        <ele>523.6</ele>
        <time>2020-12-19T13:00:26Z</time>
      </trkpt>
      <trkpt lat="46.71201" lon="5.6778">
        <ele>523.6</ele>
        <time>2020-12-19T13:00:27Z</time>
      </trkpt>
      <trkpt lat="46.71201" lon="5.67783">
        <ele>523.6</ele>
        <time>2020-12-19T13:00:28Z</time>
      </trkpt>
      <trkpt lat="46.71201" lon="5.67785">
        <ele>523.6</ele>
        <time>2020-12-19T13:00:29Z</time>
      </trkpt>
      <trkpt lat="46.71201" lon="5.67789">
        <ele>523.6</ele>
        <time>2020-12-19T13:00:30Z</time>
      </trkpt>
      <trkpt lat="46.71201" lon="5.67792">
        <ele>523.2</ele>
        <time>2020-12-19T13:00:31Z</time>
      </trkpt>
      <trkpt lat="46.71202" lon="5.67797">
        <ele>523.2</ele>
        <time>2020-12-19T13:00:32Z</time>
      </trkpt>
      <trkpt lat="46.71203" lon="5.67801">
        <ele>522.8</ele>
        <time>2020-12-19T13:00:33Z</time>
      </trkpt>
      <trkpt lat="46.71204" lon="5.67807">
        <ele>522.6</ele>
        <time>2020-12-19T13:00:34Z</time>
      </trkpt>
      <trkpt lat="46.71204" lon="5.67812">
        <ele>522.4</ele>
        <time>2020-12-19T13:00:35Z</time>
      </trkpt>
      <trkpt lat="46.71205" lon="5.67818">
        <ele>522.4</ele>
        <time>2020-12-19T13:00:36Z</time>
      </trkpt>
      <trkpt lat="46.71207" lon="5.67823">
        <ele>522.2</ele>
        <time>2020-12-19T13:00:37Z</time>
      </trkpt>
      <trkpt lat="46.71207" lon="5.67829">
        <ele>522.2</ele>
        <time>2020-12-19T13:00:38Z</time>
      </trkpt>
      <trkpt lat="46.71208" lon="5.67834">
        <ele>521.8</ele>
        <time>2020-12-19T13:00:39Z</time>
      </trkpt>
      <trkpt lat="46.71209" lon="5.67839">
        <ele>521.8</ele>
        <time>2020-12-19T13:00:40Z</time>
      </trkpt>
      <trkpt lat="46.7121" lon="5.67844">
        <ele>521.6</ele>
        <time>2020-12-19T13:00:41Z</time>
      </trkpt>
      <trkpt lat="46.71211" lon="5.6785">
        <ele>521.6</ele>
        <time>2020-12-19T13:00:42Z</time>
      </trkpt>
      <trkpt lat="46.71212" lon="5.67854">
        <ele>521.6</ele>
        <time>2020-12-19T13:00:43Z</time>
      </trkpt>
      <trkpt lat="46.71213" lon="5.67859">
        <ele>521.6</ele>
        <time>2020-12-19T13:00:44Z</time>
      </trkpt>
      <trkpt lat="46.71213" lon="5.67863">
        <ele>521.4</ele>
        <time>2020-12-19T13:00:45Z</time>
      </trkpt>
      <trkpt lat="46.71214" lon="5.67867">
        <ele>521.4</ele>
        <time>2020-12-19T13:00:46Z</time>
      </trkpt>
      <trkpt lat="46.71215" lon="5.67872">
        <ele>521.4</ele>
        <time>2020-12-19T13:00:47Z</time>
      </trkpt>
      <trkpt lat="46.71216" lon="5.67876">
        <ele>521.4</ele>
        <time>2020-12-19T13:00:48Z</time>
      </trkpt>
      <trkpt lat="46.71217" lon="5.6788">
        <ele>521.4</ele>
        <time>2020-12-19T13:00:49Z</time>
      </trkpt>
      <trkpt lat="46.71218" lon="5.67884">
        <ele>521.4</ele>
        <time>2020-12-19T13:00:50Z</time>
      </trkpt>
      <trkpt lat="46.71219" lon="5.67887">
        <ele>521.4</ele>
        <time>2020-12-19T13:00:51Z</time>
      </trkpt>
      <trkpt lat="46.71219" lon="5.6789">
        <ele>521.4</ele>
        <time>2020-12-19T13:00:52Z</time>
      </trkpt>
      <trkpt lat="46.7122" lon="5.67893">
        <ele>521.2</ele>
        <time>2020-12-19T13:00:53Z</time>
      </trkpt>
      <trkpt lat="46.71221" lon="5.67897">
        <ele>521.2</ele>
        <time>2020-12-19T13:00:54Z</time>
      </trkpt>
      <trkpt lat="46.71222" lon="5.679">
        <ele>521.2</ele>
        <time>2020-12-19T13:00:55Z</time>
      </trkpt>
      <trkpt lat="46.71222" lon="5.67903">
        <ele>521.2</ele>
        <time>2020-12-19T13:00:56Z</time>
      </trkpt>
      <trkpt lat="46.71222" lon="5.67906">
        <ele>521.2</ele>
        <time>2020-12-19T13:00:57Z</time>
      </trkpt>
      <trkpt lat="46.71223" lon="5.6791">
        <ele>521.2</ele>
        <time>2020-12-19T13:00:58Z</time>
      </trkpt>
      <trkpt lat="46.71224" lon="5.67913">
        <ele>521.2</ele>
        <time>2020-12-19T13:00:59Z</time>
      </trkpt>
      <trkpt lat="46.71224" lon="5.67916">
        <ele>521.2</ele>
        <time>2020-12-19T13:01:00Z</time>
      </trkpt>
      <trkpt lat="46.71225" lon="5.67919">
        <ele>521.2</ele>
        <time>2020-12-19T13:01:01Z</time>
      </trkpt>
      <trkpt lat="46.71225" lon="5.67922">
        <ele>521</ele>
        <time>2020-12-19T13:01:02Z</time>
      </trkpt>
      <trkpt lat="46.71226" lon="5.67925">
        <ele>521</ele>
        <time>2020-12-19T13:01:03Z</time>
      </trkpt>
      <trkpt lat="46.71226" lon="5.67928">
        <ele>521</ele>
        <time>2020-12-19T13:01:04Z</time>
      </trkpt>
      <trkpt lat="46.71227" lon="5.6793">
        <ele>521</ele>
        <time>2020-12-19T13:01:05Z</time>
      </trkpt>
      <trkpt lat="46.71227" lon="5.67932">
        <ele>521</ele>
        <time>2020-12-19T13:01:06Z</time>
      </trkpt>
      <trkpt lat="46.71228" lon="5.67934">
        <ele>521</ele>
        <time>2020-12-19T13:01:07Z</time>
      </trkpt>
      <trkpt lat="46.71228" lon="5.67936">
        <ele>521</ele>
        <time>2020-12-19T13:01:08Z</time>
      </trkpt>
      <trkpt lat="46.71229" lon="5.67937">
        <ele>521</ele>
        <time>2020-12-19T13:01:09Z</time>
      </trkpt>
      <trkpt lat="46.71229" lon="5.67939">
        <ele>521</ele>
        <time>2020-12-19T13:01:10Z</time>
      </trkpt>
      <trkpt lat="46.71229" lon="5.67941">
        <ele>520.8</ele>
        <time>2020-12-19T13:01:11Z</time>
      </trkpt>
      <trkpt lat="46.71229" lon="5.67943">
        <ele>520.8</ele>
        <time>2020-12-19T13:01:12Z</time>
      </trkpt>
      <trkpt lat="46.71229" lon="5.67945">
        <ele>520.8</ele>
        <time>2020-12-19T13:01:13Z</time>
      </trkpt>
      <trkpt lat="46.71228" lon="5.67946">
        <ele>520.8</ele>
        <time>2020-12-19T13:01:14Z</time>
      </trkpt>
      <trkpt lat="46.71227" lon="5.67948">
        <ele>520.8</ele>
        <time>2020-12-19T13:01:15Z</time>
      </trkpt>
      <trkpt lat="46.71226" lon="5.67949">
        <ele>520.8</ele>
        <time>2020-12-19T13:01:16Z</time>
      </trkpt>
      <trkpt lat="46.71225" lon="5.67951">
        <ele>520.8</ele>
        <time>2020-12-19T13:01:17Z</time>
      </trkpt>
      <trkpt lat="46.71224" lon="5.67952">
        <ele>520.8</ele>
        <time>2020-12-19T13:01:18Z</time>
      </trkpt>
      <trkpt lat="46.71223" lon="5.67953">
        <ele>520.8</ele>
        <time>2020-12-19T13:01:19Z</time>
      </trkpt>
      <trkpt lat="46.71222" lon="5.67953">
        <ele>521</ele>
        <time>2020-12-19T13:01:20Z</time>
      </trkpt>
      <trkpt lat="46.7122" lon="5.67954">
        <ele>521</ele>
        <time>2020-12-19T13:01:21Z</time>
      </trkpt>
      <trkpt lat="46.71219" lon="5.67955">
        <ele>521</ele>
        <time>2020-12-19T13:01:22Z</time>
      </trkpt>
      <trkpt lat="46.71218" lon="5.67957">
        <ele>521</ele>
        <time>2020-12-19T13:01:23Z</time>
      </trkpt>
      <trkpt lat="46.71217" lon="5.67958">
        <ele>521</ele>
        <time>2020-12-19T13:01:24Z</time>
      </trkpt>
      <trkpt lat="46.71216" lon="5.67959">
        <ele>521</ele>
        <time>2020-12-19T13:01:25Z</time>
      </trkpt>
      <trkpt lat="46.71215" lon="5.67959">
        <ele>521</ele>
        <time>2020-12-19T13:01:26Z</time>
      </trkpt>
      <trkpt lat="46.71214" lon="5.6796">
        <ele>521.2</ele>
        <time>2020-12-19T13:01:27Z</time>
      </trkpt>
      <trkpt lat="46.71213" lon="5.67961">
        <ele>521.2</ele>
        <time>2020-12-19T13:01:28Z</time>
      </trkpt>
      <trkpt lat="46.71212" lon="5.67963">
        <ele>521.2</ele>
        <time>2020-12-19T13:01:29Z</time>
      </trkpt>
      <trkpt lat="46.71211" lon="5.67964">
        <ele>521.2</ele>
        <time>2020-12-19T13:01:30Z</time>
      </trkpt>
      <trkpt lat="46.7121" lon="5.67965">
        <ele>521.2</ele>
        <time>2020-12-19T13:01:31Z</time>
      </trkpt>
      <trkpt lat="46.71209" lon="5.67965">
        <ele>521.4</ele>
        <time>2020-12-19T13:01:32Z</time>
      </trkpt>
      <trkpt lat="46.71208" lon="5.67966">
        <ele>521.4</ele>
        <time>2020-12-19T13:01:33Z</time>
      </trkpt>
      <trkpt lat="46.71206" lon="5.67967">
        <ele>521.4</ele>
        <time>2020-12-19T13:01:34Z</time>
      </trkpt>
      <trkpt lat="46.71205" lon="5.67967">
        <ele>521.4</ele>
        <time>2020-12-19T13:01:35Z</time>
      </trkpt>
      <trkpt lat="46.71204" lon="5.67967">
        <ele>521.8</ele>
        <time>2020-12-19T13:01:36Z</time>
      </trkpt>
      <trkpt lat="46.71203" lon="5.67967">
        <ele>521.8</ele>
        <time>2020-12-19T13:01:37Z</time>
      </trkpt>
      <trkpt lat="46.71201" lon="5.67967">
        <ele>521.8</ele>
        <time>2020-12-19T13:01:38Z</time>
      </trkpt>
      <trkpt lat="46.712" lon="5.67967">
        <ele>521.8</ele>
        <time>2020-12-19T13:01:39Z</time>
      </trkpt>
      <trkpt lat="46.71199" lon="5.67968">
        <ele>521.8</ele>
        <time>2020-12-19T13:01:40Z</time>
      </trkpt>
      <trkpt lat="46.71198" lon="5.67969">
        <ele>521.8</ele>
        <time>2020-12-19T13:01:41Z</time>
      </trkpt>
      <trkpt lat="46.71198" lon="5.6797">
        <ele>521.8</ele>
        <time>2020-12-19T13:01:42Z</time>
      </trkpt>
      <trkpt lat="46.71197" lon="5.67971">
        <ele>521.8</ele>
        <time>2020-12-19T13:01:43Z</time>
      </trkpt>
      <trkpt lat="46.71195" lon="5.67973">
        <ele>522</ele>
        <time>2020-12-19T13:01:46Z</time>
      </trkpt>
      <trkpt lat="46.71195" lon="5.67974">
        <ele>522</ele>
        <time>2020-12-19T13:01:47Z</time>
      </trkpt>
      <trkpt lat="46.71194" lon="5.67976">
        <ele>522</ele>
        <time>2020-12-19T13:01:48Z</time>
      </trkpt>
      <trkpt lat="46.71193" lon="5.67977">
        <ele>522</ele>
        <time>2020-12-19T13:01:49Z</time>
      </trkpt>
      <trkpt lat="46.71193" lon="5.67978">
        <ele>522</ele>
        <time>2020-12-19T13:01:50Z</time>
      </trkpt>
      <trkpt lat="46.71193" lon="5.67979">
        <ele>522</ele>
        <time>2020-12-19T13:01:51Z</time>
      </trkpt>
      <trkpt lat="46.71192" lon="5.6798">
        <ele>522</ele>
        <time>2020-12-19T13:01:52Z</time>
      </trkpt>
      <trkpt lat="46.71192" lon="5.67981">
        <ele>522</ele>
        <time>2020-12-19T13:01:53Z</time>
      </trkpt>
      <trkpt lat="46.71192" lon="5.67982">
        <ele>522</ele>
        <time>2020-12-19T13:01:54Z</time>
      </trkpt>
      <trkpt lat="46.71192" lon="5.67983">
        <ele>522</ele>
        <time>2020-12-19T13:01:55Z</time>
      </trkpt>
      <trkpt lat="46.71191" lon="5.67983">
        <ele>522</ele>
        <time>2020-12-19T13:01:56Z</time>
      </trkpt>
      <trkpt lat="46.71191" lon="5.67984">
        <ele>522</ele>
        <time>2020-12-19T13:01:57Z</time>
      </trkpt>
      <trkpt lat="46.71191" lon="5.67985">
        <ele>522</ele>
        <time>2020-12-19T13:01:58Z</time>
      </trkpt>
      <trkpt lat="46.7119" lon="5.67985">
        <ele>522</ele>
        <time>2020-12-19T13:01:59Z</time>
      </trkpt>
      <trkpt lat="46.71189" lon="5.67985">
        <ele>522</ele>
        <time>2020-12-19T13:02:00Z</time>
      </trkpt>
      <trkpt lat="46.71189" lon="5.67986">
        <ele>522</ele>
        <time>2020-12-19T13:02:01Z</time>
      </trkpt>
      <trkpt lat="46.71188" lon="5.67986">
        <ele>522</ele>
        <time>2020-12-19T13:02:02Z</time>
      </trkpt>
      <trkpt lat="46.71187" lon="5.67986">
        <ele>522</ele>
        <time>2020-12-19T13:02:03Z</time>
      </trkpt>
      <trkpt lat="46.71186" lon="5.67986">
        <ele>522</ele>
        <time>2020-12-19T13:02:04Z</time>
      </trkpt>
      <trkpt lat="46.71186" lon="5.67987">
        <ele>522</ele>
        <time>2020-12-19T13:02:05Z</time>
      </trkpt>
      <trkpt lat="46.71185" lon="5.67987">
        <ele>522</ele>
        <time>2020-12-19T13:02:06Z</time>
      </trkpt>
      <trkpt lat="46.71184" lon="5.67987">
        <ele>522</ele>
        <time>2020-12-19T13:02:07Z</time>
      </trkpt>
      <trkpt lat="46.71184" lon="5.67988">
        <ele>522</ele>
        <time>2020-12-19T13:02:08Z</time>
      </trkpt>
      <trkpt lat="46.7118" lon="5.6799">
        <ele>522</ele>
        <time>2020-12-19T13:03:45Z</time>
      </trkpt>
      <trkpt lat="46.71179" lon="5.67989">
        <ele>522</ele>
        <time>2020-12-19T13:03:46Z</time>
      </trkpt>
      <trkpt lat="46.71178" lon="5.67989">
        <ele>522</ele>
        <time>2020-12-19T13:03:47Z</time>
      </trkpt>
      <trkpt lat="46.71177" lon="5.67989">
        <ele>522</ele>
        <time>2020-12-19T13:03:48Z</time>
      </trkpt>
      <trkpt lat="46.71175" lon="5.6799">
        <ele>521.8</ele>
        <time>2020-12-19T13:03:49Z</time>
      </trkpt>
      <trkpt lat="46.71174" lon="5.6799">
        <ele>521.8</ele>
        <time>2020-12-19T13:03:50Z</time>
      </trkpt>
      <trkpt lat="46.71173" lon="5.67991">
        <ele>521.8</ele>
        <time>2020-12-19T13:03:51Z</time>
      </trkpt>
      <trkpt lat="46.71172" lon="5.67991">
        <ele>521.6</ele>
        <time>2020-12-19T13:03:52Z</time>
      </trkpt>
      <trkpt lat="46.7117" lon="5.67992">
        <ele>521.6</ele>
        <time>2020-12-19T13:03:53Z</time>
      </trkpt>
      <trkpt lat="46.71168" lon="5.67992">
        <ele>521.6</ele>
        <time>2020-12-19T13:03:54Z</time>
      </trkpt>
      <trkpt lat="46.71166" lon="5.67993">
        <ele>521.6</ele>
        <time>2020-12-19T13:03:55Z</time>
      </trkpt>
      <trkpt lat="46.71165" lon="5.67993">
        <ele>521.6</ele>
        <time>2020-12-19T13:03:56Z</time>
      </trkpt>
      <trkpt lat="46.71163" lon="5.67994">
        <ele>521.6</ele>
        <time>2020-12-19T13:03:57Z</time>
      </trkpt>
      <trkpt lat="46.71162" lon="5.67994">
        <ele>521.6</ele>
        <time>2020-12-19T13:03:58Z</time>
      </trkpt>
      <trkpt lat="46.71161" lon="5.67994">
        <ele>521.6</ele>
        <time>2020-12-19T13:03:59Z</time>
      </trkpt>
      <trkpt lat="46.71159" lon="5.67994">
        <ele>521.6</ele>
        <time>2020-12-19T13:04:00Z</time>
      </trkpt>
      <trkpt lat="46.71158" lon="5.67994">
        <ele>521.6</ele>
        <time>2020-12-19T13:04:01Z</time>
      </trkpt>
      <trkpt lat="46.71155" lon="5.67994">
        <ele>521.6</ele>
        <time>2020-12-19T13:04:02Z</time>
      </trkpt>
      <trkpt lat="46.71153" lon="5.67995">
        <ele>521.6</ele>
        <time>2020-12-19T13:04:03Z</time>
      </trkpt>
      <trkpt lat="46.71152" lon="5.67994">
        <ele>521.6</ele>
        <time>2020-12-19T13:04:04Z</time>
      </trkpt>
      <trkpt lat="46.7115" lon="5.67994">
        <ele>521.4</ele>
        <time>2020-12-19T13:04:05Z</time>
      </trkpt>
      <trkpt lat="46.71149" lon="5.67995">
        <ele>521.4</ele>
        <time>2020-12-19T13:04:06Z</time>
      </trkpt>
      <trkpt lat="46.71147" lon="5.67995">
        <ele>521.4</ele>
        <time>2020-12-19T13:04:07Z</time>
      </trkpt>
      <trkpt lat="46.71146" lon="5.67994">
        <ele>521.4</ele>
        <time>2020-12-19T13:04:08Z</time>
      </trkpt>
      <trkpt lat="46.71144" lon="5.67994">
        <ele>521.4</ele>
        <time>2020-12-19T13:04:09Z</time>
      </trkpt>
      <trkpt lat="46.71142" lon="5.67994">
        <ele>521.4</ele>
        <time>2020-12-19T13:04:10Z</time>
      </trkpt>
      <trkpt lat="46.7114" lon="5.67995">
        <ele>521.4</ele>
        <time>2020-12-19T13:04:11Z</time>
      </trkpt>
      <trkpt lat="46.71139" lon="5.67995">
        <ele>521.4</ele>
        <time>2020-12-19T13:04:12Z</time>
      </trkpt>
      <trkpt lat="46.71137" lon="5.67995">
        <ele>521.4</ele>
        <time>2020-12-19T13:04:13Z</time>
      </trkpt>
      <trkpt lat="46.71135" lon="5.67994">
        <ele>521.4</ele>
        <time>2020-12-19T13:04:14Z</time>
      </trkpt>
      <trkpt lat="46.71133" lon="5.67993">
        <ele>521.2</ele>
        <time>2020-12-19T13:04:15Z</time>
      </trkpt>
      <trkpt lat="46.71131" lon="5.67992">
        <ele>521.2</ele>
        <time>2020-12-19T13:04:16Z</time>
      </trkpt>
      <trkpt lat="46.71129" lon="5.67991">
        <ele>521.2</ele>
        <time>2020-12-19T13:04:17Z</time>
      </trkpt>
      <trkpt lat="46.71127" lon="5.6799">
        <ele>521.2</ele>
        <time>2020-12-19T13:04:18Z</time>
      </trkpt>
      <trkpt lat="46.71125" lon="5.67989">
        <ele>520.8</ele>
        <time>2020-12-19T13:04:19Z</time>
      </trkpt>
      <trkpt lat="46.71123" lon="5.67988">
        <ele>520.8</ele>
        <time>2020-12-19T13:04:20Z</time>
      </trkpt>
      <trkpt lat="46.7112" lon="5.67987">
        <ele>520.6</ele>
        <time>2020-12-19T13:04:21Z</time>
      </trkpt>
      <trkpt lat="46.71118" lon="5.67987">
        <ele>520.6</ele>
        <time>2020-12-19T13:04:22Z</time>
      </trkpt>
      <trkpt lat="46.71117" lon="5.67986">
        <ele>520.6</ele>
        <time>2020-12-19T13:04:23Z</time>
      </trkpt>
      <trkpt lat="46.71116" lon="5.67985">
        <ele>520.6</ele>
        <time>2020-12-19T13:04:24Z</time>
      </trkpt>
      <trkpt lat="46.71114" lon="5.67984">
        <ele>520.6</ele>
        <time>2020-12-19T13:04:25Z</time>
      </trkpt>
      <trkpt lat="46.71113" lon="5.67984">
        <ele>520.4</ele>
        <time>2020-12-19T13:04:26Z</time>
      </trkpt>
      <trkpt lat="46.71113" lon="5.67984">
        <ele>520.4</ele>
        <time>2020-12-19T13:04:27Z</time>
      </trkpt>
      <trkpt lat="46.71108" lon="5.67993">
        <ele>520.8</ele>
        <time>2020-12-19T13:04:40Z</time>
      </trkpt>
      <trkpt lat="46.71107" lon="5.67994">
        <ele>520.8</ele>
        <time>2020-12-19T13:04:41Z</time>
      </trkpt>
      <trkpt lat="46.71107" lon="5.67996">
        <ele>520.8</ele>
        <time>2020-12-19T13:04:42Z</time>
      </trkpt>
      <trkpt lat="46.71107" lon="5.67999">
        <ele>520.8</ele>
        <time>2020-12-19T13:04:43Z</time>
      </trkpt>
      <trkpt lat="46.71107" lon="5.68001">
        <ele>520.8</ele>
        <time>2020-12-19T13:04:44Z</time>
      </trkpt>
      <trkpt lat="46.71106" lon="5.68003">
        <ele>520.8</ele>
        <time>2020-12-19T13:04:45Z</time>
      </trkpt>
      <trkpt lat="46.71106" lon="5.68006">
        <ele>520.8</ele>
        <time>2020-12-19T13:04:46Z</time>
      </trkpt>
      <trkpt lat="46.71105" lon="5.68008">
        <ele>521</ele>
        <time>2020-12-19T13:04:47Z</time>
      </trkpt>
      <trkpt lat="46.71105" lon="5.68011">
        <ele>521</ele>
        <time>2020-12-19T13:04:48Z</time>
      </trkpt>
      <trkpt lat="46.71105" lon="5.68013">
        <ele>521</ele>
        <time>2020-12-19T13:04:49Z</time>
      </trkpt>
      <trkpt lat="46.71104" lon="5.68015">
        <ele>521</ele>
        <time>2020-12-19T13:04:50Z</time>
      </trkpt>
      <trkpt lat="46.71104" lon="5.68017">
        <ele>521</ele>
        <time>2020-12-19T13:04:51Z</time>
      </trkpt>
      <trkpt lat="46.71104" lon="5.68019">
        <ele>521</ele>
        <time>2020-12-19T13:04:52Z</time>
      </trkpt>
      <trkpt lat="46.71103" lon="5.68021">
        <ele>521</ele>
        <time>2020-12-19T13:04:53Z</time>
      </trkpt>
      <trkpt lat="46.71103" lon="5.68022">
        <ele>521</ele>
        <time>2020-12-19T13:04:54Z</time>
      </trkpt>
      <trkpt lat="46.71103" lon="5.68023">
        <ele>521.2</ele>
        <time>2020-12-19T13:04:55Z</time>
      </trkpt>
      <trkpt lat="46.71103" lon="5.68024">
        <ele>521.2</ele>
        <time>2020-12-19T13:04:56Z</time>
      </trkpt>
      <trkpt lat="46.71103" lon="5.68024">
        <ele>521.2</ele>
        <time>2020-12-19T13:04:57Z</time>
      </trkpt>
      <trkpt lat="46.71102" lon="5.68027">
        <ele>521.4</ele>
        <time>2020-12-19T13:05:00Z</time>
      </trkpt>
      <trkpt lat="46.71101" lon="5.68028">
        <ele>521.4</ele>
        <time>2020-12-19T13:05:01Z</time>
      </trkpt>
      <trkpt lat="46.71101" lon="5.68029">
        <ele>521.8</ele>
        <time>2020-12-19T13:05:02Z</time>
      </trkpt>
      <trkpt lat="46.71101" lon="5.6803">
        <ele>521.8</ele>
        <time>2020-12-19T13:05:03Z</time>
      </trkpt>
      <trkpt lat="46.71101" lon="5.68032">
        <ele>522</ele>
        <time>2020-12-19T13:05:04Z</time>
      </trkpt>
      <trkpt lat="46.711" lon="5.68033">
        <ele>522</ele>
        <time>2020-12-19T13:05:05Z</time>
      </trkpt>
      <trkpt lat="46.711" lon="5.68034">
        <ele>522</ele>
        <time>2020-12-19T13:05:06Z</time>
      </trkpt>
      <trkpt lat="46.711" lon="5.68036">
        <ele>522.2</ele>
        <time>2020-12-19T13:05:07Z</time>
      </trkpt>
      <trkpt lat="46.711" lon="5.68037">
        <ele>522.2</ele>
        <time>2020-12-19T13:05:08Z</time>
      </trkpt>
      <trkpt lat="46.711" lon="5.68038">
        <ele>522.2</ele>
        <time>2020-12-19T13:05:09Z</time>
      </trkpt>
      <trkpt lat="46.711" lon="5.68039">
        <ele>522.2</ele>
        <time>2020-12-19T13:05:10Z</time>
      </trkpt>
      <trkpt lat="46.711" lon="5.68041">
        <ele>522.4</ele>
        <time>2020-12-19T13:05:11Z</time>
      </trkpt>
      <trkpt lat="46.71099" lon="5.68041">
        <ele>522.4</ele>
        <time>2020-12-19T13:05:12Z</time>
      </trkpt>
      <trkpt lat="46.71099" lon="5.68043">
        <ele>522.4</ele>
        <time>2020-12-19T13:05:13Z</time>
      </trkpt>
      <trkpt lat="46.71099" lon="5.68044">
        <ele>522.4</ele>
        <time>2020-12-19T13:05:14Z</time>
      </trkpt>
      <trkpt lat="46.71099" lon="5.68045">
        <ele>522.4</ele>
        <time>2020-12-19T13:05:15Z</time>
      </trkpt>
      <trkpt lat="46.71098" lon="5.68047">
        <ele>522.4</ele>
        <time>2020-12-19T13:05:16Z</time>
      </trkpt>
      <trkpt lat="46.71098" lon="5.68048">
        <ele>522.4</ele>
        <time>2020-12-19T13:05:17Z</time>
      </trkpt>
      <trkpt lat="46.71098" lon="5.68049">
        <ele>522.4</ele>
        <time>2020-12-19T13:05:18Z</time>
      </trkpt>
      <trkpt lat="46.71098" lon="5.6805">
        <ele>522.4</ele>
        <time>2020-12-19T13:05:19Z</time>
      </trkpt>
      <trkpt lat="46.71097" lon="5.68051">
        <ele>522.4</ele>
        <time>2020-12-19T13:05:20Z</time>
      </trkpt>
      <trkpt lat="46.71097" lon="5.68053">
        <ele>522.4</ele>
        <time>2020-12-19T13:05:21Z</time>
      </trkpt>
      <trkpt lat="46.71097" lon="5.68054">
        <ele>522.6</ele>
        <time>2020-12-19T13:05:22Z</time>
      </trkpt>
      <trkpt lat="46.71096" lon="5.68055">
        <ele>522.6</ele>
        <time>2020-12-19T13:05:23Z</time>
      </trkpt>
      <trkpt lat="46.71096" lon="5.68057">
        <ele>522.6</ele>
        <time>2020-12-19T13:05:24Z</time>
      </trkpt>
      <trkpt lat="46.71096" lon="5.68058">
        <ele>522.6</ele>
        <time>2020-12-19T13:05:25Z</time>
      </trkpt>
      <trkpt lat="46.71095" lon="5.68059">
        <ele>522.6</ele>
        <time>2020-12-19T13:05:26Z</time>
      </trkpt>
      <trkpt lat="46.71094" lon="5.6806">
        <ele>522.6</ele>
        <time>2020-12-19T13:05:27Z</time>
      </trkpt>
      <trkpt lat="46.71094" lon="5.6806">
        <ele>522.6</ele>
        <time>2020-12-19T13:05:28Z</time>
      </trkpt>
      <trkpt lat="46.7109" lon="5.68062">
        <ele>522.8</ele>
        <time>2020-12-19T13:05:33Z</time>
      </trkpt>
      <trkpt lat="46.71088" lon="5.68062">
        <ele>522.8</ele>
        <time>2020-12-19T13:05:34Z</time>
      </trkpt>
      <trkpt lat="46.71086" lon="5.68061">
        <ele>522.8</ele>
        <time>2020-12-19T13:05:35Z</time>
      </trkpt>
      <trkpt lat="46.71085" lon="5.68061">
        <ele>522.6</ele>
        <time>2020-12-19T13:05:36Z</time>
      </trkpt>
      <trkpt lat="46.71083" lon="5.68061">
        <ele>522.6</ele>
        <time>2020-12-19T13:05:37Z</time>
      </trkpt>
      <trkpt lat="46.71082" lon="5.6806">
        <ele>522.6</ele>
        <time>2020-12-19T13:05:38Z</time>
      </trkpt>
      <trkpt lat="46.7108" lon="5.6806">
        <ele>522.6</ele>
        <time>2020-12-19T13:05:39Z</time>
      </trkpt>
      <trkpt lat="46.71078" lon="5.6806">
        <ele>522.6</ele>
        <time>2020-12-19T13:05:40Z</time>
      </trkpt>
      <trkpt lat="46.71077" lon="5.68059">
        <ele>522.6</ele>
        <time>2020-12-19T13:05:41Z</time>
      </trkpt>
      <trkpt lat="46.71075" lon="5.68058">
        <ele>522.6</ele>
        <time>2020-12-19T13:05:42Z</time>
      </trkpt>
      <trkpt lat="46.71074" lon="5.68057">
        <ele>522.6</ele>
        <time>2020-12-19T13:05:43Z</time>
      </trkpt>
      <trkpt lat="46.71073" lon="5.68055">
        <ele>522.6</ele>
        <time>2020-12-19T13:05:44Z</time>
      </trkpt>
      <trkpt lat="46.71072" lon="5.68053">
        <ele>522.6</ele>
        <time>2020-12-19T13:05:45Z</time>
      </trkpt>
      <trkpt lat="46.7107" lon="5.68052">
        <ele>522.6</ele>
        <time>2020-12-19T13:05:46Z</time>
      </trkpt>
      <trkpt lat="46.71069" lon="5.6805">
        <ele>522.6</ele>
        <time>2020-12-19T13:05:47Z</time>
      </trkpt>
      <trkpt lat="46.71067" lon="5.68049">
        <ele>522.6</ele>
        <time>2020-12-19T13:05:48Z</time>
      </trkpt>
      <trkpt lat="46.71065" lon="5.68049">
        <ele>522.6</ele>
        <time>2020-12-19T13:05:49Z</time>
      </trkpt>
      <trkpt lat="46.71064" lon="5.68049">
        <ele>522.8</ele>
        <time>2020-12-19T13:05:50Z</time>
      </trkpt>
      <trkpt lat="46.71063" lon="5.6805">
        <ele>522.8</ele>
        <time>2020-12-19T13:05:51Z</time>
      </trkpt>
      <trkpt lat="46.71062" lon="5.6805">
        <ele>522.8</ele>
        <time>2020-12-19T13:05:52Z</time>
      </trkpt>
      <trkpt lat="46.71062" lon="5.68051">
        <ele>522.8</ele>
        <time>2020-12-19T13:05:53Z</time>
      </trkpt>
      <trkpt lat="46.71061" lon="5.68051">
        <ele>522.8</ele>
        <time>2020-12-19T13:05:54Z</time>
      </trkpt>
      <trkpt lat="46.7106" lon="5.68051">
        <ele>523</ele>
        <time>2020-12-19T13:05:55Z</time>
      </trkpt>
      <trkpt lat="46.71059" lon="5.68051">
        <ele>523</ele>
        <time>2020-12-19T13:05:56Z</time>
      </trkpt>
      <trkpt lat="46.71059" lon="5.68052">
        <ele>523</ele>
        <time>2020-12-19T13:05:57Z</time>
      </trkpt>
      <trkpt lat="46.71058" lon="5.68052">
        <ele>523.4</ele>
        <time>2020-12-19T13:05:58Z</time>
      </trkpt>
      <trkpt lat="46.71058" lon="5.68052">
        <ele>523.4</ele>
        <time>2020-12-19T13:05:59Z</time>
      </trkpt>
      <trkpt lat="46.71057" lon="5.68053">
        <ele>523.4</ele>
        <time>2020-12-19T13:06:00Z</time>
      </trkpt>
      <trkpt lat="46.71056" lon="5.68053">
        <ele>523.6</ele>
        <time>2020-12-19T13:06:01Z</time>
      </trkpt>
      <trkpt lat="46.71055" lon="5.68053">
        <ele>523.6</ele>
        <time>2020-12-19T13:06:02Z</time>
      </trkpt>
      <trkpt lat="46.71054" lon="5.68054">
        <ele>523.6</ele>
        <time>2020-12-19T13:06:03Z</time>
      </trkpt>
      <trkpt lat="46.71053" lon="5.68054">
        <ele>523.6</ele>
        <time>2020-12-19T13:06:04Z</time>
      </trkpt>
      <trkpt lat="46.71053" lon="5.68054">
        <ele>523.8</ele>
        <time>2020-12-19T13:06:05Z</time>
      </trkpt>
      <trkpt lat="46.71052" lon="5.68054">
        <ele>523.8</ele>
        <time>2020-12-19T13:06:06Z</time>
      </trkpt>
      <trkpt lat="46.7105" lon="5.68054">
        <ele>523.8</ele>
        <time>2020-12-19T13:06:07Z</time>
      </trkpt>
      <trkpt lat="46.71049" lon="5.68055">
        <ele>524</ele>
        <time>2020-12-19T13:06:08Z</time>
      </trkpt>
      <trkpt lat="46.71048" lon="5.68055">
        <ele>524</ele>
        <time>2020-12-19T13:06:09Z</time>
      </trkpt>
      <trkpt lat="46.71047" lon="5.68055">
        <ele>524</ele>
        <time>2020-12-19T13:06:10Z</time>
      </trkpt>
      <trkpt lat="46.71046" lon="5.68055">
        <ele>524</ele>
        <time>2020-12-19T13:06:11Z</time>
      </trkpt>
      <trkpt lat="46.71045" lon="5.68055">
        <ele>524</ele>
        <time>2020-12-19T13:06:12Z</time>
      </trkpt>
      <trkpt lat="46.71044" lon="5.68055">
        <ele>524</ele>
        <time>2020-12-19T13:06:13Z</time>
      </trkpt>
      <trkpt lat="46.71043" lon="5.68055">
        <ele>524</ele>
        <time>2020-12-19T13:06:14Z</time>
      </trkpt>
      <trkpt lat="46.71042" lon="5.68056">
        <ele>524</ele>
        <time>2020-12-19T13:06:15Z</time>
      </trkpt>
      <trkpt lat="46.7104" lon="5.68056">
        <ele>523.8</ele>
        <time>2020-12-19T13:06:16Z</time>
      </trkpt>
      <trkpt lat="46.71039" lon="5.68057">
        <ele>523.8</ele>
        <time>2020-12-19T13:06:17Z</time>
      </trkpt>
      <trkpt lat="46.71038" lon="5.68058">
        <ele>523.8</ele>
        <time>2020-12-19T13:06:18Z</time>
      </trkpt>
      <trkpt lat="46.71037" lon="5.68058">
        <ele>523.8</ele>
        <time>2020-12-19T13:06:19Z</time>
      </trkpt>
      <trkpt lat="46.71036" lon="5.68059">
        <ele>523.8</ele>
        <time>2020-12-19T13:06:20Z</time>
      </trkpt>
      <trkpt lat="46.71034" lon="5.6806">
        <ele>523.8</ele>
        <time>2020-12-19T13:06:21Z</time>
      </trkpt>
      <trkpt lat="46.71033" lon="5.68061">
        <ele>523.8</ele>
        <time>2020-12-19T13:06:22Z</time>
      </trkpt>
      <trkpt lat="46.71032" lon="5.68061">
        <ele>523.8</ele>
        <time>2020-12-19T13:06:23Z</time>
      </trkpt>
      <trkpt lat="46.71031" lon="5.68062">
        <ele>523.8</ele>
        <time>2020-12-19T13:06:24Z</time>
      </trkpt>
      <trkpt lat="46.7103" lon="5.68062">
        <ele>523.8</ele>
        <time>2020-12-19T13:06:25Z</time>
      </trkpt>
      <trkpt lat="46.71029" lon="5.68063">
        <ele>523.8</ele>
        <time>2020-12-19T13:06:26Z</time>
      </trkpt>
      <trkpt lat="46.71028" lon="5.68063">
        <ele>523.8</ele>
        <time>2020-12-19T13:06:27Z</time>
      </trkpt>
      <trkpt lat="46.71027" lon="5.68064">
        <ele>523.8</ele>
        <time>2020-12-19T13:06:28Z</time>
      </trkpt>
      <trkpt lat="46.71027" lon="5.68064">
        <ele>523.8</ele>
        <time>2020-12-19T13:06:29Z</time>
      </trkpt>
      <trkpt lat="46.71026" lon="5.68065">
        <ele>523.8</ele>
        <time>2020-12-19T13:06:30Z</time>
      </trkpt>
      <trkpt lat="46.71025" lon="5.68065">
        <ele>523.8</ele>
        <time>2020-12-19T13:06:31Z</time>
      </trkpt>
      <trkpt lat="46.71024" lon="5.68065">
        <ele>524</ele>
        <time>2020-12-19T13:06:32Z</time>
      </trkpt>
      <trkpt lat="46.71023" lon="5.68066">
        <ele>524</ele>
        <time>2020-12-19T13:06:33Z</time>
      </trkpt>
      <trkpt lat="46.71022" lon="5.68066">
        <ele>524</ele>
        <time>2020-12-19T13:06:34Z</time>
      </trkpt>
      <trkpt lat="46.71022" lon="5.68066">
        <ele>524</ele>
        <time>2020-12-19T13:06:35Z</time>
      </trkpt>
      <trkpt lat="46.71021" lon="5.68066">
        <ele>524</ele>
        <time>2020-12-19T13:06:36Z</time>
      </trkpt>
      <trkpt lat="46.7102" lon="5.68067">
        <ele>524</ele>
        <time>2020-12-19T13:06:37Z</time>
      </trkpt>
      <trkpt lat="46.71019" lon="5.68067">
        <ele>524</ele>
        <time>2020-12-19T13:06:38Z</time>
      </trkpt>
      <trkpt lat="46.71019" lon="5.68068">
        <ele>524</ele>
        <time>2020-12-19T13:06:39Z</time>
      </trkpt>
      <trkpt lat="46.71018" lon="5.68069">
        <ele>524</ele>
        <time>2020-12-19T13:06:40Z</time>
      </trkpt>
      <trkpt lat="46.71017" lon="5.68069">
        <ele>524</ele>
        <time>2020-12-19T13:06:41Z</time>
      </trkpt>
      <trkpt lat="46.71016" lon="5.6807">
        <ele>524</ele>
        <time>2020-12-19T13:06:42Z</time>
      </trkpt>
      <trkpt lat="46.71015" lon="5.6807">
        <ele>524</ele>
        <time>2020-12-19T13:06:43Z</time>
      </trkpt>
      <trkpt lat="46.71015" lon="5.6807">
        <ele>524</ele>
        <time>2020-12-19T13:06:44Z</time>
      </trkpt>
      <trkpt lat="46.71015" lon="5.6807">
        <ele>524</ele>
        <time>2020-12-19T13:06:45Z</time>
      </trkpt>
      <trkpt lat="46.71013" lon="5.68072">
        <ele>524</ele>
        <time>2020-12-19T13:06:51Z</time>
      </trkpt>
      <trkpt lat="46.71012" lon="5.68072">
        <ele>524</ele>
        <time>2020-12-19T13:06:52Z</time>
      </trkpt>
      <trkpt lat="46.71011" lon="5.68073">
        <ele>524</ele>
        <time>2020-12-19T13:06:53Z</time>
      </trkpt>
      <trkpt lat="46.71011" lon="5.68073">
        <ele>524</ele>
        <time>2020-12-19T13:06:54Z</time>
      </trkpt>
      <trkpt lat="46.7101" lon="5.68074">
        <ele>524</ele>
        <time>2020-12-19T13:06:55Z</time>
      </trkpt>
      <trkpt lat="46.71009" lon="5.68074">
        <ele>524</ele>
        <time>2020-12-19T13:06:56Z</time>
      </trkpt>
      <trkpt lat="46.71008" lon="5.68075">
        <ele>524</ele>
        <time>2020-12-19T13:06:57Z</time>
      </trkpt>
      <trkpt lat="46.71007" lon="5.68075">
        <ele>524</ele>
        <time>2020-12-19T13:06:58Z</time>
      </trkpt>
      <trkpt lat="46.71006" lon="5.68076">
        <ele>524.2</ele>
        <time>2020-12-19T13:06:59Z</time>
      </trkpt>
      <trkpt lat="46.71006" lon="5.68077">
        <ele>524.2</ele>
        <time>2020-12-19T13:07:00Z</time>
      </trkpt>
      <trkpt lat="46.71005" lon="5.68078">
        <ele>524.2</ele>
        <time>2020-12-19T13:07:01Z</time>
      </trkpt>
      <trkpt lat="46.71004" lon="5.68079">
        <ele>524.6</ele>
        <time>2020-12-19T13:07:02Z</time>
      </trkpt>
      <trkpt lat="46.71003" lon="5.6808">
        <ele>524.6</ele>
        <time>2020-12-19T13:07:03Z</time>
      </trkpt>
      <trkpt lat="46.71003" lon="5.68081">
        <ele>524.6</ele>
        <time>2020-12-19T13:07:04Z</time>
      </trkpt>
      <trkpt lat="46.71002" lon="5.68081">
        <ele>524.6</ele>
        <time>2020-12-19T13:07:05Z</time>
      </trkpt>
      <trkpt lat="46.71001" lon="5.68082">
        <ele>524.6</ele>
        <time>2020-12-19T13:07:06Z</time>
      </trkpt>
      <trkpt lat="46.71001" lon="5.68082">
        <ele>524.6</ele>
        <time>2020-12-19T13:07:07Z</time>
      </trkpt>
      <trkpt lat="46.71001" lon="5.68082">
        <ele>524.6</ele>
        <time>2020-12-19T13:07:08Z</time>
      </trkpt>
      <trkpt lat="46.70999" lon="5.68083">
        <ele>524.6</ele>
        <time>2020-12-19T13:07:13Z</time>
      </trkpt>
      <trkpt lat="46.70999" lon="5.68083">
        <ele>524.8</ele>
        <time>2020-12-19T13:07:14Z</time>
      </trkpt>
      <trkpt lat="46.70999" lon="5.68083">
        <ele>524.8</ele>
        <time>2020-12-19T13:07:15Z</time>
      </trkpt>
      <trkpt lat="46.70997" lon="5.68084">
        <ele>524.8</ele>
        <time>2020-12-19T13:07:19Z</time>
      </trkpt>
      <trkpt lat="46.70996" lon="5.68085">
        <ele>524.8</ele>
        <time>2020-12-19T13:07:20Z</time>
      </trkpt>
      <trkpt lat="46.70994" lon="5.68085">
        <ele>524.8</ele>
        <time>2020-12-19T13:07:21Z</time>
      </trkpt>
      <trkpt lat="46.70993" lon="5.68086">
        <ele>524.8</ele>
        <time>2020-12-19T13:07:22Z</time>
      </trkpt>
      <trkpt lat="46.70992" lon="5.68086">
        <ele>524.8</ele>
        <time>2020-12-19T13:07:23Z</time>
      </trkpt>
      <trkpt lat="46.7099" lon="5.68086">
        <ele>524.8</ele>
        <time>2020-12-19T13:07:24Z</time>
      </trkpt>
      <trkpt lat="46.70989" lon="5.68087">
        <ele>524.8</ele>
        <time>2020-12-19T13:07:25Z</time>
      </trkpt>
      <trkpt lat="46.70987" lon="5.68086">
        <ele>524.8</ele>
        <time>2020-12-19T13:07:26Z</time>
      </trkpt>
      <trkpt lat="46.70985" lon="5.68086">
        <ele>524.8</ele>
        <time>2020-12-19T13:07:27Z</time>
      </trkpt>
      <trkpt lat="46.70984" lon="5.68086">
        <ele>525</ele>
        <time>2020-12-19T13:07:28Z</time>
      </trkpt>
      <trkpt lat="46.70983" lon="5.68085">
        <ele>525</ele>
        <time>2020-12-19T13:07:29Z</time>
      </trkpt>
      <trkpt lat="46.70981" lon="5.68085">
        <ele>525</ele>
        <time>2020-12-19T13:07:30Z</time>
      </trkpt>
      <trkpt lat="46.7098" lon="5.68084">
        <ele>525</ele>
        <time>2020-12-19T13:07:31Z</time>
      </trkpt>
      <trkpt lat="46.70979" lon="5.68084">
        <ele>525</ele>
        <time>2020-12-19T13:07:32Z</time>
      </trkpt>
      <trkpt lat="46.70979" lon="5.68084">
        <ele>525</ele>
        <time>2020-12-19T13:07:33Z</time>
      </trkpt>
      <trkpt lat="46.70977" lon="5.68084">
        <ele>525</ele>
        <time>2020-12-19T13:07:36Z</time>
      </trkpt>
      <trkpt lat="46.70977" lon="5.68084">
        <ele>524.8</ele>
        <time>2020-12-19T13:07:37Z</time>
      </trkpt>
      <trkpt lat="46.70976" lon="5.68084">
        <ele>524.8</ele>
        <time>2020-12-19T13:07:38Z</time>
      </trkpt>
      <trkpt lat="46.70974" lon="5.68084">
        <ele>524.8</ele>
        <time>2020-12-19T13:07:45Z</time>
      </trkpt>
      <trkpt lat="46.70974" lon="5.68084">
        <ele>524.8</ele>
        <time>2020-12-19T13:07:46Z</time>
      </trkpt>
      <trkpt lat="46.70973" lon="5.68084">
        <ele>524.8</ele>
        <time>2020-12-19T13:07:47Z</time>
      </trkpt>
      <trkpt lat="46.70972" lon="5.68084">
        <ele>524.8</ele>
        <time>2020-12-19T13:07:48Z</time>
      </trkpt>
      <trkpt lat="46.70971" lon="5.68084">
        <ele>524.8</ele>
        <time>2020-12-19T13:07:49Z</time>
      </trkpt>
      <trkpt lat="46.7097" lon="5.68084">
        <ele>524.8</ele>
        <time>2020-12-19T13:07:50Z</time>
      </trkpt>
      <trkpt lat="46.70969" lon="5.68084">
        <ele>524.8</ele>
        <time>2020-12-19T13:07:51Z</time>
      </trkpt>
      <trkpt lat="46.70967" lon="5.68084">
        <ele>524.8</ele>
        <time>2020-12-19T13:07:52Z</time>
      </trkpt>
      <trkpt lat="46.70966" lon="5.68084">
        <ele>524.6</ele>
        <time>2020-12-19T13:07:53Z</time>
      </trkpt>
      <trkpt lat="46.70965" lon="5.68084">
        <ele>524.6</ele>
        <time>2020-12-19T13:07:54Z</time>
      </trkpt>
      <trkpt lat="46.70964" lon="5.68084">
        <ele>524.6</ele>
        <time>2020-12-19T13:07:55Z</time>
      </trkpt>
      <trkpt lat="46.70963" lon="5.68084">
        <ele>524.6</ele>
        <time>2020-12-19T13:07:56Z</time>
      </trkpt>
      <trkpt lat="46.70962" lon="5.68084">
        <ele>524.6</ele>
        <time>2020-12-19T13:07:57Z</time>
      </trkpt>
      <trkpt lat="46.70961" lon="5.68084">
        <ele>524.6</ele>
        <time>2020-12-19T13:07:58Z</time>
      </trkpt>
      <trkpt lat="46.7096" lon="5.68084">
        <ele>524.6</ele>
        <time>2020-12-19T13:07:59Z</time>
      </trkpt>
      <trkpt lat="46.70959" lon="5.68083">
        <ele>524.6</ele>
        <time>2020-12-19T13:08:00Z</time>
      </trkpt>
      <trkpt lat="46.70958" lon="5.68083">
        <ele>524.6</ele>
        <time>2020-12-19T13:08:01Z</time>
      </trkpt>
      <trkpt lat="46.70957" lon="5.68083">
        <ele>524.4</ele>
        <time>2020-12-19T13:08:02Z</time>
      </trkpt>
      <trkpt lat="46.70956" lon="5.68083">
        <ele>524.4</ele>
        <time>2020-12-19T13:08:03Z</time>
      </trkpt>
      <trkpt lat="46.70955" lon="5.68083">
        <ele>524.4</ele>
        <time>2020-12-19T13:08:04Z</time>
      </trkpt>
      <trkpt lat="46.70954" lon="5.68084">
        <ele>524.4</ele>
        <time>2020-12-19T13:08:05Z</time>
      </trkpt>
      <trkpt lat="46.70953" lon="5.68084">
        <ele>524.4</ele>
        <time>2020-12-19T13:08:06Z</time>
      </trkpt>
      <trkpt lat="46.70952" lon="5.68084">
        <ele>524.4</ele>
        <time>2020-12-19T13:08:07Z</time>
      </trkpt>
      <trkpt lat="46.70951" lon="5.68084">
        <ele>524.4</ele>
        <time>2020-12-19T13:08:08Z</time>
      </trkpt>
      <trkpt lat="46.7095" lon="5.68084">
        <ele>524.4</ele>
        <time>2020-12-19T13:08:09Z</time>
      </trkpt>
      <trkpt lat="46.70949" lon="5.68085">
        <ele>524.4</ele>
        <time>2020-12-19T13:08:10Z</time>
      </trkpt>
      <trkpt lat="46.70948" lon="5.68085">
        <ele>524.4</ele>
        <time>2020-12-19T13:08:11Z</time>
      </trkpt>
      <trkpt lat="46.70947" lon="5.68085">
        <ele>524.4</ele>
        <time>2020-12-19T13:08:12Z</time>
      </trkpt>
      <trkpt lat="46.70946" lon="5.68085">
        <ele>524.4</ele>
        <time>2020-12-19T13:08:13Z</time>
      </trkpt>
      <trkpt lat="46.70945" lon="5.68085">
        <ele>524.4</ele>
        <time>2020-12-19T13:08:14Z</time>
      </trkpt>
      <trkpt lat="46.70944" lon="5.68085">
        <ele>524.4</ele>
        <time>2020-12-19T13:08:15Z</time>
      </trkpt>
      <trkpt lat="46.70943" lon="5.68085">
        <ele>524.4</ele>
        <time>2020-12-19T13:08:16Z</time>
      </trkpt>
      <trkpt lat="46.70942" lon="5.68086">
        <ele>524.2</ele>
        <time>2020-12-19T13:08:17Z</time>
      </trkpt>
      <trkpt lat="46.70941" lon="5.68086">
        <ele>524.2</ele>
        <time>2020-12-19T13:08:18Z</time>
      </trkpt>
      <trkpt lat="46.7094" lon="5.68087">
        <ele>524.2</ele>
        <time>2020-12-19T13:08:19Z</time>
      </trkpt>
      <trkpt lat="46.70939" lon="5.68088">
        <ele>524.2</ele>
        <time>2020-12-19T13:08:20Z</time>
      </trkpt>
      <trkpt lat="46.70938" lon="5.68088">
        <ele>524.2</ele>
        <time>2020-12-19T13:08:21Z</time>
      </trkpt>
      <trkpt lat="46.70937" lon="5.68089">
        <ele>524.2</ele>
        <time>2020-12-19T13:08:22Z</time>
      </trkpt>
      <trkpt lat="46.70937" lon="5.6809">
        <ele>524.2</ele>
        <time>2020-12-19T13:08:23Z</time>
      </trkpt>
      <trkpt lat="46.70936" lon="5.68091">
        <ele>524.2</ele>
        <time>2020-12-19T13:08:24Z</time>
      </trkpt>
      <trkpt lat="46.70935" lon="5.68092">
        <ele>524.2</ele>
        <time>2020-12-19T13:08:25Z</time>
      </trkpt>
      <trkpt lat="46.70934" lon="5.68093">
        <ele>524.2</ele>
        <time>2020-12-19T13:08:26Z</time>
      </trkpt>
      <trkpt lat="46.70933" lon="5.68094">
        <ele>524.2</ele>
        <time>2020-12-19T13:08:27Z</time>
      </trkpt>
      <trkpt lat="46.70933" lon="5.68095">
        <ele>524.2</ele>
        <time>2020-12-19T13:08:28Z</time>
      </trkpt>
      <trkpt lat="46.70932" lon="5.68096">
        <ele>524.2</ele>
        <time>2020-12-19T13:08:29Z</time>
      </trkpt>
      <trkpt lat="46.70931" lon="5.68097">
        <ele>524.2</ele>
        <time>2020-12-19T13:08:30Z</time>
      </trkpt>
      <trkpt lat="46.7093" lon="5.68098">
        <ele>524.2</ele>
        <time>2020-12-19T13:08:31Z</time>
      </trkpt>
      <trkpt lat="46.70929" lon="5.68098">
        <ele>524.2</ele>
        <time>2020-12-19T13:08:32Z</time>
      </trkpt>
      <trkpt lat="46.70928" lon="5.68099">
        <ele>524.2</ele>
        <time>2020-12-19T13:08:33Z</time>
      </trkpt>
      <trkpt lat="46.70927" lon="5.681">
        <ele>524.2</ele>
        <time>2020-12-19T13:08:34Z</time>
      </trkpt>
      <trkpt lat="46.70926" lon="5.681">
        <ele>524.2</ele>
        <time>2020-12-19T13:08:35Z</time>
      </trkpt>
      <trkpt lat="46.70925" lon="5.68101">
        <ele>524.2</ele>
        <time>2020-12-19T13:08:36Z</time>
      </trkpt>
      <trkpt lat="46.70924" lon="5.68102">
        <ele>524.2</ele>
        <time>2020-12-19T13:08:37Z</time>
      </trkpt>
      <trkpt lat="46.70923" lon="5.68103">
        <ele>524.2</ele>
        <time>2020-12-19T13:08:38Z</time>
      </trkpt>
      <trkpt lat="46.70922" lon="5.68103">
        <ele>524</ele>
        <time>2020-12-19T13:08:39Z</time>
      </trkpt>
      <trkpt lat="46.70921" lon="5.68104">
        <ele>524</ele>
        <time>2020-12-19T13:08:40Z</time>
      </trkpt>
      <trkpt lat="46.7092" lon="5.68105">
        <ele>524</ele>
        <time>2020-12-19T13:08:41Z</time>
      </trkpt>
      <trkpt lat="46.70919" lon="5.68107">
        <ele>524</ele>
        <time>2020-12-19T13:08:42Z</time>
      </trkpt>
      <trkpt lat="46.70918" lon="5.68107">
        <ele>523.6</ele>
        <time>2020-12-19T13:08:43Z</time>
      </trkpt>
      <trkpt lat="46.70917" lon="5.68108">
        <ele>523.6</ele>
        <time>2020-12-19T13:08:44Z</time>
      </trkpt>
      <trkpt lat="46.70916" lon="5.68108">
        <ele>523.6</ele>
        <time>2020-12-19T13:08:45Z</time>
      </trkpt>
      <trkpt lat="46.70916" lon="5.68107">
        <ele>523.6</ele>
        <time>2020-12-19T13:08:46Z</time>
      </trkpt>
      <trkpt lat="46.70915" lon="5.68106">
        <ele>523.6</ele>
        <time>2020-12-19T13:08:47Z</time>
      </trkpt>
      <trkpt lat="46.70915" lon="5.68105">
        <ele>523.6</ele>
        <time>2020-12-19T13:08:48Z</time>
      </trkpt>
      <trkpt lat="46.70915" lon="5.68105">
        <ele>523.6</ele>
        <time>2020-12-19T13:08:49Z</time>
      </trkpt>
      <trkpt lat="46.70915" lon="5.68103">
        <ele>523.4</ele>
        <time>2020-12-19T13:08:52Z</time>
      </trkpt>
      <trkpt lat="46.70914" lon="5.68101">
        <ele>523.4</ele>
        <time>2020-12-19T13:08:53Z</time>
      </trkpt>
      <trkpt lat="46.70913" lon="5.68099">
        <ele>523.4</ele>
        <time>2020-12-19T13:08:54Z</time>
      </trkpt>
      <trkpt lat="46.70913" lon="5.68097">
        <ele>523.4</ele>
        <time>2020-12-19T13:08:55Z</time>
      </trkpt>
      <trkpt lat="46.70912" lon="5.68094">
        <ele>523.2</ele>
        <time>2020-12-19T13:08:56Z</time>
      </trkpt>
      <trkpt lat="46.70911" lon="5.68091">
        <ele>523.2</ele>
        <time>2020-12-19T13:08:57Z</time>
      </trkpt>
      <trkpt lat="46.7091" lon="5.68088">
        <ele>523.2</ele>
        <time>2020-12-19T13:08:58Z</time>
      </trkpt>
      <trkpt lat="46.70909" lon="5.68084">
        <ele>523.2</ele>
        <time>2020-12-19T13:08:59Z</time>
      </trkpt>
      <trkpt lat="46.70908" lon="5.68081">
        <ele>523.2</ele>
        <time>2020-12-19T13:09:00Z</time>
      </trkpt>
      <trkpt lat="46.70907" lon="5.68078">
        <ele>523</ele>
        <time>2020-12-19T13:09:01Z</time>
      </trkpt>
      <trkpt lat="46.70906" lon="5.68075">
        <ele>523</ele>
        <time>2020-12-19T13:09:02Z</time>
      </trkpt>
      <trkpt lat="46.70904" lon="5.68073">
        <ele>523</ele>
        <time>2020-12-19T13:09:03Z</time>
      </trkpt>
      <trkpt lat="46.70902" lon="5.6807">
        <ele>522.8</ele>
        <time>2020-12-19T13:09:04Z</time>
      </trkpt>
      <trkpt lat="46.70901" lon="5.68068">
        <ele>522.8</ele>
        <time>2020-12-19T13:09:05Z</time>
      </trkpt>
      <trkpt lat="46.709" lon="5.68066">
        <ele>522.8</ele>
        <time>2020-12-19T13:09:06Z</time>
      </trkpt>
      <trkpt lat="46.70899" lon="5.68063">
        <ele>522.8</ele>
        <time>2020-12-19T13:09:07Z</time>
      </trkpt>
      <trkpt lat="46.70898" lon="5.68061">
        <ele>522.4</ele>
        <time>2020-12-19T13:09:08Z</time>
      </trkpt>
      <trkpt lat="46.70897" lon="5.68059">
        <ele>522.4</ele>
        <time>2020-12-19T13:09:09Z</time>
      </trkpt>
      <trkpt lat="46.70896" lon="5.68056">
        <ele>522.4</ele>
        <time>2020-12-19T13:09:10Z</time>
      </trkpt>
      <trkpt lat="46.70895" lon="5.68054">
        <ele>522.2</ele>
        <time>2020-12-19T13:09:11Z</time>
      </trkpt>
      <trkpt lat="46.70895" lon="5.68052">
        <ele>522.2</ele>
        <time>2020-12-19T13:09:12Z</time>
      </trkpt>
      <trkpt lat="46.70894" lon="5.6805">
        <ele>522.2</ele>
        <time>2020-12-19T13:09:13Z</time>
      </trkpt>
      <trkpt lat="46.70893" lon="5.68047">
        <ele>522.2</ele>
        <time>2020-12-19T13:09:14Z</time>
      </trkpt>
      <trkpt lat="46.70893" lon="5.68044">
        <ele>522.2</ele>
        <time>2020-12-19T13:09:15Z</time>
      </trkpt>
      <trkpt lat="46.70892" lon="5.68042">
        <ele>522.2</ele>
        <time>2020-12-19T13:09:16Z</time>
      </trkpt>
      <trkpt lat="46.70892" lon="5.68039">
        <ele>522.2</ele>
        <time>2020-12-19T13:09:17Z</time>
      </trkpt>
      <trkpt lat="46.70892" lon="5.68037">
        <ele>522.2</ele>
        <time>2020-12-19T13:09:18Z</time>
      </trkpt>
      <trkpt lat="46.70892" lon="5.68035">
        <ele>522.2</ele>
        <time>2020-12-19T13:09:19Z</time>
      </trkpt>
      <trkpt lat="46.70892" lon="5.68033">
        <ele>522.2</ele>
        <time>2020-12-19T13:09:20Z</time>
      </trkpt>
      <trkpt lat="46.70893" lon="5.68031">
        <ele>522.2</ele>
        <time>2020-12-19T13:09:21Z</time>
      </trkpt>
      <trkpt lat="46.70894" lon="5.6803">
        <ele>522</ele>
        <time>2020-12-19T13:09:22Z</time>
      </trkpt>
      <trkpt lat="46.70896" lon="5.68029">
        <ele>522</ele>
        <time>2020-12-19T13:09:23Z</time>
      </trkpt>
      <trkpt lat="46.70897" lon="5.68028">
        <ele>522</ele>
        <time>2020-12-19T13:09:24Z</time>
      </trkpt>
      <trkpt lat="46.70899" lon="5.68027">
        <ele>522</ele>
        <time>2020-12-19T13:09:25Z</time>
      </trkpt>
      <trkpt lat="46.70901" lon="5.68026">
        <ele>522</ele>
        <time>2020-12-19T13:09:26Z</time>
      </trkpt>
      <trkpt lat="46.70903" lon="5.68024">
        <ele>521.8</ele>
        <time>2020-12-19T13:09:27Z</time>
      </trkpt>
      <trkpt lat="46.70905" lon="5.68023">
        <ele>521.8</ele>
        <time>2020-12-19T13:09:28Z</time>
      </trkpt>
      <trkpt lat="46.70907" lon="5.68022">
        <ele>521.8</ele>
        <time>2020-12-19T13:09:29Z</time>
      </trkpt>
      <trkpt lat="46.70909" lon="5.6802">
        <ele>521.8</ele>
        <time>2020-12-19T13:09:30Z</time>
      </trkpt>
      <trkpt lat="46.70911" lon="5.68019">
        <ele>521.8</ele>
        <time>2020-12-19T13:09:31Z</time>
      </trkpt>
      <trkpt lat="46.70913" lon="5.68017">
        <ele>521.8</ele>
        <time>2020-12-19T13:09:32Z</time>
      </trkpt>
      <trkpt lat="46.70915" lon="5.68016">
        <ele>521.8</ele>
        <time>2020-12-19T13:09:33Z</time>
      </trkpt>
      <trkpt lat="46.70917" lon="5.68015">
        <ele>521.8</ele>
        <time>2020-12-19T13:09:34Z</time>
      </trkpt>
      <trkpt lat="46.70919" lon="5.68015">
        <ele>521.8</ele>
        <time>2020-12-19T13:09:35Z</time>
      </trkpt>
      <trkpt lat="46.70921" lon="5.68014">
        <ele>521.8</ele>
        <time>2020-12-19T13:09:36Z</time>
      </trkpt>
      <trkpt lat="46.70922" lon="5.68013">
        <ele>521.8</ele>
        <time>2020-12-19T13:09:37Z</time>
      </trkpt>
      <trkpt lat="46.70924" lon="5.68012">
        <ele>521.8</ele>
        <time>2020-12-19T13:09:38Z</time>
      </trkpt>
      <trkpt lat="46.70926" lon="5.68011">
        <ele>521.8</ele>
        <time>2020-12-19T13:09:39Z</time>
      </trkpt>
      <trkpt lat="46.70927" lon="5.68011">
        <ele>521.8</ele>
        <time>2020-12-19T13:09:40Z</time>
      </trkpt>
      <trkpt lat="46.70929" lon="5.6801">
        <ele>521.8</ele>
        <time>2020-12-19T13:09:41Z</time>
      </trkpt>
      <trkpt lat="46.70931" lon="5.68009">
        <ele>521.8</ele>
        <time>2020-12-19T13:09:42Z</time>
      </trkpt>
      <trkpt lat="46.70933" lon="5.68008">
        <ele>521.8</ele>
        <time>2020-12-19T13:09:43Z</time>
      </trkpt>
      <trkpt lat="46.70934" lon="5.68006">
        <ele>521.8</ele>
        <time>2020-12-19T13:09:44Z</time>
      </trkpt>
      <trkpt lat="46.70936" lon="5.68005">
        <ele>521.8</ele>
        <time>2020-12-19T13:09:45Z</time>
      </trkpt>
      <trkpt lat="46.70938" lon="5.68004">
        <ele>521.8</ele>
        <time>2020-12-19T13:09:46Z</time>
      </trkpt>
      <trkpt lat="46.7094" lon="5.68002">
        <ele>521.8</ele>
        <time>2020-12-19T13:09:47Z</time>
      </trkpt>
      <trkpt lat="46.70941" lon="5.68002">
        <ele>521.8</ele>
        <time>2020-12-19T13:09:48Z</time>
      </trkpt>
      <trkpt lat="46.70943" lon="5.68001">
        <ele>521.8</ele>
        <time>2020-12-19T13:09:49Z</time>
      </trkpt>
      <trkpt lat="46.70946" lon="5.68">
        <ele>521.8</ele>
        <time>2020-12-19T13:09:50Z</time>
      </trkpt>
      <trkpt lat="46.70948" lon="5.67998">
        <ele>521.8</ele>
        <time>2020-12-19T13:09:51Z</time>
      </trkpt>
      <trkpt lat="46.7095" lon="5.67996">
        <ele>521.8</ele>
        <time>2020-12-19T13:09:52Z</time>
      </trkpt>
      <trkpt lat="46.70952" lon="5.67995">
        <ele>521.8</ele>
        <time>2020-12-19T13:09:53Z</time>
      </trkpt>
      <trkpt lat="46.70955" lon="5.67993">
        <ele>521.6</ele>
        <time>2020-12-19T13:09:54Z</time>
      </trkpt>
      <trkpt lat="46.70957" lon="5.67991">
        <ele>521.6</ele>
        <time>2020-12-19T13:09:55Z</time>
      </trkpt>
      <trkpt lat="46.7096" lon="5.67989">
        <ele>521.6</ele>
        <time>2020-12-19T13:09:56Z</time>
      </trkpt>
      <trkpt lat="46.70962" lon="5.67987">
        <ele>521.4</ele>
        <time>2020-12-19T13:09:57Z</time>
      </trkpt>
      <trkpt lat="46.70964" lon="5.67985">
        <ele>521.4</ele>
        <time>2020-12-19T13:09:58Z</time>
      </trkpt>
      <trkpt lat="46.70967" lon="5.67983">
        <ele>521.4</ele>
        <time>2020-12-19T13:09:59Z</time>
      </trkpt>
      <trkpt lat="46.70969" lon="5.67981">
        <ele>521.4</ele>
        <time>2020-12-19T13:10:00Z</time>
      </trkpt>
      <trkpt lat="46.70971" lon="5.67979">
        <ele>521.4</ele>
        <time>2020-12-19T13:10:01Z</time>
      </trkpt>
      <trkpt lat="46.70973" lon="5.67976">
        <ele>521.2</ele>
        <time>2020-12-19T13:10:02Z</time>
      </trkpt>
      <trkpt lat="46.70975" lon="5.67974">
        <ele>521.2</ele>
        <time>2020-12-19T13:10:03Z</time>
      </trkpt>
      <trkpt lat="46.70977" lon="5.67972">
        <ele>521.2</ele>
        <time>2020-12-19T13:10:04Z</time>
      </trkpt>
      <trkpt lat="46.70978" lon="5.6797">
        <ele>521.2</ele>
        <time>2020-12-19T13:10:05Z</time>
      </trkpt>
      <trkpt lat="46.70979" lon="5.67968">
        <ele>521.2</ele>
        <time>2020-12-19T13:10:06Z</time>
      </trkpt>
      <trkpt lat="46.70981" lon="5.67966">
        <ele>521.2</ele>
        <time>2020-12-19T13:10:07Z</time>
      </trkpt>
      <trkpt lat="46.70983" lon="5.67963">
        <ele>521.2</ele>
        <time>2020-12-19T13:10:08Z</time>
      </trkpt>
      <trkpt lat="46.70985" lon="5.6796">
        <ele>521.2</ele>
        <time>2020-12-19T13:10:09Z</time>
      </trkpt>
      <trkpt lat="46.70987" lon="5.67958">
        <ele>521.2</ele>
        <time>2020-12-19T13:10:10Z</time>
      </trkpt>
      <trkpt lat="46.70988" lon="5.67957">
        <ele>521.2</ele>
        <time>2020-12-19T13:10:11Z</time>
      </trkpt>
      <trkpt lat="46.70989" lon="5.67955">
        <ele>521.4</ele>
        <time>2020-12-19T13:10:12Z</time>
      </trkpt>
      <trkpt lat="46.7099" lon="5.67953">
        <ele>521.4</ele>
        <time>2020-12-19T13:10:13Z</time>
      </trkpt>
      <trkpt lat="46.70992" lon="5.67951">
        <ele>521.4</ele>
        <time>2020-12-19T13:10:14Z</time>
      </trkpt>
      <trkpt lat="46.70993" lon="5.67949">
        <ele>521.4</ele>
        <time>2020-12-19T13:10:15Z</time>
      </trkpt>
      <trkpt lat="46.70994" lon="5.67947">
        <ele>521.6</ele>
        <time>2020-12-19T13:10:16Z</time>
      </trkpt>
      <trkpt lat="46.70995" lon="5.67944">
        <ele>521.6</ele>
        <time>2020-12-19T13:10:17Z</time>
      </trkpt>
      <trkpt lat="46.70996" lon="5.67942">
        <ele>521.6</ele>
        <time>2020-12-19T13:10:18Z</time>
      </trkpt>
      <trkpt lat="46.70998" lon="5.67941">
        <ele>521.6</ele>
        <time>2020-12-19T13:10:19Z</time>
      </trkpt>
      <trkpt lat="46.70999" lon="5.67939">
        <ele>521.6</ele>
        <time>2020-12-19T13:10:20Z</time>
      </trkpt>
      <trkpt lat="46.71" lon="5.67938">
        <ele>521.6</ele>
        <time>2020-12-19T13:10:21Z</time>
      </trkpt>
      <trkpt lat="46.71002" lon="5.67936">
        <ele>521.6</ele>
        <time>2020-12-19T13:10:22Z</time>
      </trkpt>
      <trkpt lat="46.71003" lon="5.67934">
        <ele>521.6</ele>
        <time>2020-12-19T13:10:23Z</time>
      </trkpt>
      <trkpt lat="46.71005" lon="5.67932">
        <ele>521.6</ele>
        <time>2020-12-19T13:10:24Z</time>
      </trkpt>
      <trkpt lat="46.71006" lon="5.6793">
        <ele>521.6</ele>
        <time>2020-12-19T13:10:25Z</time>
      </trkpt>
      <trkpt lat="46.71008" lon="5.67928">
        <ele>521.6</ele>
        <time>2020-12-19T13:10:26Z</time>
      </trkpt>
      <trkpt lat="46.71009" lon="5.67926">
        <ele>521.8</ele>
        <time>2020-12-19T13:10:27Z</time>
      </trkpt>
      <trkpt lat="46.7101" lon="5.67923">
        <ele>521.8</ele>
        <time>2020-12-19T13:10:28Z</time>
      </trkpt>
      <trkpt lat="46.71011" lon="5.67921">
        <ele>521.8</ele>
        <time>2020-12-19T13:10:29Z</time>
      </trkpt>
      <trkpt lat="46.71012" lon="5.67919">
        <ele>521.8</ele>
        <time>2020-12-19T13:10:30Z</time>
      </trkpt>
      <trkpt lat="46.71012" lon="5.67918">
        <ele>521.8</ele>
        <time>2020-12-19T13:10:31Z</time>
      </trkpt>
      <trkpt lat="46.71012" lon="5.67917">
        <ele>521.8</ele>
        <time>2020-12-19T13:10:32Z</time>
      </trkpt>
      <trkpt lat="46.71015" lon="5.67913">
        <ele>522</ele>
        <time>2020-12-19T13:14:52Z</time>
      </trkpt>
      <trkpt lat="46.71016" lon="5.67912">
        <ele>522</ele>
        <time>2020-12-19T13:14:53Z</time>
      </trkpt>
      <trkpt lat="46.71016" lon="5.67911">
        <ele>522</ele>
        <time>2020-12-19T13:14:54Z</time>
      </trkpt>
      <trkpt lat="46.71018" lon="5.67909">
        <ele>522</ele>
        <time>2020-12-19T13:14:55Z</time>
      </trkpt>
      <trkpt lat="46.71019" lon="5.67907">
        <ele>522</ele>
        <time>2020-12-19T13:14:56Z</time>
      </trkpt>
      <trkpt lat="46.7102" lon="5.67905">
        <ele>522</ele>
        <time>2020-12-19T13:14:57Z</time>
      </trkpt>
      <trkpt lat="46.71021" lon="5.67902">
        <ele>522</ele>
        <time>2020-12-19T13:14:58Z</time>
      </trkpt>
      <trkpt lat="46.71022" lon="5.67899">
        <ele>522</ele>
        <time>2020-12-19T13:14:59Z</time>
      </trkpt>
      <trkpt lat="46.71023" lon="5.67896">
        <ele>522</ele>
        <time>2020-12-19T13:15:00Z</time>
      </trkpt>
      <trkpt lat="46.71024" lon="5.67894">
        <ele>522</ele>
        <time>2020-12-19T13:15:01Z</time>
      </trkpt>
      <trkpt lat="46.71025" lon="5.67892">
        <ele>522</ele>
        <time>2020-12-19T13:15:02Z</time>
      </trkpt>
      <trkpt lat="46.71025" lon="5.67889">
        <ele>522</ele>
        <time>2020-12-19T13:15:03Z</time>
      </trkpt>
      <trkpt lat="46.71026" lon="5.67886">
        <ele>522</ele>
        <time>2020-12-19T13:15:04Z</time>
      </trkpt>
      <trkpt lat="46.71026" lon="5.67883">
        <ele>522</ele>
        <time>2020-12-19T13:15:05Z</time>
      </trkpt>
      <trkpt lat="46.71027" lon="5.6788">
        <ele>522</ele>
        <time>2020-12-19T13:15:06Z</time>
      </trkpt>
      <trkpt lat="46.71027" lon="5.67878">
        <ele>522.4</ele>
        <time>2020-12-19T13:15:07Z</time>
      </trkpt>
      <trkpt lat="46.71028" lon="5.67875">
        <ele>522.4</ele>
        <time>2020-12-19T13:15:08Z</time>
      </trkpt>
      <trkpt lat="46.71029" lon="5.67873">
        <ele>522.6</ele>
        <time>2020-12-19T13:15:09Z</time>
      </trkpt>
      <trkpt lat="46.7103" lon="5.6787">
        <ele>522.6</ele>
        <time>2020-12-19T13:15:10Z</time>
      </trkpt>
      <trkpt lat="46.7103" lon="5.67867">
        <ele>522.6</ele>
        <time>2020-12-19T13:15:11Z</time>
      </trkpt>
      <trkpt lat="46.71031" lon="5.67865">
        <ele>522.6</ele>
        <time>2020-12-19T13:15:12Z</time>
      </trkpt>
      <trkpt lat="46.71032" lon="5.67862">
        <ele>522.8</ele>
        <time>2020-12-19T13:15:13Z</time>
      </trkpt>
      <trkpt lat="46.71033" lon="5.67859">
        <ele>522.8</ele>
        <time>2020-12-19T13:15:14Z</time>
      </trkpt>
      <trkpt lat="46.71034" lon="5.67856">
        <ele>522.8</ele>
        <time>2020-12-19T13:15:15Z</time>
      </trkpt>
      <trkpt lat="46.71034" lon="5.67853">
        <ele>522.8</ele>
        <time>2020-12-19T13:15:16Z</time>
      </trkpt>
      <trkpt lat="46.71035" lon="5.6785">
        <ele>523.2</ele>
        <time>2020-12-19T13:15:17Z</time>
      </trkpt>
      <trkpt lat="46.71036" lon="5.67847">
        <ele>523.2</ele>
        <time>2020-12-19T13:15:18Z</time>
      </trkpt>
      <trkpt lat="46.71037" lon="5.67844">
        <ele>523.4</ele>
        <time>2020-12-19T13:15:19Z</time>
      </trkpt>
      <trkpt lat="46.71037" lon="5.67841">
        <ele>523.4</ele>
        <time>2020-12-19T13:15:20Z</time>
      </trkpt>
      <trkpt lat="46.71038" lon="5.67838">
        <ele>523.6</ele>
        <time>2020-12-19T13:15:21Z</time>
      </trkpt>
      <trkpt lat="46.71039" lon="5.67835">
        <ele>523.6</ele>
        <time>2020-12-19T13:15:22Z</time>
      </trkpt>
      <trkpt lat="46.71039" lon="5.67832">
        <ele>523.6</ele>
        <time>2020-12-19T13:15:23Z</time>
      </trkpt>
      <trkpt lat="46.7104" lon="5.6783">
        <ele>523.8</ele>
        <time>2020-12-19T13:15:24Z</time>
      </trkpt>
      <trkpt lat="46.7104" lon="5.67828">
        <ele>523.8</ele>
        <time>2020-12-19T13:15:25Z</time>
      </trkpt>
      <trkpt lat="46.71041" lon="5.67825">
        <ele>523.8</ele>
        <time>2020-12-19T13:15:26Z</time>
      </trkpt>
      <trkpt lat="46.71041" lon="5.67822">
        <ele>523.8</ele>
        <time>2020-12-19T13:15:27Z</time>
      </trkpt>
      <trkpt lat="46.71042" lon="5.67819">
        <ele>523.8</ele>
        <time>2020-12-19T13:15:28Z</time>
      </trkpt>
      <trkpt lat="46.71042" lon="5.67816">
        <ele>523.8</ele>
        <time>2020-12-19T13:15:29Z</time>
      </trkpt>
      <trkpt lat="46.71043" lon="5.67812">
        <ele>523.8</ele>
        <time>2020-12-19T13:15:30Z</time>
      </trkpt>
      <trkpt lat="46.71044" lon="5.67808">
        <ele>523.8</ele>
        <time>2020-12-19T13:15:31Z</time>
      </trkpt>
      <trkpt lat="46.71044" lon="5.67805">
        <ele>523.8</ele>
        <time>2020-12-19T13:15:32Z</time>
      </trkpt>
      <trkpt lat="46.71045" lon="5.67801">
        <ele>523.8</ele>
        <time>2020-12-19T13:15:33Z</time>
      </trkpt>
      <trkpt lat="46.71045" lon="5.67798">
        <ele>523.8</ele>
        <time>2020-12-19T13:15:34Z</time>
      </trkpt>
      <trkpt lat="46.71046" lon="5.67793">
        <ele>523.8</ele>
        <time>2020-12-19T13:15:35Z</time>
      </trkpt>
      <trkpt lat="46.71045" lon="5.6779">
        <ele>523.8</ele>
        <time>2020-12-19T13:15:36Z</time>
      </trkpt>
      <trkpt lat="46.71045" lon="5.67786">
        <ele>523.6</ele>
        <time>2020-12-19T13:15:37Z</time>
      </trkpt>
      <trkpt lat="46.71045" lon="5.67783">
        <ele>523.6</ele>
        <time>2020-12-19T13:15:38Z</time>
      </trkpt>
      <trkpt lat="46.71046" lon="5.67779">
        <ele>523.2</ele>
        <time>2020-12-19T13:15:39Z</time>
      </trkpt>
      <trkpt lat="46.71046" lon="5.67775">
        <ele>523.2</ele>
        <time>2020-12-19T13:15:40Z</time>
      </trkpt>
      <trkpt lat="46.71046" lon="5.67771">
        <ele>523</ele>
        <time>2020-12-19T13:15:41Z</time>
      </trkpt>
      <trkpt lat="46.71045" lon="5.67767">
        <ele>523</ele>
        <time>2020-12-19T13:15:42Z</time>
      </trkpt>
      <trkpt lat="46.71045" lon="5.67763">
        <ele>523</ele>
        <time>2020-12-19T13:15:43Z</time>
      </trkpt>
      <trkpt lat="46.71045" lon="5.67759">
        <ele>522.6</ele>
        <time>2020-12-19T13:15:44Z</time>
      </trkpt>
      <trkpt lat="46.71045" lon="5.67756">
        <ele>522.6</ele>
        <time>2020-12-19T13:15:45Z</time>
      </trkpt>
      <trkpt lat="46.71045" lon="5.67752">
        <ele>522.6</ele>
        <time>2020-12-19T13:15:46Z</time>
      </trkpt>
      <trkpt lat="46.71045" lon="5.67748">
        <ele>522.6</ele>
        <time>2020-12-19T13:15:47Z</time>
      </trkpt>
      <trkpt lat="46.71045" lon="5.67744">
        <ele>522.4</ele>
        <time>2020-12-19T13:15:48Z</time>
      </trkpt>
      <trkpt lat="46.71045" lon="5.67741">
        <ele>522.4</ele>
        <time>2020-12-19T13:15:49Z</time>
      </trkpt>
      <trkpt lat="46.71045" lon="5.67737">
        <ele>522.4</ele>
        <time>2020-12-19T13:15:50Z</time>
      </trkpt>
      <trkpt lat="46.71044" lon="5.67733">
        <ele>522.2</ele>
        <time>2020-12-19T13:15:51Z</time>
      </trkpt>
      <trkpt lat="46.71044" lon="5.6773">
        <ele>522.2</ele>
        <time>2020-12-19T13:15:52Z</time>
      </trkpt>
      <trkpt lat="46.71044" lon="5.67726">
        <ele>522.2</ele>
        <time>2020-12-19T13:15:53Z</time>
      </trkpt>
      <trkpt lat="46.71044" lon="5.67722">
        <ele>522.2</ele>
        <time>2020-12-19T13:15:54Z</time>
      </trkpt>
      <trkpt lat="46.71044" lon="5.67718">
        <ele>522</ele>
        <time>2020-12-19T13:15:55Z</time>
      </trkpt>
      <trkpt lat="46.71044" lon="5.67715">
        <ele>522</ele>
        <time>2020-12-19T13:15:56Z</time>
      </trkpt>
      <trkpt lat="46.71045" lon="5.67712">
        <ele>522</ele>
        <time>2020-12-19T13:15:57Z</time>
      </trkpt>
      <trkpt lat="46.71045" lon="5.67709">
        <ele>522</ele>
        <time>2020-12-19T13:15:58Z</time>
      </trkpt>
      <trkpt lat="46.71046" lon="5.67706">
        <ele>521.6</ele>
        <time>2020-12-19T13:15:59Z</time>
      </trkpt>
      <trkpt lat="46.71046" lon="5.67702">
        <ele>521.6</ele>
        <time>2020-12-19T13:16:00Z</time>
      </trkpt>
      <trkpt lat="46.71047" lon="5.67699">
        <ele>521.6</ele>
        <time>2020-12-19T13:16:01Z</time>
      </trkpt>
      <trkpt lat="46.71048" lon="5.67696">
        <ele>521.4</ele>
        <time>2020-12-19T13:16:02Z</time>
      </trkpt>
      <trkpt lat="46.71049" lon="5.67694">
        <ele>521.4</ele>
        <time>2020-12-19T13:16:03Z</time>
      </trkpt>
      <trkpt lat="46.71049" lon="5.67691">
        <ele>521.2</ele>
        <time>2020-12-19T13:16:04Z</time>
      </trkpt>
      <trkpt lat="46.7105" lon="5.67687">
        <ele>521.2</ele>
        <time>2020-12-19T13:16:05Z</time>
      </trkpt>
      <trkpt lat="46.71051" lon="5.67683">
        <ele>520.8</ele>
        <time>2020-12-19T13:16:06Z</time>
      </trkpt>
      <trkpt lat="46.71052" lon="5.67679">
        <ele>520.8</ele>
        <time>2020-12-19T13:16:07Z</time>
      </trkpt>
      <trkpt lat="46.71053" lon="5.67676">
        <ele>520.6</ele>
        <time>2020-12-19T13:16:08Z</time>
      </trkpt>
      <trkpt lat="46.71054" lon="5.67672">
        <ele>520.6</ele>
        <time>2020-12-19T13:16:09Z</time>
      </trkpt>
      <trkpt lat="46.71055" lon="5.67669">
        <ele>520.2</ele>
        <time>2020-12-19T13:16:10Z</time>
      </trkpt>
      <trkpt lat="46.71056" lon="5.67666">
        <ele>520.2</ele>
        <time>2020-12-19T13:16:11Z</time>
      </trkpt>
      <trkpt lat="46.71057" lon="5.67664">
        <ele>520</ele>
        <time>2020-12-19T13:16:12Z</time>
      </trkpt>
      <trkpt lat="46.71058" lon="5.67661">
        <ele>520</ele>
        <time>2020-12-19T13:16:13Z</time>
      </trkpt>
      <trkpt lat="46.71058" lon="5.67657">
        <ele>519.8</ele>
        <time>2020-12-19T13:16:14Z</time>
      </trkpt>
      <trkpt lat="46.71059" lon="5.67654">
        <ele>519.8</ele>
        <time>2020-12-19T13:16:15Z</time>
      </trkpt>
      <trkpt lat="46.71061" lon="5.67651">
        <ele>519.4</ele>
        <time>2020-12-19T13:16:16Z</time>
      </trkpt>
      <trkpt lat="46.71061" lon="5.67648">
        <ele>519.4</ele>
        <time>2020-12-19T13:16:17Z</time>
      </trkpt>
      <trkpt lat="46.71062" lon="5.67645">
        <ele>519.2</ele>
        <time>2020-12-19T13:16:18Z</time>
      </trkpt>
      <trkpt lat="46.71063" lon="5.67641">
        <ele>519.2</ele>
        <time>2020-12-19T13:16:19Z</time>
      </trkpt>
      <trkpt lat="46.71064" lon="5.67637">
        <ele>519.2</ele>
        <time>2020-12-19T13:16:20Z</time>
      </trkpt>
      <trkpt lat="46.71065" lon="5.67633">
        <ele>518.8</ele>
        <time>2020-12-19T13:16:21Z</time>
      </trkpt>
      <trkpt lat="46.71066" lon="5.6763">
        <ele>518.8</ele>
        <time>2020-12-19T13:16:22Z</time>
      </trkpt>
      <trkpt lat="46.71066" lon="5.67626">
        <ele>518.6</ele>
        <time>2020-12-19T13:16:23Z</time>
      </trkpt>
      <trkpt lat="46.71067" lon="5.67623">
        <ele>518.6</ele>
        <time>2020-12-19T13:16:24Z</time>
      </trkpt>
      <trkpt lat="46.71068" lon="5.67619">
        <ele>518.4</ele>
        <time>2020-12-19T13:16:25Z</time>
      </trkpt>
      <trkpt lat="46.71069" lon="5.67616">
        <ele>518.4</ele>
        <time>2020-12-19T13:16:26Z</time>
      </trkpt>
      <trkpt lat="46.71069" lon="5.67612">
        <ele>518.2</ele>
        <time>2020-12-19T13:16:27Z</time>
      </trkpt>
      <trkpt lat="46.7107" lon="5.67609">
        <ele>518.2</ele>
        <time>2020-12-19T13:16:28Z</time>
      </trkpt>
      <trkpt lat="46.71071" lon="5.67605">
        <ele>518.2</ele>
        <time>2020-12-19T13:16:29Z</time>
      </trkpt>
      <trkpt lat="46.71072" lon="5.67602">
        <ele>518.2</ele>
        <time>2020-12-19T13:16:30Z</time>
      </trkpt>
      <trkpt lat="46.71073" lon="5.67599">
        <ele>518.2</ele>
        <time>2020-12-19T13:16:31Z</time>
      </trkpt>
      <trkpt lat="46.71073" lon="5.67595">
        <ele>518</ele>
        <time>2020-12-19T13:16:32Z</time>
      </trkpt>
      <trkpt lat="46.71074" lon="5.67592">
        <ele>518</ele>
        <time>2020-12-19T13:16:33Z</time>
      </trkpt>
      <trkpt lat="46.71075" lon="5.67589">
        <ele>517.6</ele>
        <time>2020-12-19T13:16:34Z</time>
      </trkpt>
      <trkpt lat="46.71076" lon="5.67586">
        <ele>517.6</ele>
        <time>2020-12-19T13:16:35Z</time>
      </trkpt>
      <trkpt lat="46.71078" lon="5.67583">
        <ele>517.4</ele>
        <time>2020-12-19T13:16:36Z</time>
      </trkpt>
      <trkpt lat="46.71079" lon="5.6758">
        <ele>517.4</ele>
        <time>2020-12-19T13:16:37Z</time>
      </trkpt>
      <trkpt lat="46.71081" lon="5.67577">
        <ele>517</ele>
        <time>2020-12-19T13:16:38Z</time>
      </trkpt>
      <trkpt lat="46.71081" lon="5.67574">
        <ele>517</ele>
        <time>2020-12-19T13:16:39Z</time>
      </trkpt>
      <trkpt lat="46.71082" lon="5.67571">
        <ele>516.8</ele>
        <time>2020-12-19T13:16:40Z</time>
      </trkpt>
      <trkpt lat="46.71083" lon="5.67569">
        <ele>516.8</ele>
        <time>2020-12-19T13:16:41Z</time>
      </trkpt>
      <trkpt lat="46.71083" lon="5.67566">
        <ele>516.6</ele>
        <time>2020-12-19T13:16:42Z</time>
      </trkpt>
      <trkpt lat="46.71084" lon="5.67564">
        <ele>516.6</ele>
        <time>2020-12-19T13:16:43Z</time>
      </trkpt>
      <trkpt lat="46.71085" lon="5.67561">
        <ele>516.4</ele>
        <time>2020-12-19T13:16:44Z</time>
      </trkpt>
      <trkpt lat="46.71086" lon="5.67558">
        <ele>516.4</ele>
        <time>2020-12-19T13:16:45Z</time>
      </trkpt>
      <trkpt lat="46.71087" lon="5.67554">
        <ele>516</ele>
        <time>2020-12-19T13:16:46Z</time>
      </trkpt>
      <trkpt lat="46.71088" lon="5.67551">
        <ele>516</ele>
        <time>2020-12-19T13:16:47Z</time>
      </trkpt>
      <trkpt lat="46.7109" lon="5.67547">
        <ele>515.8</ele>
        <time>2020-12-19T13:16:48Z</time>
      </trkpt>
      <trkpt lat="46.7109" lon="5.67543">
        <ele>515.8</ele>
        <time>2020-12-19T13:16:49Z</time>
      </trkpt>
      <trkpt lat="46.71089" lon="5.6754">
        <ele>515.4</ele>
        <time>2020-12-19T13:16:50Z</time>
      </trkpt>
      <trkpt lat="46.71089" lon="5.67537">
        <ele>515.2</ele>
        <time>2020-12-19T13:16:51Z</time>
      </trkpt>
      <trkpt lat="46.71088" lon="5.67534">
        <ele>515.2</ele>
        <time>2020-12-19T13:16:52Z</time>
      </trkpt>
      <trkpt lat="46.71086" lon="5.67532">
        <ele>515.2</ele>
        <time>2020-12-19T13:16:53Z</time>
      </trkpt>
      <trkpt lat="46.71084" lon="5.67531">
        <ele>515</ele>
        <time>2020-12-19T13:16:54Z</time>
      </trkpt>
      <trkpt lat="46.71082" lon="5.67529">
        <ele>515</ele>
        <time>2020-12-19T13:16:55Z</time>
      </trkpt>
      <trkpt lat="46.7108" lon="5.67529">
        <ele>515</ele>
        <time>2020-12-19T13:16:56Z</time>
      </trkpt>
      <trkpt lat="46.71078" lon="5.67528">
        <ele>515</ele>
        <time>2020-12-19T13:16:57Z</time>
      </trkpt>
      <trkpt lat="46.71076" lon="5.67527">
        <ele>515</ele>
        <time>2020-12-19T13:16:58Z</time>
      </trkpt>
      <trkpt lat="46.71074" lon="5.67526">
        <ele>515</ele>
        <time>2020-12-19T13:16:59Z</time>
      </trkpt>
      <trkpt lat="46.71071" lon="5.67525">
        <ele>515</ele>
        <time>2020-12-19T13:17:00Z</time>
      </trkpt>
      <trkpt lat="46.71069" lon="5.67524">
        <ele>515</ele>
        <time>2020-12-19T13:17:01Z</time>
      </trkpt>
      <trkpt lat="46.71067" lon="5.67523">
        <ele>515</ele>
        <time>2020-12-19T13:17:02Z</time>
      </trkpt>
      <trkpt lat="46.71065" lon="5.67523">
        <ele>515.2</ele>
        <time>2020-12-19T13:17:03Z</time>
      </trkpt>
      <trkpt lat="46.71063" lon="5.67524">
        <ele>515.2</ele>
        <time>2020-12-19T13:17:04Z</time>
      </trkpt>
      <trkpt lat="46.71062" lon="5.67525">
        <ele>515.4</ele>
        <time>2020-12-19T13:17:05Z</time>
      </trkpt>
      <trkpt lat="46.7106" lon="5.67527">
        <ele>515.4</ele>
        <time>2020-12-19T13:17:06Z</time>
      </trkpt>
      <trkpt lat="46.71059" lon="5.67529">
        <ele>515.4</ele>
        <time>2020-12-19T13:17:07Z</time>
      </trkpt>
      <trkpt lat="46.71058" lon="5.67531">
        <ele>515.4</ele>
        <time>2020-12-19T13:17:08Z</time>
      </trkpt>
      <trkpt lat="46.71057" lon="5.67534">
        <ele>515.8</ele>
        <time>2020-12-19T13:17:09Z</time>
      </trkpt>
      <trkpt lat="46.71056" lon="5.67536">
        <ele>515.8</ele>
        <time>2020-12-19T13:17:10Z</time>
      </trkpt>
      <trkpt lat="46.71055" lon="5.67539">
        <ele>516</ele>
        <time>2020-12-19T13:17:11Z</time>
      </trkpt>
      <trkpt lat="46.71055" lon="5.67541">
        <ele>516</ele>
        <time>2020-12-19T13:17:12Z</time>
      </trkpt>
      <trkpt lat="46.71055" lon="5.67544">
        <ele>516.2</ele>
        <time>2020-12-19T13:17:13Z</time>
      </trkpt>
      <trkpt lat="46.71054" lon="5.67547">
        <ele>516.2</ele>
        <time>2020-12-19T13:17:14Z</time>
      </trkpt>
      <trkpt lat="46.71054" lon="5.6755">
        <ele>516.4</ele>
        <time>2020-12-19T13:17:15Z</time>
      </trkpt>
      <trkpt lat="46.71054" lon="5.67553">
        <ele>516.4</ele>
        <time>2020-12-19T13:17:16Z</time>
      </trkpt>
      <trkpt lat="46.71053" lon="5.67556">
        <ele>516.6</ele>
        <time>2020-12-19T13:17:17Z</time>
      </trkpt>
      <trkpt lat="46.71052" lon="5.67558">
        <ele>516.6</ele>
        <time>2020-12-19T13:17:18Z</time>
      </trkpt>
      <trkpt lat="46.71051" lon="5.67559">
        <ele>517</ele>
        <time>2020-12-19T13:17:19Z</time>
      </trkpt>
      <trkpt lat="46.71051" lon="5.67561">
        <ele>517</ele>
        <time>2020-12-19T13:17:20Z</time>
      </trkpt>
      <trkpt lat="46.7105" lon="5.67562">
        <ele>517</ele>
        <time>2020-12-19T13:17:21Z</time>
      </trkpt>
      <trkpt lat="46.71049" lon="5.67563">
        <ele>517.2</ele>
        <time>2020-12-19T13:17:22Z</time>
      </trkpt>
      <trkpt lat="46.71048" lon="5.67565">
        <ele>517.2</ele>
        <time>2020-12-19T13:17:23Z</time>
      </trkpt>
      <trkpt lat="46.71047" lon="5.67566">
        <ele>517.2</ele>
        <time>2020-12-19T13:17:24Z</time>
      </trkpt>
      <trkpt lat="46.71045" lon="5.67567">
        <ele>517.2</ele>
        <time>2020-12-19T13:17:25Z</time>
      </trkpt>
      <trkpt lat="46.71044" lon="5.67567">
        <ele>517.4</ele>
        <time>2020-12-19T13:17:26Z</time>
      </trkpt>
      <trkpt lat="46.71043" lon="5.67568">
        <ele>517.4</ele>
        <time>2020-12-19T13:17:27Z</time>
      </trkpt>
      <trkpt lat="46.71041" lon="5.67569">
        <ele>517.6</ele>
        <time>2020-12-19T13:17:28Z</time>
      </trkpt>
      <trkpt lat="46.71039" lon="5.67569">
        <ele>517.6</ele>
        <time>2020-12-19T13:17:29Z</time>
      </trkpt>
      <trkpt lat="46.71037" lon="5.67569">
        <ele>517.6</ele>
        <time>2020-12-19T13:17:30Z</time>
      </trkpt>
      <trkpt lat="46.71035" lon="5.6757">
        <ele>518</ele>
        <time>2020-12-19T13:17:31Z</time>
      </trkpt>
      <trkpt lat="46.71033" lon="5.67571">
        <ele>518</ele>
        <time>2020-12-19T13:17:32Z</time>
      </trkpt>
      <trkpt lat="46.71031" lon="5.67572">
        <ele>518.2</ele>
        <time>2020-12-19T13:17:33Z</time>
      </trkpt>
      <trkpt lat="46.71029" lon="5.67571">
        <ele>518.2</ele>
        <time>2020-12-19T13:17:34Z</time>
      </trkpt>
      <trkpt lat="46.71027" lon="5.67571">
        <ele>518.6</ele>
        <time>2020-12-19T13:17:35Z</time>
      </trkpt>
      <trkpt lat="46.71025" lon="5.67571">
        <ele>518.6</ele>
        <time>2020-12-19T13:17:36Z</time>
      </trkpt>
      <trkpt lat="46.71023" lon="5.67571">
        <ele>519</ele>
        <time>2020-12-19T13:17:37Z</time>
      </trkpt>
      <trkpt lat="46.71022" lon="5.67571">
        <ele>519</ele>
        <time>2020-12-19T13:17:38Z</time>
      </trkpt>
      <trkpt lat="46.7102" lon="5.6757">
        <ele>519.2</ele>
        <time>2020-12-19T13:17:39Z</time>
      </trkpt>
      <trkpt lat="46.71018" lon="5.6757">
        <ele>519.2</ele>
        <time>2020-12-19T13:17:40Z</time>
      </trkpt>
      <trkpt lat="46.71016" lon="5.6757">
        <ele>519.4</ele>
        <time>2020-12-19T13:17:41Z</time>
      </trkpt>
      <trkpt lat="46.71015" lon="5.67569">
        <ele>519.4</ele>
        <time>2020-12-19T13:17:42Z</time>
      </trkpt>
      <trkpt lat="46.71014" lon="5.67569">
        <ele>519.4</ele>
        <time>2020-12-19T13:17:43Z</time>
      </trkpt>
      <trkpt lat="46.71012" lon="5.67568">
        <ele>519.8</ele>
        <time>2020-12-19T13:17:44Z</time>
      </trkpt>
      <trkpt lat="46.71011" lon="5.67568">
        <ele>519.8</ele>
        <time>2020-12-19T13:17:45Z</time>
      </trkpt>
      <trkpt lat="46.71009" lon="5.67567">
        <ele>519.8</ele>
        <time>2020-12-19T13:17:46Z</time>
      </trkpt>
      <trkpt lat="46.71008" lon="5.67567">
        <ele>520</ele>
        <time>2020-12-19T13:17:47Z</time>
      </trkpt>
      <trkpt lat="46.71007" lon="5.67567">
        <ele>520</ele>
        <time>2020-12-19T13:17:48Z</time>
      </trkpt>
      <trkpt lat="46.71006" lon="5.67567">
        <ele>520</ele>
        <time>2020-12-19T13:17:49Z</time>
      </trkpt>
      <trkpt lat="46.71004" lon="5.67567">
        <ele>520</ele>
        <time>2020-12-19T13:17:50Z</time>
      </trkpt>
      <trkpt lat="46.71003" lon="5.67567">
        <ele>520.4</ele>
        <time>2020-12-19T13:17:51Z</time>
      </trkpt>
      <trkpt lat="46.71002" lon="5.67567">
        <ele>520.4</ele>
        <time>2020-12-19T13:17:52Z</time>
      </trkpt>
      <trkpt lat="46.71" lon="5.67567">
        <ele>520.6</ele>
        <time>2020-12-19T13:17:53Z</time>
      </trkpt>
      <trkpt lat="46.70999" lon="5.67567">
        <ele>520.6</ele>
        <time>2020-12-19T13:17:54Z</time>
      </trkpt>
      <trkpt lat="46.70998" lon="5.67566">
        <ele>520.6</ele>
        <time>2020-12-19T13:17:55Z</time>
      </trkpt>
      <trkpt lat="46.70996" lon="5.67566">
        <ele>520.6</ele>
        <time>2020-12-19T13:17:56Z</time>
      </trkpt>
      <trkpt lat="46.70994" lon="5.67566">
        <ele>520.8</ele>
        <time>2020-12-19T13:17:57Z</time>
      </trkpt>
      <trkpt lat="46.70993" lon="5.67566">
        <ele>520.8</ele>
        <time>2020-12-19T13:17:58Z</time>
      </trkpt>
      <trkpt lat="46.70992" lon="5.67567">
        <ele>520.8</ele>
        <time>2020-12-19T13:17:59Z</time>
      </trkpt>
      <trkpt lat="46.7099" lon="5.67567">
        <ele>520.8</ele>
        <time>2020-12-19T13:18:00Z</time>
      </trkpt>
      <trkpt lat="46.70989" lon="5.67567">
        <ele>520.8</ele>
        <time>2020-12-19T13:18:01Z</time>
      </trkpt>
      <trkpt lat="46.70987" lon="5.67567">
        <ele>521</ele>
        <time>2020-12-19T13:18:02Z</time>
      </trkpt>
      <trkpt lat="46.70987" lon="5.67568">
        <ele>521</ele>
        <time>2020-12-19T13:18:03Z</time>
      </trkpt>
      <trkpt lat="46.70986" lon="5.67568">
        <ele>521</ele>
        <time>2020-12-19T13:18:04Z</time>
      </trkpt>
      <trkpt lat="46.70985" lon="5.67569">
        <ele>521.2</ele>
        <time>2020-12-19T13:18:38Z</time>
      </trkpt>
      <trkpt lat="46.70984" lon="5.6757">
        <ele>521.2</ele>
        <time>2020-12-19T13:18:39Z</time>
      </trkpt>
      <trkpt lat="46.70983" lon="5.67571">
        <ele>521.2</ele>
        <time>2020-12-19T13:18:40Z</time>
      </trkpt>
      <trkpt lat="46.70982" lon="5.67573">
        <ele>521.2</ele>
        <time>2020-12-19T13:18:41Z</time>
      </trkpt>
      <trkpt lat="46.70982" lon="5.67574">
        <ele>521.2</ele>
        <time>2020-12-19T13:18:42Z</time>
      </trkpt>
      <trkpt lat="46.70981" lon="5.67576">
        <ele>521.6</ele>
        <time>2020-12-19T13:18:43Z</time>
      </trkpt>
      <trkpt lat="46.70981" lon="5.67578">
        <ele>521.6</ele>
        <time>2020-12-19T13:18:44Z</time>
      </trkpt>
      <trkpt lat="46.70981" lon="5.6758">
        <ele>521.8</ele>
        <time>2020-12-19T13:18:45Z</time>
      </trkpt>
      <trkpt lat="46.7098" lon="5.67582">
        <ele>521.8</ele>
        <time>2020-12-19T13:18:46Z</time>
      </trkpt>
      <trkpt lat="46.7098" lon="5.67584">
        <ele>521.8</ele>
        <time>2020-12-19T13:18:47Z</time>
      </trkpt>
      <trkpt lat="46.70979" lon="5.67586">
        <ele>522</ele>
        <time>2020-12-19T13:18:48Z</time>
      </trkpt>
      <trkpt lat="46.70979" lon="5.67588">
        <ele>522</ele>
        <time>2020-12-19T13:18:49Z</time>
      </trkpt>
      <trkpt lat="46.70978" lon="5.6759">
        <ele>522</ele>
        <time>2020-12-19T13:18:50Z</time>
      </trkpt>
      <trkpt lat="46.70977" lon="5.67591">
        <ele>522.2</ele>
        <time>2020-12-19T13:18:51Z</time>
      </trkpt>
      <trkpt lat="46.70977" lon="5.67593">
        <ele>522.2</ele>
        <time>2020-12-19T13:18:52Z</time>
      </trkpt>
      <trkpt lat="46.70976" lon="5.67595">
        <ele>522.2</ele>
        <time>2020-12-19T13:18:53Z</time>
      </trkpt>
      <trkpt lat="46.70975" lon="5.67597">
        <ele>522.6</ele>
        <time>2020-12-19T13:18:54Z</time>
      </trkpt>
      <trkpt lat="46.70975" lon="5.67599">
        <ele>522.6</ele>
        <time>2020-12-19T13:18:55Z</time>
      </trkpt>
      <trkpt lat="46.70974" lon="5.67602">
        <ele>523</ele>
        <time>2020-12-19T13:18:56Z</time>
      </trkpt>
      <trkpt lat="46.70973" lon="5.67604">
        <ele>523</ele>
        <time>2020-12-19T13:18:57Z</time>
      </trkpt>
      <trkpt lat="46.70972" lon="5.67606">
        <ele>523.2</ele>
        <time>2020-12-19T13:18:58Z</time>
      </trkpt>
      <trkpt lat="46.70972" lon="5.67608">
        <ele>523.2</ele>
        <time>2020-12-19T13:18:59Z</time>
      </trkpt>
      <trkpt lat="46.70971" lon="5.6761">
        <ele>523.6</ele>
        <time>2020-12-19T13:19:00Z</time>
      </trkpt>
      <trkpt lat="46.70971" lon="5.67612">
        <ele>523.8</ele>
        <time>2020-12-19T13:19:01Z</time>
      </trkpt>
      <trkpt lat="46.7097" lon="5.67615">
        <ele>523.8</ele>
        <time>2020-12-19T13:19:02Z</time>
      </trkpt>
      <trkpt lat="46.7097" lon="5.67617">
        <ele>524.2</ele>
        <time>2020-12-19T13:19:03Z</time>
      </trkpt>
      <trkpt lat="46.7097" lon="5.67619">
        <ele>524.2</ele>
        <time>2020-12-19T13:19:04Z</time>
      </trkpt>
      <trkpt lat="46.70969" lon="5.67621">
        <ele>524.4</ele>
        <time>2020-12-19T13:19:05Z</time>
      </trkpt>
      <trkpt lat="46.70969" lon="5.67623">
        <ele>524.4</ele>
        <time>2020-12-19T13:19:06Z</time>
      </trkpt>
      <trkpt lat="46.70968" lon="5.67626">
        <ele>524.8</ele>
        <time>2020-12-19T13:19:07Z</time>
      </trkpt>
      <trkpt lat="46.70967" lon="5.67628">
        <ele>524.8</ele>
        <time>2020-12-19T13:19:08Z</time>
      </trkpt>
      <trkpt lat="46.70966" lon="5.6763">
        <ele>525.2</ele>
        <time>2020-12-19T13:19:09Z</time>
      </trkpt>
      <trkpt lat="46.70965" lon="5.67631">
        <ele>525.2</ele>
        <time>2020-12-19T13:19:10Z</time>
      </trkpt>
      <trkpt lat="46.70964" lon="5.67632">
        <ele>525.6</ele>
        <time>2020-12-19T13:19:11Z</time>
      </trkpt>
      <trkpt lat="46.70964" lon="5.67633">
        <ele>525.6</ele>
        <time>2020-12-19T13:19:12Z</time>
      </trkpt>
      <trkpt lat="46.70962" lon="5.67635">
        <ele>526</ele>
        <time>2020-12-19T13:19:22Z</time>
      </trkpt>
      <trkpt lat="46.70962" lon="5.67635">
        <ele>526.2</ele>
        <time>2020-12-19T13:19:23Z</time>
      </trkpt>
      <trkpt lat="46.70961" lon="5.67635">
        <ele>526.2</ele>
        <time>2020-12-19T13:19:24Z</time>
      </trkpt>
      <trkpt lat="46.70961" lon="5.67636">
        <ele>526.2</ele>
        <time>2020-12-19T13:19:25Z</time>
      </trkpt>
      <trkpt lat="46.7096" lon="5.67636">
        <ele>526.2</ele>
        <time>2020-12-19T13:19:26Z</time>
      </trkpt>
      <trkpt lat="46.70959" lon="5.67636">
        <ele>526.2</ele>
        <time>2020-12-19T13:19:27Z</time>
      </trkpt>
      <trkpt lat="46.70958" lon="5.67637">
        <ele>526.2</ele>
        <time>2020-12-19T13:19:28Z</time>
      </trkpt>
      <trkpt lat="46.70957" lon="5.67637">
        <ele>526.4</ele>
        <time>2020-12-19T13:19:29Z</time>
      </trkpt>
      <trkpt lat="46.70955" lon="5.67637">
        <ele>526.4</ele>
        <time>2020-12-19T13:19:30Z</time>
      </trkpt>
      <trkpt lat="46.70954" lon="5.67637">
        <ele>526.4</ele>
        <time>2020-12-19T13:19:31Z</time>
      </trkpt>
      <trkpt lat="46.70953" lon="5.67637">
        <ele>526.4</ele>
        <time>2020-12-19T13:19:32Z</time>
      </trkpt>
      <trkpt lat="46.70952" lon="5.67637">
        <ele>526.4</ele>
        <time>2020-12-19T13:19:33Z</time>
      </trkpt>
      <trkpt lat="46.70951" lon="5.67636">
        <ele>526.4</ele>
        <time>2020-12-19T13:19:34Z</time>
      </trkpt>
      <trkpt lat="46.7095" lon="5.67636">
        <ele>526.4</ele>
        <time>2020-12-19T13:19:35Z</time>
      </trkpt>
      <trkpt lat="46.70949" lon="5.67636">
        <ele>526.4</ele>
        <time>2020-12-19T13:19:36Z</time>
      </trkpt>
      <trkpt lat="46.70948" lon="5.67635">
        <ele>526.4</ele>
        <time>2020-12-19T13:19:37Z</time>
      </trkpt>
      <trkpt lat="46.70947" lon="5.67635">
        <ele>526.4</ele>
        <time>2020-12-19T13:19:38Z</time>
      </trkpt>
      <trkpt lat="46.70946" lon="5.67634">
        <ele>526.4</ele>
        <time>2020-12-19T13:19:39Z</time>
      </trkpt>
      <trkpt lat="46.70945" lon="5.67634">
        <ele>526.4</ele>
        <time>2020-12-19T13:19:40Z</time>
      </trkpt>
      <trkpt lat="46.70944" lon="5.67633">
        <ele>526.4</ele>
        <time>2020-12-19T13:19:41Z</time>
      </trkpt>
      <trkpt lat="46.70943" lon="5.67633">
        <ele>526.4</ele>
        <time>2020-12-19T13:19:42Z</time>
      </trkpt>
      <trkpt lat="46.70941" lon="5.67632">
        <ele>526.6</ele>
        <time>2020-12-19T13:19:43Z</time>
      </trkpt>
      <trkpt lat="46.7094" lon="5.67631">
        <ele>526.6</ele>
        <time>2020-12-19T13:19:44Z</time>
      </trkpt>
      <trkpt lat="46.70939" lon="5.67631">
        <ele>526.6</ele>
        <time>2020-12-19T13:19:45Z</time>
      </trkpt>
      <trkpt lat="46.70938" lon="5.6763">
        <ele>526.8</ele>
        <time>2020-12-19T13:19:46Z</time>
      </trkpt>
      <trkpt lat="46.70937" lon="5.6763">
        <ele>526.8</ele>
        <time>2020-12-19T13:19:47Z</time>
      </trkpt>
      <trkpt lat="46.70936" lon="5.67629">
        <ele>527</ele>
        <time>2020-12-19T13:19:48Z</time>
      </trkpt>
      <trkpt lat="46.70935" lon="5.67629">
        <ele>527</ele>
        <time>2020-12-19T13:19:49Z</time>
      </trkpt>
      <trkpt lat="46.70934" lon="5.67629">
        <ele>527.4</ele>
        <time>2020-12-19T13:19:50Z</time>
      </trkpt>
      <trkpt lat="46.70933" lon="5.67628">
        <ele>527.4</ele>
        <time>2020-12-19T13:19:51Z</time>
      </trkpt>
      <trkpt lat="46.70932" lon="5.67628">
        <ele>527.4</ele>
        <time>2020-12-19T13:19:52Z</time>
      </trkpt>
      <trkpt lat="46.70931" lon="5.67627">
        <ele>527.6</ele>
        <time>2020-12-19T13:19:53Z</time>
      </trkpt>
      <trkpt lat="46.70929" lon="5.67627">
        <ele>527.6</ele>
        <time>2020-12-19T13:19:54Z</time>
      </trkpt>
      <trkpt lat="46.70928" lon="5.67627">
        <ele>527.6</ele>
        <time>2020-12-19T13:19:55Z</time>
      </trkpt>
      <trkpt lat="46.70927" lon="5.67627">
        <ele>527.6</ele>
        <time>2020-12-19T13:19:56Z</time>
      </trkpt>
      <trkpt lat="46.70926" lon="5.67627">
        <ele>527.6</ele>
        <time>2020-12-19T13:19:57Z</time>
      </trkpt>
      <trkpt lat="46.70925" lon="5.67627">
        <ele>527.6</ele>
        <time>2020-12-19T13:19:58Z</time>
      </trkpt>
      <trkpt lat="46.70924" lon="5.67627">
        <ele>527.6</ele>
        <time>2020-12-19T13:19:59Z</time>
      </trkpt>
      <trkpt lat="46.70923" lon="5.67627">
        <ele>527.6</ele>
        <time>2020-12-19T13:20:00Z</time>
      </trkpt>
      <trkpt lat="46.70923" lon="5.67627">
        <ele>527.6</ele>
        <time>2020-12-19T13:20:01Z</time>
      </trkpt>
      <trkpt lat="46.70922" lon="5.67627">
        <ele>527.6</ele>
        <time>2020-12-19T13:20:02Z</time>
      </trkpt>
      <trkpt lat="46.70922" lon="5.67627">
        <ele>527.6</ele>
        <time>2020-12-19T13:20:03Z</time>
      </trkpt>
      <trkpt lat="46.70922" lon="5.67626">
        <ele>527.6</ele>
        <time>2020-12-19T13:20:04Z</time>
      </trkpt>
      <trkpt lat="46.70925" lon="5.67625">
        <ele>527.8</ele>
        <time>2020-12-19T13:25:51Z</time>
      </trkpt>
      <trkpt lat="46.70926" lon="5.67625">
        <ele>527.8</ele>
        <time>2020-12-19T13:25:52Z</time>
      </trkpt>
      <trkpt lat="46.70927" lon="5.67625">
        <ele>527.8</ele>
        <time>2020-12-19T13:25:53Z</time>
      </trkpt>
      <trkpt lat="46.70928" lon="5.67626">
        <ele>527.8</ele>
        <time>2020-12-19T13:25:54Z</time>
      </trkpt>
      <trkpt lat="46.70929" lon="5.67626">
        <ele>527.8</ele>
        <time>2020-12-19T13:25:55Z</time>
      </trkpt>
      <trkpt lat="46.7093" lon="5.67626">
        <ele>527.8</ele>
        <time>2020-12-19T13:25:56Z</time>
      </trkpt>
      <trkpt lat="46.70931" lon="5.67626">
        <ele>527.8</ele>
        <time>2020-12-19T13:25:57Z</time>
      </trkpt>
      <trkpt lat="46.70933" lon="5.67627">
        <ele>527.8</ele>
        <time>2020-12-19T13:25:58Z</time>
      </trkpt>
      <trkpt lat="46.70935" lon="5.67628">
        <ele>527.8</ele>
        <time>2020-12-19T13:25:59Z</time>
      </trkpt>
      <trkpt lat="46.70937" lon="5.67629">
        <ele>527.6</ele>
        <time>2020-12-19T13:26:00Z</time>
      </trkpt>
      <trkpt lat="46.70939" lon="5.6763">
        <ele>527.6</ele>
        <time>2020-12-19T13:26:01Z</time>
      </trkpt>
      <trkpt lat="46.70941" lon="5.6763">
        <ele>527.4</ele>
        <time>2020-12-19T13:26:02Z</time>
      </trkpt>
      <trkpt lat="46.70943" lon="5.67631">
        <ele>527.4</ele>
        <time>2020-12-19T13:26:03Z</time>
      </trkpt>
      <trkpt lat="46.70945" lon="5.67631">
        <ele>527.2</ele>
        <time>2020-12-19T13:26:04Z</time>
      </trkpt>
      <trkpt lat="46.70946" lon="5.67632">
        <ele>527.2</ele>
        <time>2020-12-19T13:26:05Z</time>
      </trkpt>
      <trkpt lat="46.70948" lon="5.67632">
        <ele>526.8</ele>
        <time>2020-12-19T13:26:06Z</time>
      </trkpt>
      <trkpt lat="46.7095" lon="5.67633">
        <ele>526.8</ele>
        <time>2020-12-19T13:26:07Z</time>
      </trkpt>
      <trkpt lat="46.70953" lon="5.67633">
        <ele>526.8</ele>
        <time>2020-12-19T13:26:08Z</time>
      </trkpt>
      <trkpt lat="46.70955" lon="5.67632">
        <ele>526.6</ele>
        <time>2020-12-19T13:26:09Z</time>
      </trkpt>
      <trkpt lat="46.70957" lon="5.67631">
        <ele>526.6</ele>
        <time>2020-12-19T13:26:10Z</time>
      </trkpt>
      <trkpt lat="46.70959" lon="5.67629">
        <ele>526.2</ele>
        <time>2020-12-19T13:26:11Z</time>
      </trkpt>
      <trkpt lat="46.70961" lon="5.67627">
        <ele>526.2</ele>
        <time>2020-12-19T13:26:12Z</time>
      </trkpt>
      <trkpt lat="46.70963" lon="5.67624">
        <ele>525.8</ele>
        <time>2020-12-19T13:26:13Z</time>
      </trkpt>
      <trkpt lat="46.70964" lon="5.67621">
        <ele>525.6</ele>
        <time>2020-12-19T13:26:14Z</time>
      </trkpt>
      <trkpt lat="46.70966" lon="5.67617">
        <ele>525.6</ele>
        <time>2020-12-19T13:26:15Z</time>
      </trkpt>
      <trkpt lat="46.70967" lon="5.67613">
        <ele>525.2</ele>
        <time>2020-12-19T13:26:16Z</time>
      </trkpt>
      <trkpt lat="46.70968" lon="5.67609">
        <ele>524.8</ele>
        <time>2020-12-19T13:26:17Z</time>
      </trkpt>
      <trkpt lat="46.7097" lon="5.67605">
        <ele>524.6</ele>
        <time>2020-12-19T13:26:18Z</time>
      </trkpt>
      <trkpt lat="46.70971" lon="5.67601">
        <ele>524.4</ele>
        <time>2020-12-19T13:26:19Z</time>
      </trkpt>
      <trkpt lat="46.70972" lon="5.67596">
        <ele>524.2</ele>
        <time>2020-12-19T13:26:20Z</time>
      </trkpt>
      <trkpt lat="46.70974" lon="5.67592">
        <ele>524</ele>
        <time>2020-12-19T13:26:21Z</time>
      </trkpt>
      <trkpt lat="46.70975" lon="5.67588">
        <ele>523.6</ele>
        <time>2020-12-19T13:26:22Z</time>
      </trkpt>
      <trkpt lat="46.70976" lon="5.67585">
        <ele>523.4</ele>
        <time>2020-12-19T13:26:23Z</time>
      </trkpt>
      <trkpt lat="46.70978" lon="5.67582">
        <ele>523.4</ele>
        <time>2020-12-19T13:26:24Z</time>
      </trkpt>
      <trkpt lat="46.70979" lon="5.67579">
        <ele>523</ele>
        <time>2020-12-19T13:26:25Z</time>
      </trkpt>
      <trkpt lat="46.7098" lon="5.67576">
        <ele>522.8</ele>
        <time>2020-12-19T13:26:26Z</time>
      </trkpt>
      <trkpt lat="46.70982" lon="5.67573">
        <ele>522.8</ele>
        <time>2020-12-19T13:26:27Z</time>
      </trkpt>
      <trkpt lat="46.70983" lon="5.6757">
        <ele>522.4</ele>
        <time>2020-12-19T13:26:28Z</time>
      </trkpt>
      <trkpt lat="46.70985" lon="5.67568">
        <ele>522.4</ele>
        <time>2020-12-19T13:26:29Z</time>
      </trkpt>
      <trkpt lat="46.70987" lon="5.67566">
        <ele>522</ele>
        <time>2020-12-19T13:26:30Z</time>
      </trkpt>
      <trkpt lat="46.70989" lon="5.67565">
        <ele>521.8</ele>
        <time>2020-12-19T13:26:31Z</time>
      </trkpt>
      <trkpt lat="46.70992" lon="5.67564">
        <ele>521.8</ele>
        <time>2020-12-19T13:26:32Z</time>
      </trkpt>
      <trkpt lat="46.70994" lon="5.67564">
        <ele>521.6</ele>
        <time>2020-12-19T13:26:33Z</time>
      </trkpt>
      <trkpt lat="46.70996" lon="5.67564">
        <ele>521.6</ele>
        <time>2020-12-19T13:26:34Z</time>
      </trkpt>
      <trkpt lat="46.70998" lon="5.67564">
        <ele>521.2</ele>
        <time>2020-12-19T13:26:35Z</time>
      </trkpt>
      <trkpt lat="46.71" lon="5.67564">
        <ele>521.2</ele>
        <time>2020-12-19T13:26:36Z</time>
      </trkpt>
      <trkpt lat="46.71003" lon="5.67564">
        <ele>521</ele>
        <time>2020-12-19T13:26:37Z</time>
      </trkpt>
      <trkpt lat="46.71005" lon="5.67564">
        <ele>521</ele>
        <time>2020-12-19T13:26:38Z</time>
      </trkpt>
      <trkpt lat="46.71008" lon="5.67564">
        <ele>520.6</ele>
        <time>2020-12-19T13:26:39Z</time>
      </trkpt>
      <trkpt lat="46.71011" lon="5.67564">
        <ele>520.4</ele>
        <time>2020-12-19T13:26:40Z</time>
      </trkpt>
      <trkpt lat="46.71013" lon="5.67565">
        <ele>520.4</ele>
        <time>2020-12-19T13:26:41Z</time>
      </trkpt>
      <trkpt lat="46.71016" lon="5.67565">
        <ele>520.2</ele>
        <time>2020-12-19T13:26:42Z</time>
      </trkpt>
      <trkpt lat="46.71018" lon="5.67565">
        <ele>520.2</ele>
        <time>2020-12-19T13:26:43Z</time>
      </trkpt>
      <trkpt lat="46.71021" lon="5.67566">
        <ele>519.8</ele>
        <time>2020-12-19T13:26:44Z</time>
      </trkpt>
      <trkpt lat="46.71023" lon="5.67566">
        <ele>519.8</ele>
        <time>2020-12-19T13:26:45Z</time>
      </trkpt>
      <trkpt lat="46.71026" lon="5.67566">
        <ele>519.4</ele>
        <time>2020-12-19T13:26:46Z</time>
      </trkpt>
      <trkpt lat="46.71029" lon="5.67566">
        <ele>519.4</ele>
        <time>2020-12-19T13:26:47Z</time>
      </trkpt>
      <trkpt lat="46.71031" lon="5.67566">
        <ele>519</ele>
        <time>2020-12-19T13:26:48Z</time>
      </trkpt>
      <trkpt lat="46.71034" lon="5.67565">
        <ele>518.6</ele>
        <time>2020-12-19T13:26:49Z</time>
      </trkpt>
      <trkpt lat="46.71038" lon="5.67565">
        <ele>518.4</ele>
        <time>2020-12-19T13:26:50Z</time>
      </trkpt>
      <trkpt lat="46.71041" lon="5.67564">
        <ele>518.4</ele>
        <time>2020-12-19T13:26:51Z</time>
      </trkpt>
      <trkpt lat="46.71044" lon="5.67563">
        <ele>518.2</ele>
        <time>2020-12-19T13:26:52Z</time>
      </trkpt>
      <trkpt lat="46.71047" lon="5.67561">
        <ele>518.2</ele>
        <time>2020-12-19T13:26:53Z</time>
      </trkpt>
      <trkpt lat="46.71049" lon="5.67559">
        <ele>517.8</ele>
        <time>2020-12-19T13:26:54Z</time>
      </trkpt>
      <trkpt lat="46.71051" lon="5.67556">
        <ele>517.4</ele>
        <time>2020-12-19T13:26:55Z</time>
      </trkpt>
      <trkpt lat="46.71052" lon="5.67552">
        <ele>517.2</ele>
        <time>2020-12-19T13:26:56Z</time>
      </trkpt>
      <trkpt lat="46.71053" lon="5.67547">
        <ele>517</ele>
        <time>2020-12-19T13:26:57Z</time>
      </trkpt>
      <trkpt lat="46.71054" lon="5.67542">
        <ele>516.8</ele>
        <time>2020-12-19T13:26:58Z</time>
      </trkpt>
      <trkpt lat="46.71055" lon="5.67538">
        <ele>516.8</ele>
        <time>2020-12-19T13:26:59Z</time>
      </trkpt>
      <trkpt lat="46.71055" lon="5.67534">
        <ele>516.4</ele>
        <time>2020-12-19T13:27:00Z</time>
      </trkpt>
      <trkpt lat="46.71056" lon="5.6753">
        <ele>516.4</ele>
        <time>2020-12-19T13:27:01Z</time>
      </trkpt>
      <trkpt lat="46.71056" lon="5.67526">
        <ele>516</ele>
        <time>2020-12-19T13:27:02Z</time>
      </trkpt>
      <trkpt lat="46.71058" lon="5.67523">
        <ele>515.8</ele>
        <time>2020-12-19T13:27:03Z</time>
      </trkpt>
      <trkpt lat="46.71059" lon="5.6752">
        <ele>515.4</ele>
        <time>2020-12-19T13:27:04Z</time>
      </trkpt>
      <trkpt lat="46.71061" lon="5.67517">
        <ele>515.4</ele>
        <time>2020-12-19T13:27:05Z</time>
      </trkpt>
      <trkpt lat="46.71064" lon="5.67515">
        <ele>515</ele>
        <time>2020-12-19T13:27:06Z</time>
      </trkpt>
      <trkpt lat="46.71067" lon="5.67515">
        <ele>515</ele>
        <time>2020-12-19T13:27:07Z</time>
      </trkpt>
      <trkpt lat="46.7107" lon="5.67515">
        <ele>515</ele>
        <time>2020-12-19T13:27:08Z</time>
      </trkpt>
      <trkpt lat="46.71073" lon="5.67515">
        <ele>514.8</ele>
        <time>2020-12-19T13:27:09Z</time>
      </trkpt>
      <trkpt lat="46.71076" lon="5.67515">
        <ele>514.8</ele>
        <time>2020-12-19T13:27:10Z</time>
      </trkpt>
      <trkpt lat="46.71079" lon="5.67516">
        <ele>514.8</ele>
        <time>2020-12-19T13:27:11Z</time>
      </trkpt>
      <trkpt lat="46.71082" lon="5.67515">
        <ele>514.4</ele>
        <time>2020-12-19T13:27:12Z</time>
      </trkpt>
      <trkpt lat="46.71085" lon="5.67515">
        <ele>514.4</ele>
        <time>2020-12-19T13:27:13Z</time>
      </trkpt>
      <trkpt lat="46.71088" lon="5.67514">
        <ele>514.4</ele>
        <time>2020-12-19T13:27:14Z</time>
      </trkpt>
      <trkpt lat="46.7109" lon="5.67512">
        <ele>514.2</ele>
        <time>2020-12-19T13:27:15Z</time>
      </trkpt>
      <trkpt lat="46.71092" lon="5.67508">
        <ele>514.2</ele>
        <time>2020-12-19T13:27:16Z</time>
      </trkpt>
      <trkpt lat="46.71094" lon="5.67504">
        <ele>514</ele>
        <time>2020-12-19T13:27:17Z</time>
      </trkpt>
      <trkpt lat="46.71096" lon="5.675">
        <ele>514</ele>
        <time>2020-12-19T13:27:18Z</time>
      </trkpt>
      <trkpt lat="46.71098" lon="5.67496">
        <ele>513.6</ele>
        <time>2020-12-19T13:27:19Z</time>
      </trkpt>
      <trkpt lat="46.71099" lon="5.67491">
        <ele>513.6</ele>
        <time>2020-12-19T13:27:20Z</time>
      </trkpt>
      <trkpt lat="46.71101" lon="5.67487">
        <ele>513.2</ele>
        <time>2020-12-19T13:27:21Z</time>
      </trkpt>
      <trkpt lat="46.71102" lon="5.67483">
        <ele>513.2</ele>
        <time>2020-12-19T13:27:22Z</time>
      </trkpt>
      <trkpt lat="46.71103" lon="5.67479">
        <ele>513</ele>
        <time>2020-12-19T13:27:23Z</time>
      </trkpt>
      <trkpt lat="46.71104" lon="5.67476">
        <ele>513</ele>
        <time>2020-12-19T13:27:24Z</time>
      </trkpt>
      <trkpt lat="46.71105" lon="5.67473">
        <ele>512.6</ele>
        <time>2020-12-19T13:27:25Z</time>
      </trkpt>
      <trkpt lat="46.71107" lon="5.67469">
        <ele>512.6</ele>
        <time>2020-12-19T13:27:26Z</time>
      </trkpt>
      <trkpt lat="46.71108" lon="5.67466">
        <ele>512.6</ele>
        <time>2020-12-19T13:27:27Z</time>
      </trkpt>
      <trkpt lat="46.71109" lon="5.67463">
        <ele>512.4</ele>
        <time>2020-12-19T13:27:28Z</time>
      </trkpt>
      <trkpt lat="46.71111" lon="5.6746">
        <ele>512.4</ele>
        <time>2020-12-19T13:27:29Z</time>
      </trkpt>
      <trkpt lat="46.71112" lon="5.67457">
        <ele>512.4</ele>
        <time>2020-12-19T13:27:30Z</time>
      </trkpt>
      <trkpt lat="46.71113" lon="5.67454">
        <ele>512.4</ele>
        <time>2020-12-19T13:27:31Z</time>
      </trkpt>
      <trkpt lat="46.71115" lon="5.67451">
        <ele>512.4</ele>
        <time>2020-12-19T13:27:32Z</time>
      </trkpt>
      <trkpt lat="46.71117" lon="5.67448">
        <ele>512.4</ele>
        <time>2020-12-19T13:27:33Z</time>
      </trkpt>
      <trkpt lat="46.71119" lon="5.67444">
        <ele>512.4</ele>
        <time>2020-12-19T13:27:34Z</time>
      </trkpt>
      <trkpt lat="46.71121" lon="5.67442">
        <ele>512.4</ele>
        <time>2020-12-19T13:27:35Z</time>
      </trkpt>
      <trkpt lat="46.71123" lon="5.67439">
        <ele>512.4</ele>
        <time>2020-12-19T13:27:36Z</time>
      </trkpt>
      <trkpt lat="46.71125" lon="5.67436">
        <ele>512.4</ele>
        <time>2020-12-19T13:27:37Z</time>
      </trkpt>
      <trkpt lat="46.71127" lon="5.67433">
        <ele>512.4</ele>
        <time>2020-12-19T13:27:38Z</time>
      </trkpt>
      <trkpt lat="46.71128" lon="5.67431">
        <ele>512.4</ele>
        <time>2020-12-19T13:27:39Z</time>
      </trkpt>
      <trkpt lat="46.7113" lon="5.67428">
        <ele>512.4</ele>
        <time>2020-12-19T13:27:40Z</time>
      </trkpt>
      <trkpt lat="46.71132" lon="5.67426">
        <ele>512.4</ele>
        <time>2020-12-19T13:27:41Z</time>
      </trkpt>
      <trkpt lat="46.71134" lon="5.67422">
        <ele>512.6</ele>
        <time>2020-12-19T13:27:42Z</time>
      </trkpt>
      <trkpt lat="46.71135" lon="5.6742">
        <ele>512.6</ele>
        <time>2020-12-19T13:27:43Z</time>
      </trkpt>
      <trkpt lat="46.71137" lon="5.67417">
        <ele>512.6</ele>
        <time>2020-12-19T13:27:44Z</time>
      </trkpt>
      <trkpt lat="46.71139" lon="5.67415">
        <ele>512.6</ele>
        <time>2020-12-19T13:27:45Z</time>
      </trkpt>
      <trkpt lat="46.71141" lon="5.67412">
        <ele>512.6</ele>
        <time>2020-12-19T13:27:46Z</time>
      </trkpt>
      <trkpt lat="46.71142" lon="5.67409">
        <ele>512.6</ele>
        <time>2020-12-19T13:27:47Z</time>
      </trkpt>
      <trkpt lat="46.71144" lon="5.67406">
        <ele>513</ele>
        <time>2020-12-19T13:27:48Z</time>
      </trkpt>
      <trkpt lat="46.71145" lon="5.67403">
        <ele>513</ele>
        <time>2020-12-19T13:27:49Z</time>
      </trkpt>
      <trkpt lat="46.71147" lon="5.67401">
        <ele>513</ele>
        <time>2020-12-19T13:27:50Z</time>
      </trkpt>
      <trkpt lat="46.71148" lon="5.67398">
        <ele>513.2</ele>
        <time>2020-12-19T13:27:51Z</time>
      </trkpt>
      <trkpt lat="46.71149" lon="5.67395">
        <ele>513.2</ele>
        <time>2020-12-19T13:27:52Z</time>
      </trkpt>
      <trkpt lat="46.7115" lon="5.67392">
        <ele>513.2</ele>
        <time>2020-12-19T13:27:53Z</time>
      </trkpt>
      <trkpt lat="46.7115" lon="5.67391">
        <ele>513.4</ele>
        <time>2020-12-19T13:27:54Z</time>
      </trkpt>
      <trkpt lat="46.7115" lon="5.6739">
        <ele>513.4</ele>
        <time>2020-12-19T13:27:55Z</time>
      </trkpt>
      <trkpt lat="46.71152" lon="5.67385">
        <ele>514.2</ele>
        <time>2020-12-19T13:28:22Z</time>
      </trkpt>
      <trkpt lat="46.71153" lon="5.67383">
        <ele>514.2</ele>
        <time>2020-12-19T13:28:23Z</time>
      </trkpt>
      <trkpt lat="46.71154" lon="5.67381">
        <ele>514.2</ele>
        <time>2020-12-19T13:28:24Z</time>
      </trkpt>
      <trkpt lat="46.71154" lon="5.67378">
        <ele>514.2</ele>
        <time>2020-12-19T13:28:25Z</time>
      </trkpt>
      <trkpt lat="46.71155" lon="5.67375">
        <ele>514.2</ele>
        <time>2020-12-19T13:28:26Z</time>
      </trkpt>
      <trkpt lat="46.71156" lon="5.67372">
        <ele>514.4</ele>
        <time>2020-12-19T13:28:27Z</time>
      </trkpt>
      <trkpt lat="46.71156" lon="5.67369">
        <ele>514.4</ele>
        <time>2020-12-19T13:28:28Z</time>
      </trkpt>
      <trkpt lat="46.71157" lon="5.67366">
        <ele>514.8</ele>
        <time>2020-12-19T13:28:29Z</time>
      </trkpt>
      <trkpt lat="46.71158" lon="5.67363">
        <ele>514.8</ele>
        <time>2020-12-19T13:28:30Z</time>
      </trkpt>
      <trkpt lat="46.71158" lon="5.67359">
        <ele>514.8</ele>
        <time>2020-12-19T13:28:31Z</time>
      </trkpt>
      <trkpt lat="46.71159" lon="5.67356">
        <ele>515</ele>
        <time>2020-12-19T13:28:32Z</time>
      </trkpt>
      <trkpt lat="46.7116" lon="5.67352">
        <ele>515</ele>
        <time>2020-12-19T13:28:33Z</time>
      </trkpt>
      <trkpt lat="46.71161" lon="5.67349">
        <ele>515</ele>
        <time>2020-12-19T13:28:34Z</time>
      </trkpt>
      <trkpt lat="46.71161" lon="5.67345">
        <ele>515</ele>
        <time>2020-12-19T13:28:35Z</time>
      </trkpt>
      <trkpt lat="46.71162" lon="5.67342">
        <ele>515.2</ele>
        <time>2020-12-19T13:28:36Z</time>
      </trkpt>
      <trkpt lat="46.71163" lon="5.67339">
        <ele>515.2</ele>
        <time>2020-12-19T13:28:37Z</time>
      </trkpt>
      <trkpt lat="46.71164" lon="5.67335">
        <ele>515.2</ele>
        <time>2020-12-19T13:28:38Z</time>
      </trkpt>
      <trkpt lat="46.71165" lon="5.67332">
        <ele>515.2</ele>
        <time>2020-12-19T13:28:39Z</time>
      </trkpt>
      <trkpt lat="46.71166" lon="5.67328">
        <ele>515.2</ele>
        <time>2020-12-19T13:28:40Z</time>
      </trkpt>
      <trkpt lat="46.71167" lon="5.67323">
        <ele>515.2</ele>
        <time>2020-12-19T13:28:41Z</time>
      </trkpt>
      <trkpt lat="46.71168" lon="5.67319">
        <ele>515.2</ele>
        <time>2020-12-19T13:28:42Z</time>
      </trkpt>
      <trkpt lat="46.71169" lon="5.67315">
        <ele>515.2</ele>
        <time>2020-12-19T13:28:43Z</time>
      </trkpt>
      <trkpt lat="46.7117" lon="5.67311">
        <ele>515.2</ele>
        <time>2020-12-19T13:28:44Z</time>
      </trkpt>
      <trkpt lat="46.71171" lon="5.67306">
        <ele>515.2</ele>
        <time>2020-12-19T13:28:45Z</time>
      </trkpt>
      <trkpt lat="46.71172" lon="5.67301">
        <ele>515.2</ele>
        <time>2020-12-19T13:28:46Z</time>
      </trkpt>
      <trkpt lat="46.71173" lon="5.67297">
        <ele>515.2</ele>
        <time>2020-12-19T13:28:47Z</time>
      </trkpt>
      <trkpt lat="46.71174" lon="5.67292">
        <ele>515</ele>
        <time>2020-12-19T13:28:48Z</time>
      </trkpt>
      <trkpt lat="46.71175" lon="5.67288">
        <ele>515</ele>
        <time>2020-12-19T13:28:49Z</time>
      </trkpt>
      <trkpt lat="46.71176" lon="5.67283">
        <ele>515</ele>
        <time>2020-12-19T13:28:50Z</time>
      </trkpt>
      <trkpt lat="46.71177" lon="5.67279">
        <ele>515</ele>
        <time>2020-12-19T13:28:51Z</time>
      </trkpt>
      <trkpt lat="46.71178" lon="5.67276">
        <ele>514.8</ele>
        <time>2020-12-19T13:28:52Z</time>
      </trkpt>
      <trkpt lat="46.71179" lon="5.67271">
        <ele>514.8</ele>
        <time>2020-12-19T13:28:53Z</time>
      </trkpt>
      <trkpt lat="46.7118" lon="5.67266">
        <ele>514.8</ele>
        <time>2020-12-19T13:28:54Z</time>
      </trkpt>
      <trkpt lat="46.71182" lon="5.67261">
        <ele>514.6</ele>
        <time>2020-12-19T13:28:55Z</time>
      </trkpt>
      <trkpt lat="46.71183" lon="5.67256">
        <ele>514.6</ele>
        <time>2020-12-19T13:28:56Z</time>
      </trkpt>
      <trkpt lat="46.71184" lon="5.67251">
        <ele>514.6</ele>
        <time>2020-12-19T13:28:57Z</time>
      </trkpt>
      <trkpt lat="46.71185" lon="5.67245">
        <ele>514.6</ele>
        <time>2020-12-19T13:28:58Z</time>
      </trkpt>
      <trkpt lat="46.71186" lon="5.6724">
        <ele>514.6</ele>
        <time>2020-12-19T13:28:59Z</time>
      </trkpt>
      <trkpt lat="46.71187" lon="5.67234">
        <ele>514.2</ele>
        <time>2020-12-19T13:29:00Z</time>
      </trkpt>
      <trkpt lat="46.71187" lon="5.67228">
        <ele>514.2</ele>
        <time>2020-12-19T13:29:01Z</time>
      </trkpt>
      <trkpt lat="46.71188" lon="5.67222">
        <ele>514.2</ele>
        <time>2020-12-19T13:29:02Z</time>
      </trkpt>
      <trkpt lat="46.71189" lon="5.67216">
        <ele>514</ele>
        <time>2020-12-19T13:29:03Z</time>
      </trkpt>
      <trkpt lat="46.71189" lon="5.6721">
        <ele>514</ele>
        <time>2020-12-19T13:29:04Z</time>
      </trkpt>
      <trkpt lat="46.71189" lon="5.67203">
        <ele>514</ele>
        <time>2020-12-19T13:29:05Z</time>
      </trkpt>
      <trkpt lat="46.71189" lon="5.67197">
        <ele>513.6</ele>
        <time>2020-12-19T13:29:06Z</time>
      </trkpt>
      <trkpt lat="46.71189" lon="5.6719">
        <ele>513.6</ele>
        <time>2020-12-19T13:29:07Z</time>
      </trkpt>
      <trkpt lat="46.71189" lon="5.67184">
        <ele>513.4</ele>
        <time>2020-12-19T13:29:08Z</time>
      </trkpt>
      <trkpt lat="46.71189" lon="5.67178">
        <ele>513.4</ele>
        <time>2020-12-19T13:29:09Z</time>
      </trkpt>
      <trkpt lat="46.71189" lon="5.67172">
        <ele>513.4</ele>
        <time>2020-12-19T13:29:10Z</time>
      </trkpt>
      <trkpt lat="46.71189" lon="5.67167">
        <ele>513.4</ele>
        <time>2020-12-19T13:29:11Z</time>
      </trkpt>
      <trkpt lat="46.7119" lon="5.67161">
        <ele>513.4</ele>
        <time>2020-12-19T13:29:12Z</time>
      </trkpt>
      <trkpt lat="46.7119" lon="5.67155">
        <ele>513.4</ele>
        <time>2020-12-19T13:29:13Z</time>
      </trkpt>
      <trkpt lat="46.7119" lon="5.67149">
        <ele>513.4</ele>
        <time>2020-12-19T13:29:14Z</time>
      </trkpt>
      <trkpt lat="46.7119" lon="5.67143">
        <ele>513.4</ele>
        <time>2020-12-19T13:29:15Z</time>
      </trkpt>
      <trkpt lat="46.7119" lon="5.67137">
        <ele>513.4</ele>
        <time>2020-12-19T13:29:16Z</time>
      </trkpt>
      <trkpt lat="46.7119" lon="5.67131">
        <ele>513.4</ele>
        <time>2020-12-19T13:29:17Z</time>
      </trkpt>
      <trkpt lat="46.7119" lon="5.67126">
        <ele>513.4</ele>
        <time>2020-12-19T13:29:18Z</time>
      </trkpt>
      <trkpt lat="46.7119" lon="5.67121">
        <ele>513.4</ele>
        <time>2020-12-19T13:29:19Z</time>
      </trkpt>
      <trkpt lat="46.7119" lon="5.67115">
        <ele>513.6</ele>
        <time>2020-12-19T13:29:20Z</time>
      </trkpt>
      <trkpt lat="46.7119" lon="5.6711">
        <ele>513.6</ele>
        <time>2020-12-19T13:29:21Z</time>
      </trkpt>
      <trkpt lat="46.71191" lon="5.67105">
        <ele>513.6</ele>
        <time>2020-12-19T13:29:22Z</time>
      </trkpt>
      <trkpt lat="46.71192" lon="5.671">
        <ele>513.6</ele>
        <time>2020-12-19T13:29:23Z</time>
      </trkpt>
      <trkpt lat="46.71192" lon="5.67095">
        <ele>514</ele>
        <time>2020-12-19T13:29:24Z</time>
      </trkpt>
      <trkpt lat="46.71193" lon="5.67091">
        <ele>514</ele>
        <time>2020-12-19T13:29:25Z</time>
      </trkpt>
      <trkpt lat="46.71194" lon="5.67087">
        <ele>514.2</ele>
        <time>2020-12-19T13:29:26Z</time>
      </trkpt>
      <trkpt lat="46.71195" lon="5.67085">
        <ele>514.2</ele>
        <time>2020-12-19T13:29:27Z</time>
      </trkpt>
      <trkpt lat="46.71196" lon="5.67082">
        <ele>514.4</ele>
        <time>2020-12-19T13:29:28Z</time>
      </trkpt>
      <trkpt lat="46.71197" lon="5.67079">
        <ele>514.4</ele>
        <time>2020-12-19T13:29:29Z</time>
      </trkpt>
      <trkpt lat="46.71197" lon="5.67076">
        <ele>514.8</ele>
        <time>2020-12-19T13:29:30Z</time>
      </trkpt>
      <trkpt lat="46.71197" lon="5.67073">
        <ele>514.8</ele>
        <time>2020-12-19T13:29:31Z</time>
      </trkpt>
      <trkpt lat="46.71197" lon="5.6707">
        <ele>514.8</ele>
        <time>2020-12-19T13:29:32Z</time>
      </trkpt>
      <trkpt lat="46.71198" lon="5.67066">
        <ele>515.2</ele>
        <time>2020-12-19T13:29:33Z</time>
      </trkpt>
      <trkpt lat="46.71199" lon="5.67063">
        <ele>515.2</ele>
        <time>2020-12-19T13:29:34Z</time>
      </trkpt>
      <trkpt lat="46.712" lon="5.6706">
        <ele>515.2</ele>
        <time>2020-12-19T13:29:35Z</time>
      </trkpt>
      <trkpt lat="46.712" lon="5.67057">
        <ele>515.2</ele>
        <time>2020-12-19T13:29:36Z</time>
      </trkpt>
      <trkpt lat="46.71201" lon="5.67054">
        <ele>515.2</ele>
        <time>2020-12-19T13:29:37Z</time>
      </trkpt>
      <trkpt lat="46.71201" lon="5.6705">
        <ele>515.4</ele>
        <time>2020-12-19T13:29:38Z</time>
      </trkpt>
      <trkpt lat="46.71201" lon="5.67047">
        <ele>515.4</ele>
        <time>2020-12-19T13:29:39Z</time>
      </trkpt>
      <trkpt lat="46.71201" lon="5.67043">
        <ele>515.4</ele>
        <time>2020-12-19T13:29:40Z</time>
      </trkpt>
      <trkpt lat="46.71202" lon="5.67039">
        <ele>515.4</ele>
        <time>2020-12-19T13:29:41Z</time>
      </trkpt>
      <trkpt lat="46.71203" lon="5.67036">
        <ele>515.4</ele>
        <time>2020-12-19T13:29:42Z</time>
      </trkpt>
      <trkpt lat="46.71203" lon="5.67032">
        <ele>515.4</ele>
        <time>2020-12-19T13:29:43Z</time>
      </trkpt>
      <trkpt lat="46.71204" lon="5.67028">
        <ele>515.6</ele>
        <time>2020-12-19T13:29:44Z</time>
      </trkpt>
      <trkpt lat="46.71204" lon="5.67024">
        <ele>515.6</ele>
        <time>2020-12-19T13:29:45Z</time>
      </trkpt>
      <trkpt lat="46.71205" lon="5.6702">
        <ele>515.6</ele>
        <time>2020-12-19T13:29:46Z</time>
      </trkpt>
      <trkpt lat="46.71206" lon="5.67016">
        <ele>515.6</ele>
        <time>2020-12-19T13:29:47Z</time>
      </trkpt>
      <trkpt lat="46.71208" lon="5.67011">
        <ele>515.6</ele>
        <time>2020-12-19T13:29:48Z</time>
      </trkpt>
      <trkpt lat="46.71209" lon="5.67007">
        <ele>515.6</ele>
        <time>2020-12-19T13:29:49Z</time>
      </trkpt>
      <trkpt lat="46.7121" lon="5.67002">
        <ele>515.6</ele>
        <time>2020-12-19T13:29:50Z</time>
      </trkpt>
      <trkpt lat="46.71211" lon="5.66997">
        <ele>515.6</ele>
        <time>2020-12-19T13:29:51Z</time>
      </trkpt>
      <trkpt lat="46.71212" lon="5.66992">
        <ele>515.6</ele>
        <time>2020-12-19T13:29:52Z</time>
      </trkpt>
      <trkpt lat="46.71213" lon="5.66988">
        <ele>515.6</ele>
        <time>2020-12-19T13:29:53Z</time>
      </trkpt>
      <trkpt lat="46.71215" lon="5.66983">
        <ele>515.6</ele>
        <time>2020-12-19T13:29:54Z</time>
      </trkpt>
      <trkpt lat="46.71217" lon="5.66979">
        <ele>515.6</ele>
        <time>2020-12-19T13:29:55Z</time>
      </trkpt>
      <trkpt lat="46.71219" lon="5.66975">
        <ele>515.6</ele>
        <time>2020-12-19T13:29:56Z</time>
      </trkpt>
      <trkpt lat="46.7122" lon="5.6697">
        <ele>515.6</ele>
        <time>2020-12-19T13:29:57Z</time>
      </trkpt>
      <trkpt lat="46.71222" lon="5.66966">
        <ele>515.6</ele>
        <time>2020-12-19T13:29:58Z</time>
      </trkpt>
      <trkpt lat="46.71223" lon="5.66961">
        <ele>515.6</ele>
        <time>2020-12-19T13:29:59Z</time>
      </trkpt>
      <trkpt lat="46.71225" lon="5.66957">
        <ele>515.6</ele>
        <time>2020-12-19T13:30:00Z</time>
      </trkpt>
      <trkpt lat="46.71227" lon="5.66951">
        <ele>515.6</ele>
        <time>2020-12-19T13:30:01Z</time>
      </trkpt>
      <trkpt lat="46.71228" lon="5.66946">
        <ele>515.6</ele>
        <time>2020-12-19T13:30:02Z</time>
      </trkpt>
      <trkpt lat="46.7123" lon="5.6694">
        <ele>515.6</ele>
        <time>2020-12-19T13:30:03Z</time>
      </trkpt>
      <trkpt lat="46.71231" lon="5.66935">
        <ele>515.6</ele>
        <time>2020-12-19T13:30:04Z</time>
      </trkpt>
      <trkpt lat="46.71233" lon="5.6693">
        <ele>515.6</ele>
        <time>2020-12-19T13:30:05Z</time>
      </trkpt>
      <trkpt lat="46.71234" lon="5.66925">
        <ele>515.6</ele>
        <time>2020-12-19T13:30:06Z</time>
      </trkpt>
      <trkpt lat="46.71235" lon="5.66919">
        <ele>515.6</ele>
        <time>2020-12-19T13:30:07Z</time>
      </trkpt>
      <trkpt lat="46.71237" lon="5.66914">
        <ele>515.6</ele>
        <time>2020-12-19T13:30:08Z</time>
      </trkpt>
      <trkpt lat="46.71238" lon="5.66909">
        <ele>515.6</ele>
        <time>2020-12-19T13:30:09Z</time>
      </trkpt>
      <trkpt lat="46.71239" lon="5.66904">
        <ele>515.6</ele>
        <time>2020-12-19T13:30:10Z</time>
      </trkpt>
      <trkpt lat="46.7124" lon="5.669">
        <ele>515.6</ele>
        <time>2020-12-19T13:30:11Z</time>
      </trkpt>
      <trkpt lat="46.71242" lon="5.66895">
        <ele>515.4</ele>
        <time>2020-12-19T13:30:12Z</time>
      </trkpt>
      <trkpt lat="46.71243" lon="5.6689">
        <ele>515.4</ele>
        <time>2020-12-19T13:30:13Z</time>
      </trkpt>
      <trkpt lat="46.71244" lon="5.66885">
        <ele>515.4</ele>
        <time>2020-12-19T13:30:14Z</time>
      </trkpt>
      <trkpt lat="46.71246" lon="5.6688">
        <ele>515.4</ele>
        <time>2020-12-19T13:30:15Z</time>
      </trkpt>
      <trkpt lat="46.71247" lon="5.66875">
        <ele>515.4</ele>
        <time>2020-12-19T13:30:16Z</time>
      </trkpt>
      <trkpt lat="46.71248" lon="5.66871">
        <ele>515.4</ele>
        <time>2020-12-19T13:30:17Z</time>
      </trkpt>
      <trkpt lat="46.71249" lon="5.66866">
        <ele>515.4</ele>
        <time>2020-12-19T13:30:18Z</time>
      </trkpt>
      <trkpt lat="46.71249" lon="5.66861">
        <ele>515.4</ele>
        <time>2020-12-19T13:30:19Z</time>
      </trkpt>
      <trkpt lat="46.71249" lon="5.66856">
        <ele>515.4</ele>
        <time>2020-12-19T13:30:20Z</time>
      </trkpt>
      <trkpt lat="46.7125" lon="5.66851">
        <ele>515.2</ele>
        <time>2020-12-19T13:30:21Z</time>
      </trkpt>
      <trkpt lat="46.71251" lon="5.66847">
        <ele>515.2</ele>
        <time>2020-12-19T13:30:22Z</time>
      </trkpt>
      <trkpt lat="46.71252" lon="5.66842">
        <ele>515.2</ele>
        <time>2020-12-19T13:30:23Z</time>
      </trkpt>
      <trkpt lat="46.71252" lon="5.66838">
        <ele>515.2</ele>
        <time>2020-12-19T13:30:24Z</time>
      </trkpt>
      <trkpt lat="46.71253" lon="5.66833">
        <ele>515.2</ele>
        <time>2020-12-19T13:30:25Z</time>
      </trkpt>
      <trkpt lat="46.71253" lon="5.66828">
        <ele>515.2</ele>
        <time>2020-12-19T13:30:26Z</time>
      </trkpt>
      <trkpt lat="46.71254" lon="5.66824">
        <ele>515</ele>
        <time>2020-12-19T13:30:27Z</time>
      </trkpt>
      <trkpt lat="46.71255" lon="5.66819">
        <ele>515</ele>
        <time>2020-12-19T13:30:28Z</time>
      </trkpt>
      <trkpt lat="46.71255" lon="5.66814">
        <ele>515</ele>
        <time>2020-12-19T13:30:29Z</time>
      </trkpt>
      <trkpt lat="46.71256" lon="5.6681">
        <ele>515</ele>
        <time>2020-12-19T13:30:30Z</time>
      </trkpt>
      <trkpt lat="46.71256" lon="5.66805">
        <ele>515</ele>
        <time>2020-12-19T13:30:31Z</time>
      </trkpt>
      <trkpt lat="46.71256" lon="5.668">
        <ele>515</ele>
        <time>2020-12-19T13:30:32Z</time>
      </trkpt>
      <trkpt lat="46.71257" lon="5.66796">
        <ele>515</ele>
        <time>2020-12-19T13:30:33Z</time>
      </trkpt>
      <trkpt lat="46.71258" lon="5.66791">
        <ele>514.6</ele>
        <time>2020-12-19T13:30:34Z</time>
      </trkpt>
      <trkpt lat="46.71259" lon="5.66787">
        <ele>514.6</ele>
        <time>2020-12-19T13:30:35Z</time>
      </trkpt>
      <trkpt lat="46.7126" lon="5.66782">
        <ele>514.6</ele>
        <time>2020-12-19T13:30:36Z</time>
      </trkpt>
      <trkpt lat="46.7126" lon="5.66777">
        <ele>514.6</ele>
        <time>2020-12-19T13:30:37Z</time>
      </trkpt>
      <trkpt lat="46.71261" lon="5.66773">
        <ele>514.6</ele>
        <time>2020-12-19T13:30:38Z</time>
      </trkpt>
      <trkpt lat="46.71262" lon="5.66768">
        <ele>514.6</ele>
        <time>2020-12-19T13:30:39Z</time>
      </trkpt>
      <trkpt lat="46.71262" lon="5.66764">
        <ele>514.6</ele>
        <time>2020-12-19T13:30:40Z</time>
      </trkpt>
      <trkpt lat="46.71263" lon="5.66759">
        <ele>514.4</ele>
        <time>2020-12-19T13:30:41Z</time>
      </trkpt>
      <trkpt lat="46.71264" lon="5.66754">
        <ele>514.4</ele>
        <time>2020-12-19T13:30:42Z</time>
      </trkpt>
      <trkpt lat="46.71264" lon="5.6675">
        <ele>514</ele>
        <time>2020-12-19T13:30:43Z</time>
      </trkpt>
      <trkpt lat="46.71264" lon="5.66745">
        <ele>514</ele>
        <time>2020-12-19T13:30:44Z</time>
      </trkpt>
      <trkpt lat="46.71265" lon="5.6674">
        <ele>514</ele>
        <time>2020-12-19T13:30:45Z</time>
      </trkpt>
      <trkpt lat="46.71265" lon="5.66735">
        <ele>514</ele>
        <time>2020-12-19T13:30:46Z</time>
      </trkpt>
      <trkpt lat="46.71265" lon="5.66731">
        <ele>513.8</ele>
        <time>2020-12-19T13:30:47Z</time>
      </trkpt>
      <trkpt lat="46.71265" lon="5.66727">
        <ele>513.8</ele>
        <time>2020-12-19T13:30:48Z</time>
      </trkpt>
      <trkpt lat="46.71265" lon="5.66723">
        <ele>513.4</ele>
        <time>2020-12-19T13:30:49Z</time>
      </trkpt>
      <trkpt lat="46.71265" lon="5.6672">
        <ele>513.2</ele>
        <time>2020-12-19T13:30:50Z</time>
      </trkpt>
      <trkpt lat="46.71265" lon="5.66716">
        <ele>512.8</ele>
        <time>2020-12-19T13:30:51Z</time>
      </trkpt>
      <trkpt lat="46.71265" lon="5.66713">
        <ele>512.8</ele>
        <time>2020-12-19T13:30:52Z</time>
      </trkpt>
      <trkpt lat="46.71265" lon="5.66712">
        <ele>512.6</ele>
        <time>2020-12-19T13:30:53Z</time>
      </trkpt>
      <trkpt lat="46.71265" lon="5.66712">
        <ele>512.6</ele>
        <time>2020-12-19T13:30:54Z</time>
      </trkpt>
      <trkpt lat="46.71265" lon="5.66712">
        <ele>512.6</ele>
        <time>2020-12-19T13:30:55Z</time>
      </trkpt>
      <trkpt lat="46.71264" lon="5.66706">
        <ele>512.4</ele>
        <time>2020-12-19T13:31:16Z</time>
      </trkpt>
      <trkpt lat="46.71264" lon="5.66703">
        <ele>512.4</ele>
        <time>2020-12-19T13:31:17Z</time>
      </trkpt>
      <trkpt lat="46.71264" lon="5.667">
        <ele>512.4</ele>
        <time>2020-12-19T13:31:18Z</time>
      </trkpt>
      <trkpt lat="46.71263" lon="5.66696">
        <ele>512.4</ele>
        <time>2020-12-19T13:31:19Z</time>
      </trkpt>
      <trkpt lat="46.71262" lon="5.66692">
        <ele>512.4</ele>
        <time>2020-12-19T13:31:20Z</time>
      </trkpt>
      <trkpt lat="46.71262" lon="5.66688">
        <ele>512.4</ele>
        <time>2020-12-19T13:31:21Z</time>
      </trkpt>
      <trkpt lat="46.71261" lon="5.66683">
        <ele>512.4</ele>
        <time>2020-12-19T13:31:22Z</time>
      </trkpt>
      <trkpt lat="46.7126" lon="5.66679">
        <ele>512.4</ele>
        <time>2020-12-19T13:31:23Z</time>
      </trkpt>
      <trkpt lat="46.71259" lon="5.66674">
        <ele>512.4</ele>
        <time>2020-12-19T13:31:24Z</time>
      </trkpt>
      <trkpt lat="46.71259" lon="5.6667">
        <ele>512.4</ele>
        <time>2020-12-19T13:31:25Z</time>
      </trkpt>
      <trkpt lat="46.71258" lon="5.66666">
        <ele>512.4</ele>
        <time>2020-12-19T13:31:26Z</time>
      </trkpt>
      <trkpt lat="46.71257" lon="5.66662">
        <ele>512.4</ele>
        <time>2020-12-19T13:31:27Z</time>
      </trkpt>
      <trkpt lat="46.71257" lon="5.66658">
        <ele>512.6</ele>
        <time>2020-12-19T13:31:28Z</time>
      </trkpt>
      <trkpt lat="46.71257" lon="5.66654">
        <ele>512.6</ele>
        <time>2020-12-19T13:31:29Z</time>
      </trkpt>
      <trkpt lat="46.71257" lon="5.66649">
        <ele>512.6</ele>
        <time>2020-12-19T13:31:30Z</time>
      </trkpt>
      <trkpt lat="46.71257" lon="5.66645">
        <ele>512.8</ele>
        <time>2020-12-19T13:31:31Z</time>
      </trkpt>
      <trkpt lat="46.71257" lon="5.6664">
        <ele>512.8</ele>
        <time>2020-12-19T13:31:32Z</time>
      </trkpt>
      <trkpt lat="46.71256" lon="5.66634">
        <ele>512.8</ele>
        <time>2020-12-19T13:31:33Z</time>
      </trkpt>
      <trkpt lat="46.71257" lon="5.66629">
        <ele>512.8</ele>
        <time>2020-12-19T13:31:34Z</time>
      </trkpt>
      <trkpt lat="46.71257" lon="5.66623">
        <ele>512.6</ele>
        <time>2020-12-19T13:31:35Z</time>
      </trkpt>
      <trkpt lat="46.71257" lon="5.66617">
        <ele>512.6</ele>
        <time>2020-12-19T13:31:36Z</time>
      </trkpt>
      <trkpt lat="46.71258" lon="5.66612">
        <ele>512.6</ele>
        <time>2020-12-19T13:31:37Z</time>
      </trkpt>
      <trkpt lat="46.71258" lon="5.66606">
        <ele>512.6</ele>
        <time>2020-12-19T13:31:38Z</time>
      </trkpt>
      <trkpt lat="46.71259" lon="5.66601">
        <ele>512.4</ele>
        <time>2020-12-19T13:31:39Z</time>
      </trkpt>
      <trkpt lat="46.7126" lon="5.66595">
        <ele>512.4</ele>
        <time>2020-12-19T13:31:40Z</time>
      </trkpt>
      <trkpt lat="46.7126" lon="5.6659">
        <ele>512.4</ele>
        <time>2020-12-19T13:31:41Z</time>
      </trkpt>
      <trkpt lat="46.71261" lon="5.66585">
        <ele>512.4</ele>
        <time>2020-12-19T13:31:42Z</time>
      </trkpt>
      <trkpt lat="46.71262" lon="5.6658">
        <ele>512.4</ele>
        <time>2020-12-19T13:31:43Z</time>
      </trkpt>
      <trkpt lat="46.71262" lon="5.66575">
        <ele>512.2</ele>
        <time>2020-12-19T13:31:44Z</time>
      </trkpt>
      <trkpt lat="46.71263" lon="5.6657">
        <ele>512.2</ele>
        <time>2020-12-19T13:31:45Z</time>
      </trkpt>
      <trkpt lat="46.71263" lon="5.66565">
        <ele>512.2</ele>
        <time>2020-12-19T13:31:46Z</time>
      </trkpt>
      <trkpt lat="46.71264" lon="5.6656">
        <ele>512.2</ele>
        <time>2020-12-19T13:31:47Z</time>
      </trkpt>
      <trkpt lat="46.71265" lon="5.66555">
        <ele>512.2</ele>
        <time>2020-12-19T13:31:48Z</time>
      </trkpt>
      <trkpt lat="46.71266" lon="5.6655">
        <ele>512.2</ele>
        <time>2020-12-19T13:31:49Z</time>
      </trkpt>
      <trkpt lat="46.71267" lon="5.66545">
        <ele>512.2</ele>
        <time>2020-12-19T13:31:50Z</time>
      </trkpt>
      <trkpt lat="46.71268" lon="5.6654">
        <ele>512.2</ele>
        <time>2020-12-19T13:31:51Z</time>
      </trkpt>
      <trkpt lat="46.71268" lon="5.66535">
        <ele>512.2</ele>
        <time>2020-12-19T13:31:52Z</time>
      </trkpt>
      <trkpt lat="46.71268" lon="5.6653">
        <ele>512.4</ele>
        <time>2020-12-19T13:31:53Z</time>
      </trkpt>
      <trkpt lat="46.71269" lon="5.66524">
        <ele>512.4</ele>
        <time>2020-12-19T13:31:54Z</time>
      </trkpt>
      <trkpt lat="46.71269" lon="5.66519">
        <ele>512.4</ele>
        <time>2020-12-19T13:31:55Z</time>
      </trkpt>
      <trkpt lat="46.7127" lon="5.66514">
        <ele>512.4</ele>
        <time>2020-12-19T13:31:56Z</time>
      </trkpt>
      <trkpt lat="46.7127" lon="5.66509">
        <ele>512.4</ele>
        <time>2020-12-19T13:31:57Z</time>
      </trkpt>
      <trkpt lat="46.71271" lon="5.66504">
        <ele>512</ele>
        <time>2020-12-19T13:31:58Z</time>
      </trkpt>
      <trkpt lat="46.71271" lon="5.66499">
        <ele>512</ele>
        <time>2020-12-19T13:31:59Z</time>
      </trkpt>
      <trkpt lat="46.71272" lon="5.66494">
        <ele>512</ele>
        <time>2020-12-19T13:32:00Z</time>
      </trkpt>
      <trkpt lat="46.71273" lon="5.66489">
        <ele>512</ele>
        <time>2020-12-19T13:32:01Z</time>
      </trkpt>
      <trkpt lat="46.71273" lon="5.66484">
        <ele>512</ele>
        <time>2020-12-19T13:32:02Z</time>
      </trkpt>
      <trkpt lat="46.71273" lon="5.66479">
        <ele>512</ele>
        <time>2020-12-19T13:32:03Z</time>
      </trkpt>
      <trkpt lat="46.71274" lon="5.66474">
        <ele>512</ele>
        <time>2020-12-19T13:32:04Z</time>
      </trkpt>
      <trkpt lat="46.71275" lon="5.66469">
        <ele>511.8</ele>
        <time>2020-12-19T13:32:05Z</time>
      </trkpt>
      <trkpt lat="46.71276" lon="5.66464">
        <ele>511.8</ele>
        <time>2020-12-19T13:32:06Z</time>
      </trkpt>
      <trkpt lat="46.71276" lon="5.66459">
        <ele>511.8</ele>
        <time>2020-12-19T13:32:07Z</time>
      </trkpt>
      <trkpt lat="46.71277" lon="5.66454">
        <ele>511.8</ele>
        <time>2020-12-19T13:32:08Z</time>
      </trkpt>
      <trkpt lat="46.71278" lon="5.66449">
        <ele>511.6</ele>
        <time>2020-12-19T13:32:09Z</time>
      </trkpt>
      <trkpt lat="46.71278" lon="5.66443">
        <ele>511.6</ele>
        <time>2020-12-19T13:32:10Z</time>
      </trkpt>
      <trkpt lat="46.71279" lon="5.66437">
        <ele>511.2</ele>
        <time>2020-12-19T13:32:11Z</time>
      </trkpt>
      <trkpt lat="46.7128" lon="5.66432">
        <ele>511.2</ele>
        <time>2020-12-19T13:32:12Z</time>
      </trkpt>
      <trkpt lat="46.71281" lon="5.66426">
        <ele>511.2</ele>
        <time>2020-12-19T13:32:13Z</time>
      </trkpt>
      <trkpt lat="46.71281" lon="5.66421">
        <ele>511</ele>
        <time>2020-12-19T13:32:14Z</time>
      </trkpt>
      <trkpt lat="46.71282" lon="5.66416">
        <ele>511</ele>
        <time>2020-12-19T13:32:15Z</time>
      </trkpt>
      <trkpt lat="46.71283" lon="5.66411">
        <ele>511</ele>
        <time>2020-12-19T13:32:16Z</time>
      </trkpt>
      <trkpt lat="46.71284" lon="5.66406">
        <ele>511</ele>
        <time>2020-12-19T13:32:17Z</time>
      </trkpt>
      <trkpt lat="46.71286" lon="5.66401">
        <ele>511</ele>
        <time>2020-12-19T13:32:18Z</time>
      </trkpt>
      <trkpt lat="46.71287" lon="5.66396">
        <ele>511</ele>
        <time>2020-12-19T13:32:19Z</time>
      </trkpt>
      <trkpt lat="46.71288" lon="5.66391">
        <ele>511</ele>
        <time>2020-12-19T13:32:20Z</time>
      </trkpt>
      <trkpt lat="46.71289" lon="5.66387">
        <ele>511</ele>
        <time>2020-12-19T13:32:21Z</time>
      </trkpt>
      <trkpt lat="46.7129" lon="5.66382">
        <ele>511</ele>
        <time>2020-12-19T13:32:22Z</time>
      </trkpt>
      <trkpt lat="46.71291" lon="5.66377">
        <ele>510.8</ele>
        <time>2020-12-19T13:32:23Z</time>
      </trkpt>
      <trkpt lat="46.71291" lon="5.66372">
        <ele>510.8</ele>
        <time>2020-12-19T13:32:24Z</time>
      </trkpt>
      <trkpt lat="46.71292" lon="5.66368">
        <ele>510.8</ele>
        <time>2020-12-19T13:32:25Z</time>
      </trkpt>
      <trkpt lat="46.71293" lon="5.66363">
        <ele>510.8</ele>
        <time>2020-12-19T13:32:26Z</time>
      </trkpt>
      <trkpt lat="46.71294" lon="5.66358">
        <ele>510.8</ele>
        <time>2020-12-19T13:32:27Z</time>
      </trkpt>
      <trkpt lat="46.71295" lon="5.66353">
        <ele>510.6</ele>
        <time>2020-12-19T13:32:28Z</time>
      </trkpt>
      <trkpt lat="46.71296" lon="5.66348">
        <ele>510.6</ele>
        <time>2020-12-19T13:32:29Z</time>
      </trkpt>
      <trkpt lat="46.71296" lon="5.66343">
        <ele>510.6</ele>
        <time>2020-12-19T13:32:30Z</time>
      </trkpt>
      <trkpt lat="46.71297" lon="5.66338">
        <ele>510.6</ele>
        <time>2020-12-19T13:32:31Z</time>
      </trkpt>
      <trkpt lat="46.71297" lon="5.66332">
        <ele>510.2</ele>
        <time>2020-12-19T13:32:32Z</time>
      </trkpt>
      <trkpt lat="46.71297" lon="5.66327">
        <ele>510.2</ele>
        <time>2020-12-19T13:32:33Z</time>
      </trkpt>
      <trkpt lat="46.71297" lon="5.66321">
        <ele>510</ele>
        <time>2020-12-19T13:32:34Z</time>
      </trkpt>
      <trkpt lat="46.71296" lon="5.66315">
        <ele>510</ele>
        <time>2020-12-19T13:32:35Z</time>
      </trkpt>
      <trkpt lat="46.71294" lon="5.6631">
        <ele>510</ele>
        <time>2020-12-19T13:32:36Z</time>
      </trkpt>
      <trkpt lat="46.71292" lon="5.66305">
        <ele>510</ele>
        <time>2020-12-19T13:32:37Z</time>
      </trkpt>
      <trkpt lat="46.71289" lon="5.66301">
        <ele>509.6</ele>
        <time>2020-12-19T13:32:38Z</time>
      </trkpt>
      <trkpt lat="46.71286" lon="5.66297">
        <ele>509.6</ele>
        <time>2020-12-19T13:32:39Z</time>
      </trkpt>
      <trkpt lat="46.71282" lon="5.66294">
        <ele>509.4</ele>
        <time>2020-12-19T13:32:40Z</time>
      </trkpt>
      <trkpt lat="46.71278" lon="5.6629">
        <ele>509.4</ele>
        <time>2020-12-19T13:32:41Z</time>
      </trkpt>
      <trkpt lat="46.71275" lon="5.66288">
        <ele>509.2</ele>
        <time>2020-12-19T13:32:42Z</time>
      </trkpt>
      <trkpt lat="46.71271" lon="5.66285">
        <ele>509.2</ele>
        <time>2020-12-19T13:32:43Z</time>
      </trkpt>
      <trkpt lat="46.71267" lon="5.66282">
        <ele>509</ele>
        <time>2020-12-19T13:32:44Z</time>
      </trkpt>
      <trkpt lat="46.71263" lon="5.66279">
        <ele>509</ele>
        <time>2020-12-19T13:32:45Z</time>
      </trkpt>
      <trkpt lat="46.71259" lon="5.66275">
        <ele>509</ele>
        <time>2020-12-19T13:32:46Z</time>
      </trkpt>
      <trkpt lat="46.71255" lon="5.66272">
        <ele>508.6</ele>
        <time>2020-12-19T13:32:47Z</time>
      </trkpt>
      <trkpt lat="46.71251" lon="5.66268">
        <ele>508.6</ele>
        <time>2020-12-19T13:32:48Z</time>
      </trkpt>
      <trkpt lat="46.71247" lon="5.66264">
        <ele>508.2</ele>
        <time>2020-12-19T13:32:49Z</time>
      </trkpt>
      <trkpt lat="46.71243" lon="5.66259">
        <ele>508.2</ele>
        <time>2020-12-19T13:32:50Z</time>
      </trkpt>
      <trkpt lat="46.71239" lon="5.66253">
        <ele>507.8</ele>
        <time>2020-12-19T13:32:51Z</time>
      </trkpt>
      <trkpt lat="46.71236" lon="5.66247">
        <ele>507.6</ele>
        <time>2020-12-19T13:32:52Z</time>
      </trkpt>
      <trkpt lat="46.71234" lon="5.66239">
        <ele>507.2</ele>
        <time>2020-12-19T13:32:53Z</time>
      </trkpt>
      <trkpt lat="46.71232" lon="5.66231">
        <ele>507</ele>
        <time>2020-12-19T13:32:54Z</time>
      </trkpt>
      <trkpt lat="46.71232" lon="5.66222">
        <ele>507</ele>
        <time>2020-12-19T13:32:55Z</time>
      </trkpt>
      <trkpt lat="46.71232" lon="5.66213">
        <ele>506.6</ele>
        <time>2020-12-19T13:32:56Z</time>
      </trkpt>
      <trkpt lat="46.71233" lon="5.66204">
        <ele>506.4</ele>
        <time>2020-12-19T13:32:57Z</time>
      </trkpt>
      <trkpt lat="46.71234" lon="5.66195">
        <ele>506.4</ele>
        <time>2020-12-19T13:32:58Z</time>
      </trkpt>
      <trkpt lat="46.71235" lon="5.66187">
        <ele>506.4</ele>
        <time>2020-12-19T13:32:59Z</time>
      </trkpt>
      <trkpt lat="46.71236" lon="5.66179">
        <ele>506</ele>
        <time>2020-12-19T13:33:00Z</time>
      </trkpt>
      <trkpt lat="46.71236" lon="5.66172">
        <ele>506</ele>
        <time>2020-12-19T13:33:01Z</time>
      </trkpt>
      <trkpt lat="46.71237" lon="5.66164">
        <ele>506</ele>
        <time>2020-12-19T13:33:02Z</time>
      </trkpt>
      <trkpt lat="46.71237" lon="5.66157">
        <ele>505.8</ele>
        <time>2020-12-19T13:33:03Z</time>
      </trkpt>
      <trkpt lat="46.71237" lon="5.66151">
        <ele>505.8</ele>
        <time>2020-12-19T13:33:04Z</time>
      </trkpt>
      <trkpt lat="46.71238" lon="5.66144">
        <ele>505.6</ele>
        <time>2020-12-19T13:33:05Z</time>
      </trkpt>
      <trkpt lat="46.71238" lon="5.66138">
        <ele>505.6</ele>
        <time>2020-12-19T13:33:06Z</time>
      </trkpt>
      <trkpt lat="46.71238" lon="5.66132">
        <ele>505.6</ele>
        <time>2020-12-19T13:33:07Z</time>
      </trkpt>
      <trkpt lat="46.71238" lon="5.66127">
        <ele>505.6</ele>
        <time>2020-12-19T13:33:08Z</time>
      </trkpt>
      <trkpt lat="46.71238" lon="5.66121">
        <ele>505.6</ele>
        <time>2020-12-19T13:33:09Z</time>
      </trkpt>
      <trkpt lat="46.71238" lon="5.66116">
        <ele>505.6</ele>
        <time>2020-12-19T13:33:10Z</time>
      </trkpt>
      <trkpt lat="46.71238" lon="5.66112">
        <ele>505.6</ele>
        <time>2020-12-19T13:33:11Z</time>
      </trkpt>
      <trkpt lat="46.71239" lon="5.66107">
        <ele>505.6</ele>
        <time>2020-12-19T13:33:12Z</time>
      </trkpt>
      <trkpt lat="46.71239" lon="5.66103">
        <ele>505.2</ele>
        <time>2020-12-19T13:33:13Z</time>
      </trkpt>
      <trkpt lat="46.7124" lon="5.66099">
        <ele>505.2</ele>
        <time>2020-12-19T13:33:14Z</time>
      </trkpt>
      <trkpt lat="46.71241" lon="5.66095">
        <ele>505.2</ele>
        <time>2020-12-19T13:33:15Z</time>
      </trkpt>
      <trkpt lat="46.71241" lon="5.66091">
        <ele>505.2</ele>
        <time>2020-12-19T13:33:16Z</time>
      </trkpt>
      <trkpt lat="46.71241" lon="5.66087">
        <ele>505.2</ele>
        <time>2020-12-19T13:33:17Z</time>
      </trkpt>
      <trkpt lat="46.71242" lon="5.66083">
        <ele>505.2</ele>
        <time>2020-12-19T13:33:18Z</time>
      </trkpt>
      <trkpt lat="46.71242" lon="5.66079">
        <ele>505</ele>
        <time>2020-12-19T13:33:19Z</time>
      </trkpt>
      <trkpt lat="46.71242" lon="5.66075">
        <ele>505</ele>
        <time>2020-12-19T13:33:20Z</time>
      </trkpt>
      <trkpt lat="46.71243" lon="5.6607">
        <ele>505</ele>
        <time>2020-12-19T13:33:21Z</time>
      </trkpt>
      <trkpt lat="46.71244" lon="5.66065">
        <ele>504.8</ele>
        <time>2020-12-19T13:33:22Z</time>
      </trkpt>
      <trkpt lat="46.71245" lon="5.6606">
        <ele>504.8</ele>
        <time>2020-12-19T13:33:23Z</time>
      </trkpt>
      <trkpt lat="46.71246" lon="5.66056">
        <ele>504.8</ele>
        <time>2020-12-19T13:33:24Z</time>
      </trkpt>
      <trkpt lat="46.71246" lon="5.66051">
        <ele>504.8</ele>
        <time>2020-12-19T13:33:25Z</time>
      </trkpt>
      <trkpt lat="46.71247" lon="5.66046">
        <ele>504.6</ele>
        <time>2020-12-19T13:33:26Z</time>
      </trkpt>
      <trkpt lat="46.71247" lon="5.66042">
        <ele>504.6</ele>
        <time>2020-12-19T13:33:27Z</time>
      </trkpt>
      <trkpt lat="46.71248" lon="5.66037">
        <ele>504.6</ele>
        <time>2020-12-19T13:33:28Z</time>
      </trkpt>
      <trkpt lat="46.71248" lon="5.66032">
        <ele>504.2</ele>
        <time>2020-12-19T13:33:29Z</time>
      </trkpt>
      <trkpt lat="46.71249" lon="5.66026">
        <ele>504.2</ele>
        <time>2020-12-19T13:33:30Z</time>
      </trkpt>
      <trkpt lat="46.7125" lon="5.66021">
        <ele>504.2</ele>
        <time>2020-12-19T13:33:31Z</time>
      </trkpt>
      <trkpt lat="46.7125" lon="5.66015">
        <ele>504</ele>
        <time>2020-12-19T13:33:32Z</time>
      </trkpt>
      <trkpt lat="46.71251" lon="5.66009">
        <ele>504</ele>
        <time>2020-12-19T13:33:33Z</time>
      </trkpt>
      <trkpt lat="46.71252" lon="5.66002">
        <ele>503.8</ele>
        <time>2020-12-19T13:33:34Z</time>
      </trkpt>
      <trkpt lat="46.71252" lon="5.65995">
        <ele>503.8</ele>
        <time>2020-12-19T13:33:35Z</time>
      </trkpt>
      <trkpt lat="46.71252" lon="5.65988">
        <ele>503.4</ele>
        <time>2020-12-19T13:33:36Z</time>
      </trkpt>
      <trkpt lat="46.71253" lon="5.6598">
        <ele>503.4</ele>
        <time>2020-12-19T13:33:37Z</time>
      </trkpt>
      <trkpt lat="46.71253" lon="5.65972">
        <ele>503.2</ele>
        <time>2020-12-19T13:33:38Z</time>
      </trkpt>
      <trkpt lat="46.71254" lon="5.65964">
        <ele>503.2</ele>
        <time>2020-12-19T13:33:39Z</time>
      </trkpt>
      <trkpt lat="46.71254" lon="5.65957">
        <ele>503.2</ele>
        <time>2020-12-19T13:33:40Z</time>
      </trkpt>
      <trkpt lat="46.71254" lon="5.65949">
        <ele>503.2</ele>
        <time>2020-12-19T13:33:41Z</time>
      </trkpt>
      <trkpt lat="46.71255" lon="5.65942">
        <ele>502.8</ele>
        <time>2020-12-19T13:33:42Z</time>
      </trkpt>
      <trkpt lat="46.71255" lon="5.65935">
        <ele>502.6</ele>
        <time>2020-12-19T13:33:43Z</time>
      </trkpt>
      <trkpt lat="46.71255" lon="5.65927">
        <ele>502.6</ele>
        <time>2020-12-19T13:33:44Z</time>
      </trkpt>
      <trkpt lat="46.71256" lon="5.6592">
        <ele>502.6</ele>
        <time>2020-12-19T13:33:45Z</time>
      </trkpt>
      <trkpt lat="46.71256" lon="5.65913">
        <ele>502.2</ele>
        <time>2020-12-19T13:33:46Z</time>
      </trkpt>
      <trkpt lat="46.71256" lon="5.65907">
        <ele>502.2</ele>
        <time>2020-12-19T13:33:47Z</time>
      </trkpt>
      <trkpt lat="46.71256" lon="5.659">
        <ele>502.2</ele>
        <time>2020-12-19T13:33:48Z</time>
      </trkpt>
      <trkpt lat="46.71256" lon="5.65894">
        <ele>502.2</ele>
        <time>2020-12-19T13:33:49Z</time>
      </trkpt>
      <trkpt lat="46.71256" lon="5.65888">
        <ele>502.2</ele>
        <time>2020-12-19T13:33:50Z</time>
      </trkpt>
      <trkpt lat="46.71257" lon="5.65882">
        <ele>502.2</ele>
        <time>2020-12-19T13:33:51Z</time>
      </trkpt>
      <trkpt lat="46.71258" lon="5.65877">
        <ele>502.2</ele>
        <time>2020-12-19T13:33:52Z</time>
      </trkpt>
      <trkpt lat="46.71258" lon="5.65872">
        <ele>502.2</ele>
        <time>2020-12-19T13:33:53Z</time>
      </trkpt>
      <trkpt lat="46.71259" lon="5.65867">
        <ele>502.6</ele>
        <time>2020-12-19T13:33:54Z</time>
      </trkpt>
      <trkpt lat="46.71261" lon="5.65864">
        <ele>502.6</ele>
        <time>2020-12-19T13:33:55Z</time>
      </trkpt>
      <trkpt lat="46.71262" lon="5.6586">
        <ele>502.8</ele>
        <time>2020-12-19T13:33:56Z</time>
      </trkpt>
      <trkpt lat="46.71262" lon="5.65857">
        <ele>502.8</ele>
        <time>2020-12-19T13:33:57Z</time>
      </trkpt>
      <trkpt lat="46.71264" lon="5.65854">
        <ele>502.8</ele>
        <time>2020-12-19T13:33:58Z</time>
      </trkpt>
      <trkpt lat="46.71265" lon="5.65851">
        <ele>503.2</ele>
        <time>2020-12-19T13:33:59Z</time>
      </trkpt>
      <trkpt lat="46.71267" lon="5.65848">
        <ele>503.2</ele>
        <time>2020-12-19T13:34:00Z</time>
      </trkpt>
      <trkpt lat="46.71268" lon="5.65846">
        <ele>503.4</ele>
        <time>2020-12-19T13:34:01Z</time>
      </trkpt>
      <trkpt lat="46.7127" lon="5.65843">
        <ele>503.4</ele>
        <time>2020-12-19T13:34:02Z</time>
      </trkpt>
      <trkpt lat="46.71271" lon="5.6584">
        <ele>503.4</ele>
        <time>2020-12-19T13:34:03Z</time>
      </trkpt>
      <trkpt lat="46.71271" lon="5.65836">
        <ele>503.6</ele>
        <time>2020-12-19T13:34:04Z</time>
      </trkpt>
      <trkpt lat="46.71272" lon="5.65833">
        <ele>503.6</ele>
        <time>2020-12-19T13:34:05Z</time>
      </trkpt>
      <trkpt lat="46.71273" lon="5.65829">
        <ele>503.6</ele>
        <time>2020-12-19T13:34:06Z</time>
      </trkpt>
      <trkpt lat="46.71273" lon="5.65826">
        <ele>503.8</ele>
        <time>2020-12-19T13:34:07Z</time>
      </trkpt>
      <trkpt lat="46.71274" lon="5.65822">
        <ele>503.8</ele>
        <time>2020-12-19T13:34:08Z</time>
      </trkpt>
      <trkpt lat="46.71274" lon="5.65819">
        <ele>503.8</ele>
        <time>2020-12-19T13:34:09Z</time>
      </trkpt>
      <trkpt lat="46.71274" lon="5.65815">
        <ele>504.2</ele>
        <time>2020-12-19T13:34:10Z</time>
      </trkpt>
      <trkpt lat="46.71274" lon="5.65811">
        <ele>504.2</ele>
        <time>2020-12-19T13:34:11Z</time>
      </trkpt>
      <trkpt lat="46.71275" lon="5.65808">
        <ele>504.2</ele>
        <time>2020-12-19T13:34:12Z</time>
      </trkpt>
      <trkpt lat="46.71275" lon="5.65804">
        <ele>504.2</ele>
        <time>2020-12-19T13:34:13Z</time>
      </trkpt>
      <trkpt lat="46.71275" lon="5.65801">
        <ele>504.2</ele>
        <time>2020-12-19T13:34:14Z</time>
      </trkpt>
      <trkpt lat="46.71275" lon="5.65798">
        <ele>504.2</ele>
        <time>2020-12-19T13:34:15Z</time>
      </trkpt>
      <trkpt lat="46.71275" lon="5.65795">
        <ele>504.2</ele>
        <time>2020-12-19T13:34:16Z</time>
      </trkpt>
      <trkpt lat="46.71275" lon="5.65791">
        <ele>504.2</ele>
        <time>2020-12-19T13:34:17Z</time>
      </trkpt>
      <trkpt lat="46.71275" lon="5.65787">
        <ele>504.2</ele>
        <time>2020-12-19T13:34:18Z</time>
      </trkpt>
      <trkpt lat="46.71275" lon="5.65783">
        <ele>504.4</ele>
        <time>2020-12-19T13:34:19Z</time>
      </trkpt>
      <trkpt lat="46.71275" lon="5.65779">
        <ele>504.4</ele>
        <time>2020-12-19T13:34:20Z</time>
      </trkpt>
      <trkpt lat="46.71275" lon="5.65776">
        <ele>504.4</ele>
        <time>2020-12-19T13:34:21Z</time>
      </trkpt>
      <trkpt lat="46.71275" lon="5.65772">
        <ele>504.4</ele>
        <time>2020-12-19T13:34:22Z</time>
      </trkpt>
      <trkpt lat="46.71275" lon="5.65769">
        <ele>504.4</ele>
        <time>2020-12-19T13:34:23Z</time>
      </trkpt>
      <trkpt lat="46.71275" lon="5.65765">
        <ele>504.4</ele>
        <time>2020-12-19T13:34:24Z</time>
      </trkpt>
      <trkpt lat="46.71275" lon="5.65762">
        <ele>504.4</ele>
        <time>2020-12-19T13:34:25Z</time>
      </trkpt>
      <trkpt lat="46.71275" lon="5.65758">
        <ele>504.4</ele>
        <time>2020-12-19T13:34:26Z</time>
      </trkpt>
      <trkpt lat="46.71276" lon="5.65754">
        <ele>504.4</ele>
        <time>2020-12-19T13:34:27Z</time>
      </trkpt>
      <trkpt lat="46.71276" lon="5.6575">
        <ele>504.4</ele>
        <time>2020-12-19T13:34:28Z</time>
      </trkpt>
      <trkpt lat="46.71276" lon="5.65746">
        <ele>504.4</ele>
        <time>2020-12-19T13:34:29Z</time>
      </trkpt>
      <trkpt lat="46.71277" lon="5.65743">
        <ele>504.4</ele>
        <time>2020-12-19T13:34:30Z</time>
      </trkpt>
      <trkpt lat="46.71277" lon="5.65739">
        <ele>504.4</ele>
        <time>2020-12-19T13:34:31Z</time>
      </trkpt>
      <trkpt lat="46.71277" lon="5.65735">
        <ele>504.6</ele>
        <time>2020-12-19T13:34:32Z</time>
      </trkpt>
      <trkpt lat="46.71278" lon="5.65731">
        <ele>504.6</ele>
        <time>2020-12-19T13:34:33Z</time>
      </trkpt>
      <trkpt lat="46.71278" lon="5.65727">
        <ele>504.6</ele>
        <time>2020-12-19T13:34:34Z</time>
      </trkpt>
      <trkpt lat="46.71279" lon="5.65724">
        <ele>504.6</ele>
        <time>2020-12-19T13:34:35Z</time>
      </trkpt>
      <trkpt lat="46.71279" lon="5.6572">
        <ele>504.6</ele>
        <time>2020-12-19T13:34:36Z</time>
      </trkpt>
      <trkpt lat="46.7128" lon="5.65715">
        <ele>504.6</ele>
        <time>2020-12-19T13:34:37Z</time>
      </trkpt>
      <trkpt lat="46.7128" lon="5.6571">
        <ele>504.6</ele>
        <time>2020-12-19T13:34:38Z</time>
      </trkpt>
      <trkpt lat="46.71281" lon="5.65705">
        <ele>504.6</ele>
        <time>2020-12-19T13:34:39Z</time>
      </trkpt>
      <trkpt lat="46.71282" lon="5.657">
        <ele>504.6</ele>
        <time>2020-12-19T13:34:40Z</time>
      </trkpt>
      <trkpt lat="46.71283" lon="5.65695">
        <ele>504.2</ele>
        <time>2020-12-19T13:34:41Z</time>
      </trkpt>
      <trkpt lat="46.71284" lon="5.6569">
        <ele>504.2</ele>
        <time>2020-12-19T13:34:42Z</time>
      </trkpt>
      <trkpt lat="46.71284" lon="5.65685">
        <ele>504.2</ele>
        <time>2020-12-19T13:34:43Z</time>
      </trkpt>
      <trkpt lat="46.71285" lon="5.6568">
        <ele>504.2</ele>
        <time>2020-12-19T13:34:44Z</time>
      </trkpt>
      <trkpt lat="46.71285" lon="5.65675">
        <ele>504.2</ele>
        <time>2020-12-19T13:34:45Z</time>
      </trkpt>
      <trkpt lat="46.71286" lon="5.65671">
        <ele>504.2</ele>
        <time>2020-12-19T13:34:46Z</time>
      </trkpt>
      <trkpt lat="46.71286" lon="5.65666">
        <ele>504.2</ele>
        <time>2020-12-19T13:34:47Z</time>
      </trkpt>
      <trkpt lat="46.71287" lon="5.65661">
        <ele>504.2</ele>
        <time>2020-12-19T13:34:48Z</time>
      </trkpt>
      <trkpt lat="46.71287" lon="5.65657">
        <ele>504.2</ele>
        <time>2020-12-19T13:34:49Z</time>
      </trkpt>
      <trkpt lat="46.71287" lon="5.65653">
        <ele>504.2</ele>
        <time>2020-12-19T13:34:50Z</time>
      </trkpt>
      <trkpt lat="46.71288" lon="5.65649">
        <ele>504.2</ele>
        <time>2020-12-19T13:34:51Z</time>
      </trkpt>
      <trkpt lat="46.71289" lon="5.65644">
        <ele>504.2</ele>
        <time>2020-12-19T13:34:52Z</time>
      </trkpt>
      <trkpt lat="46.71289" lon="5.6564">
        <ele>504.2</ele>
        <time>2020-12-19T13:34:53Z</time>
      </trkpt>
      <trkpt lat="46.7129" lon="5.65635">
        <ele>504.2</ele>
        <time>2020-12-19T13:34:54Z</time>
      </trkpt>
      <trkpt lat="46.71291" lon="5.65631">
        <ele>504.2</ele>
        <time>2020-12-19T13:34:55Z</time>
      </trkpt>
      <trkpt lat="46.71292" lon="5.65627">
        <ele>504.6</ele>
        <time>2020-12-19T13:34:56Z</time>
      </trkpt>
      <trkpt lat="46.71293" lon="5.65623">
        <ele>504.6</ele>
        <time>2020-12-19T13:34:57Z</time>
      </trkpt>
      <trkpt lat="46.71295" lon="5.65619">
        <ele>504.6</ele>
        <time>2020-12-19T13:34:58Z</time>
      </trkpt>
      <trkpt lat="46.71296" lon="5.65616">
        <ele>504.6</ele>
        <time>2020-12-19T13:34:59Z</time>
      </trkpt>
      <trkpt lat="46.71298" lon="5.65612">
        <ele>504.6</ele>
        <time>2020-12-19T13:35:00Z</time>
      </trkpt>
      <trkpt lat="46.71299" lon="5.65609">
        <ele>504.6</ele>
        <time>2020-12-19T13:35:01Z</time>
      </trkpt>
      <trkpt lat="46.71301" lon="5.65606">
        <ele>504.6</ele>
        <time>2020-12-19T13:35:02Z</time>
      </trkpt>
      <trkpt lat="46.71302" lon="5.65602">
        <ele>504.8</ele>
        <time>2020-12-19T13:35:03Z</time>
      </trkpt>
      <trkpt lat="46.71303" lon="5.65598">
        <ele>504.8</ele>
        <time>2020-12-19T13:35:04Z</time>
      </trkpt>
      <trkpt lat="46.71304" lon="5.65594">
        <ele>504.8</ele>
        <time>2020-12-19T13:35:05Z</time>
      </trkpt>
      <trkpt lat="46.71305" lon="5.6559">
        <ele>504.8</ele>
        <time>2020-12-19T13:35:06Z</time>
      </trkpt>
      <trkpt lat="46.71307" lon="5.65587">
        <ele>505</ele>
        <time>2020-12-19T13:35:07Z</time>
      </trkpt>
      <trkpt lat="46.71308" lon="5.65583">
        <ele>505</ele>
        <time>2020-12-19T13:35:08Z</time>
      </trkpt>
      <trkpt lat="46.71309" lon="5.65579">
        <ele>505.4</ele>
        <time>2020-12-19T13:35:09Z</time>
      </trkpt>
      <trkpt lat="46.71311" lon="5.65575">
        <ele>505.4</ele>
        <time>2020-12-19T13:35:10Z</time>
      </trkpt>
      <trkpt lat="46.71312" lon="5.65571">
        <ele>505.4</ele>
        <time>2020-12-19T13:35:11Z</time>
      </trkpt>
      <trkpt lat="46.71313" lon="5.65568">
        <ele>505.4</ele>
        <time>2020-12-19T13:35:12Z</time>
      </trkpt>
      <trkpt lat="46.71315" lon="5.65563">
        <ele>505.4</ele>
        <time>2020-12-19T13:35:13Z</time>
      </trkpt>
      <trkpt lat="46.71316" lon="5.65559">
        <ele>505.6</ele>
        <time>2020-12-19T13:35:14Z</time>
      </trkpt>
      <trkpt lat="46.71318" lon="5.65555">
        <ele>505.6</ele>
        <time>2020-12-19T13:35:15Z</time>
      </trkpt>
      <trkpt lat="46.71319" lon="5.65551">
        <ele>505.6</ele>
        <time>2020-12-19T13:35:16Z</time>
      </trkpt>
      <trkpt lat="46.71321" lon="5.65547">
        <ele>505.6</ele>
        <time>2020-12-19T13:35:17Z</time>
      </trkpt>
      <trkpt lat="46.71322" lon="5.65543">
        <ele>505.6</ele>
        <time>2020-12-19T13:35:18Z</time>
      </trkpt>
      <trkpt lat="46.71324" lon="5.65539">
        <ele>505.6</ele>
        <time>2020-12-19T13:35:19Z</time>
      </trkpt>
      <trkpt lat="46.71325" lon="5.65536">
        <ele>505.6</ele>
        <time>2020-12-19T13:35:20Z</time>
      </trkpt>
      <trkpt lat="46.71326" lon="5.65532">
        <ele>505.6</ele>
        <time>2020-12-19T13:35:21Z</time>
      </trkpt>
      <trkpt lat="46.71328" lon="5.65528">
        <ele>505.6</ele>
        <time>2020-12-19T13:35:22Z</time>
      </trkpt>
      <trkpt lat="46.71329" lon="5.65524">
        <ele>505.6</ele>
        <time>2020-12-19T13:35:23Z</time>
      </trkpt>
      <trkpt lat="46.7133" lon="5.6552">
        <ele>505.6</ele>
        <time>2020-12-19T13:35:24Z</time>
      </trkpt>
      <trkpt lat="46.71332" lon="5.65515">
        <ele>505.6</ele>
        <time>2020-12-19T13:35:25Z</time>
      </trkpt>
      <trkpt lat="46.71333" lon="5.65511">
        <ele>505.6</ele>
        <time>2020-12-19T13:35:26Z</time>
      </trkpt>
      <trkpt lat="46.71335" lon="5.65507">
        <ele>505.6</ele>
        <time>2020-12-19T13:35:27Z</time>
      </trkpt>
      <trkpt lat="46.71336" lon="5.65503">
        <ele>505.4</ele>
        <time>2020-12-19T13:35:28Z</time>
      </trkpt>
      <trkpt lat="46.71338" lon="5.65498">
        <ele>505.4</ele>
        <time>2020-12-19T13:35:29Z</time>
      </trkpt>
      <trkpt lat="46.71339" lon="5.65494">
        <ele>505.4</ele>
        <time>2020-12-19T13:35:30Z</time>
      </trkpt>
      <trkpt lat="46.71341" lon="5.6549">
        <ele>505.4</ele>
        <time>2020-12-19T13:35:31Z</time>
      </trkpt>
      <trkpt lat="46.71342" lon="5.65485">
        <ele>505.2</ele>
        <time>2020-12-19T13:35:32Z</time>
      </trkpt>
      <trkpt lat="46.71344" lon="5.65481">
        <ele>505.2</ele>
        <time>2020-12-19T13:35:33Z</time>
      </trkpt>
      <trkpt lat="46.71346" lon="5.65476">
        <ele>505.2</ele>
        <time>2020-12-19T13:35:34Z</time>
      </trkpt>
      <trkpt lat="46.71347" lon="5.65472">
        <ele>505.2</ele>
        <time>2020-12-19T13:35:35Z</time>
      </trkpt>
      <trkpt lat="46.71349" lon="5.65467">
        <ele>505.2</ele>
        <time>2020-12-19T13:35:36Z</time>
      </trkpt>
      <trkpt lat="46.71352" lon="5.65462">
        <ele>505.2</ele>
        <time>2020-12-19T13:35:37Z</time>
      </trkpt>
      <trkpt lat="46.71354" lon="5.65457">
        <ele>505</ele>
        <time>2020-12-19T13:35:38Z</time>
      </trkpt>
      <trkpt lat="46.71356" lon="5.65452">
        <ele>505</ele>
        <time>2020-12-19T13:35:39Z</time>
      </trkpt>
      <trkpt lat="46.71358" lon="5.65446">
        <ele>505</ele>
        <time>2020-12-19T13:35:40Z</time>
      </trkpt>
      <trkpt lat="46.7136" lon="5.65441">
        <ele>505</ele>
        <time>2020-12-19T13:35:41Z</time>
      </trkpt>
      <trkpt lat="46.71362" lon="5.65435">
        <ele>505</ele>
        <time>2020-12-19T13:35:42Z</time>
      </trkpt>
      <trkpt lat="46.71364" lon="5.6543">
        <ele>504.6</ele>
        <time>2020-12-19T13:35:43Z</time>
      </trkpt>
      <trkpt lat="46.71366" lon="5.65424">
        <ele>504.6</ele>
        <time>2020-12-19T13:35:44Z</time>
      </trkpt>
      <trkpt lat="46.71368" lon="5.65419">
        <ele>504.6</ele>
        <time>2020-12-19T13:35:45Z</time>
      </trkpt>
      <trkpt lat="46.71369" lon="5.65414">
        <ele>504.6</ele>
        <time>2020-12-19T13:35:46Z</time>
      </trkpt>
      <trkpt lat="46.71371" lon="5.65409">
        <ele>504.4</ele>
        <time>2020-12-19T13:35:47Z</time>
      </trkpt>
      <trkpt lat="46.71373" lon="5.65403">
        <ele>504.4</ele>
        <time>2020-12-19T13:35:48Z</time>
      </trkpt>
      <trkpt lat="46.71374" lon="5.65397">
        <ele>504.4</ele>
        <time>2020-12-19T13:35:49Z</time>
      </trkpt>
      <trkpt lat="46.71375" lon="5.65391">
        <ele>504</ele>
        <time>2020-12-19T13:35:50Z</time>
      </trkpt>
      <trkpt lat="46.71377" lon="5.65385">
        <ele>504</ele>
        <time>2020-12-19T13:35:51Z</time>
      </trkpt>
      <trkpt lat="46.71378" lon="5.65379">
        <ele>504</ele>
        <time>2020-12-19T13:35:52Z</time>
      </trkpt>
      <trkpt lat="46.71379" lon="5.65372">
        <ele>503.6</ele>
        <time>2020-12-19T13:35:53Z</time>
      </trkpt>
      <trkpt lat="46.7138" lon="5.65366">
        <ele>503.6</ele>
        <time>2020-12-19T13:35:54Z</time>
      </trkpt>
      <trkpt lat="46.71381" lon="5.65359">
        <ele>503.4</ele>
        <time>2020-12-19T13:35:55Z</time>
      </trkpt>
      <trkpt lat="46.71382" lon="5.65352">
        <ele>503.4</ele>
        <time>2020-12-19T13:35:56Z</time>
      </trkpt>
      <trkpt lat="46.71383" lon="5.65345">
        <ele>503.4</ele>
        <time>2020-12-19T13:35:57Z</time>
      </trkpt>
      <trkpt lat="46.71385" lon="5.65339">
        <ele>503.2</ele>
        <time>2020-12-19T13:35:58Z</time>
      </trkpt>
      <trkpt lat="46.71386" lon="5.65332">
        <ele>503.2</ele>
        <time>2020-12-19T13:35:59Z</time>
      </trkpt>
      <trkpt lat="46.71387" lon="5.65325">
        <ele>503</ele>
        <time>2020-12-19T13:36:00Z</time>
      </trkpt>
      <trkpt lat="46.71389" lon="5.65319">
        <ele>503</ele>
        <time>2020-12-19T13:36:01Z</time>
      </trkpt>
      <trkpt lat="46.7139" lon="5.65312">
        <ele>502.6</ele>
        <time>2020-12-19T13:36:02Z</time>
      </trkpt>
      <trkpt lat="46.71392" lon="5.65306">
        <ele>502.6</ele>
        <time>2020-12-19T13:36:03Z</time>
      </trkpt>
      <trkpt lat="46.71393" lon="5.65299">
        <ele>502.6</ele>
        <time>2020-12-19T13:36:04Z</time>
      </trkpt>
      <trkpt lat="46.71395" lon="5.65293">
        <ele>502.4</ele>
        <time>2020-12-19T13:36:05Z</time>
      </trkpt>
      <trkpt lat="46.71397" lon="5.65287">
        <ele>502.4</ele>
        <time>2020-12-19T13:36:06Z</time>
      </trkpt>
      <trkpt lat="46.71399" lon="5.65282">
        <ele>502.4</ele>
        <time>2020-12-19T13:36:07Z</time>
      </trkpt>
      <trkpt lat="46.71401" lon="5.65276">
        <ele>502.4</ele>
        <time>2020-12-19T13:36:08Z</time>
      </trkpt>
      <trkpt lat="46.71403" lon="5.6527">
        <ele>502.2</ele>
        <time>2020-12-19T13:36:09Z</time>
      </trkpt>
      <trkpt lat="46.71404" lon="5.65264">
        <ele>502.2</ele>
        <time>2020-12-19T13:36:10Z</time>
      </trkpt>
      <trkpt lat="46.71406" lon="5.65258">
        <ele>502.2</ele>
        <time>2020-12-19T13:36:11Z</time>
      </trkpt>
      <trkpt lat="46.71408" lon="5.65253">
        <ele>502</ele>
        <time>2020-12-19T13:36:12Z</time>
      </trkpt>
      <trkpt lat="46.71409" lon="5.65247">
        <ele>502</ele>
        <time>2020-12-19T13:36:13Z</time>
      </trkpt>
      <trkpt lat="46.71411" lon="5.65241">
        <ele>501.6</ele>
        <time>2020-12-19T13:36:14Z</time>
      </trkpt>
      <trkpt lat="46.71413" lon="5.65235">
        <ele>501.6</ele>
        <time>2020-12-19T13:36:15Z</time>
      </trkpt>
      <trkpt lat="46.71414" lon="5.65229">
        <ele>501.4</ele>
        <time>2020-12-19T13:36:16Z</time>
      </trkpt>
      <trkpt lat="46.71416" lon="5.65223">
        <ele>501.2</ele>
        <time>2020-12-19T13:36:17Z</time>
      </trkpt>
      <trkpt lat="46.71417" lon="5.65217">
        <ele>501.2</ele>
        <time>2020-12-19T13:36:18Z</time>
      </trkpt>
      <trkpt lat="46.71419" lon="5.65211">
        <ele>500.8</ele>
        <time>2020-12-19T13:36:19Z</time>
      </trkpt>
      <trkpt lat="46.7142" lon="5.65205">
        <ele>500.8</ele>
        <time>2020-12-19T13:36:20Z</time>
      </trkpt>
      <trkpt lat="46.71422" lon="5.652">
        <ele>500.4</ele>
        <time>2020-12-19T13:36:21Z</time>
      </trkpt>
      <trkpt lat="46.71423" lon="5.65194">
        <ele>500.2</ele>
        <time>2020-12-19T13:36:22Z</time>
      </trkpt>
      <trkpt lat="46.71425" lon="5.65188">
        <ele>500.2</ele>
        <time>2020-12-19T13:36:23Z</time>
      </trkpt>
      <trkpt lat="46.71426" lon="5.65182">
        <ele>500.2</ele>
        <time>2020-12-19T13:36:24Z</time>
      </trkpt>
      <trkpt lat="46.71428" lon="5.65176">
        <ele>500.2</ele>
        <time>2020-12-19T13:36:25Z</time>
      </trkpt>
      <trkpt lat="46.7143" lon="5.6517">
        <ele>500.2</ele>
        <time>2020-12-19T13:36:26Z</time>
      </trkpt>
      <trkpt lat="46.71431" lon="5.65164">
        <ele>500.2</ele>
        <time>2020-12-19T13:36:27Z</time>
      </trkpt>
      <trkpt lat="46.71433" lon="5.65159">
        <ele>500.2</ele>
        <time>2020-12-19T13:36:28Z</time>
      </trkpt>
      <trkpt lat="46.71435" lon="5.65153">
        <ele>500.2</ele>
        <time>2020-12-19T13:36:29Z</time>
      </trkpt>
      <trkpt lat="46.71437" lon="5.65147">
        <ele>500.2</ele>
        <time>2020-12-19T13:36:30Z</time>
      </trkpt>
      <trkpt lat="46.71439" lon="5.65142">
        <ele>500.6</ele>
        <time>2020-12-19T13:36:31Z</time>
      </trkpt>
      <trkpt lat="46.71441" lon="5.65137">
        <ele>500.6</ele>
        <time>2020-12-19T13:36:32Z</time>
      </trkpt>
      <trkpt lat="46.71443" lon="5.65131">
        <ele>500.6</ele>
        <time>2020-12-19T13:36:33Z</time>
      </trkpt>
      <trkpt lat="46.71444" lon="5.65126">
        <ele>500.6</ele>
        <time>2020-12-19T13:36:34Z</time>
      </trkpt>
      <trkpt lat="46.71446" lon="5.65121">
        <ele>500.6</ele>
        <time>2020-12-19T13:36:35Z</time>
      </trkpt>
      <trkpt lat="46.71447" lon="5.65116">
        <ele>500.6</ele>
        <time>2020-12-19T13:36:36Z</time>
      </trkpt>
      <trkpt lat="46.71449" lon="5.65112">
        <ele>500.6</ele>
        <time>2020-12-19T13:36:37Z</time>
      </trkpt>
      <trkpt lat="46.7145" lon="5.65107">
        <ele>500.8</ele>
        <time>2020-12-19T13:36:38Z</time>
      </trkpt>
      <trkpt lat="46.71452" lon="5.65102">
        <ele>500.8</ele>
        <time>2020-12-19T13:36:39Z</time>
      </trkpt>
      <trkpt lat="46.71454" lon="5.65097">
        <ele>500.8</ele>
        <time>2020-12-19T13:36:40Z</time>
      </trkpt>
      <trkpt lat="46.71455" lon="5.65093">
        <ele>500.8</ele>
        <time>2020-12-19T13:36:41Z</time>
      </trkpt>
      <trkpt lat="46.71456" lon="5.65088">
        <ele>500.8</ele>
        <time>2020-12-19T13:36:42Z</time>
      </trkpt>
      <trkpt lat="46.71458" lon="5.65083">
        <ele>501</ele>
        <time>2020-12-19T13:36:43Z</time>
      </trkpt>
      <trkpt lat="46.71459" lon="5.65078">
        <ele>501</ele>
        <time>2020-12-19T13:36:44Z</time>
      </trkpt>
      <trkpt lat="46.71461" lon="5.65074">
        <ele>501</ele>
        <time>2020-12-19T13:36:45Z</time>
      </trkpt>
      <trkpt lat="46.71462" lon="5.65069">
        <ele>501</ele>
        <time>2020-12-19T13:36:46Z</time>
      </trkpt>
      <trkpt lat="46.71464" lon="5.65065">
        <ele>501.2</ele>
        <time>2020-12-19T13:36:47Z</time>
      </trkpt>
      <trkpt lat="46.71465" lon="5.6506">
        <ele>501.2</ele>
        <time>2020-12-19T13:36:48Z</time>
      </trkpt>
      <trkpt lat="46.71467" lon="5.65056">
        <ele>501.2</ele>
        <time>2020-12-19T13:36:49Z</time>
      </trkpt>
      <trkpt lat="46.71468" lon="5.65051">
        <ele>501.2</ele>
        <time>2020-12-19T13:36:50Z</time>
      </trkpt>
      <trkpt lat="46.7147" lon="5.65046">
        <ele>501.2</ele>
        <time>2020-12-19T13:36:51Z</time>
      </trkpt>
      <trkpt lat="46.71472" lon="5.65042">
        <ele>501.4</ele>
        <time>2020-12-19T13:36:52Z</time>
      </trkpt>
      <trkpt lat="46.71474" lon="5.65036">
        <ele>501.4</ele>
        <time>2020-12-19T13:36:53Z</time>
      </trkpt>
      <trkpt lat="46.71476" lon="5.65031">
        <ele>501.4</ele>
        <time>2020-12-19T13:36:54Z</time>
      </trkpt>
      <trkpt lat="46.71478" lon="5.65025">
        <ele>501.4</ele>
        <time>2020-12-19T13:36:55Z</time>
      </trkpt>
      <trkpt lat="46.7148" lon="5.6502">
        <ele>501.2</ele>
        <time>2020-12-19T13:36:56Z</time>
      </trkpt>
      <trkpt lat="46.71482" lon="5.65015">
        <ele>501.2</ele>
        <time>2020-12-19T13:36:57Z</time>
      </trkpt>
      <trkpt lat="46.71484" lon="5.6501">
        <ele>501.2</ele>
        <time>2020-12-19T13:36:58Z</time>
      </trkpt>
      <trkpt lat="46.71486" lon="5.65005">
        <ele>500.8</ele>
        <time>2020-12-19T13:36:59Z</time>
      </trkpt>
      <trkpt lat="46.71488" lon="5.64999">
        <ele>500.8</ele>
        <time>2020-12-19T13:37:00Z</time>
      </trkpt>
      <trkpt lat="46.71491" lon="5.64994">
        <ele>500.6</ele>
        <time>2020-12-19T13:37:01Z</time>
      </trkpt>
      <trkpt lat="46.71493" lon="5.64989">
        <ele>500.6</ele>
        <time>2020-12-19T13:37:02Z</time>
      </trkpt>
      <trkpt lat="46.71495" lon="5.64985">
        <ele>500.6</ele>
        <time>2020-12-19T13:37:03Z</time>
      </trkpt>
      <trkpt lat="46.71497" lon="5.6498">
        <ele>500.6</ele>
        <time>2020-12-19T13:37:04Z</time>
      </trkpt>
      <trkpt lat="46.715" lon="5.64975">
        <ele>500.6</ele>
        <time>2020-12-19T13:37:05Z</time>
      </trkpt>
      <trkpt lat="46.71502" lon="5.6497">
        <ele>500.6</ele>
        <time>2020-12-19T13:37:06Z</time>
      </trkpt>
      <trkpt lat="46.71504" lon="5.64965">
        <ele>500.6</ele>
        <time>2020-12-19T13:37:07Z</time>
      </trkpt>
      <trkpt lat="46.71506" lon="5.64961">
        <ele>500.2</ele>
        <time>2020-12-19T13:37:08Z</time>
      </trkpt>
      <trkpt lat="46.71508" lon="5.64956">
        <ele>500.2</ele>
        <time>2020-12-19T13:37:09Z</time>
      </trkpt>
      <trkpt lat="46.71509" lon="5.64952">
        <ele>500.2</ele>
        <time>2020-12-19T13:37:10Z</time>
      </trkpt>
      <trkpt lat="46.71511" lon="5.64947">
        <ele>500.2</ele>
        <time>2020-12-19T13:37:11Z</time>
      </trkpt>
      <trkpt lat="46.71513" lon="5.64943">
        <ele>500.2</ele>
        <time>2020-12-19T13:37:12Z</time>
      </trkpt>
      <trkpt lat="46.71515" lon="5.64939">
        <ele>500.2</ele>
        <time>2020-12-19T13:37:13Z</time>
      </trkpt>
      <trkpt lat="46.71516" lon="5.64935">
        <ele>500.2</ele>
        <time>2020-12-19T13:37:14Z</time>
      </trkpt>
      <trkpt lat="46.71518" lon="5.64932">
        <ele>500.2</ele>
        <time>2020-12-19T13:37:15Z</time>
      </trkpt>
      <trkpt lat="46.7152" lon="5.64928">
        <ele>500.2</ele>
        <time>2020-12-19T13:37:16Z</time>
      </trkpt>
      <trkpt lat="46.71521" lon="5.64924">
        <ele>500.4</ele>
        <time>2020-12-19T13:37:17Z</time>
      </trkpt>
      <trkpt lat="46.71523" lon="5.64919">
        <ele>500.4</ele>
        <time>2020-12-19T13:37:18Z</time>
      </trkpt>
      <trkpt lat="46.71525" lon="5.64915">
        <ele>500.4</ele>
        <time>2020-12-19T13:37:19Z</time>
      </trkpt>
      <trkpt lat="46.71527" lon="5.64911">
        <ele>500.4</ele>
        <time>2020-12-19T13:37:20Z</time>
      </trkpt>
      <trkpt lat="46.71528" lon="5.64906">
        <ele>500.6</ele>
        <time>2020-12-19T13:37:21Z</time>
      </trkpt>
      <trkpt lat="46.7153" lon="5.64902">
        <ele>500.6</ele>
        <time>2020-12-19T13:37:22Z</time>
      </trkpt>
      <trkpt lat="46.71532" lon="5.64897">
        <ele>500.6</ele>
        <time>2020-12-19T13:37:23Z</time>
      </trkpt>
      <trkpt lat="46.71534" lon="5.64893">
        <ele>500.8</ele>
        <time>2020-12-19T13:37:24Z</time>
      </trkpt>
      <trkpt lat="46.71536" lon="5.64889">
        <ele>500.8</ele>
        <time>2020-12-19T13:37:25Z</time>
      </trkpt>
      <trkpt lat="46.71537" lon="5.64885">
        <ele>500.8</ele>
        <time>2020-12-19T13:37:26Z</time>
      </trkpt>
      <trkpt lat="46.71539" lon="5.64881">
        <ele>500.8</ele>
        <time>2020-12-19T13:37:27Z</time>
      </trkpt>
      <trkpt lat="46.7154" lon="5.64877">
        <ele>500.8</ele>
        <time>2020-12-19T13:37:28Z</time>
      </trkpt>
      <trkpt lat="46.71541" lon="5.64874">
        <ele>500.8</ele>
        <time>2020-12-19T13:37:29Z</time>
      </trkpt>
      <trkpt lat="46.71542" lon="5.6487">
        <ele>500.8</ele>
        <time>2020-12-19T13:37:30Z</time>
      </trkpt>
      <trkpt lat="46.71544" lon="5.64867">
        <ele>500.8</ele>
        <time>2020-12-19T13:37:31Z</time>
      </trkpt>
      <trkpt lat="46.71545" lon="5.64863">
        <ele>501.2</ele>
        <time>2020-12-19T13:37:32Z</time>
      </trkpt>
      <trkpt lat="46.71547" lon="5.6486">
        <ele>501.2</ele>
        <time>2020-12-19T13:37:33Z</time>
      </trkpt>
      <trkpt lat="46.71548" lon="5.64857">
        <ele>501.2</ele>
        <time>2020-12-19T13:37:34Z</time>
      </trkpt>
      <trkpt lat="46.7155" lon="5.64853">
        <ele>501.2</ele>
        <time>2020-12-19T13:37:35Z</time>
      </trkpt>
      <trkpt lat="46.71551" lon="5.6485">
        <ele>501.2</ele>
        <time>2020-12-19T13:37:36Z</time>
      </trkpt>
      <trkpt lat="46.71552" lon="5.64847">
        <ele>501.2</ele>
        <time>2020-12-19T13:37:37Z</time>
      </trkpt>
      <trkpt lat="46.71553" lon="5.64843">
        <ele>501.2</ele>
        <time>2020-12-19T13:37:38Z</time>
      </trkpt>
      <trkpt lat="46.71555" lon="5.6484">
        <ele>501.2</ele>
        <time>2020-12-19T13:37:39Z</time>
      </trkpt>
      <trkpt lat="46.71556" lon="5.64837">
        <ele>501.4</ele>
        <time>2020-12-19T13:37:40Z</time>
      </trkpt>
      <trkpt lat="46.71558" lon="5.64834">
        <ele>501.4</ele>
        <time>2020-12-19T13:37:41Z</time>
      </trkpt>
      <trkpt lat="46.71559" lon="5.64831">
        <ele>501.4</ele>
        <time>2020-12-19T13:37:42Z</time>
      </trkpt>
      <trkpt lat="46.71561" lon="5.64828">
        <ele>501.4</ele>
        <time>2020-12-19T13:37:43Z</time>
      </trkpt>
      <trkpt lat="46.71563" lon="5.64824">
        <ele>501.4</ele>
        <time>2020-12-19T13:37:44Z</time>
      </trkpt>
      <trkpt lat="46.71564" lon="5.64821">
        <ele>501.4</ele>
        <time>2020-12-19T13:37:45Z</time>
      </trkpt>
      <trkpt lat="46.71566" lon="5.64817">
        <ele>501.4</ele>
        <time>2020-12-19T13:37:46Z</time>
      </trkpt>
      <trkpt lat="46.71568" lon="5.64814">
        <ele>501.4</ele>
        <time>2020-12-19T13:37:47Z</time>
      </trkpt>
      <trkpt lat="46.7157" lon="5.6481">
        <ele>501.4</ele>
        <time>2020-12-19T13:37:48Z</time>
      </trkpt>
      <trkpt lat="46.71573" lon="5.64807">
        <ele>501.4</ele>
        <time>2020-12-19T13:37:49Z</time>
      </trkpt>
      <trkpt lat="46.71575" lon="5.64804">
        <ele>501.4</ele>
        <time>2020-12-19T13:37:50Z</time>
      </trkpt>
      <trkpt lat="46.71577" lon="5.648">
        <ele>501.4</ele>
        <time>2020-12-19T13:37:51Z</time>
      </trkpt>
      <trkpt lat="46.71579" lon="5.64797">
        <ele>501.2</ele>
        <time>2020-12-19T13:37:52Z</time>
      </trkpt>
      <trkpt lat="46.71581" lon="5.64794">
        <ele>501.2</ele>
        <time>2020-12-19T13:37:53Z</time>
      </trkpt>
      <trkpt lat="46.71583" lon="5.6479">
        <ele>501.2</ele>
        <time>2020-12-19T13:37:54Z</time>
      </trkpt>
      <trkpt lat="46.71585" lon="5.64787">
        <ele>501.2</ele>
        <time>2020-12-19T13:37:55Z</time>
      </trkpt>
      <trkpt lat="46.71587" lon="5.64784">
        <ele>501.2</ele>
        <time>2020-12-19T13:37:56Z</time>
      </trkpt>
      <trkpt lat="46.71589" lon="5.64781">
        <ele>501.2</ele>
        <time>2020-12-19T13:37:57Z</time>
      </trkpt>
      <trkpt lat="46.71592" lon="5.64777">
        <ele>501.2</ele>
        <time>2020-12-19T13:37:58Z</time>
      </trkpt>
      <trkpt lat="46.71594" lon="5.64774">
        <ele>501.2</ele>
        <time>2020-12-19T13:37:59Z</time>
      </trkpt>
      <trkpt lat="46.71596" lon="5.64771">
        <ele>501.2</ele>
        <time>2020-12-19T13:38:00Z</time>
      </trkpt>
      <trkpt lat="46.71599" lon="5.64769">
        <ele>501.2</ele>
        <time>2020-12-19T13:38:01Z</time>
      </trkpt>
      <trkpt lat="46.71601" lon="5.64766">
        <ele>501.2</ele>
        <time>2020-12-19T13:38:02Z</time>
      </trkpt>
      <trkpt lat="46.71604" lon="5.64764">
        <ele>501.2</ele>
        <time>2020-12-19T13:38:03Z</time>
      </trkpt>
      <trkpt lat="46.71606" lon="5.64761">
        <ele>501.2</ele>
        <time>2020-12-19T13:38:04Z</time>
      </trkpt>
      <trkpt lat="46.71608" lon="5.64758">
        <ele>501.4</ele>
        <time>2020-12-19T13:38:05Z</time>
      </trkpt>
      <trkpt lat="46.7161" lon="5.64755">
        <ele>501.4</ele>
        <time>2020-12-19T13:38:06Z</time>
      </trkpt>
      <trkpt lat="46.71611" lon="5.64752">
        <ele>501.4</ele>
        <time>2020-12-19T13:38:07Z</time>
      </trkpt>
      <trkpt lat="46.71613" lon="5.64749">
        <ele>501.4</ele>
        <time>2020-12-19T13:38:08Z</time>
      </trkpt>
      <trkpt lat="46.71615" lon="5.64746">
        <ele>501.4</ele>
        <time>2020-12-19T13:38:09Z</time>
      </trkpt>
      <trkpt lat="46.71617" lon="5.64744">
        <ele>501.4</ele>
        <time>2020-12-19T13:38:10Z</time>
      </trkpt>
      <trkpt lat="46.71618" lon="5.6474">
        <ele>501.4</ele>
        <time>2020-12-19T13:38:11Z</time>
      </trkpt>
      <trkpt lat="46.71619" lon="5.64738">
        <ele>501.6</ele>
        <time>2020-12-19T13:38:12Z</time>
      </trkpt>
      <trkpt lat="46.7162" lon="5.64735">
        <ele>501.6</ele>
        <time>2020-12-19T13:38:13Z</time>
      </trkpt>
      <trkpt lat="46.71621" lon="5.64732">
        <ele>501.8</ele>
        <time>2020-12-19T13:38:14Z</time>
      </trkpt>
      <trkpt lat="46.71622" lon="5.64729">
        <ele>501.8</ele>
        <time>2020-12-19T13:38:15Z</time>
      </trkpt>
      <trkpt lat="46.71622" lon="5.64727">
        <ele>501.8</ele>
        <time>2020-12-19T13:38:16Z</time>
      </trkpt>
      <trkpt lat="46.71624" lon="5.64724">
        <ele>501.8</ele>
        <time>2020-12-19T13:38:17Z</time>
      </trkpt>
      <trkpt lat="46.71625" lon="5.64721">
        <ele>501.8</ele>
        <time>2020-12-19T13:38:18Z</time>
      </trkpt>
      <trkpt lat="46.71626" lon="5.64718">
        <ele>501.8</ele>
        <time>2020-12-19T13:38:19Z</time>
      </trkpt>
      <trkpt lat="46.71626" lon="5.64714">
        <ele>501.8</ele>
        <time>2020-12-19T13:38:20Z</time>
      </trkpt>
      <trkpt lat="46.71627" lon="5.64709">
        <ele>501.8</ele>
        <time>2020-12-19T13:38:21Z</time>
      </trkpt>
      <trkpt lat="46.71628" lon="5.64705">
        <ele>501.6</ele>
        <time>2020-12-19T13:38:22Z</time>
      </trkpt>
      <trkpt lat="46.71629" lon="5.647">
        <ele>501.6</ele>
        <time>2020-12-19T13:38:23Z</time>
      </trkpt>
      <trkpt lat="46.7163" lon="5.64695">
        <ele>501.4</ele>
        <time>2020-12-19T13:38:24Z</time>
      </trkpt>
      <trkpt lat="46.7163" lon="5.64689">
        <ele>501.4</ele>
        <time>2020-12-19T13:38:25Z</time>
      </trkpt>
      <trkpt lat="46.71631" lon="5.64683">
        <ele>501.4</ele>
        <time>2020-12-19T13:38:26Z</time>
      </trkpt>
      <trkpt lat="46.71631" lon="5.64677">
        <ele>501.2</ele>
        <time>2020-12-19T13:38:27Z</time>
      </trkpt>
      <trkpt lat="46.71632" lon="5.6467">
        <ele>501.2</ele>
        <time>2020-12-19T13:38:28Z</time>
      </trkpt>
      <trkpt lat="46.71632" lon="5.64663">
        <ele>500.8</ele>
        <time>2020-12-19T13:38:29Z</time>
      </trkpt>
      <trkpt lat="46.71632" lon="5.64655">
        <ele>500.8</ele>
        <time>2020-12-19T13:38:30Z</time>
      </trkpt>
      <trkpt lat="46.71633" lon="5.64648">
        <ele>500.8</ele>
        <time>2020-12-19T13:38:31Z</time>
      </trkpt>
      <trkpt lat="46.71633" lon="5.64641">
        <ele>500.4</ele>
        <time>2020-12-19T13:38:32Z</time>
      </trkpt>
      <trkpt lat="46.71634" lon="5.64633">
        <ele>500.4</ele>
        <time>2020-12-19T13:38:33Z</time>
      </trkpt>
      <trkpt lat="46.71635" lon="5.64626">
        <ele>500</ele>
        <time>2020-12-19T13:38:34Z</time>
      </trkpt>
      <trkpt lat="46.71635" lon="5.64619">
        <ele>500</ele>
        <time>2020-12-19T13:38:35Z</time>
      </trkpt>
      <trkpt lat="46.71636" lon="5.64612">
        <ele>499.6</ele>
        <time>2020-12-19T13:38:36Z</time>
      </trkpt>
      <trkpt lat="46.71636" lon="5.64605">
        <ele>499.6</ele>
        <time>2020-12-19T13:38:37Z</time>
      </trkpt>
      <trkpt lat="46.71637" lon="5.64599">
        <ele>499.2</ele>
        <time>2020-12-19T13:38:38Z</time>
      </trkpt>
      <trkpt lat="46.71638" lon="5.64592">
        <ele>499.2</ele>
        <time>2020-12-19T13:38:39Z</time>
      </trkpt>
      <trkpt lat="46.71639" lon="5.64586">
        <ele>499</ele>
        <time>2020-12-19T13:38:40Z</time>
      </trkpt>
      <trkpt lat="46.71639" lon="5.64579">
        <ele>499</ele>
        <time>2020-12-19T13:38:41Z</time>
      </trkpt>
      <trkpt lat="46.7164" lon="5.64573">
        <ele>499</ele>
        <time>2020-12-19T13:38:42Z</time>
      </trkpt>
      <trkpt lat="46.7164" lon="5.64566">
        <ele>498.8</ele>
        <time>2020-12-19T13:38:43Z</time>
      </trkpt>
      <trkpt lat="46.71641" lon="5.64559">
        <ele>498.8</ele>
        <time>2020-12-19T13:38:44Z</time>
      </trkpt>
      <trkpt lat="46.71641" lon="5.64553">
        <ele>498.8</ele>
        <time>2020-12-19T13:38:45Z</time>
      </trkpt>
      <trkpt lat="46.7164" lon="5.64546">
        <ele>498.8</ele>
        <time>2020-12-19T13:38:46Z</time>
      </trkpt>
      <trkpt lat="46.7164" lon="5.6454">
        <ele>498.8</ele>
        <time>2020-12-19T13:38:47Z</time>
      </trkpt>
      <trkpt lat="46.71639" lon="5.64534">
        <ele>498.8</ele>
        <time>2020-12-19T13:38:48Z</time>
      </trkpt>
      <trkpt lat="46.71637" lon="5.64528">
        <ele>498.8</ele>
        <time>2020-12-19T13:38:49Z</time>
      </trkpt>
      <trkpt lat="46.71636" lon="5.64523">
        <ele>498.8</ele>
        <time>2020-12-19T13:38:50Z</time>
      </trkpt>
      <trkpt lat="46.71634" lon="5.64519">
        <ele>498.8</ele>
        <time>2020-12-19T13:38:51Z</time>
      </trkpt>
      <trkpt lat="46.71632" lon="5.64514">
        <ele>498.8</ele>
        <time>2020-12-19T13:38:52Z</time>
      </trkpt>
      <trkpt lat="46.71629" lon="5.6451">
        <ele>498.8</ele>
        <time>2020-12-19T13:38:53Z</time>
      </trkpt>
      <trkpt lat="46.71627" lon="5.64507">
        <ele>498.8</ele>
        <time>2020-12-19T13:38:54Z</time>
      </trkpt>
      <trkpt lat="46.71624" lon="5.64503">
        <ele>498.8</ele>
        <time>2020-12-19T13:38:55Z</time>
      </trkpt>
      <trkpt lat="46.71621" lon="5.645">
        <ele>498.8</ele>
        <time>2020-12-19T13:38:56Z</time>
      </trkpt>
      <trkpt lat="46.71618" lon="5.64496">
        <ele>498.8</ele>
        <time>2020-12-19T13:38:57Z</time>
      </trkpt>
      <trkpt lat="46.71615" lon="5.64493">
        <ele>498.8</ele>
        <time>2020-12-19T13:38:58Z</time>
      </trkpt>
      <trkpt lat="46.71613" lon="5.64491">
        <ele>498.8</ele>
        <time>2020-12-19T13:38:59Z</time>
      </trkpt>
      <trkpt lat="46.7161" lon="5.64489">
        <ele>498.8</ele>
        <time>2020-12-19T13:39:00Z</time>
      </trkpt>
      <trkpt lat="46.71608" lon="5.64486">
        <ele>498.8</ele>
        <time>2020-12-19T13:39:01Z</time>
      </trkpt>
      <trkpt lat="46.71606" lon="5.64483">
        <ele>498.8</ele>
        <time>2020-12-19T13:39:02Z</time>
      </trkpt>
      <trkpt lat="46.71604" lon="5.64481">
        <ele>498.8</ele>
        <time>2020-12-19T13:39:03Z</time>
      </trkpt>
      <trkpt lat="46.71601" lon="5.64478">
        <ele>499.2</ele>
        <time>2020-12-19T13:39:04Z</time>
      </trkpt>
      <trkpt lat="46.71599" lon="5.64476">
        <ele>499.2</ele>
        <time>2020-12-19T13:39:05Z</time>
      </trkpt>
      <trkpt lat="46.71597" lon="5.64474">
        <ele>499.2</ele>
        <time>2020-12-19T13:39:06Z</time>
      </trkpt>
      <trkpt lat="46.71595" lon="5.64471">
        <ele>499.2</ele>
        <time>2020-12-19T13:39:07Z</time>
      </trkpt>
      <trkpt lat="46.71592" lon="5.64469">
        <ele>499.2</ele>
        <time>2020-12-19T13:39:08Z</time>
      </trkpt>
      <trkpt lat="46.7159" lon="5.64467">
        <ele>499.2</ele>
        <time>2020-12-19T13:39:09Z</time>
      </trkpt>
      <trkpt lat="46.71588" lon="5.64464">
        <ele>499.4</ele>
        <time>2020-12-19T13:39:10Z</time>
      </trkpt>
      <trkpt lat="46.71586" lon="5.64462">
        <ele>499.4</ele>
        <time>2020-12-19T13:39:11Z</time>
      </trkpt>
      <trkpt lat="46.71584" lon="5.64459">
        <ele>499.4</ele>
        <time>2020-12-19T13:39:12Z</time>
      </trkpt>
      <trkpt lat="46.71582" lon="5.64456">
        <ele>499.4</ele>
        <time>2020-12-19T13:39:13Z</time>
      </trkpt>
      <trkpt lat="46.7158" lon="5.64453">
        <ele>499.4</ele>
        <time>2020-12-19T13:39:14Z</time>
      </trkpt>
      <trkpt lat="46.71578" lon="5.6445">
        <ele>499.4</ele>
        <time>2020-12-19T13:39:15Z</time>
      </trkpt>
      <trkpt lat="46.71576" lon="5.64447">
        <ele>499.4</ele>
        <time>2020-12-19T13:39:16Z</time>
      </trkpt>
      <trkpt lat="46.71574" lon="5.64444">
        <ele>499.4</ele>
        <time>2020-12-19T13:39:17Z</time>
      </trkpt>
      <trkpt lat="46.71572" lon="5.64441">
        <ele>499.6</ele>
        <time>2020-12-19T13:39:18Z</time>
      </trkpt>
      <trkpt lat="46.71569" lon="5.64439">
        <ele>499.6</ele>
        <time>2020-12-19T13:39:19Z</time>
      </trkpt>
      <trkpt lat="46.71567" lon="5.64436">
        <ele>499.6</ele>
        <time>2020-12-19T13:39:20Z</time>
      </trkpt>
      <trkpt lat="46.71564" lon="5.64434">
        <ele>499.6</ele>
        <time>2020-12-19T13:39:21Z</time>
      </trkpt>
      <trkpt lat="46.71562" lon="5.64432">
        <ele>499.6</ele>
        <time>2020-12-19T13:39:22Z</time>
      </trkpt>
      <trkpt lat="46.71559" lon="5.64429">
        <ele>499.6</ele>
        <time>2020-12-19T13:39:23Z</time>
      </trkpt>
      <trkpt lat="46.71557" lon="5.64427">
        <ele>499.6</ele>
        <time>2020-12-19T13:39:24Z</time>
      </trkpt>
      <trkpt lat="46.71555" lon="5.64424">
        <ele>499.6</ele>
        <time>2020-12-19T13:39:25Z</time>
      </trkpt>
      <trkpt lat="46.71552" lon="5.64422">
        <ele>499.6</ele>
        <time>2020-12-19T13:39:26Z</time>
      </trkpt>
      <trkpt lat="46.7155" lon="5.6442">
        <ele>499.6</ele>
        <time>2020-12-19T13:39:27Z</time>
      </trkpt>
      <trkpt lat="46.71548" lon="5.64418">
        <ele>499.6</ele>
        <time>2020-12-19T13:39:28Z</time>
      </trkpt>
      <trkpt lat="46.71546" lon="5.64416">
        <ele>499.8</ele>
        <time>2020-12-19T13:39:29Z</time>
      </trkpt>
      <trkpt lat="46.71545" lon="5.64414">
        <ele>499.8</ele>
        <time>2020-12-19T13:39:30Z</time>
      </trkpt>
      <trkpt lat="46.71544" lon="5.64412">
        <ele>499.8</ele>
        <time>2020-12-19T13:39:31Z</time>
      </trkpt>
      <trkpt lat="46.71543" lon="5.64411">
        <ele>500</ele>
        <time>2020-12-19T13:39:32Z</time>
      </trkpt>
      <trkpt lat="46.71542" lon="5.64409">
        <ele>500</ele>
        <time>2020-12-19T13:39:33Z</time>
      </trkpt>
      <trkpt lat="46.7154" lon="5.64408">
        <ele>500</ele>
        <time>2020-12-19T13:39:34Z</time>
      </trkpt>
      <trkpt lat="46.71539" lon="5.64407">
        <ele>500</ele>
        <time>2020-12-19T13:39:35Z</time>
      </trkpt>
      <trkpt lat="46.71537" lon="5.64406">
        <ele>500</ele>
        <time>2020-12-19T13:39:36Z</time>
      </trkpt>
      <trkpt lat="46.71535" lon="5.64406">
        <ele>500</ele>
        <time>2020-12-19T13:39:37Z</time>
      </trkpt>
      <trkpt lat="46.71534" lon="5.64405">
        <ele>500</ele>
        <time>2020-12-19T13:39:38Z</time>
      </trkpt>
      <trkpt lat="46.71532" lon="5.64405">
        <ele>500</ele>
        <time>2020-12-19T13:39:39Z</time>
      </trkpt>
      <trkpt lat="46.71531" lon="5.64404">
        <ele>500.2</ele>
        <time>2020-12-19T13:39:40Z</time>
      </trkpt>
      <trkpt lat="46.71529" lon="5.64404">
        <ele>500.2</ele>
        <time>2020-12-19T13:39:41Z</time>
      </trkpt>
      <trkpt lat="46.71527" lon="5.64403">
        <ele>500.2</ele>
        <time>2020-12-19T13:39:42Z</time>
      </trkpt>
      <trkpt lat="46.71526" lon="5.64402">
        <ele>500.2</ele>
        <time>2020-12-19T13:39:43Z</time>
      </trkpt>
      <trkpt lat="46.71524" lon="5.64401">
        <ele>500.2</ele>
        <time>2020-12-19T13:39:44Z</time>
      </trkpt>
      <trkpt lat="46.71522" lon="5.64401">
        <ele>500.2</ele>
        <time>2020-12-19T13:39:45Z</time>
      </trkpt>
      <trkpt lat="46.7152" lon="5.644">
        <ele>500.6</ele>
        <time>2020-12-19T13:39:46Z</time>
      </trkpt>
      <trkpt lat="46.71518" lon="5.64399">
        <ele>500.6</ele>
        <time>2020-12-19T13:39:47Z</time>
      </trkpt>
      <trkpt lat="46.71516" lon="5.64398">
        <ele>500.8</ele>
        <time>2020-12-19T13:39:48Z</time>
      </trkpt>
      <trkpt lat="46.71513" lon="5.64397">
        <ele>500.8</ele>
        <time>2020-12-19T13:39:49Z</time>
      </trkpt>
      <trkpt lat="46.71511" lon="5.64397">
        <ele>501</ele>
        <time>2020-12-19T13:39:50Z</time>
      </trkpt>
      <trkpt lat="46.71509" lon="5.64396">
        <ele>501</ele>
        <time>2020-12-19T13:39:51Z</time>
      </trkpt>
      <trkpt lat="46.71506" lon="5.64396">
        <ele>501.4</ele>
        <time>2020-12-19T13:39:52Z</time>
      </trkpt>
      <trkpt lat="46.71504" lon="5.64396">
        <ele>501.4</ele>
        <time>2020-12-19T13:39:53Z</time>
      </trkpt>
      <trkpt lat="46.71502" lon="5.64395">
        <ele>501.4</ele>
        <time>2020-12-19T13:39:54Z</time>
      </trkpt>
      <trkpt lat="46.71499" lon="5.64395">
        <ele>501.6</ele>
        <time>2020-12-19T13:39:55Z</time>
      </trkpt>
      <trkpt lat="46.71497" lon="5.64395">
        <ele>501.6</ele>
        <time>2020-12-19T13:39:56Z</time>
      </trkpt>
      <trkpt lat="46.71495" lon="5.64394">
        <ele>501.8</ele>
        <time>2020-12-19T13:39:57Z</time>
      </trkpt>
      <trkpt lat="46.71493" lon="5.64394">
        <ele>501.8</ele>
        <time>2020-12-19T13:39:58Z</time>
      </trkpt>
      <trkpt lat="46.71491" lon="5.64394">
        <ele>502</ele>
        <time>2020-12-19T13:39:59Z</time>
      </trkpt>
      <trkpt lat="46.71489" lon="5.64393">
        <ele>502</ele>
        <time>2020-12-19T13:40:00Z</time>
      </trkpt>
      <trkpt lat="46.71488" lon="5.64393">
        <ele>502.4</ele>
        <time>2020-12-19T13:40:01Z</time>
      </trkpt>
      <trkpt lat="46.71486" lon="5.64393">
        <ele>502.4</ele>
        <time>2020-12-19T13:40:02Z</time>
      </trkpt>
      <trkpt lat="46.71484" lon="5.64393">
        <ele>502.4</ele>
        <time>2020-12-19T13:40:03Z</time>
      </trkpt>
      <trkpt lat="46.71482" lon="5.64393">
        <ele>502.6</ele>
        <time>2020-12-19T13:40:04Z</time>
      </trkpt>
      <trkpt lat="46.7148" lon="5.64393">
        <ele>502.6</ele>
        <time>2020-12-19T13:40:05Z</time>
      </trkpt>
      <trkpt lat="46.71478" lon="5.64393">
        <ele>502.6</ele>
        <time>2020-12-19T13:40:06Z</time>
      </trkpt>
      <trkpt lat="46.71476" lon="5.64393">
        <ele>502.6</ele>
        <time>2020-12-19T13:40:07Z</time>
      </trkpt>
      <trkpt lat="46.71474" lon="5.64394">
        <ele>502.6</ele>
        <time>2020-12-19T13:40:08Z</time>
      </trkpt>
      <trkpt lat="46.71473" lon="5.64394">
        <ele>502.6</ele>
        <time>2020-12-19T13:40:09Z</time>
      </trkpt>
      <trkpt lat="46.71471" lon="5.64394">
        <ele>502.6</ele>
        <time>2020-12-19T13:40:10Z</time>
      </trkpt>
      <trkpt lat="46.71469" lon="5.64394">
        <ele>502.6</ele>
        <time>2020-12-19T13:40:11Z</time>
      </trkpt>
      <trkpt lat="46.71467" lon="5.64395">
        <ele>502.6</ele>
        <time>2020-12-19T13:40:12Z</time>
      </trkpt>
      <trkpt lat="46.71465" lon="5.64395">
        <ele>502.8</ele>
        <time>2020-12-19T13:40:13Z</time>
      </trkpt>
      <trkpt lat="46.71463" lon="5.64396">
        <ele>502.8</ele>
        <time>2020-12-19T13:40:14Z</time>
      </trkpt>
      <trkpt lat="46.71461" lon="5.64396">
        <ele>503.2</ele>
        <time>2020-12-19T13:40:15Z</time>
      </trkpt>
      <trkpt lat="46.71459" lon="5.64396">
        <ele>503.2</ele>
        <time>2020-12-19T13:40:16Z</time>
      </trkpt>
      <trkpt lat="46.71457" lon="5.64397">
        <ele>503.4</ele>
        <time>2020-12-19T13:40:17Z</time>
      </trkpt>
      <trkpt lat="46.71456" lon="5.64397">
        <ele>503.4</ele>
        <time>2020-12-19T13:40:18Z</time>
      </trkpt>
      <trkpt lat="46.71454" lon="5.64398">
        <ele>503.4</ele>
        <time>2020-12-19T13:40:19Z</time>
      </trkpt>
      <trkpt lat="46.71452" lon="5.64398">
        <ele>503.4</ele>
        <time>2020-12-19T13:40:20Z</time>
      </trkpt>
      <trkpt lat="46.7145" lon="5.64399">
        <ele>503.4</ele>
        <time>2020-12-19T13:40:21Z</time>
      </trkpt>
      <trkpt lat="46.71448" lon="5.644">
        <ele>503.6</ele>
        <time>2020-12-19T13:40:22Z</time>
      </trkpt>
      <trkpt lat="46.71446" lon="5.644">
        <ele>503.6</ele>
        <time>2020-12-19T13:40:23Z</time>
      </trkpt>
      <trkpt lat="46.71444" lon="5.64401">
        <ele>503.6</ele>
        <time>2020-12-19T13:40:24Z</time>
      </trkpt>
      <trkpt lat="46.71442" lon="5.64402">
        <ele>503.6</ele>
        <time>2020-12-19T13:40:25Z</time>
      </trkpt>
      <trkpt lat="46.7144" lon="5.64403">
        <ele>503.8</ele>
        <time>2020-12-19T13:40:26Z</time>
      </trkpt>
      <trkpt lat="46.71437" lon="5.64404">
        <ele>503.8</ele>
        <time>2020-12-19T13:40:27Z</time>
      </trkpt>
      <trkpt lat="46.71435" lon="5.64405">
        <ele>503.8</ele>
        <time>2020-12-19T13:40:28Z</time>
      </trkpt>
      <trkpt lat="46.71433" lon="5.64406">
        <ele>504</ele>
        <time>2020-12-19T13:40:29Z</time>
      </trkpt>
      <trkpt lat="46.7143" lon="5.64407">
        <ele>504</ele>
        <time>2020-12-19T13:40:30Z</time>
      </trkpt>
      <trkpt lat="46.71428" lon="5.64409">
        <ele>504</ele>
        <time>2020-12-19T13:40:31Z</time>
      </trkpt>
      <trkpt lat="46.71426" lon="5.6441">
        <ele>504</ele>
        <time>2020-12-19T13:40:32Z</time>
      </trkpt>
      <trkpt lat="46.71423" lon="5.64411">
        <ele>504</ele>
        <time>2020-12-19T13:40:33Z</time>
      </trkpt>
      <trkpt lat="46.71421" lon="5.64413">
        <ele>504</ele>
        <time>2020-12-19T13:40:34Z</time>
      </trkpt>
      <trkpt lat="46.71419" lon="5.64414">
        <ele>504</ele>
        <time>2020-12-19T13:40:35Z</time>
      </trkpt>
      <trkpt lat="46.71416" lon="5.64416">
        <ele>504</ele>
        <time>2020-12-19T13:40:36Z</time>
      </trkpt>
      <trkpt lat="46.71414" lon="5.64417">
        <ele>504</ele>
        <time>2020-12-19T13:40:37Z</time>
      </trkpt>
      <trkpt lat="46.71411" lon="5.64419">
        <ele>504</ele>
        <time>2020-12-19T13:40:38Z</time>
      </trkpt>
      <trkpt lat="46.71409" lon="5.6442">
        <ele>504</ele>
        <time>2020-12-19T13:40:39Z</time>
      </trkpt>
      <trkpt lat="46.71407" lon="5.64421">
        <ele>504</ele>
        <time>2020-12-19T13:40:40Z</time>
      </trkpt>
      <trkpt lat="46.71404" lon="5.64423">
        <ele>504</ele>
        <time>2020-12-19T13:40:41Z</time>
      </trkpt>
      <trkpt lat="46.71402" lon="5.64425">
        <ele>504</ele>
        <time>2020-12-19T13:40:42Z</time>
      </trkpt>
      <trkpt lat="46.71399" lon="5.64428">
        <ele>504</ele>
        <time>2020-12-19T13:40:43Z</time>
      </trkpt>
      <trkpt lat="46.71396" lon="5.64429">
        <ele>504</ele>
        <time>2020-12-19T13:40:44Z</time>
      </trkpt>
      <trkpt lat="46.71393" lon="5.64431">
        <ele>504</ele>
        <time>2020-12-19T13:40:45Z</time>
      </trkpt>
      <trkpt lat="46.7139" lon="5.64432">
        <ele>504</ele>
        <time>2020-12-19T13:40:46Z</time>
      </trkpt>
      <trkpt lat="46.71387" lon="5.64433">
        <ele>504</ele>
        <time>2020-12-19T13:40:47Z</time>
      </trkpt>
      <trkpt lat="46.71385" lon="5.64434">
        <ele>504</ele>
        <time>2020-12-19T13:40:48Z</time>
      </trkpt>
      <trkpt lat="46.71382" lon="5.64435">
        <ele>504</ele>
        <time>2020-12-19T13:40:49Z</time>
      </trkpt>
      <trkpt lat="46.71379" lon="5.64436">
        <ele>503.8</ele>
        <time>2020-12-19T13:40:50Z</time>
      </trkpt>
      <trkpt lat="46.71376" lon="5.64437">
        <ele>503.8</ele>
        <time>2020-12-19T13:40:51Z</time>
      </trkpt>
      <trkpt lat="46.71374" lon="5.64438">
        <ele>503.8</ele>
        <time>2020-12-19T13:40:52Z</time>
      </trkpt>
      <trkpt lat="46.71371" lon="5.64439">
        <ele>503.6</ele>
        <time>2020-12-19T13:40:53Z</time>
      </trkpt>
      <trkpt lat="46.71368" lon="5.64441">
        <ele>503.6</ele>
        <time>2020-12-19T13:40:54Z</time>
      </trkpt>
      <trkpt lat="46.71366" lon="5.64443">
        <ele>503.6</ele>
        <time>2020-12-19T13:40:55Z</time>
      </trkpt>
      <trkpt lat="46.71364" lon="5.64446">
        <ele>503.6</ele>
        <time>2020-12-19T13:40:56Z</time>
      </trkpt>
      <trkpt lat="46.71362" lon="5.6445">
        <ele>503.6</ele>
        <time>2020-12-19T13:40:57Z</time>
      </trkpt>
      <trkpt lat="46.71361" lon="5.64455">
        <ele>503.4</ele>
        <time>2020-12-19T13:40:58Z</time>
      </trkpt>
      <trkpt lat="46.71361" lon="5.64459">
        <ele>503.4</ele>
        <time>2020-12-19T13:40:59Z</time>
      </trkpt>
      <trkpt lat="46.7136" lon="5.64464">
        <ele>503</ele>
        <time>2020-12-19T13:41:00Z</time>
      </trkpt>
      <trkpt lat="46.7136" lon="5.64467">
        <ele>503</ele>
        <time>2020-12-19T13:41:01Z</time>
      </trkpt>
      <trkpt lat="46.71359" lon="5.6447">
        <ele>502.8</ele>
        <time>2020-12-19T13:41:02Z</time>
      </trkpt>
      <trkpt lat="46.71359" lon="5.6447">
        <ele>502.8</ele>
        <time>2020-12-19T13:41:03Z</time>
      </trkpt>
    </trkseg>
  </trk>
</gpx>